<?xml version="1.0" encoding="UTF-8"?>
<gpx version="1.1" creator="https://www.youtrack.es" xsi:schemaLocation="http://www.topografix.com/GPX/1/1 http://www.topografix.com/GPX/1/1/gpx.xsd http://www.garmin.com/xmlschemas/GpxExtensions/v3 http://www.garmin.com/xmlschemas/GpxExtensionsv3.xsd http://www.garmin.com/xmlschemas/TrackPointExtension/v1 http://www.garmin.com/xmlschemas/TrackPointExtensionv1.xsd" xmlns:gpxtpx="http://www.garmin.com/xmlschemas/TrackPointExtension/v1" xmlns:gpxx="http://www.garmin.com/xmlschemas/GpxExtensions/v3" xmlns:xsi="http://www.w3.org/2001/XMLSchema-instance">
  <metadata>
    <author>
      <name>Armando Abrego</name>
      <email id="abrego373737" domain="gmail.com"/>
    </author>
    <link href="https://www.youtrack.es">
      <text>YouTrack.es</text>
    </link>
    <time>2026-05-10T18:08:52Z</time>
  </metadata>
  <trk>
    <src>https://www.youtrack.es</src>
    <link href="https://www.youtrack.es/ruta/18084-crater-popocatepetl">
      <text>YouTrack.es</text>
    </link>
    <trkseg>
      <trkpt lat="19.094588" lon="-98.598655">
        <ele>3276.312</ele>
        <time>2020-12-13T06:32:10Z</time>
      </trkpt>
      <trkpt lat="19.094549" lon="-98.598694">
        <ele>3268.532</ele>
        <time>2020-12-13T06:33:01Z</time>
      </trkpt>
      <trkpt lat="19.094549" lon="-98.598694">
        <ele>3268.505</ele>
        <time>2020-12-13T06:33:01Z</time>
      </trkpt>
      <trkpt lat="19.09451" lon="-98.598727">
        <ele>3271.608</ele>
        <time>2020-12-13T06:33:04Z</time>
      </trkpt>
      <trkpt lat="19.094466" lon="-98.598765">
        <ele>3273.517</ele>
        <time>2020-12-13T06:33:07Z</time>
      </trkpt>
      <trkpt lat="19.094429" lon="-98.598804">
        <ele>3272.663</ele>
        <time>2020-12-13T06:33:11Z</time>
      </trkpt>
      <trkpt lat="19.094376" lon="-98.598847">
        <ele>3276.693</ele>
        <time>2020-12-13T06:33:14Z</time>
      </trkpt>
      <trkpt lat="19.094324" lon="-98.59888">
        <ele>3280.644</ele>
        <time>2020-12-13T06:33:17Z</time>
      </trkpt>
      <trkpt lat="19.094283" lon="-98.598906">
        <ele>3284.655</ele>
        <time>2020-12-13T06:33:20Z</time>
      </trkpt>
      <trkpt lat="19.094232" lon="-98.598928">
        <ele>3288.644</ele>
        <time>2020-12-13T06:33:25Z</time>
      </trkpt>
      <trkpt lat="19.094193" lon="-98.598969">
        <ele>3291.340</ele>
        <time>2020-12-13T06:33:28Z</time>
      </trkpt>
      <trkpt lat="19.094154" lon="-98.599004">
        <ele>3290.927</ele>
        <time>2020-12-13T06:33:30Z</time>
      </trkpt>
      <trkpt lat="19.094133" lon="-98.599049">
        <ele>3289.166</ele>
        <time>2020-12-13T06:33:33Z</time>
      </trkpt>
      <trkpt lat="19.094178" lon="-98.599027">
        <ele>3293.129</ele>
        <time>2020-12-13T06:33:38Z</time>
      </trkpt>
      <trkpt lat="19.094219" lon="-98.598983">
        <ele>3297.121</ele>
        <time>2020-12-13T06:33:40Z</time>
      </trkpt>
      <trkpt lat="19.094267" lon="-98.59895">
        <ele>3297.208</ele>
        <time>2020-12-13T06:33:42Z</time>
      </trkpt>
      <trkpt lat="19.094318" lon="-98.598916">
        <ele>3295.372</ele>
        <time>2020-12-13T06:33:44Z</time>
      </trkpt>
      <trkpt lat="19.094369" lon="-98.598879">
        <ele>3292.148</ele>
        <time>2020-12-13T06:33:46Z</time>
      </trkpt>
      <trkpt lat="19.094417" lon="-98.598834">
        <ele>3288.128</ele>
        <time>2020-12-13T06:33:48Z</time>
      </trkpt>
      <trkpt lat="19.094472" lon="-98.598786">
        <ele>3285.839</ele>
        <time>2020-12-13T06:33:50Z</time>
      </trkpt>
      <trkpt lat="19.094529" lon="-98.598754">
        <ele>3283.670</ele>
        <time>2020-12-13T06:33:52Z</time>
      </trkpt>
      <trkpt lat="19.094586" lon="-98.59872">
        <ele>3282.359</ele>
        <time>2020-12-13T06:33:54Z</time>
      </trkpt>
      <trkpt lat="19.094628" lon="-98.5987">
        <ele>3280.315</ele>
        <time>2020-12-13T06:33:56Z</time>
      </trkpt>
      <trkpt lat="19.09468" lon="-98.598717">
        <ele>3278.722</ele>
        <time>2020-12-13T06:34:00Z</time>
      </trkpt>
      <trkpt lat="19.094633" lon="-98.59876">
        <ele>3278.164</ele>
        <time>2020-12-13T06:34:07Z</time>
      </trkpt>
      <trkpt lat="19.094586" lon="-98.598796">
        <ele>3276.206</ele>
        <time>2020-12-13T06:34:10Z</time>
      </trkpt>
      <trkpt lat="19.094543" lon="-98.598827">
        <ele>3275.016</ele>
        <time>2020-12-13T06:34:13Z</time>
      </trkpt>
      <trkpt lat="19.094496" lon="-98.598857">
        <ele>3274.708</ele>
        <time>2020-12-13T06:34:16Z</time>
      </trkpt>
      <trkpt lat="19.09445" lon="-98.59888">
        <ele>3274.932</ele>
        <time>2020-12-13T06:34:19Z</time>
      </trkpt>
      <trkpt lat="19.094416" lon="-98.598919">
        <ele>3275.818</ele>
        <time>2020-12-13T06:34:24Z</time>
      </trkpt>
      <trkpt lat="19.094364" lon="-98.598953">
        <ele>3275.698</ele>
        <time>2020-12-13T06:34:29Z</time>
      </trkpt>
      <trkpt lat="19.094304" lon="-98.598981">
        <ele>3276.799</ele>
        <time>2020-12-13T06:34:32Z</time>
      </trkpt>
      <trkpt lat="19.094249" lon="-98.599016">
        <ele>3276.910</ele>
        <time>2020-12-13T06:34:35Z</time>
      </trkpt>
      <trkpt lat="19.094223" lon="-98.599069">
        <ele>3278.279</ele>
        <time>2020-12-13T06:34:39Z</time>
      </trkpt>
      <trkpt lat="19.094186" lon="-98.599123">
        <ele>3280.275</ele>
        <time>2020-12-13T06:34:44Z</time>
      </trkpt>
      <trkpt lat="19.094161" lon="-98.599166">
        <ele>3281.822</ele>
        <time>2020-12-13T06:34:46Z</time>
      </trkpt>
      <trkpt lat="19.094136" lon="-98.599218">
        <ele>3282.821</ele>
        <time>2020-12-13T06:34:48Z</time>
      </trkpt>
      <trkpt lat="19.094116" lon="-98.599273">
        <ele>3283.441</ele>
        <time>2020-12-13T06:34:50Z</time>
      </trkpt>
      <trkpt lat="19.094101" lon="-98.599327">
        <ele>3284.905</ele>
        <time>2020-12-13T06:34:52Z</time>
      </trkpt>
      <trkpt lat="19.094085" lon="-98.599373">
        <ele>3286.608</ele>
        <time>2020-12-13T06:34:54Z</time>
      </trkpt>
      <trkpt lat="19.094066" lon="-98.59942">
        <ele>3287.298</ele>
        <time>2020-12-13T06:34:56Z</time>
      </trkpt>
      <trkpt lat="19.09404" lon="-98.59947">
        <ele>3287.214</ele>
        <time>2020-12-13T06:34:58Z</time>
      </trkpt>
      <trkpt lat="19.094014" lon="-98.599518">
        <ele>3288.484</ele>
        <time>2020-12-13T06:35:00Z</time>
      </trkpt>
      <trkpt lat="19.093989" lon="-98.599559">
        <ele>3289.515</ele>
        <time>2020-12-13T06:35:02Z</time>
      </trkpt>
      <trkpt lat="19.093952" lon="-98.599605">
        <ele>3291.446</ele>
        <time>2020-12-13T06:35:06Z</time>
      </trkpt>
      <trkpt lat="19.093932" lon="-98.59965">
        <ele>3292.915</ele>
        <time>2020-12-13T06:35:10Z</time>
      </trkpt>
      <trkpt lat="19.093893" lon="-98.599686">
        <ele>3293.491</ele>
        <time>2020-12-13T06:35:18Z</time>
      </trkpt>
      <trkpt lat="19.093888" lon="-98.599736">
        <ele>3294.588</ele>
        <time>2020-12-13T06:35:22Z</time>
      </trkpt>
      <trkpt lat="19.093871" lon="-98.599786">
        <ele>3296.024</ele>
        <time>2020-12-13T06:35:25Z</time>
      </trkpt>
      <trkpt lat="19.09384" lon="-98.599832">
        <ele>3297.704</ele>
        <time>2020-12-13T06:35:28Z</time>
      </trkpt>
      <trkpt lat="19.093803" lon="-98.599873">
        <ele>3299.514</ele>
        <time>2020-12-13T06:35:31Z</time>
      </trkpt>
      <trkpt lat="19.093767" lon="-98.599912">
        <ele>3300.208</ele>
        <time>2020-12-13T06:35:34Z</time>
      </trkpt>
      <trkpt lat="19.09373" lon="-98.599949">
        <ele>3299.878</ele>
        <time>2020-12-13T06:35:37Z</time>
      </trkpt>
      <trkpt lat="19.093688" lon="-98.599993">
        <ele>3299.684</ele>
        <time>2020-12-13T06:35:39Z</time>
      </trkpt>
      <trkpt lat="19.093639" lon="-98.600035">
        <ele>3297.124</ele>
        <time>2020-12-13T06:35:41Z</time>
      </trkpt>
      <trkpt lat="19.093588" lon="-98.600066">
        <ele>3294.825</ele>
        <time>2020-12-13T06:35:43Z</time>
      </trkpt>
      <trkpt lat="19.09353" lon="-98.600092">
        <ele>3293.836</ele>
        <time>2020-12-13T06:35:45Z</time>
      </trkpt>
      <trkpt lat="19.093475" lon="-98.600115">
        <ele>3293.225</ele>
        <time>2020-12-13T06:35:47Z</time>
      </trkpt>
      <trkpt lat="19.093418" lon="-98.600141">
        <ele>3292.821</ele>
        <time>2020-12-13T06:35:49Z</time>
      </trkpt>
      <trkpt lat="19.093362" lon="-98.600167">
        <ele>3293.438</ele>
        <time>2020-12-13T06:35:51Z</time>
      </trkpt>
      <trkpt lat="19.093311" lon="-98.600188">
        <ele>3295.462</ele>
        <time>2020-12-13T06:35:53Z</time>
      </trkpt>
      <trkpt lat="19.093259" lon="-98.600209">
        <ele>3296.283</ele>
        <time>2020-12-13T06:35:55Z</time>
      </trkpt>
      <trkpt lat="19.093203" lon="-98.600232">
        <ele>3297.511</ele>
        <time>2020-12-13T06:35:57Z</time>
      </trkpt>
      <trkpt lat="19.093144" lon="-98.600254">
        <ele>3297.908</ele>
        <time>2020-12-13T06:36:00Z</time>
      </trkpt>
      <trkpt lat="19.093096" lon="-98.600277">
        <ele>3298.982</ele>
        <time>2020-12-13T06:36:05Z</time>
      </trkpt>
      <trkpt lat="19.093049" lon="-98.6003">
        <ele>3295.948</ele>
        <time>2020-12-13T06:36:10Z</time>
      </trkpt>
      <trkpt lat="19.093017" lon="-98.600361">
        <ele>3293.778</ele>
        <time>2020-12-13T06:36:14Z</time>
      </trkpt>
      <trkpt lat="19.093006" lon="-98.600409">
        <ele>3292.849</ele>
        <time>2020-12-13T06:36:16Z</time>
      </trkpt>
      <trkpt lat="19.092993" lon="-98.600479">
        <ele>3293.070</ele>
        <time>2020-12-13T06:36:19Z</time>
      </trkpt>
      <trkpt lat="19.092992" lon="-98.600531">
        <ele>3297.049</ele>
        <time>2020-12-13T06:36:21Z</time>
      </trkpt>
      <trkpt lat="19.092998" lon="-98.600589">
        <ele>3301.095</ele>
        <time>2020-12-13T06:36:24Z</time>
      </trkpt>
      <trkpt lat="19.092987" lon="-98.60064">
        <ele>3305.022</ele>
        <time>2020-12-13T06:36:26Z</time>
      </trkpt>
      <trkpt lat="19.092984" lon="-98.600697">
        <ele>3309.048</ele>
        <time>2020-12-13T06:36:28Z</time>
      </trkpt>
      <trkpt lat="19.092986" lon="-98.600747">
        <ele>3310.761</ele>
        <time>2020-12-13T06:36:32Z</time>
      </trkpt>
      <trkpt lat="19.092963" lon="-98.600799">
        <ele>3308.517</ele>
        <time>2020-12-13T06:36:38Z</time>
      </trkpt>
      <trkpt lat="19.092954" lon="-98.60085">
        <ele>3306.408</ele>
        <time>2020-12-13T06:36:41Z</time>
      </trkpt>
      <trkpt lat="19.092947" lon="-98.600901">
        <ele>3304.330</ele>
        <time>2020-12-13T06:36:43Z</time>
      </trkpt>
      <trkpt lat="19.092934" lon="-98.600952">
        <ele>3302.766</ele>
        <time>2020-12-13T06:36:45Z</time>
      </trkpt>
      <trkpt lat="19.092918" lon="-98.600999">
        <ele>3302.116</ele>
        <time>2020-12-13T06:36:47Z</time>
      </trkpt>
      <trkpt lat="19.092891" lon="-98.60105">
        <ele>3302.697</ele>
        <time>2020-12-13T06:36:49Z</time>
      </trkpt>
      <trkpt lat="19.092864" lon="-98.601097">
        <ele>3303.378</ele>
        <time>2020-12-13T06:36:51Z</time>
      </trkpt>
      <trkpt lat="19.092843" lon="-98.601162">
        <ele>3304.567</ele>
        <time>2020-12-13T06:36:54Z</time>
      </trkpt>
      <trkpt lat="19.092835" lon="-98.601215">
        <ele>3305.223</ele>
        <time>2020-12-13T06:36:56Z</time>
      </trkpt>
      <trkpt lat="19.092828" lon="-98.601272">
        <ele>3304.840</ele>
        <time>2020-12-13T06:36:58Z</time>
      </trkpt>
      <trkpt lat="19.092824" lon="-98.601321">
        <ele>3304.254</ele>
        <time>2020-12-13T06:37:00Z</time>
      </trkpt>
      <trkpt lat="19.092808" lon="-98.601382">
        <ele>3303.456</ele>
        <time>2020-12-13T06:37:03Z</time>
      </trkpt>
      <trkpt lat="19.092769" lon="-98.601431">
        <ele>3302.911</ele>
        <time>2020-12-13T06:37:06Z</time>
      </trkpt>
      <trkpt lat="19.092751" lon="-98.601476">
        <ele>3303.008</ele>
        <time>2020-12-13T06:37:09Z</time>
      </trkpt>
      <trkpt lat="19.092733" lon="-98.601527">
        <ele>3304.771</ele>
        <time>2020-12-13T06:37:14Z</time>
      </trkpt>
      <trkpt lat="19.092735" lon="-98.601587">
        <ele>3305.727</ele>
        <time>2020-12-13T06:37:21Z</time>
      </trkpt>
      <trkpt lat="19.092734" lon="-98.601646">
        <ele>3306.717</ele>
        <time>2020-12-13T06:37:25Z</time>
      </trkpt>
      <trkpt lat="19.092734" lon="-98.601714">
        <ele>3308.578</ele>
        <time>2020-12-13T06:37:29Z</time>
      </trkpt>
      <trkpt lat="19.092743" lon="-98.601776">
        <ele>3310.059</ele>
        <time>2020-12-13T06:37:32Z</time>
      </trkpt>
      <trkpt lat="19.092746" lon="-98.601829">
        <ele>3312.148</ele>
        <time>2020-12-13T06:37:34Z</time>
      </trkpt>
      <trkpt lat="19.092744" lon="-98.601883">
        <ele>3314.664</ele>
        <time>2020-12-13T06:37:36Z</time>
      </trkpt>
      <trkpt lat="19.092735" lon="-98.601933">
        <ele>3316.161</ele>
        <time>2020-12-13T06:37:38Z</time>
      </trkpt>
      <trkpt lat="19.092719" lon="-98.601991">
        <ele>3315.421</ele>
        <time>2020-12-13T06:37:41Z</time>
      </trkpt>
      <trkpt lat="19.09269" lon="-98.602041">
        <ele>3313.441</ele>
        <time>2020-12-13T06:37:46Z</time>
      </trkpt>
      <trkpt lat="19.092652" lon="-98.602076">
        <ele>3310.205</ele>
        <time>2020-12-13T06:37:51Z</time>
      </trkpt>
      <trkpt lat="19.092615" lon="-98.602107">
        <ele>3311.108</ele>
        <time>2020-12-13T06:37:57Z</time>
      </trkpt>
      <trkpt lat="19.092598" lon="-98.602159">
        <ele>3312.488</ele>
        <time>2020-12-13T06:38:01Z</time>
      </trkpt>
      <trkpt lat="19.092573" lon="-98.602212">
        <ele>3314.094</ele>
        <time>2020-12-13T06:38:05Z</time>
      </trkpt>
      <trkpt lat="19.092558" lon="-98.602267">
        <ele>3315.054</ele>
        <time>2020-12-13T06:38:09Z</time>
      </trkpt>
      <trkpt lat="19.092559" lon="-98.602317">
        <ele>3315.615</ele>
        <time>2020-12-13T06:38:12Z</time>
      </trkpt>
      <trkpt lat="19.092553" lon="-98.602366">
        <ele>3317.176</ele>
        <time>2020-12-13T06:38:15Z</time>
      </trkpt>
      <trkpt lat="19.092528" lon="-98.602408">
        <ele>3318.445</ele>
        <time>2020-12-13T06:38:19Z</time>
      </trkpt>
      <trkpt lat="19.09249" lon="-98.602453">
        <ele>3320.041</ele>
        <time>2020-12-13T06:38:23Z</time>
      </trkpt>
      <trkpt lat="19.092465" lon="-98.602497">
        <ele>3320.638</ele>
        <time>2020-12-13T06:38:26Z</time>
      </trkpt>
      <trkpt lat="19.092432" lon="-98.602538">
        <ele>3320.945</ele>
        <time>2020-12-13T06:38:30Z</time>
      </trkpt>
      <trkpt lat="19.09239" lon="-98.602568">
        <ele>3321.147</ele>
        <time>2020-12-13T06:38:34Z</time>
      </trkpt>
      <trkpt lat="19.092358" lon="-98.602635">
        <ele>3322.411</ele>
        <time>2020-12-13T06:38:39Z</time>
      </trkpt>
      <trkpt lat="19.09233" lon="-98.602678">
        <ele>3323.208</ele>
        <time>2020-12-13T06:38:42Z</time>
      </trkpt>
      <trkpt lat="19.092297" lon="-98.602717">
        <ele>3324.170</ele>
        <time>2020-12-13T06:38:46Z</time>
      </trkpt>
      <trkpt lat="19.092245" lon="-98.602727">
        <ele>3320.146</ele>
        <time>2020-12-13T06:39:04Z</time>
      </trkpt>
      <trkpt lat="19.092189" lon="-98.602753">
        <ele>3316.116</ele>
        <time>2020-12-13T06:39:07Z</time>
      </trkpt>
      <trkpt lat="19.092144" lon="-98.602777">
        <ele>3313.427</ele>
        <time>2020-12-13T06:39:09Z</time>
      </trkpt>
      <trkpt lat="19.092099" lon="-98.602803">
        <ele>3313.088</ele>
        <time>2020-12-13T06:39:11Z</time>
      </trkpt>
      <trkpt lat="19.092054" lon="-98.602821">
        <ele>3314.037</ele>
        <time>2020-12-13T06:39:13Z</time>
      </trkpt>
      <trkpt lat="19.091992" lon="-98.60283">
        <ele>3315.453</ele>
        <time>2020-12-13T06:39:16Z</time>
      </trkpt>
      <trkpt lat="19.091946" lon="-98.602809">
        <ele>3317.830</ele>
        <time>2020-12-13T06:39:21Z</time>
      </trkpt>
      <trkpt lat="19.091894" lon="-98.602804">
        <ele>3320.122</ele>
        <time>2020-12-13T06:39:24Z</time>
      </trkpt>
      <trkpt lat="19.091838" lon="-98.602808">
        <ele>3321.962</ele>
        <time>2020-12-13T06:39:28Z</time>
      </trkpt>
      <trkpt lat="19.091791" lon="-98.602822">
        <ele>3323.808</ele>
        <time>2020-12-13T06:39:33Z</time>
      </trkpt>
      <trkpt lat="19.091739" lon="-98.602821">
        <ele>3325.308</ele>
        <time>2020-12-13T06:39:37Z</time>
      </trkpt>
      <trkpt lat="19.09167" lon="-98.602817">
        <ele>3327.088</ele>
        <time>2020-12-13T06:39:40Z</time>
      </trkpt>
      <trkpt lat="19.091604" lon="-98.602807">
        <ele>3327.284</ele>
        <time>2020-12-13T06:39:43Z</time>
      </trkpt>
      <trkpt lat="19.091557" lon="-98.60281">
        <ele>3327.344</ele>
        <time>2020-12-13T06:39:45Z</time>
      </trkpt>
      <trkpt lat="19.091509" lon="-98.602823">
        <ele>3328.625</ele>
        <time>2020-12-13T06:39:47Z</time>
      </trkpt>
      <trkpt lat="19.091448" lon="-98.602846">
        <ele>3328.286</ele>
        <time>2020-12-13T06:39:50Z</time>
      </trkpt>
      <trkpt lat="19.091392" lon="-98.602864">
        <ele>3327.585</ele>
        <time>2020-12-13T06:39:53Z</time>
      </trkpt>
      <trkpt lat="19.09134" lon="-98.602883">
        <ele>3326.741</ele>
        <time>2020-12-13T06:39:56Z</time>
      </trkpt>
      <trkpt lat="19.091294" lon="-98.602902">
        <ele>3327.038</ele>
        <time>2020-12-13T06:39:59Z</time>
      </trkpt>
      <trkpt lat="19.091245" lon="-98.602908">
        <ele>3326.844</ele>
        <time>2020-12-13T06:40:02Z</time>
      </trkpt>
      <trkpt lat="19.091192" lon="-98.602927">
        <ele>3326.705</ele>
        <time>2020-12-13T06:40:05Z</time>
      </trkpt>
      <trkpt lat="19.09116" lon="-98.602968">
        <ele>3326.215</ele>
        <time>2020-12-13T06:40:08Z</time>
      </trkpt>
      <trkpt lat="19.09113" lon="-98.60301">
        <ele>3325.108</ele>
        <time>2020-12-13T06:40:12Z</time>
      </trkpt>
      <trkpt lat="19.091081" lon="-98.603017">
        <ele>3325.620</ele>
        <time>2020-12-13T06:40:18Z</time>
      </trkpt>
      <trkpt lat="19.091024" lon="-98.603027">
        <ele>3325.956</ele>
        <time>2020-12-13T06:40:23Z</time>
      </trkpt>
      <trkpt lat="19.090978" lon="-98.603038">
        <ele>3325.326</ele>
        <time>2020-12-13T06:40:26Z</time>
      </trkpt>
      <trkpt lat="19.09093" lon="-98.603056">
        <ele>3325.397</ele>
        <time>2020-12-13T06:40:29Z</time>
      </trkpt>
      <trkpt lat="19.09088" lon="-98.603075">
        <ele>3325.358</ele>
        <time>2020-12-13T06:40:32Z</time>
      </trkpt>
      <trkpt lat="19.090836" lon="-98.603101">
        <ele>3325.797</ele>
        <time>2020-12-13T06:40:35Z</time>
      </trkpt>
      <trkpt lat="19.090814" lon="-98.603152">
        <ele>3324.333</ele>
        <time>2020-12-13T06:40:41Z</time>
      </trkpt>
      <trkpt lat="19.090776" lon="-98.603183">
        <ele>3325.110</ele>
        <time>2020-12-13T06:40:46Z</time>
      </trkpt>
      <trkpt lat="19.090728" lon="-98.603216">
        <ele>3325.657</ele>
        <time>2020-12-13T06:40:50Z</time>
      </trkpt>
      <trkpt lat="19.090687" lon="-98.603237">
        <ele>3326.300</ele>
        <time>2020-12-13T06:40:53Z</time>
      </trkpt>
      <trkpt lat="19.090638" lon="-98.603266">
        <ele>3327.120</ele>
        <time>2020-12-13T06:40:57Z</time>
      </trkpt>
      <trkpt lat="19.0906" lon="-98.603295">
        <ele>3327.608</ele>
        <time>2020-12-13T06:41:00Z</time>
      </trkpt>
      <trkpt lat="19.090561" lon="-98.603335">
        <ele>3329.161</ele>
        <time>2020-12-13T06:41:03Z</time>
      </trkpt>
      <trkpt lat="19.090521" lon="-98.60338">
        <ele>3330.017</ele>
        <time>2020-12-13T06:41:06Z</time>
      </trkpt>
      <trkpt lat="19.090479" lon="-98.603425">
        <ele>3330.537</ele>
        <time>2020-12-13T06:41:09Z</time>
      </trkpt>
      <trkpt lat="19.090439" lon="-98.603469">
        <ele>3330.868</ele>
        <time>2020-12-13T06:41:12Z</time>
      </trkpt>
      <trkpt lat="19.090393" lon="-98.603511">
        <ele>3331.069</ele>
        <time>2020-12-13T06:41:15Z</time>
      </trkpt>
      <trkpt lat="19.090354" lon="-98.603545">
        <ele>3333.148</ele>
        <time>2020-12-13T06:41:18Z</time>
      </trkpt>
      <trkpt lat="19.090322" lon="-98.603589">
        <ele>3336.874</ele>
        <time>2020-12-13T06:41:21Z</time>
      </trkpt>
      <trkpt lat="19.090287" lon="-98.60364">
        <ele>3338.281</ele>
        <time>2020-12-13T06:41:24Z</time>
      </trkpt>
      <trkpt lat="19.090253" lon="-98.603692">
        <ele>3339.032</ele>
        <time>2020-12-13T06:41:27Z</time>
      </trkpt>
      <trkpt lat="19.090222" lon="-98.603748">
        <ele>3340.392</ele>
        <time>2020-12-13T06:41:30Z</time>
      </trkpt>
      <trkpt lat="19.090193" lon="-98.603793">
        <ele>3341.111</ele>
        <time>2020-12-13T06:41:33Z</time>
      </trkpt>
      <trkpt lat="19.090156" lon="-98.603834">
        <ele>3342.808</ele>
        <time>2020-12-13T06:41:37Z</time>
      </trkpt>
      <trkpt lat="19.090129" lon="-98.603878">
        <ele>3345.449</ele>
        <time>2020-12-13T06:41:42Z</time>
      </trkpt>
      <trkpt lat="19.090097" lon="-98.603922">
        <ele>3347.425</ele>
        <time>2020-12-13T06:41:46Z</time>
      </trkpt>
      <trkpt lat="19.090063" lon="-98.60396">
        <ele>3350.655</ele>
        <time>2020-12-13T06:41:50Z</time>
      </trkpt>
      <trkpt lat="19.090032" lon="-98.604012">
        <ele>3353.396</ele>
        <time>2020-12-13T06:41:54Z</time>
      </trkpt>
      <trkpt lat="19.089995" lon="-98.604053">
        <ele>3354.987</ele>
        <time>2020-12-13T06:41:58Z</time>
      </trkpt>
      <trkpt lat="19.089952" lon="-98.604072">
        <ele>3355.136</ele>
        <time>2020-12-13T06:42:02Z</time>
      </trkpt>
      <trkpt lat="19.089896" lon="-98.604088">
        <ele>3355.272</ele>
        <time>2020-12-13T06:42:06Z</time>
      </trkpt>
      <trkpt lat="19.089848" lon="-98.604105">
        <ele>3355.359</ele>
        <time>2020-12-13T06:42:09Z</time>
      </trkpt>
      <trkpt lat="19.089799" lon="-98.604125">
        <ele>3354.556</ele>
        <time>2020-12-13T06:42:12Z</time>
      </trkpt>
      <trkpt lat="19.089744" lon="-98.604149">
        <ele>3353.659</ele>
        <time>2020-12-13T06:42:15Z</time>
      </trkpt>
      <trkpt lat="19.089688" lon="-98.604182">
        <ele>3353.114</ele>
        <time>2020-12-13T06:42:18Z</time>
      </trkpt>
      <trkpt lat="19.089644" lon="-98.604215">
        <ele>3352.408</ele>
        <time>2020-12-13T06:42:21Z</time>
      </trkpt>
      <trkpt lat="19.089602" lon="-98.604247">
        <ele>3351.241</ele>
        <time>2020-12-13T06:42:24Z</time>
      </trkpt>
      <trkpt lat="19.089566" lon="-98.604284">
        <ele>3351.397</ele>
        <time>2020-12-13T06:42:27Z</time>
      </trkpt>
      <trkpt lat="19.089534" lon="-98.604324">
        <ele>3352.127</ele>
        <time>2020-12-13T06:42:30Z</time>
      </trkpt>
      <trkpt lat="19.089509" lon="-98.604369">
        <ele>3351.848</ele>
        <time>2020-12-13T06:42:33Z</time>
      </trkpt>
      <trkpt lat="19.089483" lon="-98.604413">
        <ele>3351.289</ele>
        <time>2020-12-13T06:42:37Z</time>
      </trkpt>
      <trkpt lat="19.089449" lon="-98.604461">
        <ele>3352.188</ele>
        <time>2020-12-13T06:42:41Z</time>
      </trkpt>
      <trkpt lat="19.089434" lon="-98.604509">
        <ele>3352.254</ele>
        <time>2020-12-13T06:42:45Z</time>
      </trkpt>
      <trkpt lat="19.089411" lon="-98.604551">
        <ele>3351.921</ele>
        <time>2020-12-13T06:42:48Z</time>
      </trkpt>
      <trkpt lat="19.08938" lon="-98.604598">
        <ele>3352.144</ele>
        <time>2020-12-13T06:42:51Z</time>
      </trkpt>
      <trkpt lat="19.089336" lon="-98.604629">
        <ele>3352.605</ele>
        <time>2020-12-13T06:42:54Z</time>
      </trkpt>
      <trkpt lat="19.089284" lon="-98.60466">
        <ele>3351.315</ele>
        <time>2020-12-13T06:42:57Z</time>
      </trkpt>
      <trkpt lat="19.089237" lon="-98.604685">
        <ele>3348.508</ele>
        <time>2020-12-13T06:43:00Z</time>
      </trkpt>
      <trkpt lat="19.089204" lon="-98.604727">
        <ele>3348.020</ele>
        <time>2020-12-13T06:43:04Z</time>
      </trkpt>
      <trkpt lat="19.089182" lon="-98.604769">
        <ele>3347.746</ele>
        <time>2020-12-13T06:43:07Z</time>
      </trkpt>
      <trkpt lat="19.089154" lon="-98.604807">
        <ele>3347.946</ele>
        <time>2020-12-13T06:43:10Z</time>
      </trkpt>
      <trkpt lat="19.089116" lon="-98.604847">
        <ele>3347.267</ele>
        <time>2020-12-13T06:43:14Z</time>
      </trkpt>
      <trkpt lat="19.089072" lon="-98.604864">
        <ele>3346.848</ele>
        <time>2020-12-13T06:43:18Z</time>
      </trkpt>
      <trkpt lat="19.089022" lon="-98.60486">
        <ele>3347.047</ele>
        <time>2020-12-13T06:43:23Z</time>
      </trkpt>
      <trkpt lat="19.088978" lon="-98.604821">
        <ele>3347.543</ele>
        <time>2020-12-13T06:43:28Z</time>
      </trkpt>
      <trkpt lat="19.088957" lon="-98.604765">
        <ele>3347.890</ele>
        <time>2020-12-13T06:43:30Z</time>
      </trkpt>
      <trkpt lat="19.08894" lon="-98.60471">
        <ele>3346.844</ele>
        <time>2020-12-13T06:43:34Z</time>
      </trkpt>
      <trkpt lat="19.088945" lon="-98.604648">
        <ele>3347.005</ele>
        <time>2020-12-13T06:43:37Z</time>
      </trkpt>
      <trkpt lat="19.088949" lon="-98.604588">
        <ele>3348.715</ele>
        <time>2020-12-13T06:43:40Z</time>
      </trkpt>
      <trkpt lat="19.088962" lon="-98.604541">
        <ele>3350.108</ele>
        <time>2020-12-13T06:43:43Z</time>
      </trkpt>
      <trkpt lat="19.089008" lon="-98.604524">
        <ele>3351.420</ele>
        <time>2020-12-13T06:43:49Z</time>
      </trkpt>
      <trkpt lat="19.089035" lon="-98.604477">
        <ele>3351.416</ele>
        <time>2020-12-13T06:43:53Z</time>
      </trkpt>
      <trkpt lat="19.089045" lon="-98.604414">
        <ele>3350.286</ele>
        <time>2020-12-13T06:43:57Z</time>
      </trkpt>
      <trkpt lat="19.089051" lon="-98.604358">
        <ele>3349.537</ele>
        <time>2020-12-13T06:44:00Z</time>
      </trkpt>
      <trkpt lat="19.089055" lon="-98.6043">
        <ele>3347.528</ele>
        <time>2020-12-13T06:44:03Z</time>
      </trkpt>
      <trkpt lat="19.089057" lon="-98.60425">
        <ele>3345.937</ele>
        <time>2020-12-13T06:44:06Z</time>
      </trkpt>
      <trkpt lat="19.089065" lon="-98.60419">
        <ele>3344.153</ele>
        <time>2020-12-13T06:44:10Z</time>
      </trkpt>
      <trkpt lat="19.089068" lon="-98.60413">
        <ele>3343.820</ele>
        <time>2020-12-13T06:44:14Z</time>
      </trkpt>
      <trkpt lat="19.089069" lon="-98.604082">
        <ele>3344.451</ele>
        <time>2020-12-13T06:44:17Z</time>
      </trkpt>
      <trkpt lat="19.089065" lon="-98.604029">
        <ele>3343.201</ele>
        <time>2020-12-13T06:44:21Z</time>
      </trkpt>
      <trkpt lat="19.089067" lon="-98.603979">
        <ele>3340.911</ele>
        <time>2020-12-13T06:44:37Z</time>
      </trkpt>
      <trkpt lat="19.089069" lon="-98.603929">
        <ele>3338.708</ele>
        <time>2020-12-13T06:44:48Z</time>
      </trkpt>
      <trkpt lat="19.089073" lon="-98.603872">
        <ele>3339.061</ele>
        <time>2020-12-13T06:44:56Z</time>
      </trkpt>
      <trkpt lat="19.089065" lon="-98.603813">
        <ele>3340.097</ele>
        <time>2020-12-13T06:44:59Z</time>
      </trkpt>
      <trkpt lat="19.089073" lon="-98.603758">
        <ele>3337.447</ele>
        <time>2020-12-13T06:45:02Z</time>
      </trkpt>
      <trkpt lat="19.089095" lon="-98.603699">
        <ele>3333.458</ele>
        <time>2020-12-13T06:45:05Z</time>
      </trkpt>
      <trkpt lat="19.089096" lon="-98.603613">
        <ele>3330.299</ele>
        <time>2020-12-13T06:45:07Z</time>
      </trkpt>
      <trkpt lat="19.089082" lon="-98.603531">
        <ele>3329.958</ele>
        <time>2020-12-13T06:45:09Z</time>
      </trkpt>
      <trkpt lat="19.089061" lon="-98.603467">
        <ele>3329.354</ele>
        <time>2020-12-13T06:45:11Z</time>
      </trkpt>
      <trkpt lat="19.089047" lon="-98.603407">
        <ele>3328.931</ele>
        <time>2020-12-13T06:45:13Z</time>
      </trkpt>
      <trkpt lat="19.089041" lon="-98.603354">
        <ele>3328.622</ele>
        <time>2020-12-13T06:45:15Z</time>
      </trkpt>
      <trkpt lat="19.089041" lon="-98.603354">
        <ele>3328.662</ele>
        <time>2020-12-13T06:45:15Z</time>
      </trkpt>
      <trkpt lat="19.089031" lon="-98.603288">
        <ele>3328.508</ele>
        <time>2020-12-13T06:45:17Z</time>
      </trkpt>
      <trkpt lat="19.08902" lon="-98.603225">
        <ele>3329.108</ele>
        <time>2020-12-13T06:45:19Z</time>
      </trkpt>
      <trkpt lat="19.08902" lon="-98.603225">
        <ele>3329.118</ele>
        <time>2020-12-13T06:45:19Z</time>
      </trkpt>
      <trkpt lat="19.089016" lon="-98.603163">
        <ele>3328.494</ele>
        <time>2020-12-13T06:45:22Z</time>
      </trkpt>
      <trkpt lat="19.089021" lon="-98.60311">
        <ele>3328.084</ele>
        <time>2020-12-13T06:45:25Z</time>
      </trkpt>
      <trkpt lat="19.089032" lon="-98.603051">
        <ele>3327.025</ele>
        <time>2020-12-13T06:45:29Z</time>
      </trkpt>
      <trkpt lat="19.089043" lon="-98.602987">
        <ele>3327.276</ele>
        <time>2020-12-13T06:45:33Z</time>
      </trkpt>
      <trkpt lat="19.089037" lon="-98.602937">
        <ele>3326.995</ele>
        <time>2020-12-13T06:45:36Z</time>
      </trkpt>
      <trkpt lat="19.089026" lon="-98.602884">
        <ele>3326.761</ele>
        <time>2020-12-13T06:45:40Z</time>
      </trkpt>
      <trkpt lat="19.089031" lon="-98.602826">
        <ele>3326.648</ele>
        <time>2020-12-13T06:45:46Z</time>
      </trkpt>
      <trkpt lat="19.089018" lon="-98.602772">
        <ele>3326.584</ele>
        <time>2020-12-13T06:45:50Z</time>
      </trkpt>
      <trkpt lat="19.089022" lon="-98.602716">
        <ele>3326.907</ele>
        <time>2020-12-13T06:45:54Z</time>
      </trkpt>
      <trkpt lat="19.089047" lon="-98.602667">
        <ele>3327.117</ele>
        <time>2020-12-13T06:45:58Z</time>
      </trkpt>
      <trkpt lat="19.08907" lon="-98.602623">
        <ele>3326.408</ele>
        <time>2020-12-13T06:46:02Z</time>
      </trkpt>
      <trkpt lat="19.089078" lon="-98.602561">
        <ele>3326.414</ele>
        <time>2020-12-13T06:46:06Z</time>
      </trkpt>
      <trkpt lat="19.089088" lon="-98.6025">
        <ele>3326.070</ele>
        <time>2020-12-13T06:46:10Z</time>
      </trkpt>
      <trkpt lat="19.089109" lon="-98.602446">
        <ele>3326.210</ele>
        <time>2020-12-13T06:46:14Z</time>
      </trkpt>
      <trkpt lat="19.08913" lon="-98.602391">
        <ele>3326.791</ele>
        <time>2020-12-13T06:46:18Z</time>
      </trkpt>
      <trkpt lat="19.089142" lon="-98.602341">
        <ele>3327.092</ele>
        <time>2020-12-13T06:46:22Z</time>
      </trkpt>
      <trkpt lat="19.089138" lon="-98.602288">
        <ele>3327.641</ele>
        <time>2020-12-13T06:46:26Z</time>
      </trkpt>
      <trkpt lat="19.089125" lon="-98.602238">
        <ele>3327.127</ele>
        <time>2020-12-13T06:46:31Z</time>
      </trkpt>
      <trkpt lat="19.089109" lon="-98.60218">
        <ele>3327.694</ele>
        <time>2020-12-13T06:46:35Z</time>
      </trkpt>
      <trkpt lat="19.089098" lon="-98.602134">
        <ele>3327.941</ele>
        <time>2020-12-13T06:46:38Z</time>
      </trkpt>
      <trkpt lat="19.089086" lon="-98.60208">
        <ele>3329.381</ele>
        <time>2020-12-13T06:46:41Z</time>
      </trkpt>
      <trkpt lat="19.089076" lon="-98.602016">
        <ele>3329.309</ele>
        <time>2020-12-13T06:46:46Z</time>
      </trkpt>
      <trkpt lat="19.089098" lon="-98.601962">
        <ele>3328.508</ele>
        <time>2020-12-13T06:46:49Z</time>
      </trkpt>
      <trkpt lat="19.08913" lon="-98.601917">
        <ele>3327.650</ele>
        <time>2020-12-13T06:46:52Z</time>
      </trkpt>
      <trkpt lat="19.089135" lon="-98.601868">
        <ele>3325.516</ele>
        <time>2020-12-13T06:46:55Z</time>
      </trkpt>
      <trkpt lat="19.089117" lon="-98.60181">
        <ele>3324.666</ele>
        <time>2020-12-13T06:46:59Z</time>
      </trkpt>
      <trkpt lat="19.089097" lon="-98.601753">
        <ele>3325.377</ele>
        <time>2020-12-13T06:47:01Z</time>
      </trkpt>
      <trkpt lat="19.089097" lon="-98.601698">
        <ele>3326.118</ele>
        <time>2020-12-13T06:47:04Z</time>
      </trkpt>
      <trkpt lat="19.089111" lon="-98.601648">
        <ele>3326.627</ele>
        <time>2020-12-13T06:47:07Z</time>
      </trkpt>
      <trkpt lat="19.089131" lon="-98.601604">
        <ele>3327.383</ele>
        <time>2020-12-13T06:47:10Z</time>
      </trkpt>
      <trkpt lat="19.089151" lon="-98.601553">
        <ele>3328.120</ele>
        <time>2020-12-13T06:47:14Z</time>
      </trkpt>
      <trkpt lat="19.089171" lon="-98.601497">
        <ele>3329.418</ele>
        <time>2020-12-13T06:47:18Z</time>
      </trkpt>
      <trkpt lat="19.08918" lon="-98.601449">
        <ele>3329.098</ele>
        <time>2020-12-13T06:47:21Z</time>
      </trkpt>
      <trkpt lat="19.08918" lon="-98.601401">
        <ele>3328.717</ele>
        <time>2020-12-13T06:47:24Z</time>
      </trkpt>
      <trkpt lat="19.089172" lon="-98.601339">
        <ele>3327.708</ele>
        <time>2020-12-13T06:47:28Z</time>
      </trkpt>
      <trkpt lat="19.089168" lon="-98.601288">
        <ele>3327.177</ele>
        <time>2020-12-13T06:47:31Z</time>
      </trkpt>
      <trkpt lat="19.089167" lon="-98.601235">
        <ele>3326.853</ele>
        <time>2020-12-13T06:47:34Z</time>
      </trkpt>
      <trkpt lat="19.089156" lon="-98.601178">
        <ele>3327.893</ele>
        <time>2020-12-13T06:47:37Z</time>
      </trkpt>
      <trkpt lat="19.089146" lon="-98.601116">
        <ele>3328.054</ele>
        <time>2020-12-13T06:47:42Z</time>
      </trkpt>
      <trkpt lat="19.089133" lon="-98.601066">
        <ele>3328.935</ele>
        <time>2020-12-13T06:47:44Z</time>
      </trkpt>
      <trkpt lat="19.089115" lon="-98.601014">
        <ele>3329.514</ele>
        <time>2020-12-13T06:47:47Z</time>
      </trkpt>
      <trkpt lat="19.089096" lon="-98.600966">
        <ele>3329.010</ele>
        <time>2020-12-13T06:47:50Z</time>
      </trkpt>
      <trkpt lat="19.089072" lon="-98.600917">
        <ele>3328.347</ele>
        <time>2020-12-13T06:47:54Z</time>
      </trkpt>
      <trkpt lat="19.089064" lon="-98.600863">
        <ele>3327.581</ele>
        <time>2020-12-13T06:47:59Z</time>
      </trkpt>
      <trkpt lat="19.089067" lon="-98.600815">
        <ele>3327.461</ele>
        <time>2020-12-13T06:48:03Z</time>
      </trkpt>
      <trkpt lat="19.089067" lon="-98.600765">
        <ele>3328.517</ele>
        <time>2020-12-13T06:48:06Z</time>
      </trkpt>
      <trkpt lat="19.089064" lon="-98.600696">
        <ele>3330.008</ele>
        <time>2020-12-13T06:48:09Z</time>
      </trkpt>
      <trkpt lat="19.089059" lon="-98.600645">
        <ele>3330.194</ele>
        <time>2020-12-13T06:48:11Z</time>
      </trkpt>
      <trkpt lat="19.089056" lon="-98.600594">
        <ele>3334.180</ele>
        <time>2020-12-13T06:48:13Z</time>
      </trkpt>
      <trkpt lat="19.089056" lon="-98.600525">
        <ele>3338.140</ele>
        <time>2020-12-13T06:48:16Z</time>
      </trkpt>
      <trkpt lat="19.089058" lon="-98.600466">
        <ele>3339.821</ele>
        <time>2020-12-13T06:48:19Z</time>
      </trkpt>
      <trkpt lat="19.089064" lon="-98.600417">
        <ele>3343.822</ele>
        <time>2020-12-13T06:48:22Z</time>
      </trkpt>
      <trkpt lat="19.089063" lon="-98.600367">
        <ele>3342.471</ele>
        <time>2020-12-13T06:48:25Z</time>
      </trkpt>
      <trkpt lat="19.089068" lon="-98.600313">
        <ele>3339.697</ele>
        <time>2020-12-13T06:48:29Z</time>
      </trkpt>
      <trkpt lat="19.089065" lon="-98.600261">
        <ele>3336.764</ele>
        <time>2020-12-13T06:48:33Z</time>
      </trkpt>
      <trkpt lat="19.089059" lon="-98.600212">
        <ele>3335.026</ele>
        <time>2020-12-13T06:48:36Z</time>
      </trkpt>
      <trkpt lat="19.089047" lon="-98.600146">
        <ele>3333.647</ele>
        <time>2020-12-13T06:48:39Z</time>
      </trkpt>
      <trkpt lat="19.089044" lon="-98.600092">
        <ele>3331.911</ele>
        <time>2020-12-13T06:48:42Z</time>
      </trkpt>
      <trkpt lat="19.089044" lon="-98.600038">
        <ele>3330.908</ele>
        <time>2020-12-13T06:48:46Z</time>
      </trkpt>
      <trkpt lat="19.089043" lon="-98.599975">
        <ele>3331.968</ele>
        <time>2020-12-13T06:48:50Z</time>
      </trkpt>
      <trkpt lat="19.089038" lon="-98.599923">
        <ele>3333.354</ele>
        <time>2020-12-13T06:48:53Z</time>
      </trkpt>
      <trkpt lat="19.089029" lon="-98.599876">
        <ele>3333.724</ele>
        <time>2020-12-13T06:48:56Z</time>
      </trkpt>
      <trkpt lat="19.08901" lon="-98.599819">
        <ele>3333.255</ele>
        <time>2020-12-13T06:49:00Z</time>
      </trkpt>
      <trkpt lat="19.088977" lon="-98.599772">
        <ele>3332.196</ele>
        <time>2020-12-13T06:49:04Z</time>
      </trkpt>
      <trkpt lat="19.088981" lon="-98.599718">
        <ele>3331.825</ele>
        <time>2020-12-13T06:49:08Z</time>
      </trkpt>
      <trkpt lat="19.088994" lon="-98.59966">
        <ele>3331.241</ele>
        <time>2020-12-13T06:49:12Z</time>
      </trkpt>
      <trkpt lat="19.089012" lon="-98.599608">
        <ele>3328.578</ele>
        <time>2020-12-13T06:49:16Z</time>
      </trkpt>
      <trkpt lat="19.089015" lon="-98.59956">
        <ele>3327.395</ele>
        <time>2020-12-13T06:49:19Z</time>
      </trkpt>
      <trkpt lat="19.089002" lon="-98.599498">
        <ele>3327.049</ele>
        <time>2020-12-13T06:49:22Z</time>
      </trkpt>
      <trkpt lat="19.088973" lon="-98.599439">
        <ele>3326.423</ele>
        <time>2020-12-13T06:49:25Z</time>
      </trkpt>
      <trkpt lat="19.088939" lon="-98.599391">
        <ele>3325.608</ele>
        <time>2020-12-13T06:49:28Z</time>
      </trkpt>
      <trkpt lat="19.088912" lon="-98.599346">
        <ele>3325.195</ele>
        <time>2020-12-13T06:49:31Z</time>
      </trkpt>
      <trkpt lat="19.088898" lon="-98.599287">
        <ele>3325.641</ele>
        <time>2020-12-13T06:49:35Z</time>
      </trkpt>
      <trkpt lat="19.088883" lon="-98.599228">
        <ele>3325.571</ele>
        <time>2020-12-13T06:49:39Z</time>
      </trkpt>
      <trkpt lat="19.088874" lon="-98.59917">
        <ele>3325.062</ele>
        <time>2020-12-13T06:49:42Z</time>
      </trkpt>
      <trkpt lat="19.088866" lon="-98.599118">
        <ele>3324.723</ele>
        <time>2020-12-13T06:49:45Z</time>
      </trkpt>
      <trkpt lat="19.088864" lon="-98.59907">
        <ele>3325.392</ele>
        <time>2020-12-13T06:49:49Z</time>
      </trkpt>
      <trkpt lat="19.088877" lon="-98.599011">
        <ele>3326.568</ele>
        <time>2020-12-13T06:49:54Z</time>
      </trkpt>
      <trkpt lat="19.088889" lon="-98.59896">
        <ele>3326.875</ele>
        <time>2020-12-13T06:49:57Z</time>
      </trkpt>
      <trkpt lat="19.088896" lon="-98.598909">
        <ele>3326.289</ele>
        <time>2020-12-13T06:50:00Z</time>
      </trkpt>
      <trkpt lat="19.088897" lon="-98.598847">
        <ele>3325.806</ele>
        <time>2020-12-13T06:50:04Z</time>
      </trkpt>
      <trkpt lat="19.088873" lon="-98.598793">
        <ele>3325.226</ele>
        <time>2020-12-13T06:50:08Z</time>
      </trkpt>
      <trkpt lat="19.08885" lon="-98.598749">
        <ele>3324.808</ele>
        <time>2020-12-13T06:50:11Z</time>
      </trkpt>
      <trkpt lat="19.088829" lon="-98.598704">
        <ele>3325.054</ele>
        <time>2020-12-13T06:50:14Z</time>
      </trkpt>
      <trkpt lat="19.088812" lon="-98.598646">
        <ele>3324.360</ele>
        <time>2020-12-13T06:50:18Z</time>
      </trkpt>
      <trkpt lat="19.088796" lon="-98.598591">
        <ele>3323.540</ele>
        <time>2020-12-13T06:50:22Z</time>
      </trkpt>
      <trkpt lat="19.088785" lon="-98.598532">
        <ele>3323.481</ele>
        <time>2020-12-13T06:50:25Z</time>
      </trkpt>
      <trkpt lat="19.088773" lon="-98.598476">
        <ele>3322.932</ele>
        <time>2020-12-13T06:50:28Z</time>
      </trkpt>
      <trkpt lat="19.088762" lon="-98.598419">
        <ele>3322.261</ele>
        <time>2020-12-13T06:50:31Z</time>
      </trkpt>
      <trkpt lat="19.088749" lon="-98.598372">
        <ele>3321.827</ele>
        <time>2020-12-13T06:50:34Z</time>
      </trkpt>
      <trkpt lat="19.088742" lon="-98.598322">
        <ele>3321.614</ele>
        <time>2020-12-13T06:50:37Z</time>
      </trkpt>
      <trkpt lat="19.088734" lon="-98.598265">
        <ele>3323.178</ele>
        <time>2020-12-13T06:50:41Z</time>
      </trkpt>
      <trkpt lat="19.088726" lon="-98.598207">
        <ele>3324.033</ele>
        <time>2020-12-13T06:50:45Z</time>
      </trkpt>
      <trkpt lat="19.088713" lon="-98.598153">
        <ele>3323.726</ele>
        <time>2020-12-13T06:50:49Z</time>
      </trkpt>
      <trkpt lat="19.088696" lon="-98.598103">
        <ele>3323.508</ele>
        <time>2020-12-13T06:50:53Z</time>
      </trkpt>
      <trkpt lat="19.088674" lon="-98.598054">
        <ele>3323.493</ele>
        <time>2020-12-13T06:50:57Z</time>
      </trkpt>
      <trkpt lat="19.088655" lon="-98.59801">
        <ele>3323.359</ele>
        <time>2020-12-13T06:51:01Z</time>
      </trkpt>
      <trkpt lat="19.08863" lon="-98.597962">
        <ele>3321.719</ele>
        <time>2020-12-13T06:51:05Z</time>
      </trkpt>
      <trkpt lat="19.088606" lon="-98.59792">
        <ele>3319.550</ele>
        <time>2020-12-13T06:51:08Z</time>
      </trkpt>
      <trkpt lat="19.088582" lon="-98.597875">
        <ele>3318.221</ele>
        <time>2020-12-13T06:51:11Z</time>
      </trkpt>
      <trkpt lat="19.088562" lon="-98.597832">
        <ele>3317.430</ele>
        <time>2020-12-13T06:51:14Z</time>
      </trkpt>
      <trkpt lat="19.088543" lon="-98.597787">
        <ele>3317.386</ele>
        <time>2020-12-13T06:51:17Z</time>
      </trkpt>
      <trkpt lat="19.088516" lon="-98.597742">
        <ele>3318.173</ele>
        <time>2020-12-13T06:51:21Z</time>
      </trkpt>
      <trkpt lat="19.088486" lon="-98.597695">
        <ele>3318.627</ele>
        <time>2020-12-13T06:51:25Z</time>
      </trkpt>
      <trkpt lat="19.088468" lon="-98.597649">
        <ele>3321.068</ele>
        <time>2020-12-13T06:51:28Z</time>
      </trkpt>
      <trkpt lat="19.088468" lon="-98.597649">
        <ele>3321.014</ele>
        <time>2020-12-13T06:51:28Z</time>
      </trkpt>
      <trkpt lat="19.088449" lon="-98.597605">
        <ele>3322.708</ele>
        <time>2020-12-13T06:51:32Z</time>
      </trkpt>
      <trkpt lat="19.088429" lon="-98.597552">
        <ele>3322.518</ele>
        <time>2020-12-13T06:51:36Z</time>
      </trkpt>
      <trkpt lat="19.088413" lon="-98.597505">
        <ele>3323.684</ele>
        <time>2020-12-13T06:51:39Z</time>
      </trkpt>
      <trkpt lat="19.088389" lon="-98.597451">
        <ele>3323.514</ele>
        <time>2020-12-13T06:51:43Z</time>
      </trkpt>
      <trkpt lat="19.088349" lon="-98.597413">
        <ele>3321.895</ele>
        <time>2020-12-13T06:51:48Z</time>
      </trkpt>
      <trkpt lat="19.08831" lon="-98.597387">
        <ele>3320.426</ele>
        <time>2020-12-13T06:51:52Z</time>
      </trkpt>
      <trkpt lat="19.088265" lon="-98.597354">
        <ele>3319.235</ele>
        <time>2020-12-13T06:51:56Z</time>
      </trkpt>
      <trkpt lat="19.088226" lon="-98.597314">
        <ele>3318.531</ele>
        <time>2020-12-13T06:51:59Z</time>
      </trkpt>
      <trkpt lat="19.0882" lon="-98.597269">
        <ele>3318.928</ele>
        <time>2020-12-13T06:52:02Z</time>
      </trkpt>
      <trkpt lat="19.088189" lon="-98.597219">
        <ele>3318.372</ele>
        <time>2020-12-13T06:52:06Z</time>
      </trkpt>
      <trkpt lat="19.088163" lon="-98.59717">
        <ele>3317.913</ele>
        <time>2020-12-13T06:52:10Z</time>
      </trkpt>
      <trkpt lat="19.08813" lon="-98.597133">
        <ele>3316.914</ele>
        <time>2020-12-13T06:52:15Z</time>
      </trkpt>
      <trkpt lat="19.088095" lon="-98.597097">
        <ele>3315.508</ele>
        <time>2020-12-13T06:52:19Z</time>
      </trkpt>
      <trkpt lat="19.088058" lon="-98.597062">
        <ele>3313.983</ele>
        <time>2020-12-13T06:52:22Z</time>
      </trkpt>
      <trkpt lat="19.088008" lon="-98.597033">
        <ele>3313.739</ele>
        <time>2020-12-13T06:52:25Z</time>
      </trkpt>
      <trkpt lat="19.087956" lon="-98.596999">
        <ele>3313.629</ele>
        <time>2020-12-13T06:52:28Z</time>
      </trkpt>
      <trkpt lat="19.087909" lon="-98.596959">
        <ele>3313.180</ele>
        <time>2020-12-13T06:52:31Z</time>
      </trkpt>
      <trkpt lat="19.087871" lon="-98.596924">
        <ele>3311.631</ele>
        <time>2020-12-13T06:52:34Z</time>
      </trkpt>
      <trkpt lat="19.087831" lon="-98.596891">
        <ele>3311.110</ele>
        <time>2020-12-13T06:52:38Z</time>
      </trkpt>
      <trkpt lat="19.087789" lon="-98.596864">
        <ele>3310.016</ele>
        <time>2020-12-13T06:52:43Z</time>
      </trkpt>
      <trkpt lat="19.087734" lon="-98.596844">
        <ele>3308.193</ele>
        <time>2020-12-13T06:52:47Z</time>
      </trkpt>
      <trkpt lat="19.087691" lon="-98.596826">
        <ele>3307.474</ele>
        <time>2020-12-13T06:52:50Z</time>
      </trkpt>
      <trkpt lat="19.087653" lon="-98.596798">
        <ele>3306.656</ele>
        <time>2020-12-13T06:52:54Z</time>
      </trkpt>
      <trkpt lat="19.087618" lon="-98.596764">
        <ele>3306.921</ele>
        <time>2020-12-13T06:52:58Z</time>
      </trkpt>
      <trkpt lat="19.087572" lon="-98.596729">
        <ele>3307.108</ele>
        <time>2020-12-13T06:53:02Z</time>
      </trkpt>
      <trkpt lat="19.087525" lon="-98.596712">
        <ele>3307.243</ele>
        <time>2020-12-13T06:53:05Z</time>
      </trkpt>
      <trkpt lat="19.087474" lon="-98.596709">
        <ele>3307.799</ele>
        <time>2020-12-13T06:53:08Z</time>
      </trkpt>
      <trkpt lat="19.087418" lon="-98.596706">
        <ele>3308.049</ele>
        <time>2020-12-13T06:53:12Z</time>
      </trkpt>
      <trkpt lat="19.087372" lon="-98.59669">
        <ele>3307.460</ele>
        <time>2020-12-13T06:53:15Z</time>
      </trkpt>
      <trkpt lat="19.08733" lon="-98.596671">
        <ele>3307.071</ele>
        <time>2020-12-13T06:53:18Z</time>
      </trkpt>
      <trkpt lat="19.087292" lon="-98.596642">
        <ele>3307.250</ele>
        <time>2020-12-13T06:53:21Z</time>
      </trkpt>
      <trkpt lat="19.087251" lon="-98.596614">
        <ele>3307.376</ele>
        <time>2020-12-13T06:53:24Z</time>
      </trkpt>
      <trkpt lat="19.08721" lon="-98.596592">
        <ele>3308.263</ele>
        <time>2020-12-13T06:53:27Z</time>
      </trkpt>
      <trkpt lat="19.087165" lon="-98.59658">
        <ele>3306.764</ele>
        <time>2020-12-13T06:53:31Z</time>
      </trkpt>
      <trkpt lat="19.087121" lon="-98.596549">
        <ele>3307.406</ele>
        <time>2020-12-13T06:53:35Z</time>
      </trkpt>
      <trkpt lat="19.087068" lon="-98.596521">
        <ele>3306.616</ele>
        <time>2020-12-13T06:53:39Z</time>
      </trkpt>
      <trkpt lat="19.087021" lon="-98.596513">
        <ele>3305.308</ele>
        <time>2020-12-13T06:53:42Z</time>
      </trkpt>
      <trkpt lat="19.086979" lon="-98.596494">
        <ele>3302.542</ele>
        <time>2020-12-13T06:53:45Z</time>
      </trkpt>
      <trkpt lat="19.086924" lon="-98.596483">
        <ele>3301.658</ele>
        <time>2020-12-13T06:53:49Z</time>
      </trkpt>
      <trkpt lat="19.086874" lon="-98.596481">
        <ele>3302.388</ele>
        <time>2020-12-13T06:53:53Z</time>
      </trkpt>
      <trkpt lat="19.086829" lon="-98.596472">
        <ele>3302.749</ele>
        <time>2020-12-13T06:53:57Z</time>
      </trkpt>
      <trkpt lat="19.086785" lon="-98.596438">
        <ele>3301.710</ele>
        <time>2020-12-13T06:54:00Z</time>
      </trkpt>
      <trkpt lat="19.086742" lon="-98.596425">
        <ele>3301.139</ele>
        <time>2020-12-13T06:54:03Z</time>
      </trkpt>
      <trkpt lat="19.086689" lon="-98.596423">
        <ele>3300.845</ele>
        <time>2020-12-13T06:54:07Z</time>
      </trkpt>
      <trkpt lat="19.086631" lon="-98.596411">
        <ele>3300.652</ele>
        <time>2020-12-13T06:54:11Z</time>
      </trkpt>
      <trkpt lat="19.086575" lon="-98.596392">
        <ele>3299.712</ele>
        <time>2020-12-13T06:54:15Z</time>
      </trkpt>
      <trkpt lat="19.08652" lon="-98.596375">
        <ele>3298.332</ele>
        <time>2020-12-13T06:54:19Z</time>
      </trkpt>
      <trkpt lat="19.086465" lon="-98.596354">
        <ele>3297.505</ele>
        <time>2020-12-13T06:54:23Z</time>
      </trkpt>
      <trkpt lat="19.086415" lon="-98.59636">
        <ele>3297.008</ele>
        <time>2020-12-13T06:54:27Z</time>
      </trkpt>
      <trkpt lat="19.086366" lon="-98.596372">
        <ele>3296.737</ele>
        <time>2020-12-13T06:54:32Z</time>
      </trkpt>
      <trkpt lat="19.086325" lon="-98.596391">
        <ele>3295.713</ele>
        <time>2020-12-13T06:54:36Z</time>
      </trkpt>
      <trkpt lat="19.086281" lon="-98.596412">
        <ele>3295.183</ele>
        <time>2020-12-13T06:54:40Z</time>
      </trkpt>
      <trkpt lat="19.086236" lon="-98.59644">
        <ele>3295.114</ele>
        <time>2020-12-13T06:54:44Z</time>
      </trkpt>
      <trkpt lat="19.086182" lon="-98.596487">
        <ele>3296.395</ele>
        <time>2020-12-13T06:54:48Z</time>
      </trkpt>
      <trkpt lat="19.086144" lon="-98.596515">
        <ele>3297.844</ele>
        <time>2020-12-13T06:54:51Z</time>
      </trkpt>
      <trkpt lat="19.086105" lon="-98.596554">
        <ele>3298.760</ele>
        <time>2020-12-13T06:54:54Z</time>
      </trkpt>
      <trkpt lat="19.08606" lon="-98.596579">
        <ele>3298.947</ele>
        <time>2020-12-13T06:54:58Z</time>
      </trkpt>
      <trkpt lat="19.086009" lon="-98.596586">
        <ele>3298.658</ele>
        <time>2020-12-13T06:55:02Z</time>
      </trkpt>
      <trkpt lat="19.085967" lon="-98.596609">
        <ele>3298.052</ele>
        <time>2020-12-13T06:55:05Z</time>
      </trkpt>
      <trkpt lat="19.085924" lon="-98.59664">
        <ele>3298.417</ele>
        <time>2020-12-13T06:55:08Z</time>
      </trkpt>
      <trkpt lat="19.085878" lon="-98.596667">
        <ele>3298.708</ele>
        <time>2020-12-13T06:55:12Z</time>
      </trkpt>
      <trkpt lat="19.085824" lon="-98.596662">
        <ele>3299.351</ele>
        <time>2020-12-13T06:55:16Z</time>
      </trkpt>
      <trkpt lat="19.085776" lon="-98.596655">
        <ele>3300.067</ele>
        <time>2020-12-13T06:55:20Z</time>
      </trkpt>
      <trkpt lat="19.08572" lon="-98.596661">
        <ele>3299.617</ele>
        <time>2020-12-13T06:55:24Z</time>
      </trkpt>
      <trkpt lat="19.085664" lon="-98.596669">
        <ele>3297.428</ele>
        <time>2020-12-13T06:55:27Z</time>
      </trkpt>
      <trkpt lat="19.085607" lon="-98.596694">
        <ele>3296.539</ele>
        <time>2020-12-13T06:55:30Z</time>
      </trkpt>
      <trkpt lat="19.085567" lon="-98.596754">
        <ele>3295.558</ele>
        <time>2020-12-13T06:55:33Z</time>
      </trkpt>
      <trkpt lat="19.08553" lon="-98.596787">
        <ele>3295.734</ele>
        <time>2020-12-13T06:55:35Z</time>
      </trkpt>
      <trkpt lat="19.085488" lon="-98.596808">
        <ele>3295.811</ele>
        <time>2020-12-13T06:55:39Z</time>
      </trkpt>
      <trkpt lat="19.085439" lon="-98.596839">
        <ele>3297.123</ele>
        <time>2020-12-13T06:55:42Z</time>
      </trkpt>
      <trkpt lat="19.085395" lon="-98.596815">
        <ele>3297.983</ele>
        <time>2020-12-13T06:55:47Z</time>
      </trkpt>
      <trkpt lat="19.085349" lon="-98.596808">
        <ele>3297.611</ele>
        <time>2020-12-13T06:55:50Z</time>
      </trkpt>
      <trkpt lat="19.085305" lon="-98.596817">
        <ele>3297.408</ele>
        <time>2020-12-13T06:55:53Z</time>
      </trkpt>
      <trkpt lat="19.085259" lon="-98.59683">
        <ele>3297.758</ele>
        <time>2020-12-13T06:55:56Z</time>
      </trkpt>
      <trkpt lat="19.085216" lon="-98.596854">
        <ele>3298.764</ele>
        <time>2020-12-13T06:55:59Z</time>
      </trkpt>
      <trkpt lat="19.085184" lon="-98.596888">
        <ele>3298.564</ele>
        <time>2020-12-13T06:56:02Z</time>
      </trkpt>
      <trkpt lat="19.085156" lon="-98.596934">
        <ele>3299.265</ele>
        <time>2020-12-13T06:56:07Z</time>
      </trkpt>
      <trkpt lat="19.085114" lon="-98.596959">
        <ele>3299.616</ele>
        <time>2020-12-13T06:56:14Z</time>
      </trkpt>
      <trkpt lat="19.085068" lon="-98.596962">
        <ele>3299.425</ele>
        <time>2020-12-13T06:56:20Z</time>
      </trkpt>
      <trkpt lat="19.085028" lon="-98.596986">
        <ele>3300.591</ele>
        <time>2020-12-13T06:56:24Z</time>
      </trkpt>
      <trkpt lat="19.084989" lon="-98.59701">
        <ele>3299.228</ele>
        <time>2020-12-13T06:56:28Z</time>
      </trkpt>
      <trkpt lat="19.084932" lon="-98.597019">
        <ele>3298.028</ele>
        <time>2020-12-13T06:56:32Z</time>
      </trkpt>
      <trkpt lat="19.084889" lon="-98.596991">
        <ele>3296.589</ele>
        <time>2020-12-13T06:56:36Z</time>
      </trkpt>
      <trkpt lat="19.084872" lon="-98.596945">
        <ele>3295.217</ele>
        <time>2020-12-13T06:56:41Z</time>
      </trkpt>
      <trkpt lat="19.084886" lon="-98.596895">
        <ele>3294.408</ele>
        <time>2020-12-13T06:56:46Z</time>
      </trkpt>
      <trkpt lat="19.084905" lon="-98.596838">
        <ele>3292.738</ele>
        <time>2020-12-13T06:56:50Z</time>
      </trkpt>
      <trkpt lat="19.084924" lon="-98.596784">
        <ele>3291.784</ele>
        <time>2020-12-13T06:56:54Z</time>
      </trkpt>
      <trkpt lat="19.084945" lon="-98.596737">
        <ele>3290.784</ele>
        <time>2020-12-13T06:56:58Z</time>
      </trkpt>
      <trkpt lat="19.084952" lon="-98.596689">
        <ele>3290.165</ele>
        <time>2020-12-13T06:57:02Z</time>
      </trkpt>
      <trkpt lat="19.084954" lon="-98.596632">
        <ele>3288.996</ele>
        <time>2020-12-13T06:57:06Z</time>
      </trkpt>
      <trkpt lat="19.084949" lon="-98.596572">
        <ele>3287.415</ele>
        <time>2020-12-13T06:57:10Z</time>
      </trkpt>
      <trkpt lat="19.084952" lon="-98.596517">
        <ele>3284.971</ele>
        <time>2020-12-13T06:57:13Z</time>
      </trkpt>
      <trkpt lat="19.084951" lon="-98.596464">
        <ele>3283.498</ele>
        <time>2020-12-13T06:57:16Z</time>
      </trkpt>
      <trkpt lat="19.08494" lon="-98.596412">
        <ele>3282.186</ele>
        <time>2020-12-13T06:57:19Z</time>
      </trkpt>
      <trkpt lat="19.08493" lon="-98.596354">
        <ele>3280.960</ele>
        <time>2020-12-13T06:57:22Z</time>
      </trkpt>
      <trkpt lat="19.084916" lon="-98.596305">
        <ele>3280.626</ele>
        <time>2020-12-13T06:57:25Z</time>
      </trkpt>
      <trkpt lat="19.084897" lon="-98.596261">
        <ele>3279.608</ele>
        <time>2020-12-13T06:57:28Z</time>
      </trkpt>
      <trkpt lat="19.084866" lon="-98.59621">
        <ele>3279.454</ele>
        <time>2020-12-13T06:57:32Z</time>
      </trkpt>
      <trkpt lat="19.084826" lon="-98.596166">
        <ele>3281.340</ele>
        <time>2020-12-13T06:57:37Z</time>
      </trkpt>
      <trkpt lat="19.084796" lon="-98.59613">
        <ele>3280.890</ele>
        <time>2020-12-13T06:57:40Z</time>
      </trkpt>
      <trkpt lat="19.084745" lon="-98.596107">
        <ele>3280.111</ele>
        <time>2020-12-13T06:57:44Z</time>
      </trkpt>
      <trkpt lat="19.084701" lon="-98.596097">
        <ele>3279.322</ele>
        <time>2020-12-13T06:57:47Z</time>
      </trkpt>
      <trkpt lat="19.084649" lon="-98.596093">
        <ele>3278.471</ele>
        <time>2020-12-13T06:57:50Z</time>
      </trkpt>
      <trkpt lat="19.0846" lon="-98.596096">
        <ele>3277.967</ele>
        <time>2020-12-13T06:57:54Z</time>
      </trkpt>
      <trkpt lat="19.084541" lon="-98.596103">
        <ele>3276.124</ele>
        <time>2020-12-13T06:57:58Z</time>
      </trkpt>
      <trkpt lat="19.084541" lon="-98.596103">
        <ele>3276.145</ele>
        <time>2020-12-13T06:57:58Z</time>
      </trkpt>
      <trkpt lat="19.084504" lon="-98.596132">
        <ele>3275.347</ele>
        <time>2020-12-13T06:58:02Z</time>
      </trkpt>
      <trkpt lat="19.084454" lon="-98.596139">
        <ele>3272.011</ele>
        <time>2020-12-13T06:58:08Z</time>
      </trkpt>
      <trkpt lat="19.084454" lon="-98.596139">
        <ele>3272.008</ele>
        <time>2020-12-13T06:58:08Z</time>
      </trkpt>
      <trkpt lat="19.084408" lon="-98.596144">
        <ele>3271.330</ele>
        <time>2020-12-13T06:58:12Z</time>
      </trkpt>
      <trkpt lat="19.084359" lon="-98.596159">
        <ele>3275.186</ele>
        <time>2020-12-13T06:58:16Z</time>
      </trkpt>
      <trkpt lat="19.084359" lon="-98.596159">
        <ele>3275.196</ele>
        <time>2020-12-13T06:58:16Z</time>
      </trkpt>
      <trkpt lat="19.084315" lon="-98.59619">
        <ele>3274.337</ele>
        <time>2020-12-13T06:58:20Z</time>
      </trkpt>
      <trkpt lat="19.084279" lon="-98.596232">
        <ele>3272.688</ele>
        <time>2020-12-13T06:58:24Z</time>
      </trkpt>
      <trkpt lat="19.08425" lon="-98.596281">
        <ele>3271.257</ele>
        <time>2020-12-13T06:58:27Z</time>
      </trkpt>
      <trkpt lat="19.084224" lon="-98.596323">
        <ele>3270.423</ele>
        <time>2020-12-13T06:58:30Z</time>
      </trkpt>
      <trkpt lat="19.084178" lon="-98.59636">
        <ele>3269.990</ele>
        <time>2020-12-13T06:58:34Z</time>
      </trkpt>
      <trkpt lat="19.084128" lon="-98.596385">
        <ele>3270.028</ele>
        <time>2020-12-13T06:58:38Z</time>
      </trkpt>
      <trkpt lat="19.084079" lon="-98.596402">
        <ele>3269.389</ele>
        <time>2020-12-13T06:58:41Z</time>
      </trkpt>
      <trkpt lat="19.084026" lon="-98.596422">
        <ele>3269.317</ele>
        <time>2020-12-13T06:58:45Z</time>
      </trkpt>
      <trkpt lat="19.083977" lon="-98.596437">
        <ele>3270.108</ele>
        <time>2020-12-13T06:58:50Z</time>
      </trkpt>
      <trkpt lat="19.083925" lon="-98.596445">
        <ele>3271.828</ele>
        <time>2020-12-13T06:58:54Z</time>
      </trkpt>
      <trkpt lat="19.083877" lon="-98.596472">
        <ele>3273.684</ele>
        <time>2020-12-13T06:58:57Z</time>
      </trkpt>
      <trkpt lat="19.083843" lon="-98.59651">
        <ele>3274.374</ele>
        <time>2020-12-13T06:59:00Z</time>
      </trkpt>
      <trkpt lat="19.083815" lon="-98.596561">
        <ele>3275.515</ele>
        <time>2020-12-13T06:59:04Z</time>
      </trkpt>
      <trkpt lat="19.083809" lon="-98.596621">
        <ele>3275.086</ele>
        <time>2020-12-13T06:59:08Z</time>
      </trkpt>
      <trkpt lat="19.083806" lon="-98.596669">
        <ele>3274.715</ele>
        <time>2020-12-13T06:59:11Z</time>
      </trkpt>
      <trkpt lat="19.083793" lon="-98.596724">
        <ele>3274.971</ele>
        <time>2020-12-13T06:59:15Z</time>
      </trkpt>
      <trkpt lat="19.083755" lon="-98.596754">
        <ele>3275.038</ele>
        <time>2020-12-13T06:59:19Z</time>
      </trkpt>
      <trkpt lat="19.083701" lon="-98.596769">
        <ele>3275.195</ele>
        <time>2020-12-13T06:59:23Z</time>
      </trkpt>
      <trkpt lat="19.083655" lon="-98.596798">
        <ele>3275.149</ele>
        <time>2020-12-13T06:59:26Z</time>
      </trkpt>
      <trkpt lat="19.083598" lon="-98.596798">
        <ele>3274.723</ele>
        <time>2020-12-13T06:59:29Z</time>
      </trkpt>
      <trkpt lat="19.083539" lon="-98.596776">
        <ele>3274.108</ele>
        <time>2020-12-13T06:59:32Z</time>
      </trkpt>
      <trkpt lat="19.083477" lon="-98.596747">
        <ele>3274.515</ele>
        <time>2020-12-13T06:59:35Z</time>
      </trkpt>
      <trkpt lat="19.08343" lon="-98.596738">
        <ele>3273.621</ele>
        <time>2020-12-13T06:59:37Z</time>
      </trkpt>
      <trkpt lat="19.083372" lon="-98.596761">
        <ele>3272.251</ele>
        <time>2020-12-13T06:59:40Z</time>
      </trkpt>
      <trkpt lat="19.083338" lon="-98.596797">
        <ele>3275.412</ele>
        <time>2020-12-13T06:59:43Z</time>
      </trkpt>
      <trkpt lat="19.083338" lon="-98.596797">
        <ele>3275.483</ele>
        <time>2020-12-13T06:59:43Z</time>
      </trkpt>
      <trkpt lat="19.083299" lon="-98.596824">
        <ele>3276.142</ele>
        <time>2020-12-13T06:59:47Z</time>
      </trkpt>
      <trkpt lat="19.083245" lon="-98.596811">
        <ele>3276.178</ele>
        <time>2020-12-13T06:59:52Z</time>
      </trkpt>
      <trkpt lat="19.083245" lon="-98.596811">
        <ele>3276.155</ele>
        <time>2020-12-13T06:59:52Z</time>
      </trkpt>
      <trkpt lat="19.08319" lon="-98.596797">
        <ele>3274.963</ele>
        <time>2020-12-13T06:59:56Z</time>
      </trkpt>
      <trkpt lat="19.083147" lon="-98.596775">
        <ele>3273.844</ele>
        <time>2020-12-13T06:59:59Z</time>
      </trkpt>
      <trkpt lat="19.083112" lon="-98.596733">
        <ele>3273.518</ele>
        <time>2020-12-13T07:00:04Z</time>
      </trkpt>
      <trkpt lat="19.083089" lon="-98.596673">
        <ele>3272.908</ele>
        <time>2020-12-13T07:00:08Z</time>
      </trkpt>
      <trkpt lat="19.083081" lon="-98.596617">
        <ele>3273.052</ele>
        <time>2020-12-13T07:00:11Z</time>
      </trkpt>
      <trkpt lat="19.083092" lon="-98.59656">
        <ele>3273.488</ele>
        <time>2020-12-13T07:00:14Z</time>
      </trkpt>
      <trkpt lat="19.083113" lon="-98.596503">
        <ele>3272.978</ele>
        <time>2020-12-13T07:00:17Z</time>
      </trkpt>
      <trkpt lat="19.083124" lon="-98.59644">
        <ele>3276.229</ele>
        <time>2020-12-13T07:00:20Z</time>
      </trkpt>
      <trkpt lat="19.083138" lon="-98.596381">
        <ele>3277.070</ele>
        <time>2020-12-13T07:00:23Z</time>
      </trkpt>
      <trkpt lat="19.083166" lon="-98.596322">
        <ele>3275.999</ele>
        <time>2020-12-13T07:00:26Z</time>
      </trkpt>
      <trkpt lat="19.08321" lon="-98.596278">
        <ele>3274.485</ele>
        <time>2020-12-13T07:00:29Z</time>
      </trkpt>
      <trkpt lat="19.083262" lon="-98.596233">
        <ele>3273.922</ele>
        <time>2020-12-13T07:00:32Z</time>
      </trkpt>
      <trkpt lat="19.083314" lon="-98.596192">
        <ele>3276.011</ele>
        <time>2020-12-13T07:00:35Z</time>
      </trkpt>
      <trkpt lat="19.08336" lon="-98.596171">
        <ele>3275.721</ele>
        <time>2020-12-13T07:00:37Z</time>
      </trkpt>
      <trkpt lat="19.083401" lon="-98.596136">
        <ele>3273.103</ele>
        <time>2020-12-13T07:00:42Z</time>
      </trkpt>
      <trkpt lat="19.083439" lon="-98.596101">
        <ele>3271.908</ele>
        <time>2020-12-13T07:00:47Z</time>
      </trkpt>
      <trkpt lat="19.083474" lon="-98.596066">
        <ele>3271.237</ele>
        <time>2020-12-13T07:00:50Z</time>
      </trkpt>
      <trkpt lat="19.083511" lon="-98.596035">
        <ele>3270.853</ele>
        <time>2020-12-13T07:00:53Z</time>
      </trkpt>
      <trkpt lat="19.083559" lon="-98.596004">
        <ele>3269.853</ele>
        <time>2020-12-13T07:00:57Z</time>
      </trkpt>
      <trkpt lat="19.083559" lon="-98.596004">
        <ele>3269.874</ele>
        <time>2020-12-13T07:00:57Z</time>
      </trkpt>
      <trkpt lat="19.083604" lon="-98.595962">
        <ele>3268.875</ele>
        <time>2020-12-13T07:01:01Z</time>
      </trkpt>
      <trkpt lat="19.083638" lon="-98.59592">
        <ele>3267.884</ele>
        <time>2020-12-13T07:01:04Z</time>
      </trkpt>
      <trkpt lat="19.083664" lon="-98.595874">
        <ele>3265.270</ele>
        <time>2020-12-13T07:01:07Z</time>
      </trkpt>
      <trkpt lat="19.083685" lon="-98.595828">
        <ele>3262.887</ele>
        <time>2020-12-13T07:01:10Z</time>
      </trkpt>
      <trkpt lat="19.08369" lon="-98.595775">
        <ele>3259.816</ele>
        <time>2020-12-13T07:01:14Z</time>
      </trkpt>
      <trkpt lat="19.083666" lon="-98.595724">
        <ele>3258.476</ele>
        <time>2020-12-13T07:01:18Z</time>
      </trkpt>
      <trkpt lat="19.08363" lon="-98.595678">
        <ele>3256.013</ele>
        <time>2020-12-13T07:01:22Z</time>
      </trkpt>
      <trkpt lat="19.083592" lon="-98.595639">
        <ele>3255.308</ele>
        <time>2020-12-13T07:01:25Z</time>
      </trkpt>
      <trkpt lat="19.08355" lon="-98.595601">
        <ele>3254.117</ele>
        <time>2020-12-13T07:01:28Z</time>
      </trkpt>
      <trkpt lat="19.083515" lon="-98.595566">
        <ele>3253.893</ele>
        <time>2020-12-13T07:01:32Z</time>
      </trkpt>
      <trkpt lat="19.083481" lon="-98.595519">
        <ele>3254.063</ele>
        <time>2020-12-13T07:01:36Z</time>
      </trkpt>
      <trkpt lat="19.083453" lon="-98.595476">
        <ele>3254.144</ele>
        <time>2020-12-13T07:01:39Z</time>
      </trkpt>
      <trkpt lat="19.083443" lon="-98.595413">
        <ele>3253.015</ele>
        <time>2020-12-13T07:01:43Z</time>
      </trkpt>
      <trkpt lat="19.083474" lon="-98.595365">
        <ele>3253.584</ele>
        <time>2020-12-13T07:01:46Z</time>
      </trkpt>
      <trkpt lat="19.083516" lon="-98.595328">
        <ele>3254.250</ele>
        <time>2020-12-13T07:01:49Z</time>
      </trkpt>
      <trkpt lat="19.083568" lon="-98.595311">
        <ele>3255.887</ele>
        <time>2020-12-13T07:01:53Z</time>
      </trkpt>
      <trkpt lat="19.083615" lon="-98.59531">
        <ele>3256.889</ele>
        <time>2020-12-13T07:01:57Z</time>
      </trkpt>
      <trkpt lat="19.083665" lon="-98.595327">
        <ele>3258.606</ele>
        <time>2020-12-13T07:02:01Z</time>
      </trkpt>
      <trkpt lat="19.083708" lon="-98.595348">
        <ele>3260.926</ele>
        <time>2020-12-13T07:02:04Z</time>
      </trkpt>
      <trkpt lat="19.08375" lon="-98.595375">
        <ele>3264.308</ele>
        <time>2020-12-13T07:02:07Z</time>
      </trkpt>
      <trkpt lat="19.08379" lon="-98.595406">
        <ele>3268.334</ele>
        <time>2020-12-13T07:02:12Z</time>
      </trkpt>
      <trkpt lat="19.083838" lon="-98.595422">
        <ele>3271.910</ele>
        <time>2020-12-13T07:02:15Z</time>
      </trkpt>
      <trkpt lat="19.0839" lon="-98.595433">
        <ele>3272.970</ele>
        <time>2020-12-13T07:02:18Z</time>
      </trkpt>
      <trkpt lat="19.083946" lon="-98.595431">
        <ele>3273.531</ele>
        <time>2020-12-13T07:02:21Z</time>
      </trkpt>
      <trkpt lat="19.084002" lon="-98.595422">
        <ele>3274.682</ele>
        <time>2020-12-13T07:02:27Z</time>
      </trkpt>
      <trkpt lat="19.084048" lon="-98.595419">
        <ele>3275.361</ele>
        <time>2020-12-13T07:02:30Z</time>
      </trkpt>
      <trkpt lat="19.084095" lon="-98.595418">
        <ele>3275.357</ele>
        <time>2020-12-13T07:02:34Z</time>
      </trkpt>
      <trkpt lat="19.08414" lon="-98.595419">
        <ele>3279.394</ele>
        <time>2020-12-13T07:02:38Z</time>
      </trkpt>
      <trkpt lat="19.084192" lon="-98.595418">
        <ele>3278.575</ele>
        <time>2020-12-13T07:02:42Z</time>
      </trkpt>
      <trkpt lat="19.084238" lon="-98.595403">
        <ele>3276.028</ele>
        <time>2020-12-13T07:02:45Z</time>
      </trkpt>
      <trkpt lat="19.084294" lon="-98.595375">
        <ele>3272.120</ele>
        <time>2020-12-13T07:02:48Z</time>
      </trkpt>
      <trkpt lat="19.084349" lon="-98.59535">
        <ele>3268.108</ele>
        <time>2020-12-13T07:02:51Z</time>
      </trkpt>
      <trkpt lat="19.084405" lon="-98.595334">
        <ele>3264.143</ele>
        <time>2020-12-13T07:02:54Z</time>
      </trkpt>
      <trkpt lat="19.084458" lon="-98.595311">
        <ele>3260.679</ele>
        <time>2020-12-13T07:02:57Z</time>
      </trkpt>
      <trkpt lat="19.084493" lon="-98.59528">
        <ele>3256.999</ele>
        <time>2020-12-13T07:03:00Z</time>
      </trkpt>
      <trkpt lat="19.084533" lon="-98.595237">
        <ele>3252.990</ele>
        <time>2020-12-13T07:03:04Z</time>
      </trkpt>
      <trkpt lat="19.084567" lon="-98.595205">
        <ele>3249.931</ele>
        <time>2020-12-13T07:03:07Z</time>
      </trkpt>
      <trkpt lat="19.084605" lon="-98.595169">
        <ele>3248.540</ele>
        <time>2020-12-13T07:03:10Z</time>
      </trkpt>
      <trkpt lat="19.084636" lon="-98.595131">
        <ele>3252.596</ele>
        <time>2020-12-13T07:03:13Z</time>
      </trkpt>
      <trkpt lat="19.084671" lon="-98.595093">
        <ele>3253.273</ele>
        <time>2020-12-13T07:03:17Z</time>
      </trkpt>
      <trkpt lat="19.084684" lon="-98.595041">
        <ele>3255.669</ele>
        <time>2020-12-13T07:03:23Z</time>
      </trkpt>
      <trkpt lat="19.084735" lon="-98.595006">
        <ele>3253.904</ele>
        <time>2020-12-13T07:03:27Z</time>
      </trkpt>
      <trkpt lat="19.084795" lon="-98.594983">
        <ele>3253.324</ele>
        <time>2020-12-13T07:03:30Z</time>
      </trkpt>
      <trkpt lat="19.08484" lon="-98.594956">
        <ele>3252.508</ele>
        <time>2020-12-13T07:03:34Z</time>
      </trkpt>
      <trkpt lat="19.084887" lon="-98.594934">
        <ele>3252.472</ele>
        <time>2020-12-13T07:03:39Z</time>
      </trkpt>
      <trkpt lat="19.084923" lon="-98.594905">
        <ele>3251.148</ele>
        <time>2020-12-13T07:03:42Z</time>
      </trkpt>
      <trkpt lat="19.084923" lon="-98.594905">
        <ele>3251.178</ele>
        <time>2020-12-13T07:03:42Z</time>
      </trkpt>
      <trkpt lat="19.084966" lon="-98.594886">
        <ele>3250.849</ele>
        <time>2020-12-13T07:03:45Z</time>
      </trkpt>
      <trkpt lat="19.085018" lon="-98.594882">
        <ele>3250.210</ele>
        <time>2020-12-13T07:03:48Z</time>
      </trkpt>
      <trkpt lat="19.085067" lon="-98.594879">
        <ele>3248.749</ele>
        <time>2020-12-13T07:03:51Z</time>
      </trkpt>
      <trkpt lat="19.085127" lon="-98.594863">
        <ele>3246.285</ele>
        <time>2020-12-13T07:03:55Z</time>
      </trkpt>
      <trkpt lat="19.085168" lon="-98.594835">
        <ele>3246.362</ele>
        <time>2020-12-13T07:03:59Z</time>
      </trkpt>
      <trkpt lat="19.085209" lon="-98.594801">
        <ele>3244.722</ele>
        <time>2020-12-13T07:04:03Z</time>
      </trkpt>
      <trkpt lat="19.085255" lon="-98.594767">
        <ele>3243.462</ele>
        <time>2020-12-13T07:04:07Z</time>
      </trkpt>
      <trkpt lat="19.085299" lon="-98.594732">
        <ele>3243.008</ele>
        <time>2020-12-13T07:04:11Z</time>
      </trkpt>
      <trkpt lat="19.085327" lon="-98.594688">
        <ele>3243.208</ele>
        <time>2020-12-13T07:04:15Z</time>
      </trkpt>
      <trkpt lat="19.085355" lon="-98.594644">
        <ele>3242.938</ele>
        <time>2020-12-13T07:04:19Z</time>
      </trkpt>
      <trkpt lat="19.085381" lon="-98.594603">
        <ele>3243.984</ele>
        <time>2020-12-13T07:04:23Z</time>
      </trkpt>
      <trkpt lat="19.085386" lon="-98.594547">
        <ele>3246.834</ele>
        <time>2020-12-13T07:04:28Z</time>
      </trkpt>
      <trkpt lat="19.085386" lon="-98.594547">
        <ele>3246.825</ele>
        <time>2020-12-13T07:04:28Z</time>
      </trkpt>
      <trkpt lat="19.085417" lon="-98.59451">
        <ele>3247.956</ele>
        <time>2020-12-13T07:04:32Z</time>
      </trkpt>
      <trkpt lat="19.085462" lon="-98.59448">
        <ele>3248.915</ele>
        <time>2020-12-13T07:04:36Z</time>
      </trkpt>
      <trkpt lat="19.085462" lon="-98.59448">
        <ele>3248.961</ele>
        <time>2020-12-13T07:04:36Z</time>
      </trkpt>
      <trkpt lat="19.085503" lon="-98.594455">
        <ele>3250.338</ele>
        <time>2020-12-13T07:04:40Z</time>
      </trkpt>
      <trkpt lat="19.085556" lon="-98.594441">
        <ele>3254.323</ele>
        <time>2020-12-13T07:04:43Z</time>
      </trkpt>
      <trkpt lat="19.085608" lon="-98.594438">
        <ele>3258.383</ele>
        <time>2020-12-13T07:04:45Z</time>
      </trkpt>
      <trkpt lat="19.085661" lon="-98.594431">
        <ele>3258.811</ele>
        <time>2020-12-13T07:04:48Z</time>
      </trkpt>
      <trkpt lat="19.085687" lon="-98.594392">
        <ele>3257.308</ele>
        <time>2020-12-13T07:04:56Z</time>
      </trkpt>
      <trkpt lat="19.085687" lon="-98.594392">
        <ele>3257.328</ele>
        <time>2020-12-13T07:04:56Z</time>
      </trkpt>
      <trkpt lat="19.085715" lon="-98.59434">
        <ele>3257.034</ele>
        <time>2020-12-13T07:05:00Z</time>
      </trkpt>
      <trkpt lat="19.085727" lon="-98.594285">
        <ele>3256.034</ele>
        <time>2020-12-13T07:05:05Z</time>
      </trkpt>
      <trkpt lat="19.085739" lon="-98.594236">
        <ele>3254.625</ele>
        <time>2020-12-13T07:05:08Z</time>
      </trkpt>
      <trkpt lat="19.085753" lon="-98.594187">
        <ele>3255.086</ele>
        <time>2020-12-13T07:05:11Z</time>
      </trkpt>
      <trkpt lat="19.085752" lon="-98.594128">
        <ele>3253.665</ele>
        <time>2020-12-13T07:05:15Z</time>
      </trkpt>
      <trkpt lat="19.085728" lon="-98.594077">
        <ele>3250.041</ele>
        <time>2020-12-13T07:05:19Z</time>
      </trkpt>
      <trkpt lat="19.085709" lon="-98.594024">
        <ele>3247.848</ele>
        <time>2020-12-13T07:05:24Z</time>
      </trkpt>
      <trkpt lat="19.085689" lon="-98.593974">
        <ele>3245.782</ele>
        <time>2020-12-13T07:05:28Z</time>
      </trkpt>
      <trkpt lat="19.085672" lon="-98.593927">
        <ele>3242.843</ele>
        <time>2020-12-13T07:05:32Z</time>
      </trkpt>
      <trkpt lat="19.085645" lon="-98.593874">
        <ele>3241.117</ele>
        <time>2020-12-13T07:05:36Z</time>
      </trkpt>
      <trkpt lat="19.085615" lon="-98.593827">
        <ele>3241.308</ele>
        <time>2020-12-13T07:05:39Z</time>
      </trkpt>
      <trkpt lat="19.085582" lon="-98.593775">
        <ele>3239.424</ele>
        <time>2020-12-13T07:05:42Z</time>
      </trkpt>
      <trkpt lat="19.085552" lon="-98.593726">
        <ele>3238.750</ele>
        <time>2020-12-13T07:05:45Z</time>
      </trkpt>
      <trkpt lat="19.085522" lon="-98.59368">
        <ele>3237.530</ele>
        <time>2020-12-13T07:05:48Z</time>
      </trkpt>
      <trkpt lat="19.085501" lon="-98.593636">
        <ele>3236.461</ele>
        <time>2020-12-13T07:05:51Z</time>
      </trkpt>
      <trkpt lat="19.085471" lon="-98.593594">
        <ele>3237.762</ele>
        <time>2020-12-13T07:06:06Z</time>
      </trkpt>
      <trkpt lat="19.085466" lon="-98.593542">
        <ele>3235.761</ele>
        <time>2020-12-13T07:06:11Z</time>
      </trkpt>
      <trkpt lat="19.085469" lon="-98.593494">
        <ele>3234.917</ele>
        <time>2020-12-13T07:06:15Z</time>
      </trkpt>
      <trkpt lat="19.085456" lon="-98.593433">
        <ele>3234.894</ele>
        <time>2020-12-13T07:06:19Z</time>
      </trkpt>
      <trkpt lat="19.085349" lon="-98.590504">
        <ele>3206.636</ele>
        <time>2020-12-13T07:11:00Z</time>
      </trkpt>
      <trkpt lat="19.085482" lon="-98.590546">
        <ele>3239.617</ele>
        <time>2020-12-13T07:11:01Z</time>
      </trkpt>
      <trkpt lat="19.085444" lon="-98.590451">
        <ele>3235.618</ele>
        <time>2020-12-13T07:11:02Z</time>
      </trkpt>
      <trkpt lat="19.085361" lon="-98.590367">
        <ele>3231.608</ele>
        <time>2020-12-13T07:11:03Z</time>
      </trkpt>
      <trkpt lat="19.085339" lon="-98.590413">
        <ele>3235.639</ele>
        <time>2020-12-13T07:11:07Z</time>
      </trkpt>
      <trkpt lat="19.085277" lon="-98.590439">
        <ele>3234.885</ele>
        <time>2020-12-13T07:11:10Z</time>
      </trkpt>
      <trkpt lat="19.085234" lon="-98.590453">
        <ele>3230.825</ele>
        <time>2020-12-13T07:11:12Z</time>
      </trkpt>
      <trkpt lat="19.085182" lon="-98.590437">
        <ele>3228.736</ele>
        <time>2020-12-13T07:11:15Z</time>
      </trkpt>
      <trkpt lat="19.085123" lon="-98.590427">
        <ele>3224.737</ele>
        <time>2020-12-13T07:11:18Z</time>
      </trkpt>
      <trkpt lat="19.085073" lon="-98.590433">
        <ele>3228.716</ele>
        <time>2020-12-13T07:11:21Z</time>
      </trkpt>
      <trkpt lat="19.085009" lon="-98.590437">
        <ele>3232.712</ele>
        <time>2020-12-13T07:11:23Z</time>
      </trkpt>
      <trkpt lat="19.084964" lon="-98.590447">
        <ele>3236.749</ele>
        <time>2020-12-13T07:11:26Z</time>
      </trkpt>
      <trkpt lat="19.084903" lon="-98.590459">
        <ele>3240.776</ele>
        <time>2020-12-13T07:11:29Z</time>
      </trkpt>
      <trkpt lat="19.084873" lon="-98.590498">
        <ele>3244.790</ele>
        <time>2020-12-13T07:11:35Z</time>
      </trkpt>
      <trkpt lat="19.084839" lon="-98.590542">
        <ele>3248.719</ele>
        <time>2020-12-13T07:11:39Z</time>
      </trkpt>
      <trkpt lat="19.084804" lon="-98.590574">
        <ele>3252.708</ele>
        <time>2020-12-13T07:11:43Z</time>
      </trkpt>
      <trkpt lat="19.084765" lon="-98.590614">
        <ele>3256.763</ele>
        <time>2020-12-13T07:11:48Z</time>
      </trkpt>
      <trkpt lat="19.084712" lon="-98.590591">
        <ele>3257.189</ele>
        <time>2020-12-13T07:11:54Z</time>
      </trkpt>
      <trkpt lat="19.08469" lon="-98.590545">
        <ele>3256.939</ele>
        <time>2020-12-13T07:11:59Z</time>
      </trkpt>
      <trkpt lat="19.084711" lon="-98.590499">
        <ele>3253.620</ele>
        <time>2020-12-13T07:12:06Z</time>
      </trkpt>
      <trkpt lat="19.084747" lon="-98.590459">
        <ele>3250.861</ele>
        <time>2020-12-13T07:12:10Z</time>
      </trkpt>
      <trkpt lat="19.084782" lon="-98.590422">
        <ele>3247.910</ele>
        <time>2020-12-13T07:12:13Z</time>
      </trkpt>
      <trkpt lat="19.084817" lon="-98.590382">
        <ele>3245.846</ele>
        <time>2020-12-13T07:12:16Z</time>
      </trkpt>
      <trkpt lat="19.084853" lon="-98.590338">
        <ele>3243.723</ele>
        <time>2020-12-13T07:12:20Z</time>
      </trkpt>
      <trkpt lat="19.084893" lon="-98.590311">
        <ele>3242.192</ele>
        <time>2020-12-13T07:12:24Z</time>
      </trkpt>
      <trkpt lat="19.084932" lon="-98.590274">
        <ele>3241.173</ele>
        <time>2020-12-13T07:12:30Z</time>
      </trkpt>
      <trkpt lat="19.084939" lon="-98.590226">
        <ele>3239.320</ele>
        <time>2020-12-13T07:12:35Z</time>
      </trkpt>
      <trkpt lat="19.084942" lon="-98.59017">
        <ele>3238.208</ele>
        <time>2020-12-13T07:12:40Z</time>
      </trkpt>
      <trkpt lat="19.084954" lon="-98.590114">
        <ele>3236.875</ele>
        <time>2020-12-13T07:12:44Z</time>
      </trkpt>
      <trkpt lat="19.084961" lon="-98.590063">
        <ele>3234.741</ele>
        <time>2020-12-13T07:12:48Z</time>
      </trkpt>
      <trkpt lat="19.084966" lon="-98.590006">
        <ele>3233.561</ele>
        <time>2020-12-13T07:12:52Z</time>
      </trkpt>
      <trkpt lat="19.084969" lon="-98.589958">
        <ele>3233.212</ele>
        <time>2020-12-13T07:12:55Z</time>
      </trkpt>
      <trkpt lat="19.084979" lon="-98.589899">
        <ele>3232.233</ele>
        <time>2020-12-13T07:12:58Z</time>
      </trkpt>
      <trkpt lat="19.084992" lon="-98.589843">
        <ele>3230.072</ele>
        <time>2020-12-13T07:13:01Z</time>
      </trkpt>
      <trkpt lat="19.085011" lon="-98.589794">
        <ele>3228.758</ele>
        <time>2020-12-13T07:13:04Z</time>
      </trkpt>
      <trkpt lat="19.085037" lon="-98.589735">
        <ele>3227.915</ele>
        <time>2020-12-13T07:13:07Z</time>
      </trkpt>
      <trkpt lat="19.085064" lon="-98.589682">
        <ele>3227.015</ele>
        <time>2020-12-13T07:13:10Z</time>
      </trkpt>
      <trkpt lat="19.085084" lon="-98.589631">
        <ele>3226.965</ele>
        <time>2020-12-13T07:13:13Z</time>
      </trkpt>
      <trkpt lat="19.08509" lon="-98.589582">
        <ele>3227.211</ele>
        <time>2020-12-13T07:13:16Z</time>
      </trkpt>
      <trkpt lat="19.085089" lon="-98.589533">
        <ele>3227.808</ele>
        <time>2020-12-13T07:13:19Z</time>
      </trkpt>
      <trkpt lat="19.085093" lon="-98.589478">
        <ele>3228.237</ele>
        <time>2020-12-13T07:13:23Z</time>
      </trkpt>
      <trkpt lat="19.085097" lon="-98.589426">
        <ele>3229.653</ele>
        <time>2020-12-13T07:13:28Z</time>
      </trkpt>
      <trkpt lat="19.085101" lon="-98.589367">
        <ele>3230.453</ele>
        <time>2020-12-13T07:13:33Z</time>
      </trkpt>
      <trkpt lat="19.085092" lon="-98.589314">
        <ele>3230.584</ele>
        <time>2020-12-13T07:13:38Z</time>
      </trkpt>
      <trkpt lat="19.085098" lon="-98.589264">
        <ele>3230.245</ele>
        <time>2020-12-13T07:13:43Z</time>
      </trkpt>
      <trkpt lat="19.085101" lon="-98.589213">
        <ele>3228.884</ele>
        <time>2020-12-13T07:13:47Z</time>
      </trkpt>
      <trkpt lat="19.085104" lon="-98.58916">
        <ele>3227.250</ele>
        <time>2020-12-13T07:13:51Z</time>
      </trkpt>
      <trkpt lat="19.085092" lon="-98.589105">
        <ele>3225.467</ele>
        <time>2020-12-13T07:13:54Z</time>
      </trkpt>
      <trkpt lat="19.085079" lon="-98.589049">
        <ele>3223.982</ele>
        <time>2020-12-13T07:13:57Z</time>
      </trkpt>
      <trkpt lat="19.085076" lon="-98.589001">
        <ele>3223.043</ele>
        <time>2020-12-13T07:14:00Z</time>
      </trkpt>
      <trkpt lat="19.085061" lon="-98.588945">
        <ele>3220.917</ele>
        <time>2020-12-13T07:14:04Z</time>
      </trkpt>
      <trkpt lat="19.085042" lon="-98.588886">
        <ele>3219.608</ele>
        <time>2020-12-13T07:14:08Z</time>
      </trkpt>
      <trkpt lat="19.08502" lon="-98.588834">
        <ele>3218.434</ele>
        <time>2020-12-13T07:14:12Z</time>
      </trkpt>
      <trkpt lat="19.085" lon="-98.588784">
        <ele>3218.530</ele>
        <time>2020-12-13T07:14:15Z</time>
      </trkpt>
      <trkpt lat="19.084975" lon="-98.588737">
        <ele>3217.090</ele>
        <time>2020-12-13T07:14:18Z</time>
      </trkpt>
      <trkpt lat="19.084943" lon="-98.588695">
        <ele>3216.571</ele>
        <time>2020-12-13T07:14:22Z</time>
      </trkpt>
      <trkpt lat="19.084931" lon="-98.588638">
        <ele>3220.552</ele>
        <time>2020-12-13T07:14:27Z</time>
      </trkpt>
      <trkpt lat="19.08491" lon="-98.588586">
        <ele>3224.561</ele>
        <time>2020-12-13T07:14:31Z</time>
      </trkpt>
      <trkpt lat="19.084893" lon="-98.588541">
        <ele>3227.467</ele>
        <time>2020-12-13T07:14:34Z</time>
      </trkpt>
      <trkpt lat="19.084875" lon="-98.588493">
        <ele>3229.994</ele>
        <time>2020-12-13T07:14:37Z</time>
      </trkpt>
      <trkpt lat="19.084844" lon="-98.588443">
        <ele>3231.042</ele>
        <time>2020-12-13T07:14:41Z</time>
      </trkpt>
      <trkpt lat="19.084804" lon="-98.588416">
        <ele>3231.722</ele>
        <time>2020-12-13T07:14:45Z</time>
      </trkpt>
      <trkpt lat="19.084757" lon="-98.588406">
        <ele>3232.114</ele>
        <time>2020-12-13T07:14:50Z</time>
      </trkpt>
      <trkpt lat="19.084704" lon="-98.588419">
        <ele>3231.108</ele>
        <time>2020-12-13T07:14:54Z</time>
      </trkpt>
      <trkpt lat="19.084652" lon="-98.58841">
        <ele>3230.590</ele>
        <time>2020-12-13T07:14:58Z</time>
      </trkpt>
      <trkpt lat="19.084607" lon="-98.588393">
        <ele>3229.816</ele>
        <time>2020-12-13T07:15:02Z</time>
      </trkpt>
      <trkpt lat="19.084586" lon="-98.588342">
        <ele>3230.256</ele>
        <time>2020-12-13T07:15:06Z</time>
      </trkpt>
      <trkpt lat="19.084581" lon="-98.588288">
        <ele>3230.897</ele>
        <time>2020-12-13T07:15:09Z</time>
      </trkpt>
      <trkpt lat="19.084581" lon="-98.588228">
        <ele>3230.038</ele>
        <time>2020-12-13T07:15:12Z</time>
      </trkpt>
      <trkpt lat="19.084589" lon="-98.588167">
        <ele>3229.567</ele>
        <time>2020-12-13T07:15:15Z</time>
      </trkpt>
      <trkpt lat="19.084607" lon="-98.588111">
        <ele>3228.443</ele>
        <time>2020-12-13T07:15:19Z</time>
      </trkpt>
      <trkpt lat="19.084635" lon="-98.588069">
        <ele>3227.390</ele>
        <time>2020-12-13T07:15:23Z</time>
      </trkpt>
      <trkpt lat="19.08467" lon="-98.588025">
        <ele>3225.536</ele>
        <time>2020-12-13T07:15:27Z</time>
      </trkpt>
      <trkpt lat="19.084693" lon="-98.58798">
        <ele>3224.417</ele>
        <time>2020-12-13T07:15:30Z</time>
      </trkpt>
      <trkpt lat="19.084723" lon="-98.587934">
        <ele>3224.918</ele>
        <time>2020-12-13T07:15:35Z</time>
      </trkpt>
      <trkpt lat="19.084761" lon="-98.587898">
        <ele>3224.408</ele>
        <time>2020-12-13T07:15:39Z</time>
      </trkpt>
      <trkpt lat="19.084801" lon="-98.587863">
        <ele>3222.189</ele>
        <time>2020-12-13T07:15:44Z</time>
      </trkpt>
      <trkpt lat="19.084832" lon="-98.587823">
        <ele>3218.755</ele>
        <time>2020-12-13T07:15:48Z</time>
      </trkpt>
      <trkpt lat="19.084877" lon="-98.587788">
        <ele>3217.155</ele>
        <time>2020-12-13T07:15:53Z</time>
      </trkpt>
      <trkpt lat="19.084896" lon="-98.58774">
        <ele>3214.996</ele>
        <time>2020-12-13T07:15:58Z</time>
      </trkpt>
      <trkpt lat="19.08491" lon="-98.58768">
        <ele>3214.057</ele>
        <time>2020-12-13T07:16:02Z</time>
      </trkpt>
      <trkpt lat="19.084921" lon="-98.587632">
        <ele>3213.926</ele>
        <time>2020-12-13T07:16:05Z</time>
      </trkpt>
      <trkpt lat="19.084935" lon="-98.587586">
        <ele>3214.272</ele>
        <time>2020-12-13T07:16:08Z</time>
      </trkpt>
      <trkpt lat="19.084955" lon="-98.587525">
        <ele>3214.099</ele>
        <time>2020-12-13T07:16:12Z</time>
      </trkpt>
      <trkpt lat="19.084965" lon="-98.58747">
        <ele>3213.911</ele>
        <time>2020-12-13T07:16:15Z</time>
      </trkpt>
      <trkpt lat="19.084968" lon="-98.58741">
        <ele>3213.821</ele>
        <time>2020-12-13T07:16:20Z</time>
      </trkpt>
      <trkpt lat="19.084974" lon="-98.587361">
        <ele>3211.403</ele>
        <time>2020-12-13T07:16:23Z</time>
      </trkpt>
      <trkpt lat="19.084958" lon="-98.587309">
        <ele>3211.108</ele>
        <time>2020-12-13T07:16:28Z</time>
      </trkpt>
      <trkpt lat="19.084934" lon="-98.587263">
        <ele>3210.127</ele>
        <time>2020-12-13T07:16:32Z</time>
      </trkpt>
      <trkpt lat="19.084907" lon="-98.587222">
        <ele>3209.553</ele>
        <time>2020-12-13T07:16:35Z</time>
      </trkpt>
      <trkpt lat="19.084877" lon="-98.587179">
        <ele>3208.433</ele>
        <time>2020-12-13T07:16:38Z</time>
      </trkpt>
      <trkpt lat="19.084849" lon="-98.58714">
        <ele>3208.924</ele>
        <time>2020-12-13T07:16:42Z</time>
      </trkpt>
      <trkpt lat="19.084808" lon="-98.587091">
        <ele>3209.675</ele>
        <time>2020-12-13T07:16:46Z</time>
      </trkpt>
      <trkpt lat="19.084781" lon="-98.587049">
        <ele>3210.044</ele>
        <time>2020-12-13T07:16:49Z</time>
      </trkpt>
      <trkpt lat="19.084756" lon="-98.586993">
        <ele>3209.560</ele>
        <time>2020-12-13T07:16:53Z</time>
      </trkpt>
      <trkpt lat="19.084739" lon="-98.586942">
        <ele>3209.277</ele>
        <time>2020-12-13T07:16:57Z</time>
      </trkpt>
      <trkpt lat="19.084714" lon="-98.586888">
        <ele>3209.029</ele>
        <time>2020-12-13T07:17:02Z</time>
      </trkpt>
      <trkpt lat="19.084673" lon="-98.586845">
        <ele>3208.500</ele>
        <time>2020-12-13T07:17:06Z</time>
      </trkpt>
      <trkpt lat="19.084641" lon="-98.586794">
        <ele>3207.420</ele>
        <time>2020-12-13T07:17:10Z</time>
      </trkpt>
      <trkpt lat="19.084613" lon="-98.586739">
        <ele>3206.308</ele>
        <time>2020-12-13T07:17:14Z</time>
      </trkpt>
      <trkpt lat="19.084588" lon="-98.586689">
        <ele>3204.178</ele>
        <time>2020-12-13T07:17:17Z</time>
      </trkpt>
      <trkpt lat="19.084561" lon="-98.586646">
        <ele>3201.684</ele>
        <time>2020-12-13T07:17:20Z</time>
      </trkpt>
      <trkpt lat="19.084528" lon="-98.586601">
        <ele>3200.114</ele>
        <time>2020-12-13T07:17:24Z</time>
      </trkpt>
      <trkpt lat="19.084488" lon="-98.58656">
        <ele>3198.845</ele>
        <time>2020-12-13T07:17:28Z</time>
      </trkpt>
      <trkpt lat="19.084465" lon="-98.586513">
        <ele>3197.296</ele>
        <time>2020-12-13T07:17:33Z</time>
      </trkpt>
      <trkpt lat="19.084435" lon="-98.586461">
        <ele>3195.025</ele>
        <time>2020-12-13T07:17:38Z</time>
      </trkpt>
      <trkpt lat="19.084407" lon="-98.586409">
        <ele>3193.711</ele>
        <time>2020-12-13T07:17:42Z</time>
      </trkpt>
      <trkpt lat="19.084396" lon="-98.586347">
        <ele>3192.928</ele>
        <time>2020-12-13T07:17:46Z</time>
      </trkpt>
      <trkpt lat="19.084392" lon="-98.586291">
        <ele>3192.894</ele>
        <time>2020-12-13T07:17:50Z</time>
      </trkpt>
      <trkpt lat="19.084389" lon="-98.586242">
        <ele>3192.057</ele>
        <time>2020-12-13T07:17:54Z</time>
      </trkpt>
      <trkpt lat="19.084394" lon="-98.586192">
        <ele>3191.522</ele>
        <time>2020-12-13T07:17:57Z</time>
      </trkpt>
      <trkpt lat="19.084398" lon="-98.586144">
        <ele>3191.208</ele>
        <time>2020-12-13T07:18:00Z</time>
      </trkpt>
      <trkpt lat="19.084398" lon="-98.586085">
        <ele>3191.455</ele>
        <time>2020-12-13T07:18:04Z</time>
      </trkpt>
      <trkpt lat="19.084394" lon="-98.586023">
        <ele>3191.961</ele>
        <time>2020-12-13T07:18:08Z</time>
      </trkpt>
      <trkpt lat="19.084398" lon="-98.585956">
        <ele>3192.691</ele>
        <time>2020-12-13T07:18:11Z</time>
      </trkpt>
      <trkpt lat="19.084404" lon="-98.585894">
        <ele>3193.432</ele>
        <time>2020-12-13T07:18:14Z</time>
      </trkpt>
      <trkpt lat="19.08441" lon="-98.585838">
        <ele>3193.523</ele>
        <time>2020-12-13T07:18:17Z</time>
      </trkpt>
      <trkpt lat="19.084407" lon="-98.585779">
        <ele>3192.852</ele>
        <time>2020-12-13T07:18:21Z</time>
      </trkpt>
      <trkpt lat="19.084378" lon="-98.585733">
        <ele>3191.658</ele>
        <time>2020-12-13T07:18:26Z</time>
      </trkpt>
      <trkpt lat="19.084358" lon="-98.585686">
        <ele>3191.755</ele>
        <time>2020-12-13T07:18:30Z</time>
      </trkpt>
      <trkpt lat="19.084348" lon="-98.585632">
        <ele>3192.555</ele>
        <time>2020-12-13T07:18:34Z</time>
      </trkpt>
      <trkpt lat="19.084334" lon="-98.585571">
        <ele>3193.007</ele>
        <time>2020-12-13T07:18:38Z</time>
      </trkpt>
      <trkpt lat="19.08433" lon="-98.585522">
        <ele>3192.917</ele>
        <time>2020-12-13T07:18:41Z</time>
      </trkpt>
      <trkpt lat="19.084346" lon="-98.585469">
        <ele>3191.608</ele>
        <time>2020-12-13T07:18:46Z</time>
      </trkpt>
      <trkpt lat="19.084375" lon="-98.585419">
        <ele>3191.221</ele>
        <time>2020-12-13T07:18:51Z</time>
      </trkpt>
      <trkpt lat="19.084405" lon="-98.585374">
        <ele>3191.047</ele>
        <time>2020-12-13T07:18:55Z</time>
      </trkpt>
      <trkpt lat="19.08444" lon="-98.585319">
        <ele>3190.977</ele>
        <time>2020-12-13T07:19:00Z</time>
      </trkpt>
      <trkpt lat="19.08447" lon="-98.585273">
        <ele>3191.228</ele>
        <time>2020-12-13T07:19:02Z</time>
      </trkpt>
      <trkpt lat="19.0845" lon="-98.58522">
        <ele>3190.649</ele>
        <time>2020-12-13T07:19:05Z</time>
      </trkpt>
      <trkpt lat="19.084524" lon="-98.585176">
        <ele>3191.068</ele>
        <time>2020-12-13T07:19:08Z</time>
      </trkpt>
      <trkpt lat="19.084551" lon="-98.585128">
        <ele>3193.354</ele>
        <time>2020-12-13T07:19:12Z</time>
      </trkpt>
      <trkpt lat="19.08458" lon="-98.585076">
        <ele>3194.751</ele>
        <time>2020-12-13T07:19:17Z</time>
      </trkpt>
      <trkpt lat="19.084603" lon="-98.585034">
        <ele>3195.568</ele>
        <time>2020-12-13T07:19:21Z</time>
      </trkpt>
      <trkpt lat="19.084625" lon="-98.584985">
        <ele>3197.242</ele>
        <time>2020-12-13T07:19:25Z</time>
      </trkpt>
      <trkpt lat="19.084649" lon="-98.584931">
        <ele>3197.826</ele>
        <time>2020-12-13T07:19:30Z</time>
      </trkpt>
      <trkpt lat="19.084675" lon="-98.584888">
        <ele>3197.408</ele>
        <time>2020-12-13T07:19:33Z</time>
      </trkpt>
      <trkpt lat="19.084693" lon="-98.584837">
        <ele>3196.342</ele>
        <time>2020-12-13T07:19:36Z</time>
      </trkpt>
      <trkpt lat="19.0847" lon="-98.584789">
        <ele>3196.178</ele>
        <time>2020-12-13T07:19:39Z</time>
      </trkpt>
      <trkpt lat="19.084685" lon="-98.584732">
        <ele>3196.078</ele>
        <time>2020-12-13T07:19:43Z</time>
      </trkpt>
      <trkpt lat="19.08466" lon="-98.584682">
        <ele>3195.979</ele>
        <time>2020-12-13T07:19:47Z</time>
      </trkpt>
      <trkpt lat="19.084636" lon="-98.584634">
        <ele>3196.650</ele>
        <time>2020-12-13T07:19:51Z</time>
      </trkpt>
      <trkpt lat="19.084608" lon="-98.584582">
        <ele>3198.659</ele>
        <time>2020-12-13T07:19:56Z</time>
      </trkpt>
      <trkpt lat="19.084585" lon="-98.58453">
        <ele>3199.025</ele>
        <time>2020-12-13T07:20:01Z</time>
      </trkpt>
      <trkpt lat="19.084561" lon="-98.584481">
        <ele>3199.762</ele>
        <time>2020-12-13T07:20:06Z</time>
      </trkpt>
      <trkpt lat="19.084534" lon="-98.584442">
        <ele>3199.773</ele>
        <time>2020-12-13T07:20:09Z</time>
      </trkpt>
      <trkpt lat="19.084502" lon="-98.584401">
        <ele>3200.185</ele>
        <time>2020-12-13T07:20:13Z</time>
      </trkpt>
      <trkpt lat="19.084474" lon="-98.58435">
        <ele>3199.513</ele>
        <time>2020-12-13T07:20:17Z</time>
      </trkpt>
      <trkpt lat="19.084444" lon="-98.584305">
        <ele>3198.808</ele>
        <time>2020-12-13T07:20:21Z</time>
      </trkpt>
      <trkpt lat="19.084415" lon="-98.584267">
        <ele>3199.243</ele>
        <time>2020-12-13T07:20:25Z</time>
      </trkpt>
      <trkpt lat="19.084384" lon="-98.584227">
        <ele>3199.459</ele>
        <time>2020-12-13T07:20:29Z</time>
      </trkpt>
      <trkpt lat="19.084355" lon="-98.584187">
        <ele>3198.729</ele>
        <time>2020-12-13T07:20:33Z</time>
      </trkpt>
      <trkpt lat="19.084317" lon="-98.584149">
        <ele>3197.970</ele>
        <time>2020-12-13T07:20:37Z</time>
      </trkpt>
      <trkpt lat="19.084269" lon="-98.584122">
        <ele>3196.241</ele>
        <time>2020-12-13T07:20:42Z</time>
      </trkpt>
      <trkpt lat="19.084222" lon="-98.584103">
        <ele>3195.280</ele>
        <time>2020-12-13T07:20:46Z</time>
      </trkpt>
      <trkpt lat="19.084172" lon="-98.584097">
        <ele>3193.816</ele>
        <time>2020-12-13T07:20:51Z</time>
      </trkpt>
      <trkpt lat="19.084128" lon="-98.584081">
        <ele>3192.293</ele>
        <time>2020-12-13T07:22:04Z</time>
      </trkpt>
      <trkpt lat="19.08408" lon="-98.584096">
        <ele>3190.071</ele>
        <time>2020-12-13T07:22:07Z</time>
      </trkpt>
      <trkpt lat="19.084042" lon="-98.584123">
        <ele>3189.941</ele>
        <time>2020-12-13T07:22:09Z</time>
      </trkpt>
      <trkpt lat="19.083999" lon="-98.584151">
        <ele>3190.215</ele>
        <time>2020-12-13T07:22:11Z</time>
      </trkpt>
      <trkpt lat="19.083949" lon="-98.584172">
        <ele>3190.408</ele>
        <time>2020-12-13T07:22:13Z</time>
      </trkpt>
      <trkpt lat="19.083897" lon="-98.584186">
        <ele>3190.963</ele>
        <time>2020-12-13T07:22:15Z</time>
      </trkpt>
      <trkpt lat="19.083851" lon="-98.5842">
        <ele>3192.489</ele>
        <time>2020-12-13T07:22:17Z</time>
      </trkpt>
      <trkpt lat="19.083789" lon="-98.584215">
        <ele>3194.539</ele>
        <time>2020-12-13T07:22:20Z</time>
      </trkpt>
      <trkpt lat="19.083727" lon="-98.584224">
        <ele>3197.040</ele>
        <time>2020-12-13T07:22:23Z</time>
      </trkpt>
      <trkpt lat="19.08367" lon="-98.584236">
        <ele>3197.721</ele>
        <time>2020-12-13T07:22:26Z</time>
      </trkpt>
      <trkpt lat="19.083614" lon="-98.584244">
        <ele>3195.760</ele>
        <time>2020-12-13T07:22:29Z</time>
      </trkpt>
      <trkpt lat="19.083562" lon="-98.584244">
        <ele>3195.776</ele>
        <time>2020-12-13T07:22:32Z</time>
      </trkpt>
      <trkpt lat="19.083508" lon="-98.58423">
        <ele>3196.993</ele>
        <time>2020-12-13T07:22:36Z</time>
      </trkpt>
      <trkpt lat="19.083455" lon="-98.584209">
        <ele>3196.063</ele>
        <time>2020-12-13T07:22:40Z</time>
      </trkpt>
      <trkpt lat="19.083406" lon="-98.584195">
        <ele>3194.744</ele>
        <time>2020-12-13T07:22:43Z</time>
      </trkpt>
      <trkpt lat="19.083343" lon="-98.584187">
        <ele>3192.718</ele>
        <time>2020-12-13T07:22:46Z</time>
      </trkpt>
      <trkpt lat="19.083284" lon="-98.584195">
        <ele>3191.508</ele>
        <time>2020-12-13T07:22:49Z</time>
      </trkpt>
      <trkpt lat="19.083235" lon="-98.584198">
        <ele>3190.062</ele>
        <time>2020-12-13T07:22:52Z</time>
      </trkpt>
      <trkpt lat="19.083183" lon="-98.584191">
        <ele>3189.948</ele>
        <time>2020-12-13T07:22:56Z</time>
      </trkpt>
      <trkpt lat="19.083139" lon="-98.584217">
        <ele>3190.298</ele>
        <time>2020-12-13T07:23:00Z</time>
      </trkpt>
      <trkpt lat="19.083102" lon="-98.584256">
        <ele>3190.819</ele>
        <time>2020-12-13T07:23:03Z</time>
      </trkpt>
      <trkpt lat="19.083064" lon="-98.584304">
        <ele>3191.680</ele>
        <time>2020-12-13T07:23:06Z</time>
      </trkpt>
      <trkpt lat="19.083028" lon="-98.584361">
        <ele>3191.719</ele>
        <time>2020-12-13T07:23:09Z</time>
      </trkpt>
      <trkpt lat="19.083004" lon="-98.584419">
        <ele>3192.195</ele>
        <time>2020-12-13T07:23:12Z</time>
      </trkpt>
      <trkpt lat="19.082986" lon="-98.584465">
        <ele>3193.272</ele>
        <time>2020-12-13T07:23:16Z</time>
      </trkpt>
      <trkpt lat="19.082958" lon="-98.584515">
        <ele>3193.889</ele>
        <time>2020-12-13T07:23:21Z</time>
      </trkpt>
      <trkpt lat="19.082934" lon="-98.584558">
        <ele>3193.406</ele>
        <time>2020-12-13T07:23:26Z</time>
      </trkpt>
      <trkpt lat="19.082902" lon="-98.584598">
        <ele>3192.726</ele>
        <time>2020-12-13T07:23:32Z</time>
      </trkpt>
      <trkpt lat="19.082884" lon="-98.584653">
        <ele>3191.508</ele>
        <time>2020-12-13T07:23:37Z</time>
      </trkpt>
      <trkpt lat="19.082854" lon="-98.584699">
        <ele>3190.434</ele>
        <time>2020-12-13T07:23:41Z</time>
      </trkpt>
      <trkpt lat="19.082821" lon="-98.584742">
        <ele>3189.740</ele>
        <time>2020-12-13T07:23:45Z</time>
      </trkpt>
      <trkpt lat="19.082768" lon="-98.584755">
        <ele>3189.320</ele>
        <time>2020-12-13T07:23:53Z</time>
      </trkpt>
      <trkpt lat="19.082719" lon="-98.584785">
        <ele>3188.791</ele>
        <time>2020-12-13T07:23:57Z</time>
      </trkpt>
      <trkpt lat="19.082682" lon="-98.584829">
        <ele>3188.362</ele>
        <time>2020-12-13T07:24:01Z</time>
      </trkpt>
      <trkpt lat="19.082659" lon="-98.584876">
        <ele>3188.581</ele>
        <time>2020-12-13T07:24:04Z</time>
      </trkpt>
      <trkpt lat="19.082611" lon="-98.584904">
        <ele>3188.277</ele>
        <time>2020-12-13T07:24:08Z</time>
      </trkpt>
      <trkpt lat="19.082566" lon="-98.584932">
        <ele>3187.294</ele>
        <time>2020-12-13T07:24:12Z</time>
      </trkpt>
      <trkpt lat="19.082521" lon="-98.584914">
        <ele>3185.496</ele>
        <time>2020-12-13T07:24:16Z</time>
      </trkpt>
      <trkpt lat="19.082478" lon="-98.584877">
        <ele>3184.731</ele>
        <time>2020-12-13T07:24:20Z</time>
      </trkpt>
      <trkpt lat="19.082439" lon="-98.584845">
        <ele>3183.924</ele>
        <time>2020-12-13T07:24:24Z</time>
      </trkpt>
      <trkpt lat="19.082381" lon="-98.584842">
        <ele>3183.408</ele>
        <time>2020-12-13T07:24:28Z</time>
      </trkpt>
      <trkpt lat="19.082334" lon="-98.584865">
        <ele>3181.955</ele>
        <time>2020-12-13T07:24:32Z</time>
      </trkpt>
      <trkpt lat="19.082352" lon="-98.584909">
        <ele>3185.961</ele>
        <time>2020-12-13T07:25:25Z</time>
      </trkpt>
      <trkpt lat="19.082386" lon="-98.584946">
        <ele>3187.011</ele>
        <time>2020-12-13T07:26:35Z</time>
      </trkpt>
      <trkpt lat="19.082366" lon="-98.58499">
        <ele>3187.352</ele>
        <time>2020-12-13T07:26:39Z</time>
      </trkpt>
      <trkpt lat="19.08235" lon="-98.585043">
        <ele>3185.993</ele>
        <time>2020-12-13T07:26:45Z</time>
      </trkpt>
      <trkpt lat="19.082343" lon="-98.585093">
        <ele>3184.262</ele>
        <time>2020-12-13T07:26:49Z</time>
      </trkpt>
      <trkpt lat="19.082335" lon="-98.585145">
        <ele>3184.058</ele>
        <time>2020-12-13T07:26:55Z</time>
      </trkpt>
      <trkpt lat="19.082353" lon="-98.585204">
        <ele>3183.535</ele>
        <time>2020-12-13T07:26:59Z</time>
      </trkpt>
      <trkpt lat="19.082367" lon="-98.585262">
        <ele>3183.698</ele>
        <time>2020-12-13T07:27:03Z</time>
      </trkpt>
      <trkpt lat="19.082367" lon="-98.585323">
        <ele>3183.715</ele>
        <time>2020-12-13T07:27:07Z</time>
      </trkpt>
      <trkpt lat="19.082342" lon="-98.585367">
        <ele>3184.126</ele>
        <time>2020-12-13T07:27:12Z</time>
      </trkpt>
      <trkpt lat="19.082319" lon="-98.585409">
        <ele>3185.208</ele>
        <time>2020-12-13T07:27:16Z</time>
      </trkpt>
      <trkpt lat="19.0823" lon="-98.585462">
        <ele>3185.885</ele>
        <time>2020-12-13T07:27:20Z</time>
      </trkpt>
      <trkpt lat="19.082298" lon="-98.585511">
        <ele>3185.831</ele>
        <time>2020-12-13T07:27:23Z</time>
      </trkpt>
      <trkpt lat="19.08228" lon="-98.585556">
        <ele>3189.841</ele>
        <time>2020-12-13T07:27:31Z</time>
      </trkpt>
      <trkpt lat="19.082235" lon="-98.585563">
        <ele>3193.822</ele>
        <time>2020-12-13T07:27:36Z</time>
      </trkpt>
      <trkpt lat="19.082201" lon="-98.585595">
        <ele>3197.873</ele>
        <time>2020-12-13T07:27:39Z</time>
      </trkpt>
      <trkpt lat="19.082178" lon="-98.585636">
        <ele>3200.692</ele>
        <time>2020-12-13T07:27:43Z</time>
      </trkpt>
      <trkpt lat="19.082148" lon="-98.585675">
        <ele>3201.558</ele>
        <time>2020-12-13T07:27:46Z</time>
      </trkpt>
      <trkpt lat="19.082114" lon="-98.585725">
        <ele>3198.865</ele>
        <time>2020-12-13T07:27:50Z</time>
      </trkpt>
      <trkpt lat="19.082068" lon="-98.585746">
        <ele>3196.057</ele>
        <time>2020-12-13T07:27:53Z</time>
      </trkpt>
      <trkpt lat="19.082019" lon="-98.585753">
        <ele>3192.700</ele>
        <time>2020-12-13T07:27:57Z</time>
      </trkpt>
      <trkpt lat="19.081995" lon="-98.585705">
        <ele>3188.720</ele>
        <time>2020-12-13T07:28:08Z</time>
      </trkpt>
      <trkpt lat="19.082021" lon="-98.585663">
        <ele>3184.708</ele>
        <time>2020-12-13T07:28:15Z</time>
      </trkpt>
      <trkpt lat="19.082028" lon="-98.58561">
        <ele>3182.321</ele>
        <time>2020-12-13T07:28:20Z</time>
      </trkpt>
      <trkpt lat="19.082025" lon="-98.585552">
        <ele>3180.937</ele>
        <time>2020-12-13T07:28:24Z</time>
      </trkpt>
      <trkpt lat="19.082029" lon="-98.585492">
        <ele>3179.617</ele>
        <time>2020-12-13T07:28:28Z</time>
      </trkpt>
      <trkpt lat="19.082033" lon="-98.585435">
        <ele>3176.458</ele>
        <time>2020-12-13T07:28:32Z</time>
      </trkpt>
      <trkpt lat="19.08203" lon="-98.585383">
        <ele>3174.189</ele>
        <time>2020-12-13T07:28:35Z</time>
      </trkpt>
      <trkpt lat="19.082013" lon="-98.585325">
        <ele>3173.158</ele>
        <time>2020-12-13T07:28:39Z</time>
      </trkpt>
      <trkpt lat="19.081994" lon="-98.585274">
        <ele>3173.384</ele>
        <time>2020-12-13T07:28:44Z</time>
      </trkpt>
      <trkpt lat="19.081966" lon="-98.585235">
        <ele>3172.251</ele>
        <time>2020-12-13T07:28:49Z</time>
      </trkpt>
      <trkpt lat="19.081921" lon="-98.585196">
        <ele>3171.217</ele>
        <time>2020-12-13T07:28:54Z</time>
      </trkpt>
      <trkpt lat="19.081884" lon="-98.585164">
        <ele>3170.287</ele>
        <time>2020-12-13T07:28:58Z</time>
      </trkpt>
      <trkpt lat="19.08186" lon="-98.58512">
        <ele>3170.815</ele>
        <time>2020-12-13T07:29:01Z</time>
      </trkpt>
      <trkpt lat="19.081828" lon="-98.585066">
        <ele>3170.808</ele>
        <time>2020-12-13T07:29:04Z</time>
      </trkpt>
      <trkpt lat="19.081788" lon="-98.585011">
        <ele>3172.457</ele>
        <time>2020-12-13T07:29:07Z</time>
      </trkpt>
      <trkpt lat="19.081754" lon="-98.584964">
        <ele>3175.323</ele>
        <time>2020-12-13T07:29:10Z</time>
      </trkpt>
      <trkpt lat="19.081716" lon="-98.58492">
        <ele>3177.193</ele>
        <time>2020-12-13T07:29:14Z</time>
      </trkpt>
      <trkpt lat="19.081666" lon="-98.5849">
        <ele>3178.234</ele>
        <time>2020-12-13T07:29:19Z</time>
      </trkpt>
      <trkpt lat="19.081622" lon="-98.58487">
        <ele>3177.625</ele>
        <time>2020-12-13T07:29:23Z</time>
      </trkpt>
      <trkpt lat="19.081568" lon="-98.584877">
        <ele>3177.394</ele>
        <time>2020-12-13T07:29:28Z</time>
      </trkpt>
      <trkpt lat="19.081519" lon="-98.584897">
        <ele>3175.960</ele>
        <time>2020-12-13T07:29:32Z</time>
      </trkpt>
      <trkpt lat="19.081475" lon="-98.584916">
        <ele>3175.517</ele>
        <time>2020-12-13T07:29:35Z</time>
      </trkpt>
      <trkpt lat="19.081431" lon="-98.584945">
        <ele>3174.864</ele>
        <time>2020-12-13T07:29:38Z</time>
      </trkpt>
      <trkpt lat="19.081389" lon="-98.584964">
        <ele>3174.806</ele>
        <time>2020-12-13T07:29:41Z</time>
      </trkpt>
      <trkpt lat="19.081342" lon="-98.584986">
        <ele>3174.816</ele>
        <time>2020-12-13T07:29:45Z</time>
      </trkpt>
      <trkpt lat="19.081301" lon="-98.585011">
        <ele>3174.808</ele>
        <time>2020-12-13T07:29:49Z</time>
      </trkpt>
      <trkpt lat="19.081246" lon="-98.585018">
        <ele>3174.812</ele>
        <time>2020-12-13T07:29:54Z</time>
      </trkpt>
      <trkpt lat="19.0812" lon="-98.585026">
        <ele>3174.848</ele>
        <time>2020-12-13T07:29:58Z</time>
      </trkpt>
      <trkpt lat="19.081154" lon="-98.585043">
        <ele>3175.298</ele>
        <time>2020-12-13T07:30:02Z</time>
      </trkpt>
      <trkpt lat="19.081109" lon="-98.585058">
        <ele>3176.229</ele>
        <time>2020-12-13T07:30:07Z</time>
      </trkpt>
      <trkpt lat="19.081048" lon="-98.585067">
        <ele>3177.290</ele>
        <time>2020-12-13T07:30:12Z</time>
      </trkpt>
      <trkpt lat="19.080998" lon="-98.585073">
        <ele>3177.899</ele>
        <time>2020-12-13T07:30:15Z</time>
      </trkpt>
      <trkpt lat="19.080952" lon="-98.585083">
        <ele>3177.865</ele>
        <time>2020-12-13T07:30:18Z</time>
      </trkpt>
      <trkpt lat="19.080911" lon="-98.585119">
        <ele>3177.812</ele>
        <time>2020-12-13T07:30:22Z</time>
      </trkpt>
      <trkpt lat="19.080872" lon="-98.585151">
        <ele>3177.859</ele>
        <time>2020-12-13T07:30:27Z</time>
      </trkpt>
      <trkpt lat="19.080822" lon="-98.585144">
        <ele>3179.403</ele>
        <time>2020-12-13T07:30:32Z</time>
      </trkpt>
      <trkpt lat="19.080765" lon="-98.585137">
        <ele>3181.623</ele>
        <time>2020-12-13T07:30:36Z</time>
      </trkpt>
      <trkpt lat="19.080719" lon="-98.585135">
        <ele>3182.508</ele>
        <time>2020-12-13T07:30:39Z</time>
      </trkpt>
      <trkpt lat="19.080673" lon="-98.585148">
        <ele>3183.031</ele>
        <time>2020-12-13T07:30:42Z</time>
      </trkpt>
      <trkpt lat="19.080624" lon="-98.585179">
        <ele>3184.567</ele>
        <time>2020-12-13T07:30:45Z</time>
      </trkpt>
      <trkpt lat="19.080584" lon="-98.585216">
        <ele>3186.667</ele>
        <time>2020-12-13T07:30:48Z</time>
      </trkpt>
      <trkpt lat="19.08054" lon="-98.58524">
        <ele>3190.628</ele>
        <time>2020-12-13T07:30:51Z</time>
      </trkpt>
      <trkpt lat="19.080483" lon="-98.585239">
        <ele>3194.639</ele>
        <time>2020-12-13T07:30:55Z</time>
      </trkpt>
      <trkpt lat="19.080436" lon="-98.585257">
        <ele>3196.368</ele>
        <time>2020-12-13T07:30:58Z</time>
      </trkpt>
      <trkpt lat="19.080392" lon="-98.585269">
        <ele>3196.554</ele>
        <time>2020-12-13T07:31:01Z</time>
      </trkpt>
      <trkpt lat="19.080341" lon="-98.585285">
        <ele>3195.031</ele>
        <time>2020-12-13T07:31:05Z</time>
      </trkpt>
      <trkpt lat="19.080284" lon="-98.585301">
        <ele>3192.986</ele>
        <time>2020-12-13T07:31:09Z</time>
      </trkpt>
      <trkpt lat="19.080231" lon="-98.585323">
        <ele>3191.660</ele>
        <time>2020-12-13T07:31:12Z</time>
      </trkpt>
      <trkpt lat="19.08019" lon="-98.585353">
        <ele>3189.626</ele>
        <time>2020-12-13T07:31:18Z</time>
      </trkpt>
      <trkpt lat="19.080149" lon="-98.585396">
        <ele>3188.008</ele>
        <time>2020-12-13T07:31:24Z</time>
      </trkpt>
      <trkpt lat="19.080117" lon="-98.585431">
        <ele>3187.114</ele>
        <time>2020-12-13T07:31:27Z</time>
      </trkpt>
      <trkpt lat="19.080093" lon="-98.585479">
        <ele>3186.170</ele>
        <time>2020-12-13T07:31:31Z</time>
      </trkpt>
      <trkpt lat="19.080068" lon="-98.585527">
        <ele>3185.190</ele>
        <time>2020-12-13T07:31:34Z</time>
      </trkpt>
      <trkpt lat="19.080042" lon="-98.585573">
        <ele>3184.581</ele>
        <time>2020-12-13T07:31:37Z</time>
      </trkpt>
      <trkpt lat="19.080015" lon="-98.585621">
        <ele>3182.992</ele>
        <time>2020-12-13T07:31:40Z</time>
      </trkpt>
      <trkpt lat="19.079985" lon="-98.585657">
        <ele>3182.421</ele>
        <time>2020-12-13T07:31:44Z</time>
      </trkpt>
      <trkpt lat="19.079944" lon="-98.585688">
        <ele>3181.317</ele>
        <time>2020-12-13T07:31:49Z</time>
      </trkpt>
      <trkpt lat="19.079896" lon="-98.585706">
        <ele>3180.674</ele>
        <time>2020-12-13T07:31:53Z</time>
      </trkpt>
      <trkpt lat="19.079843" lon="-98.585728">
        <ele>3179.481</ele>
        <time>2020-12-13T07:31:57Z</time>
      </trkpt>
      <trkpt lat="19.07979" lon="-98.585743">
        <ele>3178.361</ele>
        <time>2020-12-13T07:32:01Z</time>
      </trkpt>
      <trkpt lat="19.079737" lon="-98.585748">
        <ele>3177.217</ele>
        <time>2020-12-13T07:32:05Z</time>
      </trkpt>
      <trkpt lat="19.079684" lon="-98.585738">
        <ele>3176.208</ele>
        <time>2020-12-13T07:32:09Z</time>
      </trkpt>
      <trkpt lat="19.079638" lon="-98.585702">
        <ele>3176.024</ele>
        <time>2020-12-13T07:32:13Z</time>
      </trkpt>
      <trkpt lat="19.0796" lon="-98.585673">
        <ele>3177.590</ele>
        <time>2020-12-13T07:32:16Z</time>
      </trkpt>
      <trkpt lat="19.07956" lon="-98.585646">
        <ele>3178.080</ele>
        <time>2020-12-13T07:32:19Z</time>
      </trkpt>
      <trkpt lat="19.079517" lon="-98.585629">
        <ele>3178.791</ele>
        <time>2020-12-13T07:32:22Z</time>
      </trkpt>
      <trkpt lat="19.079469" lon="-98.585595">
        <ele>3180.792</ele>
        <time>2020-12-13T07:32:26Z</time>
      </trkpt>
      <trkpt lat="19.079432" lon="-98.585554">
        <ele>3183.121</ele>
        <time>2020-12-13T07:32:32Z</time>
      </trkpt>
      <trkpt lat="19.079393" lon="-98.585517">
        <ele>3183.357</ele>
        <time>2020-12-13T07:32:36Z</time>
      </trkpt>
      <trkpt lat="19.079358" lon="-98.585486">
        <ele>3182.614</ele>
        <time>2020-12-13T07:32:39Z</time>
      </trkpt>
      <trkpt lat="19.079325" lon="-98.585453">
        <ele>3182.628</ele>
        <time>2020-12-13T07:32:42Z</time>
      </trkpt>
      <trkpt lat="19.079296" lon="-98.585411">
        <ele>3183.889</ele>
        <time>2020-12-13T07:32:45Z</time>
      </trkpt>
      <trkpt lat="19.079262" lon="-98.585364">
        <ele>3187.817</ele>
        <time>2020-12-13T07:32:49Z</time>
      </trkpt>
      <trkpt lat="19.079224" lon="-98.585328">
        <ele>3191.808</ele>
        <time>2020-12-13T07:32:54Z</time>
      </trkpt>
      <trkpt lat="19.079187" lon="-98.585288">
        <ele>3195.828</ele>
        <time>2020-12-13T07:32:59Z</time>
      </trkpt>
      <trkpt lat="19.079144" lon="-98.58526">
        <ele>3199.864</ele>
        <time>2020-12-13T07:33:03Z</time>
      </trkpt>
      <trkpt lat="19.079096" lon="-98.585227">
        <ele>3202.934</ele>
        <time>2020-12-13T07:33:07Z</time>
      </trkpt>
      <trkpt lat="19.079055" lon="-98.585206">
        <ele>3203.695</ele>
        <time>2020-12-13T07:33:11Z</time>
      </trkpt>
      <trkpt lat="19.079014" lon="-98.585185">
        <ele>3203.216</ele>
        <time>2020-12-13T07:33:15Z</time>
      </trkpt>
      <trkpt lat="19.078962" lon="-98.585165">
        <ele>3203.495</ele>
        <time>2020-12-13T07:33:19Z</time>
      </trkpt>
      <trkpt lat="19.078908" lon="-98.585153">
        <ele>3203.131</ele>
        <time>2020-12-13T07:33:23Z</time>
      </trkpt>
      <trkpt lat="19.078864" lon="-98.585136">
        <ele>3202.158</ele>
        <time>2020-12-13T07:33:27Z</time>
      </trkpt>
      <trkpt lat="19.078821" lon="-98.585121">
        <ele>3198.166</ele>
        <time>2020-12-13T07:33:30Z</time>
      </trkpt>
      <trkpt lat="19.078777" lon="-98.585113">
        <ele>3195.529</ele>
        <time>2020-12-13T07:33:33Z</time>
      </trkpt>
      <trkpt lat="19.078726" lon="-98.585118">
        <ele>3194.721</ele>
        <time>2020-12-13T07:33:37Z</time>
      </trkpt>
      <trkpt lat="19.078677" lon="-98.585119">
        <ele>3194.608</ele>
        <time>2020-12-13T07:33:43Z</time>
      </trkpt>
      <trkpt lat="19.078645" lon="-98.585161">
        <ele>3195.422</ele>
        <time>2020-12-13T07:33:50Z</time>
      </trkpt>
      <trkpt lat="19.078624" lon="-98.585205">
        <ele>3195.598</ele>
        <time>2020-12-13T07:33:56Z</time>
      </trkpt>
      <trkpt lat="19.078613" lon="-98.585255">
        <ele>3196.338</ele>
        <time>2020-12-13T07:34:01Z</time>
      </trkpt>
      <trkpt lat="19.0786" lon="-98.58531">
        <ele>3196.499</ele>
        <time>2020-12-13T07:34:05Z</time>
      </trkpt>
      <trkpt lat="19.078604" lon="-98.585366">
        <ele>3196.990</ele>
        <time>2020-12-13T07:34:09Z</time>
      </trkpt>
      <trkpt lat="19.078611" lon="-98.585419">
        <ele>3196.829</ele>
        <time>2020-12-13T07:34:13Z</time>
      </trkpt>
      <trkpt lat="19.078614" lon="-98.585467">
        <ele>3197.925</ele>
        <time>2020-12-13T07:34:22Z</time>
      </trkpt>
      <trkpt lat="19.078595" lon="-98.585521">
        <ele>3199.072</ele>
        <time>2020-12-13T07:34:33Z</time>
      </trkpt>
      <trkpt lat="19.078566" lon="-98.585568">
        <ele>3200.416</ele>
        <time>2020-12-13T07:34:37Z</time>
      </trkpt>
      <trkpt lat="19.07854" lon="-98.585618">
        <ele>3201.776</ele>
        <time>2020-12-13T07:34:41Z</time>
      </trkpt>
      <trkpt lat="19.078514" lon="-98.585678">
        <ele>3201.313</ele>
        <time>2020-12-13T07:34:44Z</time>
      </trkpt>
      <trkpt lat="19.078501" lon="-98.585728">
        <ele>3200.608</ele>
        <time>2020-12-13T07:34:46Z</time>
      </trkpt>
      <trkpt lat="19.078486" lon="-98.585785">
        <ele>3199.897</ele>
        <time>2020-12-13T07:34:48Z</time>
      </trkpt>
      <trkpt lat="19.078464" lon="-98.585848">
        <ele>3198.533</ele>
        <time>2020-12-13T07:34:51Z</time>
      </trkpt>
      <trkpt lat="19.078441" lon="-98.585893">
        <ele>3196.963</ele>
        <time>2020-12-13T07:34:54Z</time>
      </trkpt>
      <trkpt lat="19.078417" lon="-98.585941">
        <ele>3196.094</ele>
        <time>2020-12-13T07:34:57Z</time>
      </trkpt>
      <trkpt lat="19.078401" lon="-98.585991">
        <ele>3195.435</ele>
        <time>2020-12-13T07:35:00Z</time>
      </trkpt>
      <trkpt lat="19.078388" lon="-98.586039">
        <ele>3195.914</ele>
        <time>2020-12-13T07:35:03Z</time>
      </trkpt>
      <trkpt lat="19.078376" lon="-98.586093">
        <ele>3195.890</ele>
        <time>2020-12-13T07:35:06Z</time>
      </trkpt>
      <trkpt lat="19.078361" lon="-98.586149">
        <ele>3196.937</ele>
        <time>2020-12-13T07:35:09Z</time>
      </trkpt>
      <trkpt lat="19.078338" lon="-98.586198">
        <ele>3198.032</ele>
        <time>2020-12-13T07:35:13Z</time>
      </trkpt>
      <trkpt lat="19.078301" lon="-98.586236">
        <ele>3199.492</ele>
        <time>2020-12-13T07:35:17Z</time>
      </trkpt>
      <trkpt lat="19.078256" lon="-98.58627">
        <ele>3203.411</ele>
        <time>2020-12-13T07:35:21Z</time>
      </trkpt>
      <trkpt lat="19.078203" lon="-98.586272">
        <ele>3207.408</ele>
        <time>2020-12-13T07:35:26Z</time>
      </trkpt>
      <trkpt lat="19.07816" lon="-98.586296">
        <ele>3211.499</ele>
        <time>2020-12-13T07:35:30Z</time>
      </trkpt>
      <trkpt lat="19.078122" lon="-98.586332">
        <ele>3210.765</ele>
        <time>2020-12-13T07:35:34Z</time>
      </trkpt>
      <trkpt lat="19.078085" lon="-98.586367">
        <ele>3209.515</ele>
        <time>2020-12-13T07:35:39Z</time>
      </trkpt>
      <trkpt lat="19.078037" lon="-98.58638">
        <ele>3207.616</ele>
        <time>2020-12-13T07:35:44Z</time>
      </trkpt>
      <trkpt lat="19.077992" lon="-98.586399">
        <ele>3206.477</ele>
        <time>2020-12-13T07:35:49Z</time>
      </trkpt>
      <trkpt lat="19.077939" lon="-98.586418">
        <ele>3205.376</ele>
        <time>2020-12-13T07:35:54Z</time>
      </trkpt>
      <trkpt lat="19.077886" lon="-98.586434">
        <ele>3205.082</ele>
        <time>2020-12-13T07:35:58Z</time>
      </trkpt>
      <trkpt lat="19.077837" lon="-98.586451">
        <ele>3204.839</ele>
        <time>2020-12-13T07:36:02Z</time>
      </trkpt>
      <trkpt lat="19.077781" lon="-98.586472">
        <ele>3205.148</ele>
        <time>2020-12-13T07:36:06Z</time>
      </trkpt>
      <trkpt lat="19.077738" lon="-98.586496">
        <ele>3205.361</ele>
        <time>2020-12-13T07:36:09Z</time>
      </trkpt>
      <trkpt lat="19.077689" lon="-98.586509">
        <ele>3207.017</ele>
        <time>2020-12-13T07:36:13Z</time>
      </trkpt>
      <trkpt lat="19.077645" lon="-98.58653">
        <ele>3208.808</ele>
        <time>2020-12-13T07:36:17Z</time>
      </trkpt>
      <trkpt lat="19.077604" lon="-98.586555">
        <ele>3210.720</ele>
        <time>2020-12-13T07:36:21Z</time>
      </trkpt>
      <trkpt lat="19.077569" lon="-98.586585">
        <ele>3212.276</ele>
        <time>2020-12-13T07:36:25Z</time>
      </trkpt>
      <trkpt lat="19.077522" lon="-98.58662">
        <ele>3213.546</ele>
        <time>2020-12-13T07:36:30Z</time>
      </trkpt>
      <trkpt lat="19.077488" lon="-98.586651">
        <ele>3215.157</ele>
        <time>2020-12-13T07:36:33Z</time>
      </trkpt>
      <trkpt lat="19.077451" lon="-98.58669">
        <ele>3215.378</ele>
        <time>2020-12-13T07:36:37Z</time>
      </trkpt>
      <trkpt lat="19.077403" lon="-98.586722">
        <ele>3217.427</ele>
        <time>2020-12-13T07:36:41Z</time>
      </trkpt>
      <trkpt lat="19.07736" lon="-98.586747">
        <ele>3218.363</ele>
        <time>2020-12-13T07:36:45Z</time>
      </trkpt>
      <trkpt lat="19.07731" lon="-98.586772">
        <ele>3218.470</ele>
        <time>2020-12-13T07:36:50Z</time>
      </trkpt>
      <trkpt lat="19.077271" lon="-98.5868">
        <ele>3217.716</ele>
        <time>2020-12-13T07:36:54Z</time>
      </trkpt>
      <trkpt lat="19.077236" lon="-98.586847">
        <ele>3218.176</ele>
        <time>2020-12-13T07:36:59Z</time>
      </trkpt>
      <trkpt lat="19.077209" lon="-98.586889">
        <ele>3218.713</ele>
        <time>2020-12-13T07:37:03Z</time>
      </trkpt>
      <trkpt lat="19.07717" lon="-98.586922">
        <ele>3217.508</ele>
        <time>2020-12-13T07:37:08Z</time>
      </trkpt>
      <trkpt lat="19.077122" lon="-98.586952">
        <ele>3216.837</ele>
        <time>2020-12-13T07:37:13Z</time>
      </trkpt>
      <trkpt lat="19.077088" lon="-98.586989">
        <ele>3217.673</ele>
        <time>2020-12-13T07:37:17Z</time>
      </trkpt>
      <trkpt lat="19.077048" lon="-98.587024">
        <ele>3217.383</ele>
        <time>2020-12-13T07:37:21Z</time>
      </trkpt>
      <trkpt lat="19.077" lon="-98.587046">
        <ele>3217.914</ele>
        <time>2020-12-13T07:37:25Z</time>
      </trkpt>
      <trkpt lat="19.076948" lon="-98.58707">
        <ele>3221.975</ele>
        <time>2020-12-13T07:37:29Z</time>
      </trkpt>
      <trkpt lat="19.076901" lon="-98.587103">
        <ele>3225.944</ele>
        <time>2020-12-13T07:37:33Z</time>
      </trkpt>
      <trkpt lat="19.076865" lon="-98.587135">
        <ele>3228.790</ele>
        <time>2020-12-13T07:37:37Z</time>
      </trkpt>
      <trkpt lat="19.076819" lon="-98.58716">
        <ele>3227.257</ele>
        <time>2020-12-13T07:37:41Z</time>
      </trkpt>
      <trkpt lat="19.076791" lon="-98.587203">
        <ele>3225.923</ele>
        <time>2020-12-13T07:37:44Z</time>
      </trkpt>
      <trkpt lat="19.076749" lon="-98.58724">
        <ele>3224.783</ele>
        <time>2020-12-13T07:37:49Z</time>
      </trkpt>
      <trkpt lat="19.076707" lon="-98.587268">
        <ele>3224.411</ele>
        <time>2020-12-13T07:37:53Z</time>
      </trkpt>
      <trkpt lat="19.076665" lon="-98.587294">
        <ele>3224.608</ele>
        <time>2020-12-13T07:37:57Z</time>
      </trkpt>
      <trkpt lat="19.076616" lon="-98.587319">
        <ele>3223.948</ele>
        <time>2020-12-13T07:38:02Z</time>
      </trkpt>
      <trkpt lat="19.076568" lon="-98.587334">
        <ele>3220.744</ele>
        <time>2020-12-13T07:38:08Z</time>
      </trkpt>
      <trkpt lat="19.076521" lon="-98.58736">
        <ele>3218.824</ele>
        <time>2020-12-13T07:38:13Z</time>
      </trkpt>
      <trkpt lat="19.076475" lon="-98.587382">
        <ele>3218.865</ele>
        <time>2020-12-13T07:38:17Z</time>
      </trkpt>
      <trkpt lat="19.07642" lon="-98.587403">
        <ele>3218.456</ele>
        <time>2020-12-13T07:38:21Z</time>
      </trkpt>
      <trkpt lat="19.076367" lon="-98.587413">
        <ele>3218.625</ele>
        <time>2020-12-13T07:38:25Z</time>
      </trkpt>
      <trkpt lat="19.076315" lon="-98.587411">
        <ele>3219.961</ele>
        <time>2020-12-13T07:38:29Z</time>
      </trkpt>
      <trkpt lat="19.076258" lon="-98.587406">
        <ele>3220.718</ele>
        <time>2020-12-13T07:38:33Z</time>
      </trkpt>
      <trkpt lat="19.076209" lon="-98.587419">
        <ele>3220.813</ele>
        <time>2020-12-13T07:38:37Z</time>
      </trkpt>
      <trkpt lat="19.076162" lon="-98.58743">
        <ele>3220.043</ele>
        <time>2020-12-13T07:38:41Z</time>
      </trkpt>
      <trkpt lat="19.076117" lon="-98.587439">
        <ele>3219.907</ele>
        <time>2020-12-13T07:38:45Z</time>
      </trkpt>
      <trkpt lat="19.076065" lon="-98.587428">
        <ele>3221.908</ele>
        <time>2020-12-13T07:38:51Z</time>
      </trkpt>
      <trkpt lat="19.076018" lon="-98.587411">
        <ele>3223.977</ele>
        <time>2020-12-13T07:38:57Z</time>
      </trkpt>
      <trkpt lat="19.075971" lon="-98.58741">
        <ele>3225.193</ele>
        <time>2020-12-13T07:39:02Z</time>
      </trkpt>
      <trkpt lat="19.075911" lon="-98.587419">
        <ele>3226.693</ele>
        <time>2020-12-13T07:39:06Z</time>
      </trkpt>
      <trkpt lat="19.075863" lon="-98.587448">
        <ele>3226.774</ele>
        <time>2020-12-13T07:39:11Z</time>
      </trkpt>
      <trkpt lat="19.075818" lon="-98.587468">
        <ele>3226.425</ele>
        <time>2020-12-13T07:39:15Z</time>
      </trkpt>
      <trkpt lat="19.075772" lon="-98.587505">
        <ele>3227.084</ele>
        <time>2020-12-13T07:39:19Z</time>
      </trkpt>
      <trkpt lat="19.075741" lon="-98.587555">
        <ele>3227.880</ele>
        <time>2020-12-13T07:39:22Z</time>
      </trkpt>
      <trkpt lat="19.075712" lon="-98.587595">
        <ele>3229.577</ele>
        <time>2020-12-13T07:39:25Z</time>
      </trkpt>
      <trkpt lat="19.07569" lon="-98.587648">
        <ele>3230.161</ele>
        <time>2020-12-13T07:39:29Z</time>
      </trkpt>
      <trkpt lat="19.075668" lon="-98.587692">
        <ele>3230.921</ele>
        <time>2020-12-13T07:39:33Z</time>
      </trkpt>
      <trkpt lat="19.075643" lon="-98.587743">
        <ele>3230.213</ele>
        <time>2020-12-13T07:39:37Z</time>
      </trkpt>
      <trkpt lat="19.075619" lon="-98.587785">
        <ele>3229.408</ele>
        <time>2020-12-13T07:39:40Z</time>
      </trkpt>
      <trkpt lat="19.075594" lon="-98.587843">
        <ele>3229.782</ele>
        <time>2020-12-13T07:39:44Z</time>
      </trkpt>
      <trkpt lat="19.075571" lon="-98.587886">
        <ele>3229.968</ele>
        <time>2020-12-13T07:39:47Z</time>
      </trkpt>
      <trkpt lat="19.075548" lon="-98.58793">
        <ele>3230.868</ele>
        <time>2020-12-13T07:39:50Z</time>
      </trkpt>
      <trkpt lat="19.075523" lon="-98.58798">
        <ele>3231.329</ele>
        <time>2020-12-13T07:39:54Z</time>
      </trkpt>
      <trkpt lat="19.07549" lon="-98.588024">
        <ele>3230.450</ele>
        <time>2020-12-13T07:39:58Z</time>
      </trkpt>
      <trkpt lat="19.075461" lon="-98.588076">
        <ele>3229.929</ele>
        <time>2020-12-13T07:40:02Z</time>
      </trkpt>
      <trkpt lat="19.075431" lon="-98.588129">
        <ele>3230.055</ele>
        <time>2020-12-13T07:40:06Z</time>
      </trkpt>
      <trkpt lat="19.075405" lon="-98.588173">
        <ele>3230.142</ele>
        <time>2020-12-13T07:40:09Z</time>
      </trkpt>
      <trkpt lat="19.075365" lon="-98.588204">
        <ele>3227.714</ele>
        <time>2020-12-13T07:40:14Z</time>
      </trkpt>
      <trkpt lat="19.075307" lon="-98.588198">
        <ele>3231.754</ele>
        <time>2020-12-13T07:40:20Z</time>
      </trkpt>
      <trkpt lat="19.07527" lon="-98.588167">
        <ele>3235.709</ele>
        <time>2020-12-13T07:40:23Z</time>
      </trkpt>
      <trkpt lat="19.075249" lon="-98.588112">
        <ele>3237.908</ele>
        <time>2020-12-13T07:40:27Z</time>
      </trkpt>
      <trkpt lat="19.075255" lon="-98.588056">
        <ele>3236.837</ele>
        <time>2020-12-13T07:40:31Z</time>
      </trkpt>
      <trkpt lat="19.07526" lon="-98.587999">
        <ele>3235.793</ele>
        <time>2020-12-13T07:40:35Z</time>
      </trkpt>
      <trkpt lat="19.075271" lon="-98.587942">
        <ele>3235.113</ele>
        <time>2020-12-13T07:40:39Z</time>
      </trkpt>
      <trkpt lat="19.075284" lon="-98.587886">
        <ele>3233.984</ele>
        <time>2020-12-13T07:40:43Z</time>
      </trkpt>
      <trkpt lat="19.075295" lon="-98.587825">
        <ele>3234.815</ele>
        <time>2020-12-13T07:40:47Z</time>
      </trkpt>
      <trkpt lat="19.075299" lon="-98.587771">
        <ele>3234.524</ele>
        <time>2020-12-13T07:40:51Z</time>
      </trkpt>
      <trkpt lat="19.075303" lon="-98.587719">
        <ele>3234.740</ele>
        <time>2020-12-13T07:40:54Z</time>
      </trkpt>
      <trkpt lat="19.075306" lon="-98.587663">
        <ele>3234.047</ele>
        <time>2020-12-13T07:40:58Z</time>
      </trkpt>
      <trkpt lat="19.075283" lon="-98.587611">
        <ele>3232.016</ele>
        <time>2020-12-13T07:41:04Z</time>
      </trkpt>
      <trkpt lat="19.075261" lon="-98.587562">
        <ele>3228.076</ele>
        <time>2020-12-13T07:41:08Z</time>
      </trkpt>
      <trkpt lat="19.075249" lon="-98.587503">
        <ele>3226.413</ele>
        <time>2020-12-13T07:41:12Z</time>
      </trkpt>
      <trkpt lat="19.07526" lon="-98.587448">
        <ele>3226.208</ele>
        <time>2020-12-13T07:41:16Z</time>
      </trkpt>
      <trkpt lat="19.07527" lon="-98.587401">
        <ele>3225.317</ele>
        <time>2020-12-13T07:41:20Z</time>
      </trkpt>
      <trkpt lat="19.075284" lon="-98.587349">
        <ele>3225.213</ele>
        <time>2020-12-13T07:41:24Z</time>
      </trkpt>
      <trkpt lat="19.0753" lon="-98.587297">
        <ele>3225.513</ele>
        <time>2020-12-13T07:41:28Z</time>
      </trkpt>
      <trkpt lat="19.075292" lon="-98.587246">
        <ele>3224.964</ele>
        <time>2020-12-13T07:41:36Z</time>
      </trkpt>
      <trkpt lat="19.075264" lon="-98.587201">
        <ele>3224.545</ele>
        <time>2020-12-13T07:41:40Z</time>
      </trkpt>
      <trkpt lat="19.075224" lon="-98.587171">
        <ele>3224.794</ele>
        <time>2020-12-13T07:41:45Z</time>
      </trkpt>
      <trkpt lat="19.075185" lon="-98.587196">
        <ele>3225.650</ele>
        <time>2020-12-13T07:41:49Z</time>
      </trkpt>
      <trkpt lat="19.075148" lon="-98.587235">
        <ele>3227.387</ele>
        <time>2020-12-13T07:41:54Z</time>
      </trkpt>
      <trkpt lat="19.075127" lon="-98.587287">
        <ele>3228.366</ele>
        <time>2020-12-13T07:41:59Z</time>
      </trkpt>
      <trkpt lat="19.075109" lon="-98.587337">
        <ele>3229.729</ele>
        <time>2020-12-13T07:42:04Z</time>
      </trkpt>
      <trkpt lat="19.075101" lon="-98.587386">
        <ele>3231.021</ele>
        <time>2020-12-13T07:42:08Z</time>
      </trkpt>
      <trkpt lat="19.075076" lon="-98.587433">
        <ele>3234.208</ele>
        <time>2020-12-13T07:42:12Z</time>
      </trkpt>
      <trkpt lat="19.07506" lon="-98.58749">
        <ele>3236.192</ele>
        <time>2020-12-13T07:42:16Z</time>
      </trkpt>
      <trkpt lat="19.075042" lon="-98.58754">
        <ele>3236.838</ele>
        <time>2020-12-13T07:42:20Z</time>
      </trkpt>
      <trkpt lat="19.07502" lon="-98.587582">
        <ele>3236.448</ele>
        <time>2020-12-13T07:42:24Z</time>
      </trkpt>
      <trkpt lat="19.075002" lon="-98.587635">
        <ele>3237.069</ele>
        <time>2020-12-13T07:42:28Z</time>
      </trkpt>
      <trkpt lat="19.074983" lon="-98.58768">
        <ele>3236.640</ele>
        <time>2020-12-13T07:42:32Z</time>
      </trkpt>
      <trkpt lat="19.074956" lon="-98.58773">
        <ele>3237.569</ele>
        <time>2020-12-13T07:42:36Z</time>
      </trkpt>
      <trkpt lat="19.074903" lon="-98.58774">
        <ele>3237.355</ele>
        <time>2020-12-13T07:42:41Z</time>
      </trkpt>
      <trkpt lat="19.074871" lon="-98.587702">
        <ele>3236.442</ele>
        <time>2020-12-13T07:42:45Z</time>
      </trkpt>
      <trkpt lat="19.074848" lon="-98.587649">
        <ele>3236.292</ele>
        <time>2020-12-13T07:42:49Z</time>
      </trkpt>
      <trkpt lat="19.074836" lon="-98.58759">
        <ele>3234.573</ele>
        <time>2020-12-13T07:42:53Z</time>
      </trkpt>
      <trkpt lat="19.074837" lon="-98.587541">
        <ele>3233.120</ele>
        <time>2020-12-13T07:42:56Z</time>
      </trkpt>
      <trkpt lat="19.07483" lon="-98.587479">
        <ele>3230.208</ele>
        <time>2020-12-13T07:43:00Z</time>
      </trkpt>
      <trkpt lat="19.074814" lon="-98.587422">
        <ele>3227.765</ele>
        <time>2020-12-13T07:43:04Z</time>
      </trkpt>
      <trkpt lat="19.074791" lon="-98.587373">
        <ele>3226.651</ele>
        <time>2020-12-13T07:43:08Z</time>
      </trkpt>
      <trkpt lat="19.074749" lon="-98.587346">
        <ele>3225.931</ele>
        <time>2020-12-13T07:43:13Z</time>
      </trkpt>
      <trkpt lat="19.074702" lon="-98.587352">
        <ele>3227.142</ele>
        <time>2020-12-13T07:43:18Z</time>
      </trkpt>
      <trkpt lat="19.074651" lon="-98.587365">
        <ele>3228.613</ele>
        <time>2020-12-13T07:43:23Z</time>
      </trkpt>
      <trkpt lat="19.074602" lon="-98.587387">
        <ele>3229.112</ele>
        <time>2020-12-13T07:43:29Z</time>
      </trkpt>
      <trkpt lat="19.074576" lon="-98.587428">
        <ele>3228.258</ele>
        <time>2020-12-13T07:43:34Z</time>
      </trkpt>
      <trkpt lat="19.074545" lon="-98.587472">
        <ele>3228.525</ele>
        <time>2020-12-13T07:43:39Z</time>
      </trkpt>
      <trkpt lat="19.074515" lon="-98.587513">
        <ele>3228.732</ele>
        <time>2020-12-13T07:43:42Z</time>
      </trkpt>
      <trkpt lat="19.074476" lon="-98.587559">
        <ele>3229.292</ele>
        <time>2020-12-13T07:43:45Z</time>
      </trkpt>
      <trkpt lat="19.074445" lon="-98.587598">
        <ele>3229.511</ele>
        <time>2020-12-13T07:43:48Z</time>
      </trkpt>
      <trkpt lat="19.074414" lon="-98.587633">
        <ele>3230.908</ele>
        <time>2020-12-13T07:43:51Z</time>
      </trkpt>
      <trkpt lat="19.07438" lon="-98.587666">
        <ele>3232.119</ele>
        <time>2020-12-13T07:43:54Z</time>
      </trkpt>
      <trkpt lat="19.074332" lon="-98.587702">
        <ele>3232.845</ele>
        <time>2020-12-13T07:43:58Z</time>
      </trkpt>
      <trkpt lat="19.074285" lon="-98.587735">
        <ele>3233.655</ele>
        <time>2020-12-13T07:44:02Z</time>
      </trkpt>
      <trkpt lat="19.074238" lon="-98.58776">
        <ele>3234.576</ele>
        <time>2020-12-13T07:44:06Z</time>
      </trkpt>
      <trkpt lat="19.074187" lon="-98.587767">
        <ele>3235.487</ele>
        <time>2020-12-13T07:44:11Z</time>
      </trkpt>
      <trkpt lat="19.074139" lon="-98.587779">
        <ele>3236.026</ele>
        <time>2020-12-13T07:44:16Z</time>
      </trkpt>
      <trkpt lat="19.074102" lon="-98.587818">
        <ele>3236.792</ele>
        <time>2020-12-13T07:44:22Z</time>
      </trkpt>
      <trkpt lat="19.074068" lon="-98.587859">
        <ele>3236.779</ele>
        <time>2020-12-13T07:44:27Z</time>
      </trkpt>
      <trkpt lat="19.07402" lon="-98.587879">
        <ele>3237.946</ele>
        <time>2020-12-13T07:44:32Z</time>
      </trkpt>
      <trkpt lat="19.073975" lon="-98.587896">
        <ele>3238.288</ele>
        <time>2020-12-13T07:44:37Z</time>
      </trkpt>
      <trkpt lat="19.07393" lon="-98.587906">
        <ele>3238.816</ele>
        <time>2020-12-13T07:44:41Z</time>
      </trkpt>
      <trkpt lat="19.073873" lon="-98.587926">
        <ele>3240.008</ele>
        <time>2020-12-13T07:44:45Z</time>
      </trkpt>
      <trkpt lat="19.073816" lon="-98.587923">
        <ele>3240.340</ele>
        <time>2020-12-13T07:44:49Z</time>
      </trkpt>
      <trkpt lat="19.073766" lon="-98.587907">
        <ele>3241.756</ele>
        <time>2020-12-13T07:44:53Z</time>
      </trkpt>
      <trkpt lat="19.073712" lon="-98.587901">
        <ele>3243.376</ele>
        <time>2020-12-13T07:44:59Z</time>
      </trkpt>
      <trkpt lat="19.073666" lon="-98.587893">
        <ele>3245.177</ele>
        <time>2020-12-13T07:45:03Z</time>
      </trkpt>
      <trkpt lat="19.073611" lon="-98.587876">
        <ele>3245.828</ele>
        <time>2020-12-13T07:45:07Z</time>
      </trkpt>
      <trkpt lat="19.073553" lon="-98.587875">
        <ele>3246.627</ele>
        <time>2020-12-13T07:45:11Z</time>
      </trkpt>
      <trkpt lat="19.073506" lon="-98.587866">
        <ele>3247.113</ele>
        <time>2020-12-13T07:45:15Z</time>
      </trkpt>
      <trkpt lat="19.073458" lon="-98.58785">
        <ele>3251.110</ele>
        <time>2020-12-13T07:45:19Z</time>
      </trkpt>
      <trkpt lat="19.073411" lon="-98.587821">
        <ele>3255.159</ele>
        <time>2020-12-13T07:45:23Z</time>
      </trkpt>
      <trkpt lat="19.073359" lon="-98.587829">
        <ele>3256.603</ele>
        <time>2020-12-13T07:45:28Z</time>
      </trkpt>
      <trkpt lat="19.073309" lon="-98.587828">
        <ele>3255.123</ele>
        <time>2020-12-13T07:45:33Z</time>
      </trkpt>
      <trkpt lat="19.073263" lon="-98.587818">
        <ele>3254.608</ele>
        <time>2020-12-13T07:45:37Z</time>
      </trkpt>
      <trkpt lat="19.073218" lon="-98.587813">
        <ele>3254.311</ele>
        <time>2020-12-13T07:45:42Z</time>
      </trkpt>
      <trkpt lat="19.073168" lon="-98.587831">
        <ele>3253.717</ele>
        <time>2020-12-13T07:45:52Z</time>
      </trkpt>
      <trkpt lat="19.073121" lon="-98.587834">
        <ele>3253.897</ele>
        <time>2020-12-13T07:45:57Z</time>
      </trkpt>
      <trkpt lat="19.07307" lon="-98.587837">
        <ele>3253.048</ele>
        <time>2020-12-13T07:46:02Z</time>
      </trkpt>
      <trkpt lat="19.073021" lon="-98.587846">
        <ele>3254.149</ele>
        <time>2020-12-13T07:46:06Z</time>
      </trkpt>
      <trkpt lat="19.072978" lon="-98.587868">
        <ele>3254.498</ele>
        <time>2020-12-13T07:46:10Z</time>
      </trkpt>
      <trkpt lat="19.072932" lon="-98.587901">
        <ele>3253.884</ele>
        <time>2020-12-13T07:46:15Z</time>
      </trkpt>
      <trkpt lat="19.072883" lon="-98.58792">
        <ele>3253.411</ele>
        <time>2020-12-13T07:46:19Z</time>
      </trkpt>
      <trkpt lat="19.072832" lon="-98.58792">
        <ele>3250.838</ele>
        <time>2020-12-13T07:46:24Z</time>
      </trkpt>
      <trkpt lat="19.072788" lon="-98.58791">
        <ele>3249.670</ele>
        <time>2020-12-13T07:46:31Z</time>
      </trkpt>
      <trkpt lat="19.072734" lon="-98.587909">
        <ele>3248.117</ele>
        <time>2020-12-13T07:46:36Z</time>
      </trkpt>
      <trkpt lat="19.07269" lon="-98.587919">
        <ele>3246.408</ele>
        <time>2020-12-13T07:46:40Z</time>
      </trkpt>
      <trkpt lat="19.072639" lon="-98.587921">
        <ele>3245.899</ele>
        <time>2020-12-13T07:46:45Z</time>
      </trkpt>
      <trkpt lat="19.072581" lon="-98.587925">
        <ele>3245.895</ele>
        <time>2020-12-13T07:46:50Z</time>
      </trkpt>
      <trkpt lat="19.072535" lon="-98.587935">
        <ele>3244.645</ele>
        <time>2020-12-13T07:46:54Z</time>
      </trkpt>
      <trkpt lat="19.072487" lon="-98.587949">
        <ele>3244.366</ele>
        <time>2020-12-13T07:46:58Z</time>
      </trkpt>
      <trkpt lat="19.072445" lon="-98.587975">
        <ele>3245.397</ele>
        <time>2020-12-13T07:47:02Z</time>
      </trkpt>
      <trkpt lat="19.072404" lon="-98.588005">
        <ele>3247.166</ele>
        <time>2020-12-13T07:47:06Z</time>
      </trkpt>
      <trkpt lat="19.072356" lon="-98.588037">
        <ele>3248.662</ele>
        <time>2020-12-13T07:47:10Z</time>
      </trkpt>
      <trkpt lat="19.072318" lon="-98.588075">
        <ele>3249.539</ele>
        <time>2020-12-13T07:47:13Z</time>
      </trkpt>
      <trkpt lat="19.072282" lon="-98.588122">
        <ele>3252.094</ele>
        <time>2020-12-13T07:47:17Z</time>
      </trkpt>
      <trkpt lat="19.072263" lon="-98.588168">
        <ele>3252.757</ele>
        <time>2020-12-13T07:47:20Z</time>
      </trkpt>
      <trkpt lat="19.072248" lon="-98.588217">
        <ele>3253.922</ele>
        <time>2020-12-13T07:47:23Z</time>
      </trkpt>
      <trkpt lat="19.072234" lon="-98.588269">
        <ele>3255.408</ele>
        <time>2020-12-13T07:47:28Z</time>
      </trkpt>
      <trkpt lat="19.072208" lon="-98.588314">
        <ele>3255.125</ele>
        <time>2020-12-13T07:47:36Z</time>
      </trkpt>
      <trkpt lat="19.072169" lon="-98.588348">
        <ele>3254.991</ele>
        <time>2020-12-13T07:47:41Z</time>
      </trkpt>
      <trkpt lat="19.072135" lon="-98.588386">
        <ele>3254.491</ele>
        <time>2020-12-13T07:47:45Z</time>
      </trkpt>
      <trkpt lat="19.072095" lon="-98.588412">
        <ele>3254.532</ele>
        <time>2020-12-13T07:47:49Z</time>
      </trkpt>
      <trkpt lat="19.072056" lon="-98.588442">
        <ele>3254.623</ele>
        <time>2020-12-13T07:47:53Z</time>
      </trkpt>
      <trkpt lat="19.072006" lon="-98.588467">
        <ele>3254.212</ele>
        <time>2020-12-13T07:47:58Z</time>
      </trkpt>
      <trkpt lat="19.071968" lon="-98.588498">
        <ele>3254.428</ele>
        <time>2020-12-13T07:48:02Z</time>
      </trkpt>
      <trkpt lat="19.071923" lon="-98.588528">
        <ele>3254.545</ele>
        <time>2020-12-13T07:48:07Z</time>
      </trkpt>
      <trkpt lat="19.071882" lon="-98.588548">
        <ele>3253.427</ele>
        <time>2020-12-13T07:48:11Z</time>
      </trkpt>
      <trkpt lat="19.07184" lon="-98.588582">
        <ele>3252.768</ele>
        <time>2020-12-13T07:48:15Z</time>
      </trkpt>
      <trkpt lat="19.071807" lon="-98.588615">
        <ele>3254.714</ele>
        <time>2020-12-13T07:48:18Z</time>
      </trkpt>
      <trkpt lat="19.071778" lon="-98.588653">
        <ele>3256.708</ele>
        <time>2020-12-13T07:48:21Z</time>
      </trkpt>
      <trkpt lat="19.071752" lon="-98.588699">
        <ele>3258.738</ele>
        <time>2020-12-13T07:48:25Z</time>
      </trkpt>
      <trkpt lat="19.07172" lon="-98.588735">
        <ele>3260.744</ele>
        <time>2020-12-13T07:48:29Z</time>
      </trkpt>
      <trkpt lat="19.071689" lon="-98.588771">
        <ele>3263.124</ele>
        <time>2020-12-13T07:48:33Z</time>
      </trkpt>
      <trkpt lat="19.071664" lon="-98.588819">
        <ele>3264.945</ele>
        <time>2020-12-13T07:48:39Z</time>
      </trkpt>
      <trkpt lat="19.071638" lon="-98.588862">
        <ele>3265.646</ele>
        <time>2020-12-13T07:48:43Z</time>
      </trkpt>
      <trkpt lat="19.071592" lon="-98.588887">
        <ele>3266.825</ele>
        <time>2020-12-13T07:48:48Z</time>
      </trkpt>
      <trkpt lat="19.071544" lon="-98.588887">
        <ele>3267.171</ele>
        <time>2020-12-13T07:48:53Z</time>
      </trkpt>
      <trkpt lat="19.071491" lon="-98.58888">
        <ele>3266.958</ele>
        <time>2020-12-13T07:48:58Z</time>
      </trkpt>
      <trkpt lat="19.071436" lon="-98.588891">
        <ele>3267.255</ele>
        <time>2020-12-13T07:49:02Z</time>
      </trkpt>
      <trkpt lat="19.071381" lon="-98.588913">
        <ele>3269.407</ele>
        <time>2020-12-13T07:49:06Z</time>
      </trkpt>
      <trkpt lat="19.071331" lon="-98.588931">
        <ele>3270.317</ele>
        <time>2020-12-13T07:49:10Z</time>
      </trkpt>
      <trkpt lat="19.07128" lon="-98.588938">
        <ele>3270.408</ele>
        <time>2020-12-13T07:49:14Z</time>
      </trkpt>
      <trkpt lat="19.071234" lon="-98.588928">
        <ele>3270.961</ele>
        <time>2020-12-13T07:49:18Z</time>
      </trkpt>
      <trkpt lat="19.071186" lon="-98.588907">
        <ele>3270.477</ele>
        <time>2020-12-13T07:49:22Z</time>
      </trkpt>
      <trkpt lat="19.07114" lon="-98.588898">
        <ele>3270.117</ele>
        <time>2020-12-13T07:49:26Z</time>
      </trkpt>
      <trkpt lat="19.071088" lon="-98.588898">
        <ele>3269.968</ele>
        <time>2020-12-13T07:49:32Z</time>
      </trkpt>
      <trkpt lat="19.071043" lon="-98.5889">
        <ele>3269.869</ele>
        <time>2020-12-13T07:49:37Z</time>
      </trkpt>
      <trkpt lat="19.070999" lon="-98.588927">
        <ele>3268.968</ele>
        <time>2020-12-13T07:49:42Z</time>
      </trkpt>
      <trkpt lat="19.070951" lon="-98.588951">
        <ele>3267.644</ele>
        <time>2020-12-13T07:49:47Z</time>
      </trkpt>
      <trkpt lat="19.070906" lon="-98.588969">
        <ele>3266.851</ele>
        <time>2020-12-13T07:49:52Z</time>
      </trkpt>
      <trkpt lat="19.070859" lon="-98.588947">
        <ele>3270.824</ele>
        <time>2020-12-13T07:50:00Z</time>
      </trkpt>
      <trkpt lat="19.070827" lon="-98.588913">
        <ele>3273.104</ele>
        <time>2020-12-13T07:50:04Z</time>
      </trkpt>
      <trkpt lat="19.0708" lon="-98.588874">
        <ele>3277.114</ele>
        <time>2020-12-13T07:50:07Z</time>
      </trkpt>
      <trkpt lat="19.070785" lon="-98.588817">
        <ele>3276.508</ele>
        <time>2020-12-13T07:50:11Z</time>
      </trkpt>
      <trkpt lat="19.070787" lon="-98.588769">
        <ele>3274.128</ele>
        <time>2020-12-13T07:50:14Z</time>
      </trkpt>
      <trkpt lat="19.070787" lon="-98.588716">
        <ele>3272.794</ele>
        <time>2020-12-13T07:50:17Z</time>
      </trkpt>
      <trkpt lat="19.070784" lon="-98.588665">
        <ele>3271.484</ele>
        <time>2020-12-13T07:50:20Z</time>
      </trkpt>
      <trkpt lat="19.070786" lon="-98.588609">
        <ele>3269.835</ele>
        <time>2020-12-13T07:50:24Z</time>
      </trkpt>
      <trkpt lat="19.070789" lon="-98.588561">
        <ele>3269.796</ele>
        <time>2020-12-13T07:50:28Z</time>
      </trkpt>
      <trkpt lat="19.070771" lon="-98.588511">
        <ele>3270.055</ele>
        <time>2020-12-13T07:50:32Z</time>
      </trkpt>
      <trkpt lat="19.070757" lon="-98.588453">
        <ele>3269.471</ele>
        <time>2020-12-13T07:50:37Z</time>
      </trkpt>
      <trkpt lat="19.070751" lon="-98.5884">
        <ele>3268.648</ele>
        <time>2020-12-13T07:50:41Z</time>
      </trkpt>
      <trkpt lat="19.070744" lon="-98.588346">
        <ele>3268.546</ele>
        <time>2020-12-13T07:50:45Z</time>
      </trkpt>
      <trkpt lat="19.070746" lon="-98.588297">
        <ele>3267.788</ele>
        <time>2020-12-13T07:50:49Z</time>
      </trkpt>
      <trkpt lat="19.070746" lon="-98.588241">
        <ele>3268.416</ele>
        <time>2020-12-13T07:50:53Z</time>
      </trkpt>
      <trkpt lat="19.07078" lon="-98.588196">
        <ele>3268.808</ele>
        <time>2020-12-13T07:50:58Z</time>
      </trkpt>
      <trkpt lat="19.070793" lon="-98.588146">
        <ele>3270.360</ele>
        <time>2020-12-13T07:51:04Z</time>
      </trkpt>
      <trkpt lat="19.070834" lon="-98.588121">
        <ele>3271.616</ele>
        <time>2020-12-13T07:52:10Z</time>
      </trkpt>
      <trkpt lat="19.070785" lon="-98.588098">
        <ele>3272.456</ele>
        <time>2020-12-13T07:53:05Z</time>
      </trkpt>
      <trkpt lat="19.07074" lon="-98.588085">
        <ele>3272.557</ele>
        <time>2020-12-13T07:53:08Z</time>
      </trkpt>
      <trkpt lat="19.070735" lon="-98.588035">
        <ele>3271.788</ele>
        <time>2020-12-13T07:53:15Z</time>
      </trkpt>
      <trkpt lat="19.070702" lon="-98.587993">
        <ele>3271.677</ele>
        <time>2020-12-13T07:53:19Z</time>
      </trkpt>
      <trkpt lat="19.07065" lon="-98.587964">
        <ele>3272.083</ele>
        <time>2020-12-13T07:53:22Z</time>
      </trkpt>
      <trkpt lat="19.0706" lon="-98.587926">
        <ele>3271.820</ele>
        <time>2020-12-13T07:53:25Z</time>
      </trkpt>
      <trkpt lat="19.070546" lon="-98.587908">
        <ele>3274.179</ele>
        <time>2020-12-13T07:53:29Z</time>
      </trkpt>
      <trkpt lat="19.070505" lon="-98.587866">
        <ele>3277.905</ele>
        <time>2020-12-13T07:53:33Z</time>
      </trkpt>
      <trkpt lat="19.070456" lon="-98.587848">
        <ele>3280.625</ele>
        <time>2020-12-13T07:53:37Z</time>
      </trkpt>
      <trkpt lat="19.070406" lon="-98.587856">
        <ele>3283.008</ele>
        <time>2020-12-13T07:53:42Z</time>
      </trkpt>
      <trkpt lat="19.07036" lon="-98.587837">
        <ele>3284.493</ele>
        <time>2020-12-13T07:53:46Z</time>
      </trkpt>
      <trkpt lat="19.07031" lon="-98.587825">
        <ele>3285.789</ele>
        <time>2020-12-13T07:53:50Z</time>
      </trkpt>
      <trkpt lat="19.070261" lon="-98.587802">
        <ele>3286.559</ele>
        <time>2020-12-13T07:53:55Z</time>
      </trkpt>
      <trkpt lat="19.070214" lon="-98.587787">
        <ele>3287.470</ele>
        <time>2020-12-13T07:54:00Z</time>
      </trkpt>
      <trkpt lat="19.070166" lon="-98.587771">
        <ele>3287.151</ele>
        <time>2020-12-13T07:54:05Z</time>
      </trkpt>
      <trkpt lat="19.070119" lon="-98.587754">
        <ele>3285.730</ele>
        <time>2020-12-13T07:54:09Z</time>
      </trkpt>
      <trkpt lat="19.070071" lon="-98.58775">
        <ele>3284.966</ele>
        <time>2020-12-13T07:54:15Z</time>
      </trkpt>
      <trkpt lat="19.070083" lon="-98.587825">
        <ele>3285.273</ele>
        <time>2020-12-13T07:54:18Z</time>
      </trkpt>
      <trkpt lat="19.070058" lon="-98.587877">
        <ele>3285.814</ele>
        <time>2020-12-13T07:54:22Z</time>
      </trkpt>
      <trkpt lat="19.070002" lon="-98.587894">
        <ele>3286.254</ele>
        <time>2020-12-13T07:54:26Z</time>
      </trkpt>
      <trkpt lat="19.06994" lon="-98.587901">
        <ele>3287.609</ele>
        <time>2020-12-13T07:54:30Z</time>
      </trkpt>
      <trkpt lat="19.069885" lon="-98.58789">
        <ele>3289.608</ele>
        <time>2020-12-13T07:54:34Z</time>
      </trkpt>
      <trkpt lat="19.069843" lon="-98.587872">
        <ele>3291.277</ele>
        <time>2020-12-13T07:54:37Z</time>
      </trkpt>
      <trkpt lat="19.0698" lon="-98.587828">
        <ele>3291.843</ele>
        <time>2020-12-13T07:54:42Z</time>
      </trkpt>
      <trkpt lat="19.069777" lon="-98.587778">
        <ele>3291.783</ele>
        <time>2020-12-13T07:54:45Z</time>
      </trkpt>
      <trkpt lat="19.069762" lon="-98.587731">
        <ele>3292.594</ele>
        <time>2020-12-13T07:54:49Z</time>
      </trkpt>
      <trkpt lat="19.069711" lon="-98.58772">
        <ele>3293.875</ele>
        <time>2020-12-13T07:54:54Z</time>
      </trkpt>
      <trkpt lat="19.06966" lon="-98.587718">
        <ele>3293.494</ele>
        <time>2020-12-13T07:54:58Z</time>
      </trkpt>
      <trkpt lat="19.069607" lon="-98.587732">
        <ele>3293.920</ele>
        <time>2020-12-13T07:55:02Z</time>
      </trkpt>
      <trkpt lat="19.069557" lon="-98.587739">
        <ele>3295.417</ele>
        <time>2020-12-13T07:55:06Z</time>
      </trkpt>
      <trkpt lat="19.069512" lon="-98.587767">
        <ele>3295.924</ele>
        <time>2020-12-13T07:55:10Z</time>
      </trkpt>
      <trkpt lat="19.069464" lon="-98.587786">
        <ele>3297.804</ele>
        <time>2020-12-13T07:55:15Z</time>
      </trkpt>
      <trkpt lat="19.069416" lon="-98.587794">
        <ele>3299.714</ele>
        <time>2020-12-13T07:55:19Z</time>
      </trkpt>
      <trkpt lat="19.06938" lon="-98.587824">
        <ele>3301.708</ele>
        <time>2020-12-13T07:55:23Z</time>
      </trkpt>
      <trkpt lat="19.069336" lon="-98.587847">
        <ele>3304.178</ele>
        <time>2020-12-13T07:55:26Z</time>
      </trkpt>
      <trkpt lat="19.069288" lon="-98.587858">
        <ele>3305.544</ele>
        <time>2020-12-13T07:55:29Z</time>
      </trkpt>
      <trkpt lat="19.069245" lon="-98.587875">
        <ele>3306.494</ele>
        <time>2020-12-13T07:55:32Z</time>
      </trkpt>
      <trkpt lat="19.069191" lon="-98.587889">
        <ele>3306.565</ele>
        <time>2020-12-13T07:55:36Z</time>
      </trkpt>
      <trkpt lat="19.069142" lon="-98.587893">
        <ele>3307.086</ele>
        <time>2020-12-13T07:55:40Z</time>
      </trkpt>
      <trkpt lat="19.069099" lon="-98.587912">
        <ele>3308.175</ele>
        <time>2020-12-13T07:55:45Z</time>
      </trkpt>
      <trkpt lat="19.069047" lon="-98.587905">
        <ele>3308.721</ele>
        <time>2020-12-13T07:55:50Z</time>
      </trkpt>
      <trkpt lat="19.069005" lon="-98.587941">
        <ele>3309.198</ele>
        <time>2020-12-13T07:55:55Z</time>
      </trkpt>
      <trkpt lat="19.069009" lon="-98.587994">
        <ele>3307.753</ele>
        <time>2020-12-13T07:55:59Z</time>
      </trkpt>
      <trkpt lat="19.06902" lon="-98.588055">
        <ele>3306.104</ele>
        <time>2020-12-13T07:56:03Z</time>
      </trkpt>
      <trkpt lat="19.069037" lon="-98.588117">
        <ele>3303.914</ele>
        <time>2020-12-13T07:56:07Z</time>
      </trkpt>
      <trkpt lat="19.069045" lon="-98.588168">
        <ele>3302.608</ele>
        <time>2020-12-13T07:56:10Z</time>
      </trkpt>
      <trkpt lat="19.069046" lon="-98.588222">
        <ele>3302.291</ele>
        <time>2020-12-13T07:56:14Z</time>
      </trkpt>
      <trkpt lat="19.069035" lon="-98.588283">
        <ele>3301.677</ele>
        <time>2020-12-13T07:56:18Z</time>
      </trkpt>
      <trkpt lat="19.06901" lon="-98.588329">
        <ele>3302.477</ele>
        <time>2020-12-13T07:56:22Z</time>
      </trkpt>
      <trkpt lat="19.068961" lon="-98.588329">
        <ele>3304.578</ele>
        <time>2020-12-13T07:56:25Z</time>
      </trkpt>
      <trkpt lat="19.068914" lon="-98.588301">
        <ele>3305.049</ele>
        <time>2020-12-13T07:56:29Z</time>
      </trkpt>
      <trkpt lat="19.06887" lon="-98.588262">
        <ele>3308.568</ele>
        <time>2020-12-13T07:56:33Z</time>
      </trkpt>
      <trkpt lat="19.068823" lon="-98.588236">
        <ele>3309.454</ele>
        <time>2020-12-13T07:56:38Z</time>
      </trkpt>
      <trkpt lat="19.068779" lon="-98.588226">
        <ele>3308.741</ele>
        <time>2020-12-13T07:56:42Z</time>
      </trkpt>
      <trkpt lat="19.068741" lon="-98.588199">
        <ele>3308.349</ele>
        <time>2020-12-13T07:56:46Z</time>
      </trkpt>
      <trkpt lat="19.068705" lon="-98.588162">
        <ele>3310.102</ele>
        <time>2020-12-13T07:56:50Z</time>
      </trkpt>
      <trkpt lat="19.068671" lon="-98.588119">
        <ele>3310.822</ele>
        <time>2020-12-13T07:56:54Z</time>
      </trkpt>
      <trkpt lat="19.068633" lon="-98.58809">
        <ele>3311.208</ele>
        <time>2020-12-13T07:56:59Z</time>
      </trkpt>
      <trkpt lat="19.068588" lon="-98.588083">
        <ele>3311.850</ele>
        <time>2020-12-13T07:57:03Z</time>
      </trkpt>
      <trkpt lat="19.068544" lon="-98.588042">
        <ele>3312.616</ele>
        <time>2020-12-13T07:57:08Z</time>
      </trkpt>
      <trkpt lat="19.068504" lon="-98.588009">
        <ele>3313.526</ele>
        <time>2020-12-13T07:57:13Z</time>
      </trkpt>
      <trkpt lat="19.068454" lon="-98.587995">
        <ele>3315.297</ele>
        <time>2020-12-13T07:57:18Z</time>
      </trkpt>
      <trkpt lat="19.068401" lon="-98.587996">
        <ele>3315.088</ele>
        <time>2020-12-13T07:57:24Z</time>
      </trkpt>
      <trkpt lat="19.068347" lon="-98.587984">
        <ele>3314.157</ele>
        <time>2020-12-13T07:57:29Z</time>
      </trkpt>
      <trkpt lat="19.068295" lon="-98.587979">
        <ele>3314.843</ele>
        <time>2020-12-13T07:57:33Z</time>
      </trkpt>
      <trkpt lat="19.068242" lon="-98.587969">
        <ele>3314.810</ele>
        <time>2020-12-13T07:57:40Z</time>
      </trkpt>
      <trkpt lat="19.0682" lon="-98.58795">
        <ele>3314.471</ele>
        <time>2020-12-13T07:57:44Z</time>
      </trkpt>
      <trkpt lat="19.068142" lon="-98.587943">
        <ele>3314.641</ele>
        <time>2020-12-13T07:57:48Z</time>
      </trkpt>
      <trkpt lat="19.068097" lon="-98.587918">
        <ele>3314.315</ele>
        <time>2020-12-13T07:57:52Z</time>
      </trkpt>
      <trkpt lat="19.068062" lon="-98.587888">
        <ele>3314.108</ele>
        <time>2020-12-13T07:57:55Z</time>
      </trkpt>
      <trkpt lat="19.068027" lon="-98.587843">
        <ele>3314.073</ele>
        <time>2020-12-13T07:57:59Z</time>
      </trkpt>
      <trkpt lat="19.067985" lon="-98.587805">
        <ele>3313.569</ele>
        <time>2020-12-13T07:58:04Z</time>
      </trkpt>
      <trkpt lat="19.06794" lon="-98.587788">
        <ele>3313.239</ele>
        <time>2020-12-13T07:58:08Z</time>
      </trkpt>
      <trkpt lat="19.067889" lon="-98.587789">
        <ele>3313.880</ele>
        <time>2020-12-13T07:58:12Z</time>
      </trkpt>
      <trkpt lat="19.067846" lon="-98.58781">
        <ele>3314.681</ele>
        <time>2020-12-13T07:58:16Z</time>
      </trkpt>
      <trkpt lat="19.067804" lon="-98.587835">
        <ele>3315.530</ele>
        <time>2020-12-13T07:58:21Z</time>
      </trkpt>
      <trkpt lat="19.06775" lon="-98.587842">
        <ele>3316.886</ele>
        <time>2020-12-13T07:58:27Z</time>
      </trkpt>
      <trkpt lat="19.067699" lon="-98.587874">
        <ele>3317.653</ele>
        <time>2020-12-13T07:58:31Z</time>
      </trkpt>
      <trkpt lat="19.067657" lon="-98.587901">
        <ele>3318.552</ele>
        <time>2020-12-13T07:58:34Z</time>
      </trkpt>
      <trkpt lat="19.067612" lon="-98.587936">
        <ele>3319.453</ele>
        <time>2020-12-13T07:58:38Z</time>
      </trkpt>
      <trkpt lat="19.067572" lon="-98.587979">
        <ele>3319.208</ele>
        <time>2020-12-13T07:58:42Z</time>
      </trkpt>
      <trkpt lat="19.067542" lon="-98.588021">
        <ele>3322.308</ele>
        <time>2020-12-13T07:58:47Z</time>
      </trkpt>
      <trkpt lat="19.067525" lon="-98.588071">
        <ele>3324.591</ele>
        <time>2020-12-13T07:58:51Z</time>
      </trkpt>
      <trkpt lat="19.06749" lon="-98.588119">
        <ele>3325.417</ele>
        <time>2020-12-13T07:58:55Z</time>
      </trkpt>
      <trkpt lat="19.067454" lon="-98.588158">
        <ele>3325.667</ele>
        <time>2020-12-13T07:58:59Z</time>
      </trkpt>
      <trkpt lat="19.067419" lon="-98.588195">
        <ele>3326.198</ele>
        <time>2020-12-13T07:59:03Z</time>
      </trkpt>
      <trkpt lat="19.067395" lon="-98.588238">
        <ele>3327.689</ele>
        <time>2020-12-13T07:59:06Z</time>
      </trkpt>
      <trkpt lat="19.067364" lon="-98.588272">
        <ele>3328.968</ele>
        <time>2020-12-13T07:59:10Z</time>
      </trkpt>
      <trkpt lat="19.067318" lon="-98.5883">
        <ele>3329.344</ele>
        <time>2020-12-13T07:59:16Z</time>
      </trkpt>
      <trkpt lat="19.067265" lon="-98.588303">
        <ele>3328.771</ele>
        <time>2020-12-13T07:59:21Z</time>
      </trkpt>
      <trkpt lat="19.067215" lon="-98.588276">
        <ele>3328.434</ele>
        <time>2020-12-13T07:59:26Z</time>
      </trkpt>
      <trkpt lat="19.067178" lon="-98.588231">
        <ele>3328.655</ele>
        <time>2020-12-13T07:59:30Z</time>
      </trkpt>
      <trkpt lat="19.067144" lon="-98.588194">
        <ele>3329.510</ele>
        <time>2020-12-13T07:59:32Z</time>
      </trkpt>
      <trkpt lat="19.067098" lon="-98.588171">
        <ele>3330.808</ele>
        <time>2020-12-13T07:59:37Z</time>
      </trkpt>
      <trkpt lat="19.06705" lon="-98.588142">
        <ele>3331.679</ele>
        <time>2020-12-13T07:59:41Z</time>
      </trkpt>
      <trkpt lat="19.067006" lon="-98.588103">
        <ele>3330.155</ele>
        <time>2020-12-13T07:59:45Z</time>
      </trkpt>
      <trkpt lat="19.06697" lon="-98.588058">
        <ele>3330.055</ele>
        <time>2020-12-13T07:59:49Z</time>
      </trkpt>
      <trkpt lat="19.066929" lon="-98.588038">
        <ele>3329.166</ele>
        <time>2020-12-13T07:59:53Z</time>
      </trkpt>
      <trkpt lat="19.066881" lon="-98.588038">
        <ele>3329.457</ele>
        <time>2020-12-13T07:59:56Z</time>
      </trkpt>
      <trkpt lat="19.066824" lon="-98.588042">
        <ele>3328.866</ele>
        <time>2020-12-13T08:00:01Z</time>
      </trkpt>
      <trkpt lat="19.066771" lon="-98.58804">
        <ele>3327.682</ele>
        <time>2020-12-13T08:00:06Z</time>
      </trkpt>
      <trkpt lat="19.066719" lon="-98.588044">
        <ele>3327.399</ele>
        <time>2020-12-13T08:00:11Z</time>
      </trkpt>
      <trkpt lat="19.06667" lon="-98.588044">
        <ele>3327.598</ele>
        <time>2020-12-13T08:00:17Z</time>
      </trkpt>
      <trkpt lat="19.06663" lon="-98.588014">
        <ele>3328.015</ele>
        <time>2020-12-13T08:00:22Z</time>
      </trkpt>
      <trkpt lat="19.066585" lon="-98.587979">
        <ele>3327.526</ele>
        <time>2020-12-13T08:00:28Z</time>
      </trkpt>
      <trkpt lat="19.066558" lon="-98.587938">
        <ele>3327.608</ele>
        <time>2020-12-13T08:00:32Z</time>
      </trkpt>
      <trkpt lat="19.066536" lon="-98.587885">
        <ele>3326.935</ele>
        <time>2020-12-13T08:00:37Z</time>
      </trkpt>
      <trkpt lat="19.066498" lon="-98.587857">
        <ele>3326.151</ele>
        <time>2020-12-13T08:00:41Z</time>
      </trkpt>
      <trkpt lat="19.066453" lon="-98.587848">
        <ele>3326.091</ele>
        <time>2020-12-13T08:00:45Z</time>
      </trkpt>
      <trkpt lat="19.066405" lon="-98.587858">
        <ele>3326.742</ele>
        <time>2020-12-13T08:00:50Z</time>
      </trkpt>
      <trkpt lat="19.06639" lon="-98.587913">
        <ele>3327.553</ele>
        <time>2020-12-13T08:00:57Z</time>
      </trkpt>
      <trkpt lat="19.066372" lon="-98.587961">
        <ele>3328.422</ele>
        <time>2020-12-13T08:01:01Z</time>
      </trkpt>
      <trkpt lat="19.066351" lon="-98.588006">
        <ele>3329.388</ele>
        <time>2020-12-13T08:01:04Z</time>
      </trkpt>
      <trkpt lat="19.066325" lon="-98.588051">
        <ele>3330.375</ele>
        <time>2020-12-13T08:01:07Z</time>
      </trkpt>
      <trkpt lat="19.06628" lon="-98.588083">
        <ele>3331.394</ele>
        <time>2020-12-13T08:01:11Z</time>
      </trkpt>
      <trkpt lat="19.066229" lon="-98.588068">
        <ele>3331.157</ele>
        <time>2020-12-13T08:01:14Z</time>
      </trkpt>
      <trkpt lat="19.066175" lon="-98.58805">
        <ele>3331.822</ele>
        <time>2020-12-13T08:01:17Z</time>
      </trkpt>
      <trkpt lat="19.066122" lon="-98.588043">
        <ele>3331.408</ele>
        <time>2020-12-13T08:01:20Z</time>
      </trkpt>
      <trkpt lat="19.066064" lon="-98.588042">
        <ele>3330.815</ele>
        <time>2020-12-13T08:01:23Z</time>
      </trkpt>
      <trkpt lat="19.066018" lon="-98.588033">
        <ele>3330.821</ele>
        <time>2020-12-13T08:01:26Z</time>
      </trkpt>
      <trkpt lat="19.065984" lon="-98.587987">
        <ele>3330.081</ele>
        <time>2020-12-13T08:01:31Z</time>
      </trkpt>
      <trkpt lat="19.065965" lon="-98.587936">
        <ele>3326.092</ele>
        <time>2020-12-13T08:01:34Z</time>
      </trkpt>
      <trkpt lat="19.065952" lon="-98.587888">
        <ele>3325.173</ele>
        <time>2020-12-13T08:01:37Z</time>
      </trkpt>
      <trkpt lat="19.065933" lon="-98.587843">
        <ele>3327.812</ele>
        <time>2020-12-13T08:01:41Z</time>
      </trkpt>
      <trkpt lat="19.065891" lon="-98.587813">
        <ele>3330.628</ele>
        <time>2020-12-13T08:01:46Z</time>
      </trkpt>
      <trkpt lat="19.065848" lon="-98.587798">
        <ele>3331.145</ele>
        <time>2020-12-13T08:01:52Z</time>
      </trkpt>
      <trkpt lat="19.065797" lon="-98.5878">
        <ele>3332.699</ele>
        <time>2020-12-13T08:01:58Z</time>
      </trkpt>
      <trkpt lat="19.065739" lon="-98.587786">
        <ele>3334.307</ele>
        <time>2020-12-13T08:02:04Z</time>
      </trkpt>
      <trkpt lat="19.065684" lon="-98.587781">
        <ele>3335.727</ele>
        <time>2020-12-13T08:02:08Z</time>
      </trkpt>
      <trkpt lat="19.065643" lon="-98.587803">
        <ele>3338.108</ele>
        <time>2020-12-13T08:02:19Z</time>
      </trkpt>
      <trkpt lat="19.065664" lon="-98.587847">
        <ele>3339.215</ele>
        <time>2020-12-13T08:02:37Z</time>
      </trkpt>
      <trkpt lat="19.065653" lon="-98.587898">
        <ele>3338.681</ele>
        <time>2020-12-13T08:02:45Z</time>
      </trkpt>
      <trkpt lat="19.065666" lon="-98.587953">
        <ele>3338.741</ele>
        <time>2020-12-13T08:02:49Z</time>
      </trkpt>
      <trkpt lat="19.065697" lon="-98.588001">
        <ele>3338.782</ele>
        <time>2020-12-13T08:02:53Z</time>
      </trkpt>
      <trkpt lat="19.065725" lon="-98.588046">
        <ele>3339.583</ele>
        <time>2020-12-13T08:02:59Z</time>
      </trkpt>
      <trkpt lat="19.065755" lon="-98.588081">
        <ele>3341.272</ele>
        <time>2020-12-13T08:03:03Z</time>
      </trkpt>
      <trkpt lat="19.065796" lon="-98.588114">
        <ele>3342.638</ele>
        <time>2020-12-13T08:03:06Z</time>
      </trkpt>
      <trkpt lat="19.065825" lon="-98.588152">
        <ele>3343.865</ele>
        <time>2020-12-13T08:03:10Z</time>
      </trkpt>
      <trkpt lat="19.06586" lon="-98.588189">
        <ele>3340.953</ele>
        <time>2020-12-13T08:03:14Z</time>
      </trkpt>
      <trkpt lat="19.065897" lon="-98.588218">
        <ele>3342.404</ele>
        <time>2020-12-13T08:03:18Z</time>
      </trkpt>
      <trkpt lat="19.065943" lon="-98.588251">
        <ele>3344.514</ele>
        <time>2020-12-13T08:03:22Z</time>
      </trkpt>
      <trkpt lat="19.065991" lon="-98.588285">
        <ele>3346.208</ele>
        <time>2020-12-13T08:03:26Z</time>
      </trkpt>
      <trkpt lat="19.066034" lon="-98.588316">
        <ele>3347.661</ele>
        <time>2020-12-13T08:03:31Z</time>
      </trkpt>
      <trkpt lat="19.066083" lon="-98.588337">
        <ele>3349.287</ele>
        <time>2020-12-13T08:03:35Z</time>
      </trkpt>
      <trkpt lat="19.066136" lon="-98.588356">
        <ele>3349.867</ele>
        <time>2020-12-13T08:03:40Z</time>
      </trkpt>
      <trkpt lat="19.066188" lon="-98.588372">
        <ele>3350.548</ele>
        <time>2020-12-13T08:03:45Z</time>
      </trkpt>
      <trkpt lat="19.066239" lon="-98.58838">
        <ele>3351.729</ele>
        <time>2020-12-13T08:03:50Z</time>
      </trkpt>
      <trkpt lat="19.066284" lon="-98.588404">
        <ele>3352.478</ele>
        <time>2020-12-13T08:03:54Z</time>
      </trkpt>
      <trkpt lat="19.066303" lon="-98.588455">
        <ele>3352.854</ele>
        <time>2020-12-13T08:03:59Z</time>
      </trkpt>
      <trkpt lat="19.066328" lon="-98.588503">
        <ele>3352.771</ele>
        <time>2020-12-13T08:04:04Z</time>
      </trkpt>
      <trkpt lat="19.066365" lon="-98.588547">
        <ele>3352.267</ele>
        <time>2020-12-13T08:04:09Z</time>
      </trkpt>
      <trkpt lat="19.066394" lon="-98.58859">
        <ele>3351.981</ele>
        <time>2020-12-13T08:04:13Z</time>
      </trkpt>
      <trkpt lat="19.066414" lon="-98.588639">
        <ele>3352.119</ele>
        <time>2020-12-13T08:04:18Z</time>
      </trkpt>
      <trkpt lat="19.066411" lon="-98.588693">
        <ele>3352.208</ele>
        <time>2020-12-13T08:04:24Z</time>
      </trkpt>
      <trkpt lat="19.066422" lon="-98.588751">
        <ele>3355.182</ele>
        <time>2020-12-13T08:04:29Z</time>
      </trkpt>
      <trkpt lat="19.066451" lon="-98.588797">
        <ele>3356.038</ele>
        <time>2020-12-13T08:04:33Z</time>
      </trkpt>
      <trkpt lat="19.066491" lon="-98.588839">
        <ele>3356.618</ele>
        <time>2020-12-13T08:04:36Z</time>
      </trkpt>
      <trkpt lat="19.066523" lon="-98.588885">
        <ele>3356.139</ele>
        <time>2020-12-13T08:04:40Z</time>
      </trkpt>
      <trkpt lat="19.066538" lon="-98.588933">
        <ele>3355.850</ele>
        <time>2020-12-13T08:04:45Z</time>
      </trkpt>
      <trkpt lat="19.066546" lon="-98.588981">
        <ele>3355.639</ele>
        <time>2020-12-13T08:04:49Z</time>
      </trkpt>
      <trkpt lat="19.066551" lon="-98.589045">
        <ele>3351.655</ele>
        <time>2020-12-13T08:04:53Z</time>
      </trkpt>
      <trkpt lat="19.06656" lon="-98.589098">
        <ele>3350.352</ele>
        <time>2020-12-13T08:04:56Z</time>
      </trkpt>
      <trkpt lat="19.066557" lon="-98.589151">
        <ele>3350.718</ele>
        <time>2020-12-13T08:05:00Z</time>
      </trkpt>
      <trkpt lat="19.066565" lon="-98.589201">
        <ele>3351.098</ele>
        <time>2020-12-13T08:05:05Z</time>
      </trkpt>
      <trkpt lat="19.066585" lon="-98.589248">
        <ele>3351.217</ele>
        <time>2020-12-13T08:05:09Z</time>
      </trkpt>
      <trkpt lat="19.066618" lon="-98.589286">
        <ele>3351.708</ele>
        <time>2020-12-13T08:05:13Z</time>
      </trkpt>
      <trkpt lat="19.066655" lon="-98.589322">
        <ele>3352.057</ele>
        <time>2020-12-13T08:05:16Z</time>
      </trkpt>
      <trkpt lat="19.066698" lon="-98.589356">
        <ele>3352.623</ele>
        <time>2020-12-13T08:05:20Z</time>
      </trkpt>
      <trkpt lat="19.066746" lon="-98.589388">
        <ele>3352.113</ele>
        <time>2020-12-13T08:05:24Z</time>
      </trkpt>
      <trkpt lat="19.066789" lon="-98.589418">
        <ele>3354.634</ele>
        <time>2020-12-13T08:05:32Z</time>
      </trkpt>
      <trkpt lat="19.066816" lon="-98.589459">
        <ele>3356.185</ele>
        <time>2020-12-13T08:05:36Z</time>
      </trkpt>
      <trkpt lat="19.066853" lon="-98.589501">
        <ele>3356.274</ele>
        <time>2020-12-13T08:05:40Z</time>
      </trkpt>
      <trkpt lat="19.066888" lon="-98.589533">
        <ele>3356.760</ele>
        <time>2020-12-13T08:05:43Z</time>
      </trkpt>
      <trkpt lat="19.066933" lon="-98.589573">
        <ele>3357.867</ele>
        <time>2020-12-13T08:05:47Z</time>
      </trkpt>
      <trkpt lat="19.066976" lon="-98.589618">
        <ele>3358.492</ele>
        <time>2020-12-13T08:05:51Z</time>
      </trkpt>
      <trkpt lat="19.067011" lon="-98.589663">
        <ele>3359.273</ele>
        <time>2020-12-13T08:05:54Z</time>
      </trkpt>
      <trkpt lat="19.067046" lon="-98.589707">
        <ele>3358.920</ele>
        <time>2020-12-13T08:05:58Z</time>
      </trkpt>
      <trkpt lat="19.067075" lon="-98.589748">
        <ele>3359.108</ele>
        <time>2020-12-13T08:06:04Z</time>
      </trkpt>
      <trkpt lat="19.067119" lon="-98.589769">
        <ele>3359.235</ele>
        <time>2020-12-13T08:06:09Z</time>
      </trkpt>
      <trkpt lat="19.067163" lon="-98.589778">
        <ele>3359.771</ele>
        <time>2020-12-13T08:06:13Z</time>
      </trkpt>
      <trkpt lat="19.067204" lon="-98.589806">
        <ele>3360.411</ele>
        <time>2020-12-13T08:06:19Z</time>
      </trkpt>
      <trkpt lat="19.067243" lon="-98.589838">
        <ele>3360.832</ele>
        <time>2020-12-13T08:06:27Z</time>
      </trkpt>
      <trkpt lat="19.067268" lon="-98.589883">
        <ele>3362.633</ele>
        <time>2020-12-13T08:06:48Z</time>
      </trkpt>
      <trkpt lat="19.067311" lon="-98.589915">
        <ele>3364.912</ele>
        <time>2020-12-13T08:06:53Z</time>
      </trkpt>
      <trkpt lat="19.067315" lon="-98.589964">
        <ele>3366.328</ele>
        <time>2020-12-13T08:06:57Z</time>
      </trkpt>
      <trkpt lat="19.067303" lon="-98.590015">
        <ele>3368.715</ele>
        <time>2020-12-13T08:07:03Z</time>
      </trkpt>
      <trkpt lat="19.067316" lon="-98.590072">
        <ele>3368.236</ele>
        <time>2020-12-13T08:07:11Z</time>
      </trkpt>
      <trkpt lat="19.067337" lon="-98.590125">
        <ele>3368.317</ele>
        <time>2020-12-13T08:07:15Z</time>
      </trkpt>
      <trkpt lat="19.067345" lon="-98.590176">
        <ele>3367.518</ele>
        <time>2020-12-13T08:07:19Z</time>
      </trkpt>
      <trkpt lat="19.067321" lon="-98.59023">
        <ele>3365.808</ele>
        <time>2020-12-13T08:07:24Z</time>
      </trkpt>
      <trkpt lat="19.067316" lon="-98.590279">
        <ele>3364.899</ele>
        <time>2020-12-13T08:07:28Z</time>
      </trkpt>
      <trkpt lat="19.067341" lon="-98.590329">
        <ele>3363.025</ele>
        <time>2020-12-13T08:07:34Z</time>
      </trkpt>
      <trkpt lat="19.067377" lon="-98.590357">
        <ele>3361.595</ele>
        <time>2020-12-13T08:07:41Z</time>
      </trkpt>
      <trkpt lat="19.06738" lon="-98.590406">
        <ele>3359.816</ele>
        <time>2020-12-13T08:07:46Z</time>
      </trkpt>
      <trkpt lat="19.067383" lon="-98.59046">
        <ele>3359.637</ele>
        <time>2020-12-13T08:07:52Z</time>
      </trkpt>
      <trkpt lat="19.067382" lon="-98.590508">
        <ele>3360.766</ele>
        <time>2020-12-13T08:08:44Z</time>
      </trkpt>
      <trkpt lat="19.067435" lon="-98.590525">
        <ele>3362.942</ele>
        <time>2020-12-13T08:12:45Z</time>
      </trkpt>
      <trkpt lat="19.06748" lon="-98.590552">
        <ele>3364.299</ele>
        <time>2020-12-13T08:12:49Z</time>
      </trkpt>
      <trkpt lat="19.067534" lon="-98.590575">
        <ele>3365.853</ele>
        <time>2020-12-13T08:12:53Z</time>
      </trkpt>
      <trkpt lat="19.067594" lon="-98.590568">
        <ele>3367.204</ele>
        <time>2020-12-13T08:12:57Z</time>
      </trkpt>
      <trkpt lat="19.067645" lon="-98.590569">
        <ele>3367.214</ele>
        <time>2020-12-13T08:13:04Z</time>
      </trkpt>
      <trkpt lat="19.067692" lon="-98.590596">
        <ele>3367.608</ele>
        <time>2020-12-13T08:13:09Z</time>
      </trkpt>
      <trkpt lat="19.067706" lon="-98.590652">
        <ele>3368.671</ele>
        <time>2020-12-13T08:13:14Z</time>
      </trkpt>
      <trkpt lat="19.06772" lon="-98.5907">
        <ele>3368.827</ele>
        <time>2020-12-13T08:13:18Z</time>
      </trkpt>
      <trkpt lat="19.067711" lon="-98.590751">
        <ele>3368.957</ele>
        <time>2020-12-13T08:13:22Z</time>
      </trkpt>
      <trkpt lat="19.067703" lon="-98.590804">
        <ele>3369.458</ele>
        <time>2020-12-13T08:13:25Z</time>
      </trkpt>
      <trkpt lat="19.067695" lon="-98.590862">
        <ele>3370.559</ele>
        <time>2020-12-13T08:13:29Z</time>
      </trkpt>
      <trkpt lat="19.067695" lon="-98.59092">
        <ele>3372.438</ele>
        <time>2020-12-13T08:13:34Z</time>
      </trkpt>
      <trkpt lat="19.067697" lon="-98.590968">
        <ele>3373.554</ele>
        <time>2020-12-13T08:13:38Z</time>
      </trkpt>
      <trkpt lat="19.067719" lon="-98.591017">
        <ele>3374.281</ele>
        <time>2020-12-13T08:13:43Z</time>
      </trkpt>
      <trkpt lat="19.067758" lon="-98.591047">
        <ele>3376.285</ele>
        <time>2020-12-13T08:13:47Z</time>
      </trkpt>
      <trkpt lat="19.067802" lon="-98.591071">
        <ele>3377.489</ele>
        <time>2020-12-13T08:13:51Z</time>
      </trkpt>
      <trkpt lat="19.067842" lon="-98.591099">
        <ele>3379.317</ele>
        <time>2020-12-13T08:13:56Z</time>
      </trkpt>
      <trkpt lat="19.067864" lon="-98.591146">
        <ele>3379.308</ele>
        <time>2020-12-13T08:14:04Z</time>
      </trkpt>
      <trkpt lat="19.067865" lon="-98.591205">
        <ele>3378.974</ele>
        <time>2020-12-13T08:14:08Z</time>
      </trkpt>
      <trkpt lat="19.06788" lon="-98.591258">
        <ele>3378.290</ele>
        <time>2020-12-13T08:14:12Z</time>
      </trkpt>
      <trkpt lat="19.067893" lon="-98.591306">
        <ele>3377.850</ele>
        <time>2020-12-13T08:14:16Z</time>
      </trkpt>
      <trkpt lat="19.067896" lon="-98.59136">
        <ele>3378.871</ele>
        <time>2020-12-13T08:14:19Z</time>
      </trkpt>
      <trkpt lat="19.067891" lon="-98.591411">
        <ele>3380.642</ele>
        <time>2020-12-13T08:14:22Z</time>
      </trkpt>
      <trkpt lat="19.067891" lon="-98.591469">
        <ele>3376.621</ele>
        <time>2020-12-13T08:14:26Z</time>
      </trkpt>
      <trkpt lat="19.067905" lon="-98.59152">
        <ele>3373.347</ele>
        <time>2020-12-13T08:14:30Z</time>
      </trkpt>
      <trkpt lat="19.067913" lon="-98.591573">
        <ele>3376.524</ele>
        <time>2020-12-13T08:14:35Z</time>
      </trkpt>
      <trkpt lat="19.067918" lon="-98.591626">
        <ele>3378.442</ele>
        <time>2020-12-13T08:14:40Z</time>
      </trkpt>
      <trkpt lat="19.06791" lon="-98.591675">
        <ele>3379.622</ele>
        <time>2020-12-13T08:14:44Z</time>
      </trkpt>
      <trkpt lat="19.067929" lon="-98.591722">
        <ele>3381.114</ele>
        <time>2020-12-13T08:14:48Z</time>
      </trkpt>
      <trkpt lat="19.06796" lon="-98.591766">
        <ele>3383.208</ele>
        <time>2020-12-13T08:14:52Z</time>
      </trkpt>
      <trkpt lat="19.068001" lon="-98.591797">
        <ele>3384.120</ele>
        <time>2020-12-13T08:14:56Z</time>
      </trkpt>
      <trkpt lat="19.068053" lon="-98.591808">
        <ele>3383.896</ele>
        <time>2020-12-13T08:15:00Z</time>
      </trkpt>
      <trkpt lat="19.068103" lon="-98.591817">
        <ele>3383.636</ele>
        <time>2020-12-13T08:15:05Z</time>
      </trkpt>
      <trkpt lat="19.068155" lon="-98.591839">
        <ele>3383.177</ele>
        <time>2020-12-13T08:15:09Z</time>
      </trkpt>
      <trkpt lat="19.068185" lon="-98.591881">
        <ele>3382.488</ele>
        <time>2020-12-13T08:15:14Z</time>
      </trkpt>
      <trkpt lat="19.068222" lon="-98.591924">
        <ele>3382.837</ele>
        <time>2020-12-13T08:15:19Z</time>
      </trkpt>
      <trkpt lat="19.068263" lon="-98.591965">
        <ele>3384.253</ele>
        <time>2020-12-13T08:15:23Z</time>
      </trkpt>
      <trkpt lat="19.06828" lon="-98.592018">
        <ele>3380.280</ele>
        <time>2020-12-13T08:15:27Z</time>
      </trkpt>
      <trkpt lat="19.068267" lon="-98.592083">
        <ele>3379.917</ele>
        <time>2020-12-13T08:15:31Z</time>
      </trkpt>
      <trkpt lat="19.068254" lon="-98.592133">
        <ele>3381.787</ele>
        <time>2020-12-13T08:15:34Z</time>
      </trkpt>
      <trkpt lat="19.068233" lon="-98.592185">
        <ele>3384.015</ele>
        <time>2020-12-13T08:15:38Z</time>
      </trkpt>
      <trkpt lat="19.068203" lon="-98.592223">
        <ele>3386.208</ele>
        <time>2020-12-13T08:15:43Z</time>
      </trkpt>
      <trkpt lat="19.068171" lon="-98.592258">
        <ele>3387.187</ele>
        <time>2020-12-13T08:15:48Z</time>
      </trkpt>
      <trkpt lat="19.068132" lon="-98.592291">
        <ele>3388.483</ele>
        <time>2020-12-13T08:15:54Z</time>
      </trkpt>
      <trkpt lat="19.068112" lon="-98.592342">
        <ele>3390.843</ele>
        <time>2020-12-13T08:15:59Z</time>
      </trkpt>
      <trkpt lat="19.068101" lon="-98.592406">
        <ele>3391.494</ele>
        <time>2020-12-13T08:16:03Z</time>
      </trkpt>
      <trkpt lat="19.068086" lon="-98.592465">
        <ele>3391.885</ele>
        <time>2020-12-13T08:16:07Z</time>
      </trkpt>
      <trkpt lat="19.068068" lon="-98.592511">
        <ele>3392.414</ele>
        <time>2020-12-13T08:16:10Z</time>
      </trkpt>
      <trkpt lat="19.068039" lon="-98.592564">
        <ele>3392.490</ele>
        <time>2020-12-13T08:16:14Z</time>
      </trkpt>
      <trkpt lat="19.068013" lon="-98.592608">
        <ele>3391.227</ele>
        <time>2020-12-13T08:16:18Z</time>
      </trkpt>
      <trkpt lat="19.067974" lon="-98.592648">
        <ele>3391.366</ele>
        <time>2020-12-13T08:16:23Z</time>
      </trkpt>
      <trkpt lat="19.067948" lon="-98.592694">
        <ele>3392.929</ele>
        <time>2020-12-13T08:16:27Z</time>
      </trkpt>
      <trkpt lat="19.067918" lon="-98.592733">
        <ele>3393.921</ele>
        <time>2020-12-13T08:16:31Z</time>
      </trkpt>
      <trkpt lat="19.067874" lon="-98.59275">
        <ele>3395.308</ele>
        <time>2020-12-13T08:16:35Z</time>
      </trkpt>
      <trkpt lat="19.067828" lon="-98.592766">
        <ele>3394.912</ele>
        <time>2020-12-13T08:16:40Z</time>
      </trkpt>
      <trkpt lat="19.067792" lon="-98.592808">
        <ele>3393.188</ele>
        <time>2020-12-13T08:16:45Z</time>
      </trkpt>
      <trkpt lat="19.067764" lon="-98.592851">
        <ele>3390.858</ele>
        <time>2020-12-13T08:16:49Z</time>
      </trkpt>
      <trkpt lat="19.067742" lon="-98.592904">
        <ele>3390.639</ele>
        <time>2020-12-13T08:16:54Z</time>
      </trkpt>
      <trkpt lat="19.067735" lon="-98.59296">
        <ele>3391.330</ele>
        <time>2020-12-13T08:16:58Z</time>
      </trkpt>
      <trkpt lat="19.067725" lon="-98.593007">
        <ele>3391.369</ele>
        <time>2020-12-13T08:17:01Z</time>
      </trkpt>
      <trkpt lat="19.06771" lon="-98.59306">
        <ele>3392.135</ele>
        <time>2020-12-13T08:17:04Z</time>
      </trkpt>
      <trkpt lat="19.067709" lon="-98.593117">
        <ele>3392.672</ele>
        <time>2020-12-13T08:17:08Z</time>
      </trkpt>
      <trkpt lat="19.067724" lon="-98.593173">
        <ele>3391.332</ele>
        <time>2020-12-13T08:17:13Z</time>
      </trkpt>
      <trkpt lat="19.067767" lon="-98.593209">
        <ele>3390.592</ele>
        <time>2020-12-13T08:17:17Z</time>
      </trkpt>
      <trkpt lat="19.067815" lon="-98.593242">
        <ele>3389.211</ele>
        <time>2020-12-13T08:17:21Z</time>
      </trkpt>
      <trkpt lat="19.067846" lon="-98.593286">
        <ele>3387.208</ele>
        <time>2020-12-13T08:17:25Z</time>
      </trkpt>
      <trkpt lat="19.067883" lon="-98.593334">
        <ele>3388.479</ele>
        <time>2020-12-13T08:17:29Z</time>
      </trkpt>
      <trkpt lat="19.067916" lon="-98.593378">
        <ele>3389.915</ele>
        <time>2020-12-13T08:17:34Z</time>
      </trkpt>
      <trkpt lat="19.067949" lon="-98.593423">
        <ele>3391.285</ele>
        <time>2020-12-13T08:17:39Z</time>
      </trkpt>
      <trkpt lat="19.067985" lon="-98.593458">
        <ele>3393.296</ele>
        <time>2020-12-13T08:17:43Z</time>
      </trkpt>
      <trkpt lat="19.068015" lon="-98.593496">
        <ele>3394.867</ele>
        <time>2020-12-13T08:17:47Z</time>
      </trkpt>
      <trkpt lat="19.068048" lon="-98.593534">
        <ele>3396.246</ele>
        <time>2020-12-13T08:17:51Z</time>
      </trkpt>
      <trkpt lat="19.068085" lon="-98.593562">
        <ele>3397.072</ele>
        <time>2020-12-13T08:17:55Z</time>
      </trkpt>
      <trkpt lat="19.068123" lon="-98.59359">
        <ele>3397.559</ele>
        <time>2020-12-13T08:17:59Z</time>
      </trkpt>
      <trkpt lat="19.068174" lon="-98.593604">
        <ele>3396.667</ele>
        <time>2020-12-13T08:18:05Z</time>
      </trkpt>
      <trkpt lat="19.068227" lon="-98.593622">
        <ele>3397.781</ele>
        <time>2020-12-13T08:18:10Z</time>
      </trkpt>
      <trkpt lat="19.068274" lon="-98.593625">
        <ele>3399.119</ele>
        <time>2020-12-13T08:18:14Z</time>
      </trkpt>
      <trkpt lat="19.068312" lon="-98.593658">
        <ele>3401.608</ele>
        <time>2020-12-13T08:18:25Z</time>
      </trkpt>
      <trkpt lat="19.068347" lon="-98.593707">
        <ele>3403.182</ele>
        <time>2020-12-13T08:18:29Z</time>
      </trkpt>
      <trkpt lat="19.068389" lon="-98.59375">
        <ele>3403.278</ele>
        <time>2020-12-13T08:18:33Z</time>
      </trkpt>
      <trkpt lat="19.068417" lon="-98.593802">
        <ele>3404.958</ele>
        <time>2020-12-13T08:18:37Z</time>
      </trkpt>
      <trkpt lat="19.068434" lon="-98.59386">
        <ele>3400.929</ele>
        <time>2020-12-13T08:18:41Z</time>
      </trkpt>
      <trkpt lat="19.068432" lon="-98.59392">
        <ele>3396.950</ele>
        <time>2020-12-13T08:18:45Z</time>
      </trkpt>
      <trkpt lat="19.068421" lon="-98.593973">
        <ele>3395.999</ele>
        <time>2020-12-13T08:18:49Z</time>
      </trkpt>
      <trkpt lat="19.068386" lon="-98.594016">
        <ele>3399.915</ele>
        <time>2020-12-13T08:18:54Z</time>
      </trkpt>
      <trkpt lat="19.068344" lon="-98.594033">
        <ele>3395.982</ele>
        <time>2020-12-13T08:19:00Z</time>
      </trkpt>
      <trkpt lat="19.068301" lon="-98.594047">
        <ele>3391.968</ele>
        <time>2020-12-13T08:19:03Z</time>
      </trkpt>
      <trkpt lat="19.06825" lon="-98.594091">
        <ele>3395.942</ele>
        <time>2020-12-13T08:19:07Z</time>
      </trkpt>
      <trkpt lat="19.068207" lon="-98.594122">
        <ele>3399.926</ele>
        <time>2020-12-13T08:19:10Z</time>
      </trkpt>
      <trkpt lat="19.068148" lon="-98.594119">
        <ele>3403.908</ele>
        <time>2020-12-13T08:19:14Z</time>
      </trkpt>
      <trkpt lat="19.0681" lon="-98.594103">
        <ele>3407.792</ele>
        <time>2020-12-13T08:19:19Z</time>
      </trkpt>
      <trkpt lat="19.06805" lon="-98.594088">
        <ele>3411.218</ele>
        <time>2020-12-13T08:19:24Z</time>
      </trkpt>
      <trkpt lat="19.068002" lon="-98.594033">
        <ele>3415.268</ele>
        <time>2020-12-13T08:19:27Z</time>
      </trkpt>
      <trkpt lat="19.067973" lon="-98.59399">
        <ele>3411.249</ele>
        <time>2020-12-13T08:19:29Z</time>
      </trkpt>
      <trkpt lat="19.067943" lon="-98.593934">
        <ele>3408.170</ele>
        <time>2020-12-13T08:19:32Z</time>
      </trkpt>
      <trkpt lat="19.067916" lon="-98.593892">
        <ele>3411.049</ele>
        <time>2020-12-13T08:19:36Z</time>
      </trkpt>
      <trkpt lat="19.067882" lon="-98.593845">
        <ele>3413.675</ele>
        <time>2020-12-13T08:19:40Z</time>
      </trkpt>
      <trkpt lat="19.067847" lon="-98.593801">
        <ele>3414.762</ele>
        <time>2020-12-13T08:19:44Z</time>
      </trkpt>
      <trkpt lat="19.067801" lon="-98.593812">
        <ele>3416.254</ele>
        <time>2020-12-13T08:19:50Z</time>
      </trkpt>
      <trkpt lat="19.06775" lon="-98.593816">
        <ele>3418.356</ele>
        <time>2020-12-13T08:19:55Z</time>
      </trkpt>
      <trkpt lat="19.067701" lon="-98.593814">
        <ele>3419.211</ele>
        <time>2020-12-13T08:19:59Z</time>
      </trkpt>
      <trkpt lat="19.067643" lon="-98.593801">
        <ele>3420.908</ele>
        <time>2020-12-13T08:20:02Z</time>
      </trkpt>
      <trkpt lat="19.067595" lon="-98.593789">
        <ele>3421.521</ele>
        <time>2020-12-13T08:20:05Z</time>
      </trkpt>
      <trkpt lat="19.067543" lon="-98.593785">
        <ele>3421.977</ele>
        <time>2020-12-13T08:20:08Z</time>
      </trkpt>
      <trkpt lat="19.067495" lon="-98.593798">
        <ele>3422.517</ele>
        <time>2020-12-13T08:20:11Z</time>
      </trkpt>
      <trkpt lat="19.067438" lon="-98.59382">
        <ele>3422.168</ele>
        <time>2020-12-13T08:20:15Z</time>
      </trkpt>
      <trkpt lat="19.067391" lon="-98.593841">
        <ele>3421.899</ele>
        <time>2020-12-13T08:20:18Z</time>
      </trkpt>
      <trkpt lat="19.067348" lon="-98.59387">
        <ele>3420.828</ele>
        <time>2020-12-13T08:20:21Z</time>
      </trkpt>
      <trkpt lat="19.067306" lon="-98.593897">
        <ele>3420.274</ele>
        <time>2020-12-13T08:20:24Z</time>
      </trkpt>
      <trkpt lat="19.067265" lon="-98.593917">
        <ele>3420.771</ele>
        <time>2020-12-13T08:20:27Z</time>
      </trkpt>
      <trkpt lat="19.067218" lon="-98.59393">
        <ele>3419.835</ele>
        <time>2020-12-13T08:20:34Z</time>
      </trkpt>
      <trkpt lat="19.067172" lon="-98.593945">
        <ele>3421.286</ele>
        <time>2020-12-13T08:20:40Z</time>
      </trkpt>
      <trkpt lat="19.067128" lon="-98.59393">
        <ele>3422.114</ele>
        <time>2020-12-13T08:20:43Z</time>
      </trkpt>
      <trkpt lat="19.067083" lon="-98.593915">
        <ele>3423.408</ele>
        <time>2020-12-13T08:20:46Z</time>
      </trkpt>
      <trkpt lat="19.067038" lon="-98.593908">
        <ele>3425.029</ele>
        <time>2020-12-13T08:20:50Z</time>
      </trkpt>
      <trkpt lat="19.066987" lon="-98.593885">
        <ele>3425.245</ele>
        <time>2020-12-13T08:20:54Z</time>
      </trkpt>
      <trkpt lat="19.066941" lon="-98.593862">
        <ele>3426.575</ele>
        <time>2020-12-13T08:20:58Z</time>
      </trkpt>
      <trkpt lat="19.066889" lon="-98.593841">
        <ele>3428.556</ele>
        <time>2020-12-13T08:21:02Z</time>
      </trkpt>
      <trkpt lat="19.066838" lon="-98.593818">
        <ele>3429.357</ele>
        <time>2020-12-13T08:21:06Z</time>
      </trkpt>
      <trkpt lat="19.06679" lon="-98.593807">
        <ele>3429.036</ele>
        <time>2020-12-13T08:21:10Z</time>
      </trkpt>
      <trkpt lat="19.066741" lon="-98.593801">
        <ele>3429.252</ele>
        <time>2020-12-13T08:21:15Z</time>
      </trkpt>
      <trkpt lat="19.066695" lon="-98.593806">
        <ele>3429.749</ele>
        <time>2020-12-13T08:21:20Z</time>
      </trkpt>
      <trkpt lat="19.066646" lon="-98.593811">
        <ele>3429.249</ele>
        <time>2020-12-13T08:21:25Z</time>
      </trkpt>
      <trkpt lat="19.066594" lon="-98.593808">
        <ele>3429.702</ele>
        <time>2020-12-13T08:21:30Z</time>
      </trkpt>
      <trkpt lat="19.066543" lon="-98.593805">
        <ele>3430.022</ele>
        <time>2020-12-13T08:21:37Z</time>
      </trkpt>
      <trkpt lat="19.0665" lon="-98.59379">
        <ele>3431.408</ele>
        <time>2020-12-13T08:21:40Z</time>
      </trkpt>
      <trkpt lat="19.06645" lon="-98.59376">
        <ele>3433.090</ele>
        <time>2020-12-13T08:21:44Z</time>
      </trkpt>
      <trkpt lat="19.066405" lon="-98.593737">
        <ele>3434.486</ele>
        <time>2020-12-13T08:21:47Z</time>
      </trkpt>
      <trkpt lat="19.066346" lon="-98.593727">
        <ele>3436.096</ele>
        <time>2020-12-13T08:21:50Z</time>
      </trkpt>
      <trkpt lat="19.066287" lon="-98.593741">
        <ele>3437.487</ele>
        <time>2020-12-13T08:21:53Z</time>
      </trkpt>
      <trkpt lat="19.066255" lon="-98.593792">
        <ele>3437.458</ele>
        <time>2020-12-13T08:21:56Z</time>
      </trkpt>
      <trkpt lat="19.066246" lon="-98.593841">
        <ele>3437.867</ele>
        <time>2020-12-13T08:21:58Z</time>
      </trkpt>
      <trkpt lat="19.066256" lon="-98.593904">
        <ele>3439.653</ele>
        <time>2020-12-13T08:22:01Z</time>
      </trkpt>
      <trkpt lat="19.066246" lon="-98.593959">
        <ele>3440.750</ele>
        <time>2020-12-13T08:22:05Z</time>
      </trkpt>
      <trkpt lat="19.066211" lon="-98.594">
        <ele>3440.665</ele>
        <time>2020-12-13T08:22:10Z</time>
      </trkpt>
      <trkpt lat="19.066156" lon="-98.594003">
        <ele>3441.368</ele>
        <time>2020-12-13T08:22:15Z</time>
      </trkpt>
      <trkpt lat="19.066099" lon="-98.593991">
        <ele>3442.114</ele>
        <time>2020-12-13T08:22:19Z</time>
      </trkpt>
      <trkpt lat="19.066042" lon="-98.593977">
        <ele>3441.808</ele>
        <time>2020-12-13T08:22:23Z</time>
      </trkpt>
      <trkpt lat="19.065994" lon="-98.593956">
        <ele>3442.422</ele>
        <time>2020-12-13T08:22:27Z</time>
      </trkpt>
      <trkpt lat="19.065951" lon="-98.593933">
        <ele>3442.048</ele>
        <time>2020-12-13T08:22:31Z</time>
      </trkpt>
      <trkpt lat="19.065903" lon="-98.593903">
        <ele>3443.798</ele>
        <time>2020-12-13T08:22:36Z</time>
      </trkpt>
      <trkpt lat="19.065852" lon="-98.593888">
        <ele>3443.529</ele>
        <time>2020-12-13T08:22:41Z</time>
      </trkpt>
      <trkpt lat="19.0658" lon="-98.593903">
        <ele>3444.290</ele>
        <time>2020-12-13T08:22:45Z</time>
      </trkpt>
      <trkpt lat="19.065755" lon="-98.59392">
        <ele>3445.439</ele>
        <time>2020-12-13T08:22:48Z</time>
      </trkpt>
      <trkpt lat="19.06571" lon="-98.593928">
        <ele>3445.735</ele>
        <time>2020-12-13T08:22:51Z</time>
      </trkpt>
      <trkpt lat="19.065665" lon="-98.593924">
        <ele>3445.922</ele>
        <time>2020-12-13T08:22:54Z</time>
      </trkpt>
      <trkpt lat="19.065613" lon="-98.593912">
        <ele>3446.092</ele>
        <time>2020-12-13T08:22:58Z</time>
      </trkpt>
      <trkpt lat="19.06556" lon="-98.593903">
        <ele>3445.373</ele>
        <time>2020-12-13T08:23:04Z</time>
      </trkpt>
      <trkpt lat="19.065509" lon="-98.593907">
        <ele>3444.520</ele>
        <time>2020-12-13T08:23:09Z</time>
      </trkpt>
      <trkpt lat="19.065462" lon="-98.593933">
        <ele>3444.408</ele>
        <time>2020-12-13T08:23:14Z</time>
      </trkpt>
      <trkpt lat="19.065413" lon="-98.593957">
        <ele>3445.955</ele>
        <time>2020-12-13T08:23:19Z</time>
      </trkpt>
      <trkpt lat="19.065356" lon="-98.593974">
        <ele>3446.871</ele>
        <time>2020-12-13T08:23:24Z</time>
      </trkpt>
      <trkpt lat="19.065299" lon="-98.593988">
        <ele>3448.261</ele>
        <time>2020-12-13T08:23:28Z</time>
      </trkpt>
      <trkpt lat="19.06525" lon="-98.594018">
        <ele>3449.442</ele>
        <time>2020-12-13T08:23:32Z</time>
      </trkpt>
      <trkpt lat="19.065214" lon="-98.594061">
        <ele>3450.153</ele>
        <time>2020-12-13T08:23:37Z</time>
      </trkpt>
      <trkpt lat="19.06518" lon="-98.5941">
        <ele>3450.942</ele>
        <time>2020-12-13T08:23:41Z</time>
      </trkpt>
      <trkpt lat="19.065145" lon="-98.594151">
        <ele>3452.218</ele>
        <time>2020-12-13T08:23:45Z</time>
      </trkpt>
      <trkpt lat="19.065124" lon="-98.594204">
        <ele>3453.045</ele>
        <time>2020-12-13T08:23:49Z</time>
      </trkpt>
      <trkpt lat="19.065083" lon="-98.594243">
        <ele>3453.123</ele>
        <time>2020-12-13T08:23:55Z</time>
      </trkpt>
      <trkpt lat="19.065065" lon="-98.594297">
        <ele>3453.183</ele>
        <time>2020-12-13T08:23:59Z</time>
      </trkpt>
      <trkpt lat="19.065022" lon="-98.594328">
        <ele>3453.511</ele>
        <time>2020-12-13T08:24:04Z</time>
      </trkpt>
      <trkpt lat="19.064973" lon="-98.594337">
        <ele>3454.208</ele>
        <time>2020-12-13T08:24:09Z</time>
      </trkpt>
      <trkpt lat="19.064924" lon="-98.594364">
        <ele>3453.048</ele>
        <time>2020-12-13T08:24:14Z</time>
      </trkpt>
      <trkpt lat="19.064865" lon="-98.594382">
        <ele>3451.164</ele>
        <time>2020-12-13T08:24:17Z</time>
      </trkpt>
      <trkpt lat="19.064815" lon="-98.59439">
        <ele>3450.354</ele>
        <time>2020-12-13T08:24:19Z</time>
      </trkpt>
      <trkpt lat="19.064763" lon="-98.594384">
        <ele>3450.265</ele>
        <time>2020-12-13T08:24:22Z</time>
      </trkpt>
      <trkpt lat="19.064717" lon="-98.594362">
        <ele>3448.646</ele>
        <time>2020-12-13T08:24:27Z</time>
      </trkpt>
      <trkpt lat="19.064672" lon="-98.594354">
        <ele>3448.875</ele>
        <time>2020-12-13T08:24:31Z</time>
      </trkpt>
      <trkpt lat="19.064624" lon="-98.594341">
        <ele>3449.761</ele>
        <time>2020-12-13T08:24:35Z</time>
      </trkpt>
      <trkpt lat="19.064576" lon="-98.594337">
        <ele>3450.338</ele>
        <time>2020-12-13T08:24:39Z</time>
      </trkpt>
      <trkpt lat="19.064527" lon="-98.594336">
        <ele>3451.826</ele>
        <time>2020-12-13T08:24:43Z</time>
      </trkpt>
      <trkpt lat="19.064478" lon="-98.594324">
        <ele>3453.947</ele>
        <time>2020-12-13T08:24:47Z</time>
      </trkpt>
      <trkpt lat="19.064426" lon="-98.594308">
        <ele>3454.011</ele>
        <time>2020-12-13T08:24:51Z</time>
      </trkpt>
      <trkpt lat="19.064383" lon="-98.594344">
        <ele>3453.208</ele>
        <time>2020-12-13T08:24:55Z</time>
      </trkpt>
      <trkpt lat="19.064363" lon="-98.594396">
        <ele>3453.988</ele>
        <time>2020-12-13T08:24:59Z</time>
      </trkpt>
      <trkpt lat="19.064342" lon="-98.594446">
        <ele>3454.724</ele>
        <time>2020-12-13T08:25:02Z</time>
      </trkpt>
      <trkpt lat="19.064313" lon="-98.594496">
        <ele>3455.664</ele>
        <time>2020-12-13T08:25:05Z</time>
      </trkpt>
      <trkpt lat="19.064279" lon="-98.594537">
        <ele>3454.965</ele>
        <time>2020-12-13T08:25:09Z</time>
      </trkpt>
      <trkpt lat="19.064238" lon="-98.594565">
        <ele>3454.916</ele>
        <time>2020-12-13T08:25:14Z</time>
      </trkpt>
      <trkpt lat="19.064215" lon="-98.594608">
        <ele>3453.395</ele>
        <time>2020-12-13T08:25:18Z</time>
      </trkpt>
      <trkpt lat="19.064198" lon="-98.594653">
        <ele>3450.391</ele>
        <time>2020-12-13T08:25:23Z</time>
      </trkpt>
      <trkpt lat="19.064205" lon="-98.594712">
        <ele>3446.318</ele>
        <time>2020-12-13T08:25:28Z</time>
      </trkpt>
      <trkpt lat="19.064209" lon="-98.594765">
        <ele>3442.312</ele>
        <time>2020-12-13T08:25:33Z</time>
      </trkpt>
      <trkpt lat="19.064203" lon="-98.594816">
        <ele>3438.332</ele>
        <time>2020-12-13T08:25:37Z</time>
      </trkpt>
      <trkpt lat="19.064188" lon="-98.594872">
        <ele>3436.105</ele>
        <time>2020-12-13T08:25:42Z</time>
      </trkpt>
      <trkpt lat="19.064175" lon="-98.59492">
        <ele>3436.008</ele>
        <time>2020-12-13T08:25:46Z</time>
      </trkpt>
      <trkpt lat="19.064162" lon="-98.594968">
        <ele>3435.517</ele>
        <time>2020-12-13T08:25:50Z</time>
      </trkpt>
      <trkpt lat="19.064103" lon="-98.594977">
        <ele>3437.623</ele>
        <time>2020-12-13T08:25:54Z</time>
      </trkpt>
      <trkpt lat="19.064058" lon="-98.594979">
        <ele>3433.623</ele>
        <time>2020-12-13T08:25:58Z</time>
      </trkpt>
      <trkpt lat="19.064011" lon="-98.595005">
        <ele>3431.394</ele>
        <time>2020-12-13T08:26:02Z</time>
      </trkpt>
      <trkpt lat="19.063966" lon="-98.595018">
        <ele>3433.925</ele>
        <time>2020-12-13T08:26:06Z</time>
      </trkpt>
      <trkpt lat="19.063914" lon="-98.595013">
        <ele>3437.144</ele>
        <time>2020-12-13T08:26:12Z</time>
      </trkpt>
      <trkpt lat="19.06387" lon="-98.595003">
        <ele>3441.180</ele>
        <time>2020-12-13T08:26:16Z</time>
      </trkpt>
      <trkpt lat="19.063828" lon="-98.594984">
        <ele>3444.627</ele>
        <time>2020-12-13T08:26:21Z</time>
      </trkpt>
      <trkpt lat="19.063798" lon="-98.594946">
        <ele>3447.582</ele>
        <time>2020-12-13T08:26:25Z</time>
      </trkpt>
      <trkpt lat="19.06376" lon="-98.59491">
        <ele>3450.043</ele>
        <time>2020-12-13T08:26:28Z</time>
      </trkpt>
      <trkpt lat="19.063711" lon="-98.594903">
        <ele>3451.917</ele>
        <time>2020-12-13T08:26:36Z</time>
      </trkpt>
      <trkpt lat="19.06366" lon="-98.594893">
        <ele>3454.708</ele>
        <time>2020-12-13T08:28:13Z</time>
      </trkpt>
      <trkpt lat="19.063668" lon="-98.594842">
        <ele>3435.994</ele>
        <time>2020-12-13T08:34:08Z</time>
      </trkpt>
      <trkpt lat="19.063641" lon="-98.594798">
        <ele>3431.940</ele>
        <time>2020-12-13T08:34:12Z</time>
      </trkpt>
      <trkpt lat="19.063662" lon="-98.594845">
        <ele>3434.790</ele>
        <time>2020-12-13T08:34:29Z</time>
      </trkpt>
      <trkpt lat="19.063709" lon="-98.594828">
        <ele>3438.711</ele>
        <time>2020-12-13T08:37:05Z</time>
      </trkpt>
      <trkpt lat="19.063667" lon="-98.594803">
        <ele>3442.742</ele>
        <time>2020-12-13T08:38:45Z</time>
      </trkpt>
      <trkpt lat="19.063637" lon="-98.594759">
        <ele>3446.741</ele>
        <time>2020-12-13T08:38:50Z</time>
      </trkpt>
      <trkpt lat="19.063609" lon="-98.594721">
        <ele>3450.767</ele>
        <time>2020-12-13T08:38:55Z</time>
      </trkpt>
      <trkpt lat="19.063573" lon="-98.59469">
        <ele>3454.754</ele>
        <time>2020-12-13T08:38:59Z</time>
      </trkpt>
      <trkpt lat="19.063544" lon="-98.594644">
        <ele>3456.498</ele>
        <time>2020-12-13T08:39:04Z</time>
      </trkpt>
      <trkpt lat="19.063534" lon="-98.594593">
        <ele>3455.815</ele>
        <time>2020-12-13T08:39:08Z</time>
      </trkpt>
      <trkpt lat="19.063519" lon="-98.594536">
        <ele>3455.026</ele>
        <time>2020-12-13T08:39:12Z</time>
      </trkpt>
      <trkpt lat="19.063507" lon="-98.594477">
        <ele>3455.708</ele>
        <time>2020-12-13T08:39:18Z</time>
      </trkpt>
      <trkpt lat="19.063483" lon="-98.594426">
        <ele>3455.735</ele>
        <time>2020-12-13T08:39:25Z</time>
      </trkpt>
      <trkpt lat="19.063457" lon="-98.594382">
        <ele>3457.711</ele>
        <time>2020-12-13T08:39:29Z</time>
      </trkpt>
      <trkpt lat="19.063431" lon="-98.59433">
        <ele>3460.111</ele>
        <time>2020-12-13T08:39:33Z</time>
      </trkpt>
      <trkpt lat="19.0634" lon="-98.594286">
        <ele>3460.072</ele>
        <time>2020-12-13T08:39:37Z</time>
      </trkpt>
      <trkpt lat="19.063366" lon="-98.594253">
        <ele>3460.733</ele>
        <time>2020-12-13T08:39:41Z</time>
      </trkpt>
      <trkpt lat="19.063328" lon="-98.594227">
        <ele>3461.982</ele>
        <time>2020-12-13T08:39:49Z</time>
      </trkpt>
      <trkpt lat="19.063287" lon="-98.594259">
        <ele>3463.858</ele>
        <time>2020-12-13T08:39:55Z</time>
      </trkpt>
      <trkpt lat="19.063255" lon="-98.594296">
        <ele>3466.295</ele>
        <time>2020-12-13T08:40:01Z</time>
      </trkpt>
      <trkpt lat="19.063223" lon="-98.594331">
        <ele>3467.242</ele>
        <time>2020-12-13T08:40:05Z</time>
      </trkpt>
      <trkpt lat="19.063205" lon="-98.594377">
        <ele>3468.622</ele>
        <time>2020-12-13T08:40:08Z</time>
      </trkpt>
      <trkpt lat="19.063188" lon="-98.594426">
        <ele>3469.014</ele>
        <time>2020-12-13T08:40:12Z</time>
      </trkpt>
      <trkpt lat="19.063175" lon="-98.594476">
        <ele>3469.708</ele>
        <time>2020-12-13T08:40:16Z</time>
      </trkpt>
      <trkpt lat="19.063175" lon="-98.594529">
        <ele>3467.370</ele>
        <time>2020-12-13T08:40:21Z</time>
      </trkpt>
      <trkpt lat="19.063185" lon="-98.59458">
        <ele>3465.536</ele>
        <time>2020-12-13T08:40:26Z</time>
      </trkpt>
      <trkpt lat="19.063145" lon="-98.594613">
        <ele>3463.666</ele>
        <time>2020-12-13T08:40:32Z</time>
      </trkpt>
      <trkpt lat="19.063099" lon="-98.59464">
        <ele>3464.137</ele>
        <time>2020-12-13T08:40:37Z</time>
      </trkpt>
      <trkpt lat="19.063047" lon="-98.594639">
        <ele>3464.438</ele>
        <time>2020-12-13T08:40:41Z</time>
      </trkpt>
      <trkpt lat="19.063001" lon="-98.594635">
        <ele>3465.467</ele>
        <time>2020-12-13T08:40:47Z</time>
      </trkpt>
      <trkpt lat="19.062948" lon="-98.594617">
        <ele>3466.483</ele>
        <time>2020-12-13T08:40:53Z</time>
      </trkpt>
      <trkpt lat="19.062899" lon="-98.594598">
        <ele>3467.410</ele>
        <time>2020-12-13T08:40:58Z</time>
      </trkpt>
      <trkpt lat="19.06285" lon="-98.59461">
        <ele>3468.019</ele>
        <time>2020-12-13T08:41:02Z</time>
      </trkpt>
      <trkpt lat="19.062807" lon="-98.594628">
        <ele>3469.209</ele>
        <time>2020-12-13T08:41:05Z</time>
      </trkpt>
      <trkpt lat="19.062778" lon="-98.594667">
        <ele>3469.919</ele>
        <time>2020-12-13T08:41:08Z</time>
      </trkpt>
      <trkpt lat="19.06275" lon="-98.594707">
        <ele>3470.708</ele>
        <time>2020-12-13T08:41:12Z</time>
      </trkpt>
      <trkpt lat="19.062709" lon="-98.594739">
        <ele>3472.877</ele>
        <time>2020-12-13T08:41:17Z</time>
      </trkpt>
      <trkpt lat="19.062688" lon="-98.594787">
        <ele>3475.393</ele>
        <time>2020-12-13T08:41:21Z</time>
      </trkpt>
      <trkpt lat="19.062664" lon="-98.594833">
        <ele>3478.033</ele>
        <time>2020-12-13T08:41:25Z</time>
      </trkpt>
      <trkpt lat="19.062632" lon="-98.59488">
        <ele>3479.274</ele>
        <time>2020-12-13T08:41:30Z</time>
      </trkpt>
      <trkpt lat="19.062602" lon="-98.594928">
        <ele>3479.525</ele>
        <time>2020-12-13T08:41:34Z</time>
      </trkpt>
      <trkpt lat="19.062582" lon="-98.594976">
        <ele>3480.194</ele>
        <time>2020-12-13T08:41:38Z</time>
      </trkpt>
      <trkpt lat="19.062569" lon="-98.59503">
        <ele>3479.380</ele>
        <time>2020-12-13T08:41:42Z</time>
      </trkpt>
      <trkpt lat="19.062564" lon="-98.595081">
        <ele>3478.817</ele>
        <time>2020-12-13T08:41:47Z</time>
      </trkpt>
      <trkpt lat="19.062573" lon="-98.595133">
        <ele>3478.116</ele>
        <time>2020-12-13T08:41:51Z</time>
      </trkpt>
      <trkpt lat="19.062599" lon="-98.595173">
        <ele>3477.776</ele>
        <time>2020-12-13T08:41:57Z</time>
      </trkpt>
      <trkpt lat="19.062644" lon="-98.595182">
        <ele>3476.613</ele>
        <time>2020-12-13T08:42:03Z</time>
      </trkpt>
      <trkpt lat="19.062689" lon="-98.595181">
        <ele>3477.608</ele>
        <time>2020-12-13T08:42:07Z</time>
      </trkpt>
      <trkpt lat="19.062734" lon="-98.595179">
        <ele>3477.867</ele>
        <time>2020-12-13T08:42:11Z</time>
      </trkpt>
      <trkpt lat="19.06278" lon="-98.595196">
        <ele>3478.383</ele>
        <time>2020-12-13T08:42:21Z</time>
      </trkpt>
      <trkpt lat="19.062822" lon="-98.59523">
        <ele>3479.863</ele>
        <time>2020-12-13T08:42:28Z</time>
      </trkpt>
      <trkpt lat="19.062849" lon="-98.595269">
        <ele>3481.154</ele>
        <time>2020-12-13T08:42:32Z</time>
      </trkpt>
      <trkpt lat="19.062873" lon="-98.595313">
        <ele>3481.525</ele>
        <time>2020-12-13T08:42:36Z</time>
      </trkpt>
      <trkpt lat="19.062895" lon="-98.595366">
        <ele>3481.314</ele>
        <time>2020-12-13T08:42:40Z</time>
      </trkpt>
      <trkpt lat="19.062914" lon="-98.595416">
        <ele>3477.380</ele>
        <time>2020-12-13T08:42:44Z</time>
      </trkpt>
      <trkpt lat="19.062924" lon="-98.595476">
        <ele>3473.367</ele>
        <time>2020-12-13T08:42:48Z</time>
      </trkpt>
      <trkpt lat="19.062928" lon="-98.59553">
        <ele>3469.336</ele>
        <time>2020-12-13T08:42:52Z</time>
      </trkpt>
      <trkpt lat="19.06294" lon="-98.595582">
        <ele>3467.617</ele>
        <time>2020-12-13T08:42:57Z</time>
      </trkpt>
      <trkpt lat="19.062943" lon="-98.595638">
        <ele>3465.418</ele>
        <time>2020-12-13T08:43:01Z</time>
      </trkpt>
      <trkpt lat="19.062932" lon="-98.595694">
        <ele>3466.908</ele>
        <time>2020-12-13T08:43:05Z</time>
      </trkpt>
      <trkpt lat="19.062926" lon="-98.595746">
        <ele>3467.079</ele>
        <time>2020-12-13T08:43:09Z</time>
      </trkpt>
      <trkpt lat="19.06293" lon="-98.595806">
        <ele>3469.025</ele>
        <time>2020-12-13T08:43:13Z</time>
      </trkpt>
      <trkpt lat="19.062941" lon="-98.595859">
        <ele>3473.075</ele>
        <time>2020-12-13T08:43:17Z</time>
      </trkpt>
      <trkpt lat="19.062947" lon="-98.595912">
        <ele>3475.046</ele>
        <time>2020-12-13T08:43:23Z</time>
      </trkpt>
      <trkpt lat="19.062958" lon="-98.595962">
        <ele>3473.497</ele>
        <time>2020-12-13T08:43:28Z</time>
      </trkpt>
      <trkpt lat="19.062977" lon="-98.596007">
        <ele>3475.756</ele>
        <time>2020-12-13T08:43:32Z</time>
      </trkpt>
      <trkpt lat="19.062999" lon="-98.596056">
        <ele>3477.522</ele>
        <time>2020-12-13T08:43:36Z</time>
      </trkpt>
      <trkpt lat="19.063025" lon="-98.596106">
        <ele>3479.089</ele>
        <time>2020-12-13T08:43:40Z</time>
      </trkpt>
      <trkpt lat="19.063061" lon="-98.596149">
        <ele>3477.145</ele>
        <time>2020-12-13T08:43:44Z</time>
      </trkpt>
      <trkpt lat="19.063104" lon="-98.596184">
        <ele>3476.747</ele>
        <time>2020-12-13T08:43:48Z</time>
      </trkpt>
      <trkpt lat="19.063143" lon="-98.596215">
        <ele>3478.511</ele>
        <time>2020-12-13T08:43:52Z</time>
      </trkpt>
      <trkpt lat="19.063164" lon="-98.596266">
        <ele>3482.508</ele>
        <time>2020-12-13T08:43:58Z</time>
      </trkpt>
      <trkpt lat="19.063194" lon="-98.596308">
        <ele>3486.460</ele>
        <time>2020-12-13T08:44:02Z</time>
      </trkpt>
      <trkpt lat="19.063222" lon="-98.596354">
        <ele>3483.936</ele>
        <time>2020-12-13T08:44:07Z</time>
      </trkpt>
      <trkpt lat="19.063256" lon="-98.596402">
        <ele>3484.896</ele>
        <time>2020-12-13T08:44:11Z</time>
      </trkpt>
      <trkpt lat="19.063285" lon="-98.596448">
        <ele>3485.757</ele>
        <time>2020-12-13T08:44:14Z</time>
      </trkpt>
      <trkpt lat="19.063306" lon="-98.596504">
        <ele>3487.198</ele>
        <time>2020-12-13T08:44:18Z</time>
      </trkpt>
      <trkpt lat="19.063325" lon="-98.596549">
        <ele>3486.717</ele>
        <time>2020-12-13T08:44:22Z</time>
      </trkpt>
      <trkpt lat="19.063351" lon="-98.596594">
        <ele>3484.553</ele>
        <time>2020-12-13T08:44:28Z</time>
      </trkpt>
      <trkpt lat="19.063364" lon="-98.59665">
        <ele>3482.890</ele>
        <time>2020-12-13T08:44:35Z</time>
      </trkpt>
      <trkpt lat="19.063368" lon="-98.596702">
        <ele>3480.651</ele>
        <time>2020-12-13T08:44:39Z</time>
      </trkpt>
      <trkpt lat="19.06337" lon="-98.596753">
        <ele>3480.501</ele>
        <time>2020-12-13T08:44:43Z</time>
      </trkpt>
      <trkpt lat="19.063359" lon="-98.596807">
        <ele>3479.611</ele>
        <time>2020-12-13T08:44:48Z</time>
      </trkpt>
      <trkpt lat="19.063333" lon="-98.596848">
        <ele>3479.108</ele>
        <time>2020-12-13T08:44:54Z</time>
      </trkpt>
      <trkpt lat="19.063297" lon="-98.596883">
        <ele>3479.621</ele>
        <time>2020-12-13T08:44:59Z</time>
      </trkpt>
      <trkpt lat="19.063273" lon="-98.596929">
        <ele>3477.567</ele>
        <time>2020-12-13T08:45:03Z</time>
      </trkpt>
      <trkpt lat="19.063283" lon="-98.596985">
        <ele>3476.657</ele>
        <time>2020-12-13T08:45:07Z</time>
      </trkpt>
      <trkpt lat="19.063306" lon="-98.59703">
        <ele>3476.558</ele>
        <time>2020-12-13T08:45:10Z</time>
      </trkpt>
      <trkpt lat="19.063335" lon="-98.597067">
        <ele>3476.899</ele>
        <time>2020-12-13T08:45:13Z</time>
      </trkpt>
      <trkpt lat="19.063382" lon="-98.597097">
        <ele>3477.498</ele>
        <time>2020-12-13T08:45:16Z</time>
      </trkpt>
      <trkpt lat="19.063423" lon="-98.597133">
        <ele>3479.034</ele>
        <time>2020-12-13T08:45:20Z</time>
      </trkpt>
      <trkpt lat="19.063457" lon="-98.597166">
        <ele>3480.381</ele>
        <time>2020-12-13T08:45:23Z</time>
      </trkpt>
      <trkpt lat="19.063496" lon="-98.597205">
        <ele>3476.347</ele>
        <time>2020-12-13T08:45:27Z</time>
      </trkpt>
      <trkpt lat="19.06354" lon="-98.597232">
        <ele>3472.329</ele>
        <time>2020-12-13T08:45:31Z</time>
      </trkpt>
      <trkpt lat="19.063567" lon="-98.597271">
        <ele>3471.121</ele>
        <time>2020-12-13T08:45:35Z</time>
      </trkpt>
      <trkpt lat="19.06359" lon="-98.597316">
        <ele>3472.808</ele>
        <time>2020-12-13T08:45:38Z</time>
      </trkpt>
      <trkpt lat="19.063615" lon="-98.597361">
        <ele>3476.810</ele>
        <time>2020-12-13T08:45:42Z</time>
      </trkpt>
      <trkpt lat="19.063646" lon="-98.597396">
        <ele>3480.896</ele>
        <time>2020-12-13T08:45:45Z</time>
      </trkpt>
      <trkpt lat="19.063674" lon="-98.597434">
        <ele>3484.646</ele>
        <time>2020-12-13T08:45:48Z</time>
      </trkpt>
      <trkpt lat="19.06371" lon="-98.59748">
        <ele>3487.337</ele>
        <time>2020-12-13T08:45:52Z</time>
      </trkpt>
      <trkpt lat="19.063749" lon="-98.597514">
        <ele>3489.788</ele>
        <time>2020-12-13T08:45:57Z</time>
      </trkpt>
      <trkpt lat="19.063793" lon="-98.597537">
        <ele>3491.947</ele>
        <time>2020-12-13T08:46:01Z</time>
      </trkpt>
      <trkpt lat="19.063838" lon="-98.597556">
        <ele>3495.213</ele>
        <time>2020-12-13T08:46:06Z</time>
      </trkpt>
      <trkpt lat="19.063874" lon="-98.597589">
        <ele>3496.860</ele>
        <time>2020-12-13T08:46:12Z</time>
      </trkpt>
      <trkpt lat="19.063891" lon="-98.597639">
        <ele>3499.021</ele>
        <time>2020-12-13T08:46:17Z</time>
      </trkpt>
      <trkpt lat="19.063891" lon="-98.597703">
        <ele>3500.341</ele>
        <time>2020-12-13T08:46:22Z</time>
      </trkpt>
      <trkpt lat="19.063876" lon="-98.597758">
        <ele>3501.505</ele>
        <time>2020-12-13T08:46:26Z</time>
      </trkpt>
      <trkpt lat="19.063836" lon="-98.597796">
        <ele>3502.208</ele>
        <time>2020-12-13T08:46:31Z</time>
      </trkpt>
      <trkpt lat="19.063806" lon="-98.597835">
        <ele>3502.628</ele>
        <time>2020-12-13T08:46:35Z</time>
      </trkpt>
      <trkpt lat="19.063809" lon="-98.597893">
        <ele>3502.544</ele>
        <time>2020-12-13T08:46:39Z</time>
      </trkpt>
      <trkpt lat="19.063842" lon="-98.597941">
        <ele>3502.894</ele>
        <time>2020-12-13T08:46:43Z</time>
      </trkpt>
      <trkpt lat="19.063875" lon="-98.597978">
        <ele>3501.855</ele>
        <time>2020-12-13T08:46:47Z</time>
      </trkpt>
      <trkpt lat="19.063901" lon="-98.598019">
        <ele>3501.296</ele>
        <time>2020-12-13T08:46:56Z</time>
      </trkpt>
      <trkpt lat="19.063943" lon="-98.598049">
        <ele>3501.235</ele>
        <time>2020-12-13T08:47:00Z</time>
      </trkpt>
      <trkpt lat="19.063995" lon="-98.598087">
        <ele>3502.841</ele>
        <time>2020-12-13T08:47:04Z</time>
      </trkpt>
      <trkpt lat="19.064036" lon="-98.59813">
        <ele>3505.438</ele>
        <time>2020-12-13T08:47:08Z</time>
      </trkpt>
      <trkpt lat="19.064067" lon="-98.598174">
        <ele>3506.591</ele>
        <time>2020-12-13T08:47:12Z</time>
      </trkpt>
      <trkpt lat="19.064108" lon="-98.598213">
        <ele>3506.881</ele>
        <time>2020-12-13T08:47:15Z</time>
      </trkpt>
      <trkpt lat="19.064148" lon="-98.59824">
        <ele>3507.419</ele>
        <time>2020-12-13T08:47:18Z</time>
      </trkpt>
      <trkpt lat="19.064196" lon="-98.598268">
        <ele>3507.708</ele>
        <time>2020-12-13T08:47:22Z</time>
      </trkpt>
      <trkpt lat="19.064236" lon="-98.598313">
        <ele>3508.745</ele>
        <time>2020-12-13T08:47:26Z</time>
      </trkpt>
      <trkpt lat="19.06427" lon="-98.598354">
        <ele>3509.771</ele>
        <time>2020-12-13T08:47:30Z</time>
      </trkpt>
      <trkpt lat="19.064306" lon="-98.598395">
        <ele>3505.721</ele>
        <time>2020-12-13T08:47:35Z</time>
      </trkpt>
      <trkpt lat="19.064318" lon="-98.598445">
        <ele>3501.712</ele>
        <time>2020-12-13T08:47:41Z</time>
      </trkpt>
      <trkpt lat="19.064322" lon="-98.598496">
        <ele>3497.793</ele>
        <time>2020-12-13T08:47:46Z</time>
      </trkpt>
      <trkpt lat="19.064327" lon="-98.598546">
        <ele>3496.732</ele>
        <time>2020-12-13T08:47:52Z</time>
      </trkpt>
      <trkpt lat="19.064366" lon="-98.59857">
        <ele>3497.748</ele>
        <time>2020-12-13T08:48:01Z</time>
      </trkpt>
      <trkpt lat="19.06438" lon="-98.598621">
        <ele>3498.715</ele>
        <time>2020-12-13T08:48:20Z</time>
      </trkpt>
      <trkpt lat="19.064405" lon="-98.598676">
        <ele>3500.535</ele>
        <time>2020-12-13T08:48:24Z</time>
      </trkpt>
      <trkpt lat="19.064409" lon="-98.598735">
        <ele>3502.486</ele>
        <time>2020-12-13T08:48:27Z</time>
      </trkpt>
      <trkpt lat="19.064404" lon="-98.598785">
        <ele>3503.114</ele>
        <time>2020-12-13T08:48:34Z</time>
      </trkpt>
      <trkpt lat="19.064394" lon="-98.598738">
        <ele>3503.508</ele>
        <time>2020-12-13T08:48:55Z</time>
      </trkpt>
      <trkpt lat="19.064424" lon="-98.598695">
        <ele>3507.589</ele>
        <time>2020-12-13T08:50:02Z</time>
      </trkpt>
      <trkpt lat="19.064458" lon="-98.598648">
        <ele>3510.685</ele>
        <time>2020-12-13T08:50:05Z</time>
      </trkpt>
      <trkpt lat="19.064497" lon="-98.598603">
        <ele>3506.635</ele>
        <time>2020-12-13T08:50:08Z</time>
      </trkpt>
      <trkpt lat="19.064536" lon="-98.598579">
        <ele>3509.256</ele>
        <time>2020-12-13T08:50:33Z</time>
      </trkpt>
      <trkpt lat="19.064584" lon="-98.598552">
        <ele>3509.637</ele>
        <time>2020-12-13T08:50:40Z</time>
      </trkpt>
      <trkpt lat="19.064634" lon="-98.598527">
        <ele>3512.216</ele>
        <time>2020-12-13T08:50:44Z</time>
      </trkpt>
      <trkpt lat="19.064685" lon="-98.598535">
        <ele>3515.492</ele>
        <time>2020-12-13T08:50:50Z</time>
      </trkpt>
      <trkpt lat="19.064715" lon="-98.59858">
        <ele>3514.539</ele>
        <time>2020-12-13T08:50:57Z</time>
      </trkpt>
      <trkpt lat="19.064758" lon="-98.598623">
        <ele>3514.444</ele>
        <time>2020-12-13T08:51:01Z</time>
      </trkpt>
      <trkpt lat="19.064803" lon="-98.59866">
        <ele>3514.305</ele>
        <time>2020-12-13T08:51:05Z</time>
      </trkpt>
      <trkpt lat="19.064835" lon="-98.598704">
        <ele>3514.715</ele>
        <time>2020-12-13T08:51:09Z</time>
      </trkpt>
      <trkpt lat="19.064874" lon="-98.598731">
        <ele>3516.108</ele>
        <time>2020-12-13T08:51:13Z</time>
      </trkpt>
      <trkpt lat="19.064925" lon="-98.59875">
        <ele>3516.970</ele>
        <time>2020-12-13T08:51:17Z</time>
      </trkpt>
      <trkpt lat="19.064982" lon="-98.59874">
        <ele>3516.686</ele>
        <time>2020-12-13T08:51:23Z</time>
      </trkpt>
      <trkpt lat="19.065031" lon="-98.598748">
        <ele>3516.056</ele>
        <time>2020-12-13T08:51:27Z</time>
      </trkpt>
      <trkpt lat="19.065072" lon="-98.598774">
        <ele>3517.327</ele>
        <time>2020-12-13T08:51:34Z</time>
      </trkpt>
      <trkpt lat="19.065117" lon="-98.598786">
        <ele>3513.398</ele>
        <time>2020-12-13T08:51:38Z</time>
      </trkpt>
      <trkpt lat="19.065171" lon="-98.5988">
        <ele>3509.367</ele>
        <time>2020-12-13T08:51:42Z</time>
      </trkpt>
      <trkpt lat="19.065222" lon="-98.598808">
        <ele>3509.363</ele>
        <time>2020-12-13T08:51:46Z</time>
      </trkpt>
      <trkpt lat="19.065265" lon="-98.598821">
        <ele>3510.950</ele>
        <time>2020-12-13T08:51:50Z</time>
      </trkpt>
      <trkpt lat="19.065309" lon="-98.598835">
        <ele>3511.479</ele>
        <time>2020-12-13T08:51:55Z</time>
      </trkpt>
      <trkpt lat="19.06536" lon="-98.598864">
        <ele>3514.505</ele>
        <time>2020-12-13T08:52:00Z</time>
      </trkpt>
      <trkpt lat="19.0654" lon="-98.598888">
        <ele>3516.025</ele>
        <time>2020-12-13T08:52:03Z</time>
      </trkpt>
      <trkpt lat="19.065429" lon="-98.59893">
        <ele>3515.708</ele>
        <time>2020-12-13T08:52:08Z</time>
      </trkpt>
      <trkpt lat="19.065455" lon="-98.598982">
        <ele>3517.113</ele>
        <time>2020-12-13T08:52:13Z</time>
      </trkpt>
      <trkpt lat="19.065492" lon="-98.599021">
        <ele>3513.119</ele>
        <time>2020-12-13T08:52:17Z</time>
      </trkpt>
      <trkpt lat="19.065511" lon="-98.599066">
        <ele>3510.749</ele>
        <time>2020-12-13T08:52:24Z</time>
      </trkpt>
      <trkpt lat="19.065542" lon="-98.599103">
        <ele>3513.380</ele>
        <time>2020-12-13T08:52:28Z</time>
      </trkpt>
      <trkpt lat="19.065581" lon="-98.599141">
        <ele>3516.581</ele>
        <time>2020-12-13T08:52:32Z</time>
      </trkpt>
      <trkpt lat="19.065608" lon="-98.599189">
        <ele>3518.460</ele>
        <time>2020-12-13T08:52:37Z</time>
      </trkpt>
      <trkpt lat="19.065643" lon="-98.599235">
        <ele>3521.576</ele>
        <time>2020-12-13T08:52:41Z</time>
      </trkpt>
      <trkpt lat="19.065652" lon="-98.599287">
        <ele>3525.043</ele>
        <time>2020-12-13T08:52:46Z</time>
      </trkpt>
      <trkpt lat="19.065641" lon="-98.599338">
        <ele>3526.341</ele>
        <time>2020-12-13T08:52:51Z</time>
      </trkpt>
      <trkpt lat="19.065609" lon="-98.599379">
        <ele>3527.181</ele>
        <time>2020-12-13T08:52:57Z</time>
      </trkpt>
      <trkpt lat="19.065578" lon="-98.599418">
        <ele>3528.409</ele>
        <time>2020-12-13T08:53:04Z</time>
      </trkpt>
      <trkpt lat="19.065571" lon="-98.599472">
        <ele>3529.608</ele>
        <time>2020-12-13T08:53:09Z</time>
      </trkpt>
      <trkpt lat="19.06555" lon="-98.599517">
        <ele>3525.690</ele>
        <time>2020-12-13T08:53:15Z</time>
      </trkpt>
      <trkpt lat="19.065523" lon="-98.599556">
        <ele>3521.616</ele>
        <time>2020-12-13T08:53:25Z</time>
      </trkpt>
      <trkpt lat="19.065514" lon="-98.599632">
        <ele>3521.116</ele>
        <time>2020-12-13T08:53:31Z</time>
      </trkpt>
      <trkpt lat="19.065508" lon="-98.599707">
        <ele>3518.887</ele>
        <time>2020-12-13T08:53:33Z</time>
      </trkpt>
      <trkpt lat="19.065496" lon="-98.599787">
        <ele>3516.288</ele>
        <time>2020-12-13T08:53:35Z</time>
      </trkpt>
      <trkpt lat="19.065476" lon="-98.599867">
        <ele>3516.717</ele>
        <time>2020-12-13T08:53:37Z</time>
      </trkpt>
      <trkpt lat="19.06545" lon="-98.599916">
        <ele>3518.613</ele>
        <time>2020-12-13T08:53:39Z</time>
      </trkpt>
      <trkpt lat="19.065412" lon="-98.599961">
        <ele>3520.990</ele>
        <time>2020-12-13T08:53:42Z</time>
      </trkpt>
      <trkpt lat="19.065375" lon="-98.59999">
        <ele>3522.783</ele>
        <time>2020-12-13T08:53:44Z</time>
      </trkpt>
      <trkpt lat="19.06533" lon="-98.600007">
        <ele>3524.225</ele>
        <time>2020-12-13T08:53:46Z</time>
      </trkpt>
      <trkpt lat="19.065289" lon="-98.600031">
        <ele>3525.117</ele>
        <time>2020-12-13T08:53:49Z</time>
      </trkpt>
      <trkpt lat="19.065273" lon="-98.600081">
        <ele>3526.008</ele>
        <time>2020-12-13T08:53:53Z</time>
      </trkpt>
      <trkpt lat="19.06527" lon="-98.60013">
        <ele>3526.214</ele>
        <time>2020-12-13T08:53:57Z</time>
      </trkpt>
      <trkpt lat="19.065266" lon="-98.600181">
        <ele>3524.390</ele>
        <time>2020-12-13T08:54:03Z</time>
      </trkpt>
      <trkpt lat="19.065264" lon="-98.600233">
        <ele>3523.220</ele>
        <time>2020-12-13T08:54:07Z</time>
      </trkpt>
      <trkpt lat="19.065239" lon="-98.600284">
        <ele>3523.331</ele>
        <time>2020-12-13T08:54:12Z</time>
      </trkpt>
      <trkpt lat="19.065228" lon="-98.600333">
        <ele>3524.242</ele>
        <time>2020-12-13T08:54:15Z</time>
      </trkpt>
      <trkpt lat="19.06523" lon="-98.600389">
        <ele>3528.281</ele>
        <time>2020-12-13T08:54:20Z</time>
      </trkpt>
      <trkpt lat="19.065211" lon="-98.600433">
        <ele>3524.217</ele>
        <time>2020-12-13T08:54:25Z</time>
      </trkpt>
      <trkpt lat="19.065209" lon="-98.6005">
        <ele>3520.284</ele>
        <time>2020-12-13T08:54:29Z</time>
      </trkpt>
      <trkpt lat="19.065219" lon="-98.600562">
        <ele>3524.278</ele>
        <time>2020-12-13T08:54:32Z</time>
      </trkpt>
      <trkpt lat="19.065215" lon="-98.60062">
        <ele>3528.233</ele>
        <time>2020-12-13T08:54:36Z</time>
      </trkpt>
      <trkpt lat="19.065227" lon="-98.60067">
        <ele>3532.226</ele>
        <time>2020-12-13T08:54:40Z</time>
      </trkpt>
      <trkpt lat="19.065226" lon="-98.600718">
        <ele>3536.208</ele>
        <time>2020-12-13T08:54:44Z</time>
      </trkpt>
      <trkpt lat="19.065205" lon="-98.600775">
        <ele>3539.113</ele>
        <time>2020-12-13T08:54:49Z</time>
      </trkpt>
      <trkpt lat="19.065169" lon="-98.600819">
        <ele>3541.379</ele>
        <time>2020-12-13T08:54:54Z</time>
      </trkpt>
      <trkpt lat="19.065141" lon="-98.600857">
        <ele>3543.019</ele>
        <time>2020-12-13T08:54:58Z</time>
      </trkpt>
      <trkpt lat="19.065117" lon="-98.600914">
        <ele>3544.480</ele>
        <time>2020-12-13T08:55:03Z</time>
      </trkpt>
      <trkpt lat="19.065084" lon="-98.600954">
        <ele>3544.811</ele>
        <time>2020-12-13T08:55:06Z</time>
      </trkpt>
      <trkpt lat="19.065052" lon="-98.60099">
        <ele>3543.940</ele>
        <time>2020-12-13T08:55:10Z</time>
      </trkpt>
      <trkpt lat="19.06504" lon="-98.601042">
        <ele>3543.796</ele>
        <time>2020-12-13T08:55:13Z</time>
      </trkpt>
      <trkpt lat="19.065025" lon="-98.601094">
        <ele>3543.673</ele>
        <time>2020-12-13T08:55:16Z</time>
      </trkpt>
      <trkpt lat="19.065007" lon="-98.601141">
        <ele>3543.597</ele>
        <time>2020-12-13T08:55:19Z</time>
      </trkpt>
      <trkpt lat="19.064979" lon="-98.601184">
        <ele>3539.523</ele>
        <time>2020-12-13T08:55:23Z</time>
      </trkpt>
      <trkpt lat="19.064933" lon="-98.601216">
        <ele>3535.525</ele>
        <time>2020-12-13T08:55:28Z</time>
      </trkpt>
      <trkpt lat="19.06489" lon="-98.601237">
        <ele>3531.508</ele>
        <time>2020-12-13T08:55:32Z</time>
      </trkpt>
      <trkpt lat="19.064869" lon="-98.601282">
        <ele>3534.715</ele>
        <time>2020-12-13T08:55:37Z</time>
      </trkpt>
      <trkpt lat="19.064874" lon="-98.601333">
        <ele>3530.781</ele>
        <time>2020-12-13T08:55:41Z</time>
      </trkpt>
      <trkpt lat="19.064914" lon="-98.601368">
        <ele>3527.811</ele>
        <time>2020-12-13T08:55:44Z</time>
      </trkpt>
      <trkpt lat="19.064953" lon="-98.601393">
        <ele>3531.812</ele>
        <time>2020-12-13T08:55:47Z</time>
      </trkpt>
      <trkpt lat="19.06501" lon="-98.601406">
        <ele>3535.843</ele>
        <time>2020-12-13T08:55:51Z</time>
      </trkpt>
      <trkpt lat="19.065069" lon="-98.601403">
        <ele>3539.832</ele>
        <time>2020-12-13T08:55:54Z</time>
      </trkpt>
      <trkpt lat="19.065118" lon="-98.601419">
        <ele>3543.818</ele>
        <time>2020-12-13T08:55:57Z</time>
      </trkpt>
      <trkpt lat="19.065167" lon="-98.60145">
        <ele>3539.875</ele>
        <time>2020-12-13T08:56:01Z</time>
      </trkpt>
      <trkpt lat="19.065193" lon="-98.601495">
        <ele>3540.989</ele>
        <time>2020-12-13T08:56:05Z</time>
      </trkpt>
      <trkpt lat="19.065192" lon="-98.601552">
        <ele>3544.306</ele>
        <time>2020-12-13T08:56:10Z</time>
      </trkpt>
      <trkpt lat="19.065181" lon="-98.601611">
        <ele>3545.626</ele>
        <time>2020-12-13T08:56:14Z</time>
      </trkpt>
      <trkpt lat="19.06516" lon="-98.601663">
        <ele>3549.208</ele>
        <time>2020-12-13T08:56:17Z</time>
      </trkpt>
      <trkpt lat="19.065152" lon="-98.601718">
        <ele>3546.514</ele>
        <time>2020-12-13T08:56:21Z</time>
      </trkpt>
      <trkpt lat="19.065164" lon="-98.601772">
        <ele>3550.110</ele>
        <time>2020-12-13T08:56:25Z</time>
      </trkpt>
      <trkpt lat="19.065158" lon="-98.60182">
        <ele>3553.970</ele>
        <time>2020-12-13T08:56:29Z</time>
      </trkpt>
      <trkpt lat="19.065174" lon="-98.601876">
        <ele>3557.441</ele>
        <time>2020-12-13T08:56:33Z</time>
      </trkpt>
      <trkpt lat="19.065195" lon="-98.601928">
        <ele>3559.532</ele>
        <time>2020-12-13T08:56:37Z</time>
      </trkpt>
      <trkpt lat="19.065211" lon="-98.60198">
        <ele>3560.741</ele>
        <time>2020-12-13T08:56:42Z</time>
      </trkpt>
      <trkpt lat="19.06521" lon="-98.602031">
        <ele>3561.487</ele>
        <time>2020-12-13T08:56:47Z</time>
      </trkpt>
      <trkpt lat="19.065192" lon="-98.602086">
        <ele>3561.854</ele>
        <time>2020-12-13T08:56:52Z</time>
      </trkpt>
      <trkpt lat="19.065189" lon="-98.602139">
        <ele>3557.835</ele>
        <time>2020-12-13T08:56:57Z</time>
      </trkpt>
      <trkpt lat="19.065174" lon="-98.602191">
        <ele>3553.886</ele>
        <time>2020-12-13T08:57:01Z</time>
      </trkpt>
      <trkpt lat="19.065149" lon="-98.60224">
        <ele>3553.314</ele>
        <time>2020-12-13T08:57:05Z</time>
      </trkpt>
      <trkpt lat="19.065122" lon="-98.602284">
        <ele>3556.608</ele>
        <time>2020-12-13T08:57:10Z</time>
      </trkpt>
      <trkpt lat="19.065118" lon="-98.602332">
        <ele>3560.669</ele>
        <time>2020-12-13T08:57:14Z</time>
      </trkpt>
      <trkpt lat="19.065093" lon="-98.602387">
        <ele>3563.865</ele>
        <time>2020-12-13T08:57:19Z</time>
      </trkpt>
      <trkpt lat="19.065074" lon="-98.602432">
        <ele>3565.735</ele>
        <time>2020-12-13T08:57:23Z</time>
      </trkpt>
      <trkpt lat="19.065045" lon="-98.60248">
        <ele>3567.276</ele>
        <time>2020-12-13T08:57:28Z</time>
      </trkpt>
      <trkpt lat="19.065024" lon="-98.602534">
        <ele>3565.357</ele>
        <time>2020-12-13T08:57:33Z</time>
      </trkpt>
      <trkpt lat="19.065012" lon="-98.602585">
        <ele>3565.096</ele>
        <time>2020-12-13T08:57:37Z</time>
      </trkpt>
      <trkpt lat="19.065009" lon="-98.602637">
        <ele>3564.842</ele>
        <time>2020-12-13T08:57:41Z</time>
      </trkpt>
      <trkpt lat="19.064999" lon="-98.602689">
        <ele>3560.839</ele>
        <time>2020-12-13T08:57:46Z</time>
      </trkpt>
      <trkpt lat="19.064994" lon="-98.60274">
        <ele>3558.744</ele>
        <time>2020-12-13T08:57:51Z</time>
      </trkpt>
      <trkpt lat="19.065029" lon="-98.602789">
        <ele>3561.805</ele>
        <time>2020-12-13T08:57:55Z</time>
      </trkpt>
      <trkpt lat="19.065068" lon="-98.602834">
        <ele>3565.315</ele>
        <time>2020-12-13T08:57:58Z</time>
      </trkpt>
      <trkpt lat="19.065097" lon="-98.602875">
        <ele>3568.208</ele>
        <time>2020-12-13T08:58:01Z</time>
      </trkpt>
      <trkpt lat="19.065122" lon="-98.602929">
        <ele>3568.330</ele>
        <time>2020-12-13T08:58:05Z</time>
      </trkpt>
      <trkpt lat="19.065142" lon="-98.602975">
        <ele>3568.876</ele>
        <time>2020-12-13T08:58:09Z</time>
      </trkpt>
      <trkpt lat="19.065159" lon="-98.603032">
        <ele>3569.546</ele>
        <time>2020-12-13T08:58:13Z</time>
      </trkpt>
      <trkpt lat="19.065159" lon="-98.603081">
        <ele>3568.357</ele>
        <time>2020-12-13T08:58:17Z</time>
      </trkpt>
      <trkpt lat="19.065131" lon="-98.603121">
        <ele>3567.288</ele>
        <time>2020-12-13T08:58:22Z</time>
      </trkpt>
      <trkpt lat="19.065085" lon="-98.603147">
        <ele>3568.527</ele>
        <time>2020-12-13T08:58:28Z</time>
      </trkpt>
      <trkpt lat="19.065038" lon="-98.603152">
        <ele>3564.523</ele>
        <time>2020-12-13T08:58:32Z</time>
      </trkpt>
      <trkpt lat="19.064986" lon="-98.603164">
        <ele>3560.510</ele>
        <time>2020-12-13T08:58:37Z</time>
      </trkpt>
      <trkpt lat="19.064938" lon="-98.603158">
        <ele>3560.995</ele>
        <time>2020-12-13T08:58:48Z</time>
      </trkpt>
      <trkpt lat="19.064885" lon="-98.603152">
        <ele>3556.949</ele>
        <time>2020-12-13T08:58:59Z</time>
      </trkpt>
      <trkpt lat="19.064846" lon="-98.603127">
        <ele>3552.923</ele>
        <time>2020-12-13T08:59:04Z</time>
      </trkpt>
      <trkpt lat="19.064812" lon="-98.603082">
        <ele>3554.708</ele>
        <time>2020-12-13T08:59:09Z</time>
      </trkpt>
      <trkpt lat="19.064787" lon="-98.603029">
        <ele>3558.685</ele>
        <time>2020-12-13T08:59:13Z</time>
      </trkpt>
      <trkpt lat="19.064761" lon="-98.602984">
        <ele>3560.981</ele>
        <time>2020-12-13T08:59:19Z</time>
      </trkpt>
      <trkpt lat="19.064752" lon="-98.602928">
        <ele>3563.591</ele>
        <time>2020-12-13T08:59:24Z</time>
      </trkpt>
      <trkpt lat="19.064749" lon="-98.602878">
        <ele>3564.762</ele>
        <time>2020-12-13T08:59:30Z</time>
      </trkpt>
      <trkpt lat="19.064749" lon="-98.602827">
        <ele>3560.773</ele>
        <time>2020-12-13T08:59:34Z</time>
      </trkpt>
      <trkpt lat="19.064749" lon="-98.602773">
        <ele>3561.832</ele>
        <time>2020-12-13T08:59:37Z</time>
      </trkpt>
      <trkpt lat="19.064749" lon="-98.602723">
        <ele>3564.928</ele>
        <time>2020-12-13T08:59:40Z</time>
      </trkpt>
      <trkpt lat="19.064736" lon="-98.60266">
        <ele>3568.755</ele>
        <time>2020-12-13T08:59:44Z</time>
      </trkpt>
      <trkpt lat="19.064736" lon="-98.602601">
        <ele>3571.467</ele>
        <time>2020-12-13T08:59:48Z</time>
      </trkpt>
      <trkpt lat="19.064735" lon="-98.602545">
        <ele>3573.081</ele>
        <time>2020-12-13T08:59:51Z</time>
      </trkpt>
      <trkpt lat="19.064726" lon="-98.602497">
        <ele>3574.819</ele>
        <time>2020-12-13T08:59:56Z</time>
      </trkpt>
      <trkpt lat="19.064704" lon="-98.602444">
        <ele>3576.708</ele>
        <time>2020-12-13T09:00:06Z</time>
      </trkpt>
      <trkpt lat="19.06468" lon="-98.602403">
        <ele>3578.612</ele>
        <time>2020-12-13T09:00:09Z</time>
      </trkpt>
      <trkpt lat="19.064642" lon="-98.602357">
        <ele>3580.668</ele>
        <time>2020-12-13T09:00:13Z</time>
      </trkpt>
      <trkpt lat="19.064599" lon="-98.602327">
        <ele>3582.268</ele>
        <time>2020-12-13T09:00:17Z</time>
      </trkpt>
      <trkpt lat="19.06455" lon="-98.60231">
        <ele>3583.529</ele>
        <time>2020-12-13T09:00:21Z</time>
      </trkpt>
      <trkpt lat="19.064504" lon="-98.602274">
        <ele>3584.390</ele>
        <time>2020-12-13T09:00:25Z</time>
      </trkpt>
      <trkpt lat="19.064472" lon="-98.602228">
        <ele>3586.439</ele>
        <time>2020-12-13T09:00:30Z</time>
      </trkpt>
      <trkpt lat="19.064444" lon="-98.602179">
        <ele>3587.695</ele>
        <time>2020-12-13T09:00:33Z</time>
      </trkpt>
      <trkpt lat="19.06442" lon="-98.602128">
        <ele>3588.322</ele>
        <time>2020-12-13T09:00:37Z</time>
      </trkpt>
      <trkpt lat="19.064413" lon="-98.60208">
        <ele>3589.585</ele>
        <time>2020-12-13T09:00:40Z</time>
      </trkpt>
      <trkpt lat="19.064401" lon="-98.602033">
        <ele>3588.289</ele>
        <time>2020-12-13T09:00:43Z</time>
      </trkpt>
      <trkpt lat="19.06438" lon="-98.601982">
        <ele>3587.017</ele>
        <time>2020-12-13T09:00:47Z</time>
      </trkpt>
      <trkpt lat="19.064356" lon="-98.601926">
        <ele>3586.308</ele>
        <time>2020-12-13T09:00:51Z</time>
      </trkpt>
      <trkpt lat="19.064305" lon="-98.601884">
        <ele>3585.984</ele>
        <time>2020-12-13T09:00:54Z</time>
      </trkpt>
      <trkpt lat="19.064274" lon="-98.601837">
        <ele>3585.370</ele>
        <time>2020-12-13T09:00:57Z</time>
      </trkpt>
      <trkpt lat="19.064242" lon="-98.601795">
        <ele>3585.720</ele>
        <time>2020-12-13T09:01:01Z</time>
      </trkpt>
      <trkpt lat="19.064207" lon="-98.601762">
        <ele>3585.531</ele>
        <time>2020-12-13T09:01:04Z</time>
      </trkpt>
      <trkpt lat="19.064164" lon="-98.601739">
        <ele>3583.872</ele>
        <time>2020-12-13T09:01:08Z</time>
      </trkpt>
      <trkpt lat="19.064117" lon="-98.601736">
        <ele>3583.691</ele>
        <time>2020-12-13T09:01:12Z</time>
      </trkpt>
      <trkpt lat="19.064062" lon="-98.601747">
        <ele>3583.967</ele>
        <time>2020-12-13T09:01:16Z</time>
      </trkpt>
      <trkpt lat="19.064011" lon="-98.601768">
        <ele>3584.584</ele>
        <time>2020-12-13T09:01:20Z</time>
      </trkpt>
      <trkpt lat="19.063959" lon="-98.601787">
        <ele>3584.482</ele>
        <time>2020-12-13T09:01:25Z</time>
      </trkpt>
      <trkpt lat="19.063919" lon="-98.601814">
        <ele>3584.843</ele>
        <time>2020-12-13T09:01:29Z</time>
      </trkpt>
      <trkpt lat="19.063867" lon="-98.601799">
        <ele>3584.217</ele>
        <time>2020-12-13T09:01:34Z</time>
      </trkpt>
      <trkpt lat="19.063833" lon="-98.601763">
        <ele>3584.308</ele>
        <time>2020-12-13T09:01:39Z</time>
      </trkpt>
      <trkpt lat="19.063838" lon="-98.601709">
        <ele>3585.984</ele>
        <time>2020-12-13T09:01:43Z</time>
      </trkpt>
      <trkpt lat="19.063865" lon="-98.601664">
        <ele>3586.960</ele>
        <time>2020-12-13T09:01:46Z</time>
      </trkpt>
      <trkpt lat="19.063904" lon="-98.60162">
        <ele>3589.110</ele>
        <time>2020-12-13T09:01:49Z</time>
      </trkpt>
      <trkpt lat="19.063954" lon="-98.601584">
        <ele>3590.881</ele>
        <time>2020-12-13T09:01:52Z</time>
      </trkpt>
      <trkpt lat="19.064002" lon="-98.601567">
        <ele>3592.632</ele>
        <time>2020-12-13T09:01:55Z</time>
      </trkpt>
      <trkpt lat="19.064056" lon="-98.601544">
        <ele>3592.171</ele>
        <time>2020-12-13T09:01:58Z</time>
      </trkpt>
      <trkpt lat="19.064098" lon="-98.601513">
        <ele>3590.227</ele>
        <time>2020-12-13T09:02:01Z</time>
      </trkpt>
      <trkpt lat="19.06413" lon="-98.601476">
        <ele>3588.754</ele>
        <time>2020-12-13T09:02:04Z</time>
      </trkpt>
      <trkpt lat="19.064154" lon="-98.601432">
        <ele>3588.233</ele>
        <time>2020-12-13T09:02:07Z</time>
      </trkpt>
      <trkpt lat="19.064165" lon="-98.601377">
        <ele>3587.523</ele>
        <time>2020-12-13T09:02:10Z</time>
      </trkpt>
      <trkpt lat="19.064162" lon="-98.601321">
        <ele>3586.715</ele>
        <time>2020-12-13T09:02:13Z</time>
      </trkpt>
      <trkpt lat="19.064152" lon="-98.601268">
        <ele>3586.608</ele>
        <time>2020-12-13T09:02:16Z</time>
      </trkpt>
      <trkpt lat="19.064133" lon="-98.60121">
        <ele>3586.959</ele>
        <time>2020-12-13T09:02:20Z</time>
      </trkpt>
      <trkpt lat="19.064116" lon="-98.601164">
        <ele>3588.335</ele>
        <time>2020-12-13T09:02:23Z</time>
      </trkpt>
      <trkpt lat="19.06409" lon="-98.601118">
        <ele>3589.535</ele>
        <time>2020-12-13T09:02:26Z</time>
      </trkpt>
      <trkpt lat="19.064049" lon="-98.601074">
        <ele>3591.036</ele>
        <time>2020-12-13T09:02:30Z</time>
      </trkpt>
      <trkpt lat="19.064003" lon="-98.601036">
        <ele>3587.087</ele>
        <time>2020-12-13T09:02:34Z</time>
      </trkpt>
      <trkpt lat="19.063954" lon="-98.601024">
        <ele>3584.396</ele>
        <time>2020-12-13T09:02:38Z</time>
      </trkpt>
      <trkpt lat="19.063908" lon="-98.601031">
        <ele>3588.352</ele>
        <time>2020-12-13T09:03:00Z</time>
      </trkpt>
      <trkpt lat="19.063857" lon="-98.601047">
        <ele>3592.379</ele>
        <time>2020-12-13T09:03:15Z</time>
      </trkpt>
      <trkpt lat="19.063809" lon="-98.601035">
        <ele>3594.321</ele>
        <time>2020-12-13T09:03:19Z</time>
      </trkpt>
      <trkpt lat="19.063761" lon="-98.601022">
        <ele>3595.541</ele>
        <time>2020-12-13T09:03:23Z</time>
      </trkpt>
      <trkpt lat="19.063708" lon="-98.601001">
        <ele>3595.805</ele>
        <time>2020-12-13T09:03:26Z</time>
      </trkpt>
      <trkpt lat="19.063654" lon="-98.600978">
        <ele>3595.608</ele>
        <time>2020-12-13T09:03:29Z</time>
      </trkpt>
      <trkpt lat="19.063608" lon="-98.600962">
        <ele>3595.518</ele>
        <time>2020-12-13T09:03:32Z</time>
      </trkpt>
      <trkpt lat="19.063565" lon="-98.600938">
        <ele>3595.884</ele>
        <time>2020-12-13T09:03:35Z</time>
      </trkpt>
      <trkpt lat="19.063521" lon="-98.600899">
        <ele>3595.694</ele>
        <time>2020-12-13T09:03:38Z</time>
      </trkpt>
      <trkpt lat="19.063477" lon="-98.600859">
        <ele>3591.625</ele>
        <time>2020-12-13T09:03:41Z</time>
      </trkpt>
      <trkpt lat="19.063436" lon="-98.600838">
        <ele>3587.666</ele>
        <time>2020-12-13T09:03:44Z</time>
      </trkpt>
      <trkpt lat="19.063382" lon="-98.600827">
        <ele>3583.935</ele>
        <time>2020-12-13T09:03:50Z</time>
      </trkpt>
      <trkpt lat="19.063339" lon="-98.600843">
        <ele>3584.121</ele>
        <time>2020-12-13T09:03:53Z</time>
      </trkpt>
      <trkpt lat="19.063292" lon="-98.60086">
        <ele>3585.868</ele>
        <time>2020-12-13T09:03:56Z</time>
      </trkpt>
      <trkpt lat="19.063249" lon="-98.600878">
        <ele>3588.492</ele>
        <time>2020-12-13T09:03:59Z</time>
      </trkpt>
      <trkpt lat="19.063201" lon="-98.6009">
        <ele>3590.873</ele>
        <time>2020-12-13T09:04:03Z</time>
      </trkpt>
      <trkpt lat="19.063145" lon="-98.600914">
        <ele>3586.820</ele>
        <time>2020-12-13T09:04:07Z</time>
      </trkpt>
      <trkpt lat="19.063085" lon="-98.600915">
        <ele>3582.808</ele>
        <time>2020-12-13T09:04:10Z</time>
      </trkpt>
      <trkpt lat="19.063038" lon="-98.600922">
        <ele>3578.875</ele>
        <time>2020-12-13T09:04:13Z</time>
      </trkpt>
      <trkpt lat="19.062995" lon="-98.600938">
        <ele>3578.691</ele>
        <time>2020-12-13T09:04:16Z</time>
      </trkpt>
      <trkpt lat="19.062948" lon="-98.600959">
        <ele>3579.381</ele>
        <time>2020-12-13T09:04:19Z</time>
      </trkpt>
      <trkpt lat="19.0629" lon="-98.600981">
        <ele>3575.392</ele>
        <time>2020-12-13T09:04:23Z</time>
      </trkpt>
      <trkpt lat="19.062858" lon="-98.600952">
        <ele>3571.323</ele>
        <time>2020-12-13T09:04:29Z</time>
      </trkpt>
      <trkpt lat="19.062848" lon="-98.600897">
        <ele>3567.352</ele>
        <time>2020-12-13T09:04:32Z</time>
      </trkpt>
      <trkpt lat="19.06285" lon="-98.60083">
        <ele>3568.918</ele>
        <time>2020-12-13T09:04:35Z</time>
      </trkpt>
      <trkpt lat="19.062857" lon="-98.600783">
        <ele>3572.965</ele>
        <time>2020-12-13T09:04:37Z</time>
      </trkpt>
      <trkpt lat="19.062867" lon="-98.600731">
        <ele>3576.956</ele>
        <time>2020-12-13T09:04:40Z</time>
      </trkpt>
      <trkpt lat="19.062873" lon="-98.600682">
        <ele>3580.959</ele>
        <time>2020-12-13T09:04:43Z</time>
      </trkpt>
      <trkpt lat="19.062871" lon="-98.600626">
        <ele>3584.914</ele>
        <time>2020-12-13T09:04:47Z</time>
      </trkpt>
      <trkpt lat="19.062849" lon="-98.60057">
        <ele>3588.708</ele>
        <time>2020-12-13T09:04:51Z</time>
      </trkpt>
      <trkpt lat="19.062793" lon="-98.600548">
        <ele>3590.261</ele>
        <time>2020-12-13T09:04:55Z</time>
      </trkpt>
      <trkpt lat="19.062743" lon="-98.600531">
        <ele>3591.587</ele>
        <time>2020-12-13T09:04:58Z</time>
      </trkpt>
      <trkpt lat="19.062691" lon="-98.600516">
        <ele>3592.797</ele>
        <time>2020-12-13T09:05:02Z</time>
      </trkpt>
      <trkpt lat="19.06264" lon="-98.60049">
        <ele>3588.738</ele>
        <time>2020-12-13T09:05:06Z</time>
      </trkpt>
      <trkpt lat="19.062599" lon="-98.600464">
        <ele>3584.739</ele>
        <time>2020-12-13T09:05:09Z</time>
      </trkpt>
      <trkpt lat="19.062551" lon="-98.600439">
        <ele>3581.068</ele>
        <time>2020-12-13T09:05:13Z</time>
      </trkpt>
      <trkpt lat="19.062505" lon="-98.600429">
        <ele>3579.234</ele>
        <time>2020-12-13T09:05:16Z</time>
      </trkpt>
      <trkpt lat="19.062435" lon="-98.600428">
        <ele>3579.331</ele>
        <time>2020-12-13T09:05:19Z</time>
      </trkpt>
      <trkpt lat="19.062378" lon="-98.600431">
        <ele>3581.051</ele>
        <time>2020-12-13T09:05:21Z</time>
      </trkpt>
      <trkpt lat="19.062323" lon="-98.600432">
        <ele>3582.401</ele>
        <time>2020-12-13T09:05:23Z</time>
      </trkpt>
      <trkpt lat="19.062275" lon="-98.600428">
        <ele>3583.211</ele>
        <time>2020-12-13T09:05:25Z</time>
      </trkpt>
      <trkpt lat="19.062216" lon="-98.600421">
        <ele>3583.708</ele>
        <time>2020-12-13T09:05:28Z</time>
      </trkpt>
      <trkpt lat="19.062175" lon="-98.600384">
        <ele>3582.821</ele>
        <time>2020-12-13T09:05:31Z</time>
      </trkpt>
      <trkpt lat="19.062173" lon="-98.60032">
        <ele>3582.347</ele>
        <time>2020-12-13T09:05:34Z</time>
      </trkpt>
      <trkpt lat="19.062199" lon="-98.600254">
        <ele>3583.637</ele>
        <time>2020-12-13T09:05:37Z</time>
      </trkpt>
      <trkpt lat="19.062236" lon="-98.600207">
        <ele>3583.678</ele>
        <time>2020-12-13T09:05:39Z</time>
      </trkpt>
      <trkpt lat="19.062275" lon="-98.600172">
        <ele>3584.019</ele>
        <time>2020-12-13T09:05:41Z</time>
      </trkpt>
      <trkpt lat="19.062323" lon="-98.600142">
        <ele>3584.268</ele>
        <time>2020-12-13T09:05:43Z</time>
      </trkpt>
      <trkpt lat="19.062365" lon="-98.600121">
        <ele>3584.314</ele>
        <time>2020-12-13T09:05:45Z</time>
      </trkpt>
      <trkpt lat="19.062418" lon="-98.600103">
        <ele>3586.031</ele>
        <time>2020-12-13T09:05:48Z</time>
      </trkpt>
      <trkpt lat="19.06247" lon="-98.600083">
        <ele>3587.418</ele>
        <time>2020-12-13T09:05:51Z</time>
      </trkpt>
      <trkpt lat="19.062519" lon="-98.600051">
        <ele>3586.698</ele>
        <time>2020-12-13T09:05:54Z</time>
      </trkpt>
      <trkpt lat="19.062566" lon="-98.600012">
        <ele>3586.917</ele>
        <time>2020-12-13T09:05:57Z</time>
      </trkpt>
      <trkpt lat="19.06261" lon="-98.599985">
        <ele>3582.908</ele>
        <time>2020-12-13T09:06:00Z</time>
      </trkpt>
      <trkpt lat="19.062661" lon="-98.599952">
        <ele>3578.917</ele>
        <time>2020-12-13T09:06:04Z</time>
      </trkpt>
      <trkpt lat="19.062693" lon="-98.599916">
        <ele>3574.973</ele>
        <time>2020-12-13T09:06:07Z</time>
      </trkpt>
      <trkpt lat="19.062701" lon="-98.599867">
        <ele>3570.983</ele>
        <time>2020-12-13T09:06:11Z</time>
      </trkpt>
      <trkpt lat="19.062676" lon="-98.599816">
        <ele>3566.914</ele>
        <time>2020-12-13T09:06:15Z</time>
      </trkpt>
      <trkpt lat="19.062631" lon="-98.599788">
        <ele>3562.985</ele>
        <time>2020-12-13T09:06:20Z</time>
      </trkpt>
      <trkpt lat="19.06259" lon="-98.599766">
        <ele>3558.954</ele>
        <time>2020-12-13T09:06:26Z</time>
      </trkpt>
      <trkpt lat="19.062553" lon="-98.599738">
        <ele>3554.910</ele>
        <time>2020-12-13T09:06:31Z</time>
      </trkpt>
      <trkpt lat="19.062514" lon="-98.599712">
        <ele>3553.597</ele>
        <time>2020-12-13T09:06:36Z</time>
      </trkpt>
      <trkpt lat="19.062503" lon="-98.599657">
        <ele>3557.578</ele>
        <time>2020-12-13T09:06:42Z</time>
      </trkpt>
      <trkpt lat="19.062527" lon="-98.599613">
        <ele>3561.533</ele>
        <time>2020-12-13T09:06:45Z</time>
      </trkpt>
      <trkpt lat="19.062556" lon="-98.599574">
        <ele>3557.526</ele>
        <time>2020-12-13T09:06:48Z</time>
      </trkpt>
      <trkpt lat="19.062594" lon="-98.599539">
        <ele>3553.508</ele>
        <time>2020-12-13T09:06:52Z</time>
      </trkpt>
      <trkpt lat="19.062627" lon="-98.599498">
        <ele>3556.323</ele>
        <time>2020-12-13T09:06:57Z</time>
      </trkpt>
      <trkpt lat="19.062669" lon="-98.599451">
        <ele>3560.319</ele>
        <time>2020-12-13T09:07:01Z</time>
      </trkpt>
      <trkpt lat="19.062696" lon="-98.599407">
        <ele>3564.069</ele>
        <time>2020-12-13T09:07:04Z</time>
      </trkpt>
      <trkpt lat="19.062718" lon="-98.599353">
        <ele>3565.880</ele>
        <time>2020-12-13T09:07:08Z</time>
      </trkpt>
      <trkpt lat="19.062727" lon="-98.599305">
        <ele>3565.791</ele>
        <time>2020-12-13T09:07:11Z</time>
      </trkpt>
      <trkpt lat="19.062729" lon="-98.599248">
        <ele>3561.730</ele>
        <time>2020-12-13T09:07:15Z</time>
      </trkpt>
      <trkpt lat="19.062706" lon="-98.599198">
        <ele>3559.636</ele>
        <time>2020-12-13T09:07:19Z</time>
      </trkpt>
      <trkpt lat="19.062668" lon="-98.599152">
        <ele>3561.243</ele>
        <time>2020-12-13T09:07:23Z</time>
      </trkpt>
      <trkpt lat="19.062637" lon="-98.599117">
        <ele>3562.984</ele>
        <time>2020-12-13T09:07:26Z</time>
      </trkpt>
      <trkpt lat="19.062604" lon="-98.599079">
        <ele>3563.907</ele>
        <time>2020-12-13T09:07:29Z</time>
      </trkpt>
      <trkpt lat="19.06257" lon="-98.599044">
        <ele>3564.917</ele>
        <time>2020-12-13T09:07:32Z</time>
      </trkpt>
      <trkpt lat="19.062536" lon="-98.599001">
        <ele>3564.708</ele>
        <time>2020-12-13T09:07:36Z</time>
      </trkpt>
      <trkpt lat="19.062507" lon="-98.598959">
        <ele>3564.664</ele>
        <time>2020-12-13T09:07:40Z</time>
      </trkpt>
      <trkpt lat="19.062476" lon="-98.598919">
        <ele>3564.540</ele>
        <time>2020-12-13T09:07:44Z</time>
      </trkpt>
      <trkpt lat="19.062428" lon="-98.598888">
        <ele>3562.570</ele>
        <time>2020-12-13T09:07:48Z</time>
      </trkpt>
      <trkpt lat="19.062384" lon="-98.59884">
        <ele>3561.711</ele>
        <time>2020-12-13T09:07:52Z</time>
      </trkpt>
      <trkpt lat="19.062392" lon="-98.598782">
        <ele>3562.042</ele>
        <time>2020-12-13T09:07:56Z</time>
      </trkpt>
      <trkpt lat="19.062436" lon="-98.598745">
        <ele>3563.091</ele>
        <time>2020-12-13T09:08:00Z</time>
      </trkpt>
      <trkpt lat="19.062481" lon="-98.598711">
        <ele>3564.827</ele>
        <time>2020-12-13T09:08:04Z</time>
      </trkpt>
      <trkpt lat="19.062505" lon="-98.598652">
        <ele>3565.594</ele>
        <time>2020-12-13T09:08:08Z</time>
      </trkpt>
      <trkpt lat="19.062518" lon="-98.598594">
        <ele>3565.194</ele>
        <time>2020-12-13T09:08:12Z</time>
      </trkpt>
      <trkpt lat="19.062518" lon="-98.598539">
        <ele>3564.957</ele>
        <time>2020-12-13T09:08:16Z</time>
      </trkpt>
      <trkpt lat="19.062512" lon="-98.598489">
        <ele>3564.822</ele>
        <time>2020-12-13T09:08:20Z</time>
      </trkpt>
      <trkpt lat="19.062492" lon="-98.598446">
        <ele>3563.908</ele>
        <time>2020-12-13T09:08:24Z</time>
      </trkpt>
      <trkpt lat="19.062465" lon="-98.598402">
        <ele>3562.665</ele>
        <time>2020-12-13T09:08:28Z</time>
      </trkpt>
      <trkpt lat="19.062426" lon="-98.598363">
        <ele>3562.681</ele>
        <time>2020-12-13T09:08:32Z</time>
      </trkpt>
      <trkpt lat="19.06238" lon="-98.598335">
        <ele>3562.211</ele>
        <time>2020-12-13T09:08:36Z</time>
      </trkpt>
      <trkpt lat="19.062346" lon="-98.598298">
        <ele>3562.082</ele>
        <time>2020-12-13T09:08:40Z</time>
      </trkpt>
      <trkpt lat="19.062301" lon="-98.598264">
        <ele>3558.043</ele>
        <time>2020-12-13T09:08:44Z</time>
      </trkpt>
      <trkpt lat="19.062248" lon="-98.598247">
        <ele>3554.032</ele>
        <time>2020-12-13T09:08:48Z</time>
      </trkpt>
      <trkpt lat="19.062192" lon="-98.598234">
        <ele>3550.088</ele>
        <time>2020-12-13T09:08:52Z</time>
      </trkpt>
      <trkpt lat="19.062144" lon="-98.59822">
        <ele>3546.735</ele>
        <time>2020-12-13T09:08:56Z</time>
      </trkpt>
      <trkpt lat="19.0621" lon="-98.5982">
        <ele>3546.714</ele>
        <time>2020-12-13T09:09:01Z</time>
      </trkpt>
      <trkpt lat="19.062059" lon="-98.598168">
        <ele>3547.954</ele>
        <time>2020-12-13T09:09:10Z</time>
      </trkpt>
      <trkpt lat="19.062013" lon="-98.598138">
        <ele>3548.609</ele>
        <time>2020-12-13T09:09:15Z</time>
      </trkpt>
      <trkpt lat="19.061967" lon="-98.598122">
        <ele>3548.608</ele>
        <time>2020-12-13T09:09:18Z</time>
      </trkpt>
      <trkpt lat="19.061925" lon="-98.598095">
        <ele>3547.857</ele>
        <time>2020-12-13T09:09:21Z</time>
      </trkpt>
      <trkpt lat="19.061905" lon="-98.598052">
        <ele>3546.523</ele>
        <time>2020-12-13T09:09:24Z</time>
      </trkpt>
      <trkpt lat="19.061887" lon="-98.598006">
        <ele>3546.523</ele>
        <time>2020-12-13T09:09:28Z</time>
      </trkpt>
      <trkpt lat="19.061841" lon="-98.597999">
        <ele>3546.134</ele>
        <time>2020-12-13T09:09:33Z</time>
      </trkpt>
      <trkpt lat="19.061802" lon="-98.597974">
        <ele>3546.735</ele>
        <time>2020-12-13T09:09:38Z</time>
      </trkpt>
      <trkpt lat="19.061771" lon="-98.597938">
        <ele>3548.274</ele>
        <time>2020-12-13T09:09:42Z</time>
      </trkpt>
      <trkpt lat="19.061731" lon="-98.597904">
        <ele>3548.760</ele>
        <time>2020-12-13T09:09:47Z</time>
      </trkpt>
      <trkpt lat="19.061719" lon="-98.597847">
        <ele>3544.717</ele>
        <time>2020-12-13T09:09:51Z</time>
      </trkpt>
      <trkpt lat="19.061724" lon="-98.597794">
        <ele>3540.723</ele>
        <time>2020-12-13T09:09:55Z</time>
      </trkpt>
      <trkpt lat="19.061725" lon="-98.597744">
        <ele>3536.783</ele>
        <time>2020-12-13T09:09:58Z</time>
      </trkpt>
      <trkpt lat="19.06173" lon="-98.597695">
        <ele>3532.711</ele>
        <time>2020-12-13T09:10:01Z</time>
      </trkpt>
      <trkpt lat="19.061742" lon="-98.597635">
        <ele>3528.708</ele>
        <time>2020-12-13T09:10:05Z</time>
      </trkpt>
      <trkpt lat="19.061758" lon="-98.597588">
        <ele>3526.648</ele>
        <time>2020-12-13T09:10:09Z</time>
      </trkpt>
      <trkpt lat="19.061755" lon="-98.597536">
        <ele>3522.624</ele>
        <time>2020-12-13T09:10:14Z</time>
      </trkpt>
      <trkpt lat="19.061743" lon="-98.597483">
        <ele>3518.634</ele>
        <time>2020-12-13T09:10:19Z</time>
      </trkpt>
      <trkpt lat="19.061725" lon="-98.597425">
        <ele>3514.665</ele>
        <time>2020-12-13T09:10:23Z</time>
      </trkpt>
      <trkpt lat="19.061725" lon="-98.597377">
        <ele>3514.556</ele>
        <time>2020-12-13T09:10:26Z</time>
      </trkpt>
      <trkpt lat="19.06173" lon="-98.597315">
        <ele>3516.545</ele>
        <time>2020-12-13T09:10:30Z</time>
      </trkpt>
      <trkpt lat="19.061733" lon="-98.597262">
        <ele>3520.541</ele>
        <time>2020-12-13T09:10:33Z</time>
      </trkpt>
      <trkpt lat="19.061736" lon="-98.597204">
        <ele>3524.518</ele>
        <time>2020-12-13T09:10:36Z</time>
      </trkpt>
      <trkpt lat="19.061751" lon="-98.597144">
        <ele>3528.523</ele>
        <time>2020-12-13T09:10:39Z</time>
      </trkpt>
      <trkpt lat="19.061765" lon="-98.597089">
        <ele>3532.183</ele>
        <time>2020-12-13T09:10:42Z</time>
      </trkpt>
      <trkpt lat="19.061763" lon="-98.597028">
        <ele>3534.311</ele>
        <time>2020-12-13T09:10:45Z</time>
      </trkpt>
      <trkpt lat="19.061749" lon="-98.59698">
        <ele>3536.808</ele>
        <time>2020-12-13T09:10:47Z</time>
      </trkpt>
      <trkpt lat="19.061733" lon="-98.596934">
        <ele>3532.878</ele>
        <time>2020-12-13T09:10:49Z</time>
      </trkpt>
      <trkpt lat="19.061715" lon="-98.596874">
        <ele>3528.894</ele>
        <time>2020-12-13T09:10:52Z</time>
      </trkpt>
      <trkpt lat="19.0617" lon="-98.596815">
        <ele>3532.884</ele>
        <time>2020-12-13T09:10:56Z</time>
      </trkpt>
      <trkpt lat="19.061672" lon="-98.596772">
        <ele>3536.855</ele>
        <time>2020-12-13T09:11:00Z</time>
      </trkpt>
      <trkpt lat="19.061643" lon="-98.596733">
        <ele>3540.846</ele>
        <time>2020-12-13T09:11:04Z</time>
      </trkpt>
      <trkpt lat="19.061603" lon="-98.596703">
        <ele>3544.835</ele>
        <time>2020-12-13T09:11:08Z</time>
      </trkpt>
      <trkpt lat="19.061565" lon="-98.596665">
        <ele>3545.571</ele>
        <time>2020-12-13T09:11:12Z</time>
      </trkpt>
      <trkpt lat="19.061527" lon="-98.596626">
        <ele>3545.138</ele>
        <time>2020-12-13T09:11:16Z</time>
      </trkpt>
      <trkpt lat="19.061468" lon="-98.59661">
        <ele>3543.389</ele>
        <time>2020-12-13T09:11:20Z</time>
      </trkpt>
      <trkpt lat="19.061416" lon="-98.596593">
        <ele>3540.206</ele>
        <time>2020-12-13T09:11:23Z</time>
      </trkpt>
      <trkpt lat="19.061359" lon="-98.596566">
        <ele>3538.726</ele>
        <time>2020-12-13T09:11:26Z</time>
      </trkpt>
      <trkpt lat="19.06132" lon="-98.596525">
        <ele>3536.608</ele>
        <time>2020-12-13T09:11:29Z</time>
      </trkpt>
      <trkpt lat="19.061285" lon="-98.596478">
        <ele>3536.244</ele>
        <time>2020-12-13T09:11:32Z</time>
      </trkpt>
      <trkpt lat="19.061251" lon="-98.596439">
        <ele>3535.940</ele>
        <time>2020-12-13T09:11:35Z</time>
      </trkpt>
      <trkpt lat="19.061218" lon="-98.596404">
        <ele>3535.370</ele>
        <time>2020-12-13T09:11:38Z</time>
      </trkpt>
      <trkpt lat="19.061181" lon="-98.596364">
        <ele>3534.681</ele>
        <time>2020-12-13T09:11:41Z</time>
      </trkpt>
      <trkpt lat="19.061153" lon="-98.596317">
        <ele>3534.672</ele>
        <time>2020-12-13T09:11:44Z</time>
      </trkpt>
      <trkpt lat="19.061119" lon="-98.596277">
        <ele>3534.251</ele>
        <time>2020-12-13T09:11:47Z</time>
      </trkpt>
      <trkpt lat="19.061088" lon="-98.596233">
        <ele>3535.547</ele>
        <time>2020-12-13T09:11:50Z</time>
      </trkpt>
      <trkpt lat="19.061077" lon="-98.596182">
        <ele>3535.974</ele>
        <time>2020-12-13T09:11:53Z</time>
      </trkpt>
      <trkpt lat="19.061065" lon="-98.596136">
        <ele>3531.943</ele>
        <time>2020-12-13T09:11:58Z</time>
      </trkpt>
      <trkpt lat="19.061021" lon="-98.596105">
        <ele>3527.964</ele>
        <time>2020-12-13T09:12:08Z</time>
      </trkpt>
      <trkpt lat="19.060978" lon="-98.596074">
        <ele>3523.910</ele>
        <time>2020-12-13T09:12:13Z</time>
      </trkpt>
      <trkpt lat="19.060949" lon="-98.596031">
        <ele>3519.908</ele>
        <time>2020-12-13T09:12:17Z</time>
      </trkpt>
      <trkpt lat="19.060913" lon="-98.595996">
        <ele>3518.130</ele>
        <time>2020-12-13T09:12:21Z</time>
      </trkpt>
      <trkpt lat="19.060883" lon="-98.595955">
        <ele>3516.256</ele>
        <time>2020-12-13T09:12:24Z</time>
      </trkpt>
      <trkpt lat="19.060842" lon="-98.595924">
        <ele>3516.396</ele>
        <time>2020-12-13T09:12:27Z</time>
      </trkpt>
      <trkpt lat="19.060786" lon="-98.595893">
        <ele>3519.257</ele>
        <time>2020-12-13T09:12:30Z</time>
      </trkpt>
      <trkpt lat="19.060736" lon="-98.595854">
        <ele>3522.158</ele>
        <time>2020-12-13T09:12:33Z</time>
      </trkpt>
      <trkpt lat="19.060707" lon="-98.595807">
        <ele>3524.647</ele>
        <time>2020-12-13T09:12:36Z</time>
      </trkpt>
      <trkpt lat="19.060692" lon="-98.595758">
        <ele>3525.713</ele>
        <time>2020-12-13T09:12:39Z</time>
      </trkpt>
      <trkpt lat="19.060686" lon="-98.595697">
        <ele>3526.040</ele>
        <time>2020-12-13T09:12:43Z</time>
      </trkpt>
      <trkpt lat="19.06067" lon="-98.59565">
        <ele>3525.844</ele>
        <time>2020-12-13T09:12:47Z</time>
      </trkpt>
      <trkpt lat="19.060631" lon="-98.595614">
        <ele>3524.905</ele>
        <time>2020-12-13T09:12:52Z</time>
      </trkpt>
      <trkpt lat="19.060592" lon="-98.595567">
        <ele>3525.115</ele>
        <time>2020-12-13T09:12:56Z</time>
      </trkpt>
      <trkpt lat="19.060553" lon="-98.595525">
        <ele>3525.208</ele>
        <time>2020-12-13T09:12:59Z</time>
      </trkpt>
      <trkpt lat="19.060499" lon="-98.595492">
        <ele>3526.580</ele>
        <time>2020-12-13T09:13:02Z</time>
      </trkpt>
      <trkpt lat="19.060451" lon="-98.595478">
        <ele>3525.776</ele>
        <time>2020-12-13T09:13:05Z</time>
      </trkpt>
      <trkpt lat="19.060395" lon="-98.595474">
        <ele>3525.216</ele>
        <time>2020-12-13T09:13:09Z</time>
      </trkpt>
      <trkpt lat="19.060339" lon="-98.595462">
        <ele>3525.327</ele>
        <time>2020-12-13T09:13:13Z</time>
      </trkpt>
      <trkpt lat="19.060308" lon="-98.595421">
        <ele>3524.668</ele>
        <time>2020-12-13T09:13:17Z</time>
      </trkpt>
      <trkpt lat="19.060262" lon="-98.595416">
        <ele>3523.827</ele>
        <time>2020-12-13T09:13:22Z</time>
      </trkpt>
      <trkpt lat="19.060215" lon="-98.595438">
        <ele>3524.933</ele>
        <time>2020-12-13T09:13:26Z</time>
      </trkpt>
      <trkpt lat="19.060178" lon="-98.595473">
        <ele>3525.670</ele>
        <time>2020-12-13T09:13:30Z</time>
      </trkpt>
      <trkpt lat="19.060134" lon="-98.595493">
        <ele>3526.474</ele>
        <time>2020-12-13T09:13:34Z</time>
      </trkpt>
      <trkpt lat="19.060097" lon="-98.595522">
        <ele>3530.456</ele>
        <time>2020-12-13T09:13:46Z</time>
      </trkpt>
      <trkpt lat="19.060098" lon="-98.595471">
        <ele>3526.421</ele>
        <time>2020-12-13T09:14:10Z</time>
      </trkpt>
      <trkpt lat="19.060102" lon="-98.595418">
        <ele>3522.408</ele>
        <time>2020-12-13T09:14:15Z</time>
      </trkpt>
      <trkpt lat="19.060094" lon="-98.595467">
        <ele>3526.483</ele>
        <time>2020-12-13T09:15:26Z</time>
      </trkpt>
      <trkpt lat="19.060138" lon="-98.595482">
        <ele>3530.489</ele>
        <time>2020-12-13T09:17:42Z</time>
      </trkpt>
      <trkpt lat="19.060106" lon="-98.595448">
        <ele>3534.439</ele>
        <time>2020-12-13T09:18:10Z</time>
      </trkpt>
      <trkpt lat="19.060061" lon="-98.595433">
        <ele>3538.480</ele>
        <time>2020-12-13T09:18:19Z</time>
      </trkpt>
      <trkpt lat="19.060015" lon="-98.595464">
        <ele>3534.441</ele>
        <time>2020-12-13T09:21:01Z</time>
      </trkpt>
      <trkpt lat="19.059967" lon="-98.595498">
        <ele>3530.470</ele>
        <time>2020-12-13T09:21:04Z</time>
      </trkpt>
      <trkpt lat="19.059924" lon="-98.59554">
        <ele>3526.426</ele>
        <time>2020-12-13T09:21:07Z</time>
      </trkpt>
      <trkpt lat="19.059885" lon="-98.595577">
        <ele>3525.313</ele>
        <time>2020-12-13T09:21:10Z</time>
      </trkpt>
      <trkpt lat="19.059854" lon="-98.595622">
        <ele>3528.257</ele>
        <time>2020-12-13T09:21:14Z</time>
      </trkpt>
      <trkpt lat="19.059811" lon="-98.59566">
        <ele>3531.600</ele>
        <time>2020-12-13T09:21:18Z</time>
      </trkpt>
      <trkpt lat="19.059768" lon="-98.595679">
        <ele>3534.420</ele>
        <time>2020-12-13T09:21:23Z</time>
      </trkpt>
      <trkpt lat="19.059718" lon="-98.59567">
        <ele>3538.108</ele>
        <time>2020-12-13T09:21:30Z</time>
      </trkpt>
      <trkpt lat="19.059671" lon="-98.59566">
        <ele>3539.921</ele>
        <time>2020-12-13T09:21:35Z</time>
      </trkpt>
      <trkpt lat="19.059632" lon="-98.595687">
        <ele>3543.437</ele>
        <time>2020-12-13T09:21:39Z</time>
      </trkpt>
      <trkpt lat="19.059604" lon="-98.595728">
        <ele>3547.177</ele>
        <time>2020-12-13T09:21:45Z</time>
      </trkpt>
      <trkpt lat="19.059564" lon="-98.595752">
        <ele>3549.758</ele>
        <time>2020-12-13T09:21:51Z</time>
      </trkpt>
      <trkpt lat="19.059546" lon="-98.5958">
        <ele>3550.559</ele>
        <time>2020-12-13T09:22:02Z</time>
      </trkpt>
      <trkpt lat="19.059584" lon="-98.595826">
        <ele>3551.828</ele>
        <time>2020-12-13T09:22:07Z</time>
      </trkpt>
      <trkpt lat="19.059558" lon="-98.595867">
        <ele>3554.294</ele>
        <time>2020-12-13T09:22:30Z</time>
      </trkpt>
      <trkpt lat="19.059517" lon="-98.595888">
        <ele>3554.441</ele>
        <time>2020-12-13T09:22:36Z</time>
      </trkpt>
      <trkpt lat="19.05948" lon="-98.59593">
        <ele>3550.477</ele>
        <time>2020-12-13T09:22:41Z</time>
      </trkpt>
      <trkpt lat="19.059442" lon="-98.595967">
        <ele>3546.461</ele>
        <time>2020-12-13T09:22:47Z</time>
      </trkpt>
      <trkpt lat="19.059407" lon="-98.595998">
        <ele>3542.427</ele>
        <time>2020-12-13T09:23:01Z</time>
      </trkpt>
      <trkpt lat="19.0594" lon="-98.596058">
        <ele>3538.408</ele>
        <time>2020-12-13T09:23:26Z</time>
      </trkpt>
      <trkpt lat="19.059386" lon="-98.596111">
        <ele>3534.473</ele>
        <time>2020-12-13T09:23:30Z</time>
      </trkpt>
      <trkpt lat="19.059341" lon="-98.596105">
        <ele>3530.479</ele>
        <time>2020-12-13T09:23:46Z</time>
      </trkpt>
      <trkpt lat="19.059293" lon="-98.596133">
        <ele>3534.469</ele>
        <time>2020-12-13T09:23:57Z</time>
      </trkpt>
      <trkpt lat="19.059251" lon="-98.596161">
        <ele>3538.410</ele>
        <time>2020-12-13T09:24:01Z</time>
      </trkpt>
      <trkpt lat="19.059205" lon="-98.596157">
        <ele>3542.421</ele>
        <time>2020-12-13T09:24:08Z</time>
      </trkpt>
      <trkpt lat="19.059158" lon="-98.596166">
        <ele>3546.490</ele>
        <time>2020-12-13T09:24:15Z</time>
      </trkpt>
      <trkpt lat="19.059119" lon="-98.59619">
        <ele>3550.416</ele>
        <time>2020-12-13T09:24:27Z</time>
      </trkpt>
      <trkpt lat="19.058883" lon="-98.596566">
        <ele>3461.043</ele>
        <time>2020-12-13T09:26:25Z</time>
      </trkpt>
      <trkpt lat="19.05892" lon="-98.596514">
        <ele>3534.099</ele>
        <time>2020-12-13T09:26:29Z</time>
      </trkpt>
      <trkpt lat="19.055936" lon="-98.6009">
        <ele>3528.607</ele>
        <time>2020-12-13T09:47:54Z</time>
      </trkpt>
      <trkpt lat="19.055933" lon="-98.600955">
        <ele>3530.627</ele>
        <time>2020-12-13T09:48:11Z</time>
      </trkpt>
      <trkpt lat="19.055916" lon="-98.601">
        <ele>3531.408</ele>
        <time>2020-12-13T09:48:13Z</time>
      </trkpt>
      <trkpt lat="19.055892" lon="-98.60105">
        <ele>3531.985</ele>
        <time>2020-12-13T09:49:02Z</time>
      </trkpt>
      <trkpt lat="19.055872" lon="-98.601104">
        <ele>3531.431</ele>
        <time>2020-12-13T09:49:06Z</time>
      </trkpt>
      <trkpt lat="19.055855" lon="-98.601156">
        <ele>3531.981</ele>
        <time>2020-12-13T09:49:09Z</time>
      </trkpt>
      <trkpt lat="19.055833" lon="-98.601221">
        <ele>3533.022</ele>
        <time>2020-12-13T09:49:13Z</time>
      </trkpt>
      <trkpt lat="19.055815" lon="-98.601275">
        <ele>3534.183</ele>
        <time>2020-12-13T09:49:15Z</time>
      </trkpt>
      <trkpt lat="19.055805" lon="-98.601322">
        <ele>3535.512</ele>
        <time>2020-12-13T09:49:18Z</time>
      </trkpt>
      <trkpt lat="19.055806" lon="-98.601378">
        <ele>3536.418</ele>
        <time>2020-12-13T09:49:21Z</time>
      </trkpt>
      <trkpt lat="19.055812" lon="-98.601425">
        <ele>3538.135</ele>
        <time>2020-12-13T09:49:23Z</time>
      </trkpt>
      <trkpt lat="19.05581" lon="-98.601474">
        <ele>3539.596</ele>
        <time>2020-12-13T09:49:27Z</time>
      </trkpt>
      <trkpt lat="19.055763" lon="-98.601457">
        <ele>3543.531</ele>
        <time>2020-12-13T09:49:33Z</time>
      </trkpt>
      <trkpt lat="19.055717" lon="-98.601446">
        <ele>3547.524</ele>
        <time>2020-12-13T09:49:39Z</time>
      </trkpt>
      <trkpt lat="19.055684" lon="-98.601481">
        <ele>3551.508</ele>
        <time>2020-12-13T09:49:52Z</time>
      </trkpt>
      <trkpt lat="19.055642" lon="-98.601508">
        <ele>3555.515</ele>
        <time>2020-12-13T09:50:30Z</time>
      </trkpt>
      <trkpt lat="19.055632" lon="-98.601561">
        <ele>3559.551</ele>
        <time>2020-12-13T09:50:35Z</time>
      </trkpt>
      <trkpt lat="19.055609" lon="-98.601607">
        <ele>3563.541</ele>
        <time>2020-12-13T09:50:42Z</time>
      </trkpt>
      <trkpt lat="19.05557" lon="-98.601644">
        <ele>3567.292</ele>
        <time>2020-12-13T09:50:50Z</time>
      </trkpt>
      <trkpt lat="19.055547" lon="-98.601699">
        <ele>3563.233</ele>
        <time>2020-12-13T09:50:55Z</time>
      </trkpt>
      <trkpt lat="19.05552" lon="-98.601738">
        <ele>3559.272</ele>
        <time>2020-12-13T09:50:59Z</time>
      </trkpt>
      <trkpt lat="19.055486" lon="-98.601774">
        <ele>3555.268</ele>
        <time>2020-12-13T09:51:05Z</time>
      </trkpt>
      <trkpt lat="19.055454" lon="-98.601808">
        <ele>3559.265</ele>
        <time>2020-12-13T09:51:23Z</time>
      </trkpt>
      <trkpt lat="19.055411" lon="-98.601845">
        <ele>3563.287</ele>
        <time>2020-12-13T09:51:29Z</time>
      </trkpt>
      <trkpt lat="19.055382" lon="-98.601895">
        <ele>3567.242</ele>
        <time>2020-12-13T09:51:32Z</time>
      </trkpt>
      <trkpt lat="19.055354" lon="-98.601941">
        <ele>3569.426</ele>
        <time>2020-12-13T09:51:35Z</time>
      </trkpt>
      <trkpt lat="19.055321" lon="-98.601991">
        <ele>3571.508</ele>
        <time>2020-12-13T09:51:38Z</time>
      </trkpt>
      <trkpt lat="19.055285" lon="-98.602031">
        <ele>3574.064</ele>
        <time>2020-12-13T09:51:41Z</time>
      </trkpt>
      <trkpt lat="19.055249" lon="-98.60208">
        <ele>3577.170</ele>
        <time>2020-12-13T09:51:45Z</time>
      </trkpt>
      <trkpt lat="19.055208" lon="-98.602107">
        <ele>3580.940</ele>
        <time>2020-12-13T09:51:50Z</time>
      </trkpt>
      <trkpt lat="19.05516" lon="-98.602108">
        <ele>3584.941</ele>
        <time>2020-12-13T09:51:58Z</time>
      </trkpt>
      <trkpt lat="19.055122" lon="-98.602079">
        <ele>3588.982</ele>
        <time>2020-12-13T09:52:27Z</time>
      </trkpt>
      <trkpt lat="19.055077" lon="-98.602112">
        <ele>3584.951</ele>
        <time>2020-12-13T09:52:32Z</time>
      </trkpt>
      <trkpt lat="19.05504" lon="-98.602144">
        <ele>3580.937</ele>
        <time>2020-12-13T09:52:36Z</time>
      </trkpt>
      <trkpt lat="19.054993" lon="-98.602152">
        <ele>3576.924</ele>
        <time>2020-12-13T09:52:41Z</time>
      </trkpt>
      <trkpt lat="19.054952" lon="-98.602195">
        <ele>3572.925</ele>
        <time>2020-12-13T09:52:47Z</time>
      </trkpt>
      <trkpt lat="19.054923" lon="-98.602242">
        <ele>3568.926</ele>
        <time>2020-12-13T09:52:52Z</time>
      </trkpt>
      <trkpt lat="19.054885" lon="-98.602285">
        <ele>3564.908</ele>
        <time>2020-12-13T09:52:56Z</time>
      </trkpt>
      <trkpt lat="19.054836" lon="-98.602299">
        <ele>3560.908</ele>
        <time>2020-12-13T09:53:00Z</time>
      </trkpt>
      <trkpt lat="19.054794" lon="-98.602324">
        <ele>3556.978</ele>
        <time>2020-12-13T09:53:04Z</time>
      </trkpt>
      <trkpt lat="19.054768" lon="-98.602373">
        <ele>3555.254</ele>
        <time>2020-12-13T09:53:10Z</time>
      </trkpt>
      <trkpt lat="19.054712" lon="-98.602368">
        <ele>3559.234</ele>
        <time>2020-12-13T09:54:26Z</time>
      </trkpt>
      <trkpt lat="19.054648" lon="-98.602367">
        <ele>3563.235</ele>
        <time>2020-12-13T09:54:29Z</time>
      </trkpt>
      <trkpt lat="19.054607" lon="-98.602394">
        <ele>3559.286</ele>
        <time>2020-12-13T09:54:36Z</time>
      </trkpt>
      <trkpt lat="19.054565" lon="-98.602375">
        <ele>3563.225</ele>
        <time>2020-12-13T09:55:10Z</time>
      </trkpt>
      <trkpt lat="19.054517" lon="-98.602377">
        <ele>3567.261</ele>
        <time>2020-12-13T09:55:14Z</time>
      </trkpt>
      <trkpt lat="19.054478" lon="-98.602352">
        <ele>3571.248</ele>
        <time>2020-12-13T09:55:19Z</time>
      </trkpt>
      <trkpt lat="19.05444" lon="-98.60238">
        <ele>3575.266</ele>
        <time>2020-12-13T09:55:45Z</time>
      </trkpt>
      <trkpt lat="19.05441" lon="-98.602429">
        <ele>3579.229</ele>
        <time>2020-12-13T09:55:51Z</time>
      </trkpt>
      <trkpt lat="19.05438" lon="-98.60247">
        <ele>3583.221</ele>
        <time>2020-12-13T09:55:57Z</time>
      </trkpt>
      <trkpt lat="19.054343" lon="-98.602502">
        <ele>3579.208</ele>
        <time>2020-12-13T09:56:33Z</time>
      </trkpt>
      <trkpt lat="19.054336" lon="-98.602453">
        <ele>3578.212</ele>
        <time>2020-12-13T09:56:40Z</time>
      </trkpt>
      <trkpt lat="19.054314" lon="-98.602408">
        <ele>3582.218</ele>
        <time>2020-12-13T09:56:48Z</time>
      </trkpt>
      <trkpt lat="19.054265" lon="-98.602412">
        <ele>3586.248</ele>
        <time>2020-12-13T09:57:19Z</time>
      </trkpt>
      <trkpt lat="19.054237" lon="-98.602452">
        <ele>3590.229</ele>
        <time>2020-12-13T09:57:49Z</time>
      </trkpt>
      <trkpt lat="19.054253" lon="-98.602405">
        <ele>3594.260</ele>
        <time>2020-12-13T09:58:11Z</time>
      </trkpt>
      <trkpt lat="19.054236" lon="-98.602359">
        <ele>3598.229</ele>
        <time>2020-12-13T09:58:29Z</time>
      </trkpt>
      <trkpt lat="19.054235" lon="-98.602306">
        <ele>3602.295</ele>
        <time>2020-12-13T09:58:37Z</time>
      </trkpt>
      <trkpt lat="19.054233" lon="-98.602255">
        <ele>3606.212</ele>
        <time>2020-12-13T09:58:48Z</time>
      </trkpt>
      <trkpt lat="19.054186" lon="-98.602267">
        <ele>3610.235</ele>
        <time>2020-12-13T09:58:54Z</time>
      </trkpt>
      <trkpt lat="19.054147" lon="-98.602302">
        <ele>3614.286</ele>
        <time>2020-12-13T09:59:13Z</time>
      </trkpt>
      <trkpt lat="19.054127" lon="-98.602344">
        <ele>3618.214</ele>
        <time>2020-12-13T09:59:31Z</time>
      </trkpt>
      <trkpt lat="19.054109" lon="-98.602392">
        <ele>3622.208</ele>
        <time>2020-12-13T09:59:40Z</time>
      </trkpt>
      <trkpt lat="19.05409" lon="-98.602436">
        <ele>3626.249</ele>
        <time>2020-12-13T09:59:52Z</time>
      </trkpt>
      <trkpt lat="19.054044" lon="-98.602433">
        <ele>3630.245</ele>
        <time>2020-12-13T10:00:10Z</time>
      </trkpt>
      <trkpt lat="19.053964" lon="-98.602523">
        <ele>3627.435</ele>
        <time>2020-12-13T10:01:53Z</time>
      </trkpt>
      <trkpt lat="19.054001" lon="-98.602556">
        <ele>3623.496</ele>
        <time>2020-12-13T10:04:57Z</time>
      </trkpt>
      <trkpt lat="19.053954" lon="-98.602571">
        <ele>3623.817</ele>
        <time>2020-12-13T10:06:26Z</time>
      </trkpt>
      <trkpt lat="19.053905" lon="-98.602579">
        <ele>3624.016</ele>
        <time>2020-12-13T10:06:37Z</time>
      </trkpt>
      <trkpt lat="19.053855" lon="-98.602595">
        <ele>3625.392</ele>
        <time>2020-12-13T10:06:47Z</time>
      </trkpt>
      <trkpt lat="19.053817" lon="-98.602621">
        <ele>3625.779</ele>
        <time>2020-12-13T10:06:52Z</time>
      </trkpt>
      <trkpt lat="19.053777" lon="-98.602654">
        <ele>3627.926</ele>
        <time>2020-12-13T10:07:04Z</time>
      </trkpt>
      <trkpt lat="19.053731" lon="-98.602666">
        <ele>3630.047</ele>
        <time>2020-12-13T10:07:11Z</time>
      </trkpt>
      <trkpt lat="19.053684" lon="-98.60266">
        <ele>3632.111</ele>
        <time>2020-12-13T10:07:19Z</time>
      </trkpt>
      <trkpt lat="19.053636" lon="-98.602657">
        <ele>3632.608</ele>
        <time>2020-12-13T10:07:26Z</time>
      </trkpt>
      <trkpt lat="19.053591" lon="-98.602669">
        <ele>3632.118</ele>
        <time>2020-12-13T10:07:35Z</time>
      </trkpt>
      <trkpt lat="19.053545" lon="-98.602658">
        <ele>3632.264</ele>
        <time>2020-12-13T10:07:41Z</time>
      </trkpt>
      <trkpt lat="19.053496" lon="-98.602673">
        <ele>3632.214</ele>
        <time>2020-12-13T10:07:47Z</time>
      </trkpt>
      <trkpt lat="19.053447" lon="-98.602687">
        <ele>3631.885</ele>
        <time>2020-12-13T10:07:56Z</time>
      </trkpt>
      <trkpt lat="19.053405" lon="-98.602708">
        <ele>3632.826</ele>
        <time>2020-12-13T10:08:04Z</time>
      </trkpt>
      <trkpt lat="19.053356" lon="-98.602717">
        <ele>3635.415</ele>
        <time>2020-12-13T10:08:17Z</time>
      </trkpt>
      <trkpt lat="19.053313" lon="-98.602737">
        <ele>3637.851</ele>
        <time>2020-12-13T10:08:24Z</time>
      </trkpt>
      <trkpt lat="19.053268" lon="-98.60275">
        <ele>3640.438</ele>
        <time>2020-12-13T10:08:38Z</time>
      </trkpt>
      <trkpt lat="19.053224" lon="-98.602761">
        <ele>3642.043</ele>
        <time>2020-12-13T10:08:58Z</time>
      </trkpt>
      <trkpt lat="19.053183" lon="-98.602784">
        <ele>3644.164</ele>
        <time>2020-12-13T10:09:04Z</time>
      </trkpt>
      <trkpt lat="19.053137" lon="-98.602807">
        <ele>3644.610</ele>
        <time>2020-12-13T10:09:10Z</time>
      </trkpt>
      <trkpt lat="19.053096" lon="-98.602834">
        <ele>3640.608</ele>
        <time>2020-12-13T10:09:15Z</time>
      </trkpt>
      <trkpt lat="19.053056" lon="-98.602861">
        <ele>3640.950</ele>
        <time>2020-12-13T10:09:20Z</time>
      </trkpt>
      <trkpt lat="19.053015" lon="-98.602892">
        <ele>3642.346</ele>
        <time>2020-12-13T10:09:27Z</time>
      </trkpt>
      <trkpt lat="19.052969" lon="-98.602892">
        <ele>3643.926</ele>
        <time>2020-12-13T10:09:38Z</time>
      </trkpt>
      <trkpt lat="19.052911" lon="-98.602899">
        <ele>3647.917</ele>
        <time>2020-12-13T10:09:54Z</time>
      </trkpt>
      <trkpt lat="19.052861" lon="-98.60291">
        <ele>3651.758</ele>
        <time>2020-12-13T10:09:58Z</time>
      </trkpt>
      <trkpt lat="19.052814" lon="-98.602926">
        <ele>3654.857</ele>
        <time>2020-12-13T10:10:03Z</time>
      </trkpt>
      <trkpt lat="19.052766" lon="-98.602944">
        <ele>3657.443</ele>
        <time>2020-12-13T10:10:08Z</time>
      </trkpt>
      <trkpt lat="19.05272" lon="-98.602968">
        <ele>3659.020</ele>
        <time>2020-12-13T10:10:13Z</time>
      </trkpt>
      <trkpt lat="19.052671" lon="-98.602956">
        <ele>3660.494</ele>
        <time>2020-12-13T10:10:26Z</time>
      </trkpt>
      <trkpt lat="19.052626" lon="-98.602955">
        <ele>3663.257</ele>
        <time>2020-12-13T10:10:33Z</time>
      </trkpt>
      <trkpt lat="19.05258" lon="-98.602976">
        <ele>3665.722</ele>
        <time>2020-12-13T10:10:38Z</time>
      </trkpt>
      <trkpt lat="19.052537" lon="-98.602997">
        <ele>3666.808</ele>
        <time>2020-12-13T10:10:42Z</time>
      </trkpt>
      <trkpt lat="19.052492" lon="-98.603004">
        <ele>3666.385</ele>
        <time>2020-12-13T10:10:49Z</time>
      </trkpt>
      <trkpt lat="19.052445" lon="-98.603014">
        <ele>3665.611</ele>
        <time>2020-12-13T10:10:56Z</time>
      </trkpt>
      <trkpt lat="19.052398" lon="-98.603023">
        <ele>3666.081</ele>
        <time>2020-12-13T10:11:05Z</time>
      </trkpt>
      <trkpt lat="19.052354" lon="-98.603042">
        <ele>3667.822</ele>
        <time>2020-12-13T10:11:10Z</time>
      </trkpt>
      <trkpt lat="19.052306" lon="-98.603054">
        <ele>3669.353</ele>
        <time>2020-12-13T10:11:15Z</time>
      </trkpt>
      <trkpt lat="19.052256" lon="-98.603078">
        <ele>3671.412</ele>
        <time>2020-12-13T10:11:21Z</time>
      </trkpt>
      <trkpt lat="19.052213" lon="-98.603104">
        <ele>3671.968</ele>
        <time>2020-12-13T10:11:27Z</time>
      </trkpt>
      <trkpt lat="19.052174" lon="-98.603137">
        <ele>3673.445</ele>
        <time>2020-12-13T10:11:42Z</time>
      </trkpt>
      <trkpt lat="19.05213" lon="-98.603151">
        <ele>3669.445</ele>
        <time>2020-12-13T10:11:50Z</time>
      </trkpt>
      <trkpt lat="19.052081" lon="-98.603166">
        <ele>3666.747</ele>
        <time>2020-12-13T10:11:56Z</time>
      </trkpt>
      <trkpt lat="19.052037" lon="-98.603178">
        <ele>3667.111</ele>
        <time>2020-12-13T10:12:01Z</time>
      </trkpt>
      <trkpt lat="19.051992" lon="-98.603188">
        <ele>3669.308</ele>
        <time>2020-12-13T10:12:13Z</time>
      </trkpt>
      <trkpt lat="19.051954" lon="-98.603217">
        <ele>3673.020</ele>
        <time>2020-12-13T10:12:38Z</time>
      </trkpt>
      <trkpt lat="19.051907" lon="-98.603237">
        <ele>3674.476</ele>
        <time>2020-12-13T10:12:44Z</time>
      </trkpt>
      <trkpt lat="19.05186" lon="-98.603261">
        <ele>3676.936</ele>
        <time>2020-12-13T10:12:51Z</time>
      </trkpt>
      <trkpt lat="19.051814" lon="-98.603288">
        <ele>3678.887</ele>
        <time>2020-12-13T10:12:56Z</time>
      </trkpt>
      <trkpt lat="19.051765" lon="-98.60331">
        <ele>3679.968</ele>
        <time>2020-12-13T10:13:01Z</time>
      </trkpt>
      <trkpt lat="19.051724" lon="-98.603334">
        <ele>3681.017</ele>
        <time>2020-12-13T10:13:07Z</time>
      </trkpt>
      <trkpt lat="19.05168" lon="-98.60336">
        <ele>3683.623</ele>
        <time>2020-12-13T10:13:13Z</time>
      </trkpt>
      <trkpt lat="19.051631" lon="-98.603364">
        <ele>3685.280</ele>
        <time>2020-12-13T10:13:20Z</time>
      </trkpt>
      <trkpt lat="19.05159" lon="-98.603388">
        <ele>3686.298</ele>
        <time>2020-12-13T10:13:25Z</time>
      </trkpt>
      <trkpt lat="19.051546" lon="-98.603401">
        <ele>3687.215</ele>
        <time>2020-12-13T10:13:32Z</time>
      </trkpt>
      <trkpt lat="19.051495" lon="-98.603398">
        <ele>3687.026</ele>
        <time>2020-12-13T10:13:39Z</time>
      </trkpt>
      <trkpt lat="19.05146" lon="-98.603429">
        <ele>3688.108</ele>
        <time>2020-12-13T10:13:54Z</time>
      </trkpt>
      <trkpt lat="19.051442" lon="-98.603474">
        <ele>3688.785</ele>
        <time>2020-12-13T10:14:04Z</time>
      </trkpt>
      <trkpt lat="19.051406" lon="-98.603507">
        <ele>3688.761</ele>
        <time>2020-12-13T10:14:10Z</time>
      </trkpt>
      <trkpt lat="19.051369" lon="-98.603535">
        <ele>3689.161</ele>
        <time>2020-12-13T10:14:14Z</time>
      </trkpt>
      <trkpt lat="19.051327" lon="-98.603568">
        <ele>3685.142</ele>
        <time>2020-12-13T10:14:18Z</time>
      </trkpt>
      <trkpt lat="19.051293" lon="-98.603608">
        <ele>3684.943</ele>
        <time>2020-12-13T10:14:23Z</time>
      </trkpt>
      <trkpt lat="19.051257" lon="-98.603646">
        <ele>3687.642</ele>
        <time>2020-12-13T10:14:28Z</time>
      </trkpt>
      <trkpt lat="19.051213" lon="-98.603662">
        <ele>3690.498</ele>
        <time>2020-12-13T10:14:34Z</time>
      </trkpt>
      <trkpt lat="19.051175" lon="-98.603688">
        <ele>3692.565</ele>
        <time>2020-12-13T10:14:44Z</time>
      </trkpt>
      <trkpt lat="19.051149" lon="-98.603728">
        <ele>3693.819</ele>
        <time>2020-12-13T10:14:59Z</time>
      </trkpt>
      <trkpt lat="19.051108" lon="-98.603759">
        <ele>3695.809</ele>
        <time>2020-12-13T10:15:03Z</time>
      </trkpt>
      <trkpt lat="19.051062" lon="-98.603798">
        <ele>3697.819</ele>
        <time>2020-12-13T10:15:07Z</time>
      </trkpt>
      <trkpt lat="19.051025" lon="-98.603836">
        <ele>3698.208</ele>
        <time>2020-12-13T10:15:11Z</time>
      </trkpt>
      <trkpt lat="19.050983" lon="-98.603863">
        <ele>3698.487</ele>
        <time>2020-12-13T10:15:16Z</time>
      </trkpt>
      <trkpt lat="19.050948" lon="-98.603903">
        <ele>3697.723</ele>
        <time>2020-12-13T10:15:21Z</time>
      </trkpt>
      <trkpt lat="19.050932" lon="-98.603953">
        <ele>3693.793</ele>
        <time>2020-12-13T10:15:26Z</time>
      </trkpt>
      <trkpt lat="19.050902" lon="-98.603992">
        <ele>3693.354</ele>
        <time>2020-12-13T10:15:36Z</time>
      </trkpt>
      <trkpt lat="19.050875" lon="-98.604032">
        <ele>3697.385</ele>
        <time>2020-12-13T10:15:44Z</time>
      </trkpt>
      <trkpt lat="19.050838" lon="-98.604065">
        <ele>3701.334</ele>
        <time>2020-12-13T10:15:51Z</time>
      </trkpt>
      <trkpt lat="19.050793" lon="-98.604082">
        <ele>3699.960</ele>
        <time>2020-12-13T10:15:57Z</time>
      </trkpt>
      <trkpt lat="19.050754" lon="-98.604112">
        <ele>3703.937</ele>
        <time>2020-12-13T10:16:04Z</time>
      </trkpt>
      <trkpt lat="19.050712" lon="-98.60413">
        <ele>3705.018</ele>
        <time>2020-12-13T10:16:10Z</time>
      </trkpt>
      <trkpt lat="19.050671" lon="-98.60415">
        <ele>3705.398</ele>
        <time>2020-12-13T10:16:16Z</time>
      </trkpt>
      <trkpt lat="19.050648" lon="-98.604197">
        <ele>3708.717</ele>
        <time>2020-12-13T10:16:25Z</time>
      </trkpt>
      <trkpt lat="19.050615" lon="-98.604238">
        <ele>3709.508</ele>
        <time>2020-12-13T10:16:35Z</time>
      </trkpt>
      <trkpt lat="19.050578" lon="-98.604267">
        <ele>3705.597</ele>
        <time>2020-12-13T10:16:38Z</time>
      </trkpt>
      <trkpt lat="19.050549" lon="-98.604309">
        <ele>3701.583</ele>
        <time>2020-12-13T10:16:46Z</time>
      </trkpt>
      <trkpt lat="19.050501" lon="-98.604325">
        <ele>3697.553</ele>
        <time>2020-12-13T10:16:53Z</time>
      </trkpt>
      <trkpt lat="19.050456" lon="-98.604341">
        <ele>3701.554</ele>
        <time>2020-12-13T10:16:57Z</time>
      </trkpt>
      <trkpt lat="19.050423" lon="-98.604378">
        <ele>3705.525</ele>
        <time>2020-12-13T10:17:02Z</time>
      </trkpt>
      <trkpt lat="19.050387" lon="-98.604415">
        <ele>3709.534</ele>
        <time>2020-12-13T10:17:08Z</time>
      </trkpt>
      <trkpt lat="19.050347" lon="-98.604441">
        <ele>3705.530</ele>
        <time>2020-12-13T10:17:15Z</time>
      </trkpt>
      <trkpt lat="19.050303" lon="-98.604459">
        <ele>3708.437</ele>
        <time>2020-12-13T10:17:39Z</time>
      </trkpt>
      <trkpt lat="19.050259" lon="-98.604494">
        <ele>3710.944</ele>
        <time>2020-12-13T10:17:46Z</time>
      </trkpt>
      <trkpt lat="19.050222" lon="-98.604522">
        <ele>3712.805</ele>
        <time>2020-12-13T10:17:50Z</time>
      </trkpt>
      <trkpt lat="19.050187" lon="-98.604556">
        <ele>3713.215</ele>
        <time>2020-12-13T10:17:54Z</time>
      </trkpt>
      <trkpt lat="19.050149" lon="-98.604594">
        <ele>3715.808</ele>
        <time>2020-12-13T10:17:58Z</time>
      </trkpt>
      <trkpt lat="19.050104" lon="-98.604613">
        <ele>3717.490</ele>
        <time>2020-12-13T10:18:02Z</time>
      </trkpt>
      <trkpt lat="19.050064" lon="-98.604649">
        <ele>3719.566</ele>
        <time>2020-12-13T10:18:08Z</time>
      </trkpt>
      <trkpt lat="19.050018" lon="-98.604659">
        <ele>3721.266</ele>
        <time>2020-12-13T10:18:16Z</time>
      </trkpt>
      <trkpt lat="19.049971" lon="-98.604681">
        <ele>3723.487</ele>
        <time>2020-12-13T10:18:25Z</time>
      </trkpt>
      <trkpt lat="19.049925" lon="-98.604683">
        <ele>3727.178</ele>
        <time>2020-12-13T10:18:33Z</time>
      </trkpt>
      <trkpt lat="19.049875" lon="-98.604704">
        <ele>3730.127</ele>
        <time>2020-12-13T10:18:43Z</time>
      </trkpt>
      <trkpt lat="19.04983" lon="-98.604715">
        <ele>3731.173</ele>
        <time>2020-12-13T10:18:50Z</time>
      </trkpt>
      <trkpt lat="19.04978" lon="-98.604718">
        <ele>3732.190</ele>
        <time>2020-12-13T10:19:00Z</time>
      </trkpt>
      <trkpt lat="19.049735" lon="-98.604747">
        <ele>3734.354</ele>
        <time>2020-12-13T10:19:23Z</time>
      </trkpt>
      <trkpt lat="19.049696" lon="-98.604777">
        <ele>3735.656</ele>
        <time>2020-12-13T10:19:26Z</time>
      </trkpt>
      <trkpt lat="19.049658" lon="-98.604805">
        <ele>3736.811</ele>
        <time>2020-12-13T10:19:29Z</time>
      </trkpt>
      <trkpt lat="19.049621" lon="-98.604834">
        <ele>3738.308</ele>
        <time>2020-12-13T10:19:34Z</time>
      </trkpt>
      <trkpt lat="19.049579" lon="-98.604858">
        <ele>3740.431</ele>
        <time>2020-12-13T10:19:41Z</time>
      </trkpt>
      <trkpt lat="19.049544" lon="-98.60489">
        <ele>3743.337</ele>
        <time>2020-12-13T10:19:47Z</time>
      </trkpt>
      <trkpt lat="19.049501" lon="-98.604914">
        <ele>3745.467</ele>
        <time>2020-12-13T10:20:02Z</time>
      </trkpt>
      <trkpt lat="19.049446" lon="-98.604934">
        <ele>3747.188</ele>
        <time>2020-12-13T10:20:06Z</time>
      </trkpt>
      <trkpt lat="19.049404" lon="-98.604959">
        <ele>3748.929</ele>
        <time>2020-12-13T10:20:09Z</time>
      </trkpt>
      <trkpt lat="19.049359" lon="-98.604987">
        <ele>3750.088</ele>
        <time>2020-12-13T10:20:12Z</time>
      </trkpt>
      <trkpt lat="19.049326" lon="-98.60502">
        <ele>3746.054</ele>
        <time>2020-12-13T10:20:17Z</time>
      </trkpt>
      <trkpt lat="19.049281" lon="-98.605014">
        <ele>3748.211</ele>
        <time>2020-12-13T10:20:31Z</time>
      </trkpt>
      <trkpt lat="19.049232" lon="-98.605031">
        <ele>3749.983</ele>
        <time>2020-12-13T10:20:38Z</time>
      </trkpt>
      <trkpt lat="19.049188" lon="-98.605048">
        <ele>3750.925</ele>
        <time>2020-12-13T10:20:44Z</time>
      </trkpt>
      <trkpt lat="19.049143" lon="-98.605059">
        <ele>3747.117</ele>
        <time>2020-12-13T10:21:08Z</time>
      </trkpt>
      <trkpt lat="19.049094" lon="-98.605074">
        <ele>3749.208</ele>
        <time>2020-12-13T10:21:14Z</time>
      </trkpt>
      <trkpt lat="19.049046" lon="-98.605065">
        <ele>3753.294</ele>
        <time>2020-12-13T10:21:19Z</time>
      </trkpt>
      <trkpt lat="19.048996" lon="-98.60506">
        <ele>3757.240</ele>
        <time>2020-12-13T10:21:25Z</time>
      </trkpt>
      <trkpt lat="19.048955" lon="-98.605084">
        <ele>3761.270</ele>
        <time>2020-12-13T10:21:30Z</time>
      </trkpt>
      <trkpt lat="19.048903" lon="-98.605093">
        <ele>3757.261</ele>
        <time>2020-12-13T10:21:38Z</time>
      </trkpt>
      <trkpt lat="19.048858" lon="-98.605102">
        <ele>3753.242</ele>
        <time>2020-12-13T10:21:43Z</time>
      </trkpt>
      <trkpt lat="19.048822" lon="-98.605137">
        <ele>3752.571</ele>
        <time>2020-12-13T10:21:50Z</time>
      </trkpt>
      <trkpt lat="19.048779" lon="-98.605166">
        <ele>3755.727</ele>
        <time>2020-12-13T10:21:55Z</time>
      </trkpt>
      <trkpt lat="19.048731" lon="-98.605187">
        <ele>3753.674</ele>
        <time>2020-12-13T10:22:03Z</time>
      </trkpt>
      <trkpt lat="19.048706" lon="-98.605141">
        <ele>3757.653</ele>
        <time>2020-12-13T10:22:10Z</time>
      </trkpt>
      <trkpt lat="19.048661" lon="-98.605118">
        <ele>3761.604</ele>
        <time>2020-12-13T10:22:16Z</time>
      </trkpt>
      <trkpt lat="19.048608" lon="-98.605117">
        <ele>3765.614</ele>
        <time>2020-12-13T10:22:29Z</time>
      </trkpt>
      <trkpt lat="19.048564" lon="-98.605129">
        <ele>3769.608</ele>
        <time>2020-12-13T10:22:37Z</time>
      </trkpt>
      <trkpt lat="19.048523" lon="-98.605149">
        <ele>3771.591</ele>
        <time>2020-12-13T10:23:01Z</time>
      </trkpt>
      <trkpt lat="19.04847" lon="-98.605167">
        <ele>3774.377</ele>
        <time>2020-12-13T10:23:08Z</time>
      </trkpt>
      <trkpt lat="19.048422" lon="-98.605166">
        <ele>3776.087</ele>
        <time>2020-12-13T10:23:12Z</time>
      </trkpt>
      <trkpt lat="19.048376" lon="-98.605158">
        <ele>3777.428</ele>
        <time>2020-12-13T10:23:16Z</time>
      </trkpt>
      <trkpt lat="19.04833" lon="-98.605156">
        <ele>3779.059</ele>
        <time>2020-12-13T10:23:28Z</time>
      </trkpt>
      <trkpt lat="19.048288" lon="-98.60519">
        <ele>3781.238</ele>
        <time>2020-12-13T10:23:43Z</time>
      </trkpt>
      <trkpt lat="19.048253" lon="-98.605228">
        <ele>3782.934</ele>
        <time>2020-12-13T10:23:49Z</time>
      </trkpt>
      <trkpt lat="19.048215" lon="-98.605264">
        <ele>3785.151</ele>
        <time>2020-12-13T10:23:54Z</time>
      </trkpt>
      <trkpt lat="19.048181" lon="-98.605295">
        <ele>3781.113</ele>
        <time>2020-12-13T10:24:10Z</time>
      </trkpt>
      <trkpt lat="19.048144" lon="-98.605335">
        <ele>3780.843</ele>
        <time>2020-12-13T10:24:15Z</time>
      </trkpt>
      <trkpt lat="19.0481" lon="-98.605363">
        <ele>3784.807</ele>
        <time>2020-12-13T10:24:24Z</time>
      </trkpt>
      <trkpt lat="19.048068" lon="-98.605398">
        <ele>3788.808</ele>
        <time>2020-12-13T10:25:18Z</time>
      </trkpt>
      <trkpt lat="19.04803" lon="-98.605434">
        <ele>3791.447</ele>
        <time>2020-12-13T10:26:04Z</time>
      </trkpt>
      <trkpt lat="19.047982" lon="-98.60543">
        <ele>3792.263</ele>
        <time>2020-12-13T10:27:24Z</time>
      </trkpt>
      <trkpt lat="19.043965" lon="-98.607917">
        <ele>3789.823</ele>
        <time>2020-12-13T10:47:11Z</time>
      </trkpt>
      <trkpt lat="19.043917" lon="-98.607923">
        <ele>3790.824</ele>
        <time>2020-12-13T10:48:21Z</time>
      </trkpt>
      <trkpt lat="19.04387" lon="-98.607925">
        <ele>3791.275</ele>
        <time>2020-12-13T10:48:29Z</time>
      </trkpt>
      <trkpt lat="19.043829" lon="-98.607953">
        <ele>3791.884</ele>
        <time>2020-12-13T10:48:41Z</time>
      </trkpt>
      <trkpt lat="19.043788" lon="-98.60798">
        <ele>3791.490</ele>
        <time>2020-12-13T10:48:48Z</time>
      </trkpt>
      <trkpt lat="19.043749" lon="-98.608003">
        <ele>3791.277</ele>
        <time>2020-12-13T10:48:56Z</time>
      </trkpt>
      <trkpt lat="19.043718" lon="-98.608038">
        <ele>3792.345</ele>
        <time>2020-12-13T10:49:05Z</time>
      </trkpt>
      <trkpt lat="19.043672" lon="-98.608064">
        <ele>3793.747</ele>
        <time>2020-12-13T10:49:13Z</time>
      </trkpt>
      <trkpt lat="19.043635" lon="-98.608098">
        <ele>3794.211</ele>
        <time>2020-12-13T10:49:18Z</time>
      </trkpt>
      <trkpt lat="19.043604" lon="-98.608133">
        <ele>3794.508</ele>
        <time>2020-12-13T10:49:23Z</time>
      </trkpt>
      <trkpt lat="19.04357" lon="-98.608169">
        <ele>3795.160</ele>
        <time>2020-12-13T10:49:28Z</time>
      </trkpt>
      <trkpt lat="19.043537" lon="-98.608211">
        <ele>3791.176</ele>
        <time>2020-12-13T10:49:34Z</time>
      </trkpt>
      <trkpt lat="19.04349" lon="-98.608216">
        <ele>3794.276</ele>
        <time>2020-12-13T10:49:45Z</time>
      </trkpt>
      <trkpt lat="19.043441" lon="-98.608226">
        <ele>3796.977</ele>
        <time>2020-12-13T10:49:56Z</time>
      </trkpt>
      <trkpt lat="19.043417" lon="-98.608184">
        <ele>3799.398</ele>
        <time>2020-12-13T10:50:07Z</time>
      </trkpt>
      <trkpt lat="19.04338" lon="-98.608211">
        <ele>3800.767</ele>
        <time>2020-12-13T10:50:14Z</time>
      </trkpt>
      <trkpt lat="19.043331" lon="-98.608203">
        <ele>3802.023</ele>
        <time>2020-12-13T10:50:20Z</time>
      </trkpt>
      <trkpt lat="19.043287" lon="-98.608229">
        <ele>3803.250</ele>
        <time>2020-12-13T10:50:27Z</time>
      </trkpt>
      <trkpt lat="19.043244" lon="-98.608244">
        <ele>3804.777</ele>
        <time>2020-12-13T10:50:34Z</time>
      </trkpt>
      <trkpt lat="19.043216" lon="-98.608284">
        <ele>3806.461</ele>
        <time>2020-12-13T10:50:43Z</time>
      </trkpt>
      <trkpt lat="19.043194" lon="-98.60833">
        <ele>3808.627</ele>
        <time>2020-12-13T10:50:54Z</time>
      </trkpt>
      <trkpt lat="19.043149" lon="-98.608352">
        <ele>3810.308</ele>
        <time>2020-12-13T10:51:01Z</time>
      </trkpt>
      <trkpt lat="19.043106" lon="-98.608376">
        <ele>3811.753</ele>
        <time>2020-12-13T10:51:12Z</time>
      </trkpt>
      <trkpt lat="19.043062" lon="-98.608397">
        <ele>3812.689</ele>
        <time>2020-12-13T10:51:21Z</time>
      </trkpt>
      <trkpt lat="19.043017" lon="-98.608425">
        <ele>3812.789</ele>
        <time>2020-12-13T10:51:29Z</time>
      </trkpt>
      <trkpt lat="19.04298" lon="-98.608455">
        <ele>3814.430</ele>
        <time>2020-12-13T10:51:36Z</time>
      </trkpt>
      <trkpt lat="19.042937" lon="-98.608485">
        <ele>3814.691</ele>
        <time>2020-12-13T10:51:45Z</time>
      </trkpt>
      <trkpt lat="19.042895" lon="-98.608503">
        <ele>3815.510</ele>
        <time>2020-12-13T10:51:55Z</time>
      </trkpt>
      <trkpt lat="19.042851" lon="-98.608522">
        <ele>3816.566</ele>
        <time>2020-12-13T10:52:02Z</time>
      </trkpt>
      <trkpt lat="19.042815" lon="-98.608558">
        <ele>3817.163</ele>
        <time>2020-12-13T10:52:08Z</time>
      </trkpt>
      <trkpt lat="19.042785" lon="-98.608599">
        <ele>3817.868</ele>
        <time>2020-12-13T10:52:15Z</time>
      </trkpt>
      <trkpt lat="19.04273" lon="-98.608627">
        <ele>3815.842</ele>
        <time>2020-12-13T10:52:26Z</time>
      </trkpt>
      <trkpt lat="19.042699" lon="-98.608671">
        <ele>3816.226</ele>
        <time>2020-12-13T10:52:29Z</time>
      </trkpt>
      <trkpt lat="19.042672" lon="-98.608712">
        <ele>3812.208</ele>
        <time>2020-12-13T10:52:33Z</time>
      </trkpt>
      <trkpt lat="19.042658" lon="-98.608762">
        <ele>3808.232</ele>
        <time>2020-12-13T10:52:44Z</time>
      </trkpt>
      <trkpt lat="19.042668" lon="-98.608715">
        <ele>3812.268</ele>
        <time>2020-12-13T10:53:10Z</time>
      </trkpt>
      <trkpt lat="19.042622" lon="-98.608745">
        <ele>3816.228</ele>
        <time>2020-12-13T10:53:31Z</time>
      </trkpt>
      <trkpt lat="19.042581" lon="-98.60878">
        <ele>3818.559</ele>
        <time>2020-12-13T10:53:35Z</time>
      </trkpt>
      <trkpt lat="19.042556" lon="-98.608821">
        <ele>3821.560</ele>
        <time>2020-12-13T10:53:41Z</time>
      </trkpt>
      <trkpt lat="19.042518" lon="-98.60886">
        <ele>3817.549</ele>
        <time>2020-12-13T10:53:50Z</time>
      </trkpt>
      <trkpt lat="19.042491" lon="-98.608901">
        <ele>3813.595</ele>
        <time>2020-12-13T10:53:55Z</time>
      </trkpt>
      <trkpt lat="19.042464" lon="-98.608947">
        <ele>3817.392</ele>
        <time>2020-12-13T10:54:03Z</time>
      </trkpt>
      <trkpt lat="19.042448" lon="-98.608994">
        <ele>3813.312</ele>
        <time>2020-12-13T10:54:13Z</time>
      </trkpt>
      <trkpt lat="19.042413" lon="-98.609032">
        <ele>3816.432</ele>
        <time>2020-12-13T10:54:24Z</time>
      </trkpt>
      <trkpt lat="19.042385" lon="-98.609077">
        <ele>3820.405</ele>
        <time>2020-12-13T10:54:31Z</time>
      </trkpt>
      <trkpt lat="19.042354" lon="-98.609111">
        <ele>3824.408</ele>
        <time>2020-12-13T10:54:36Z</time>
      </trkpt>
      <trkpt lat="19.042318" lon="-98.609144">
        <ele>3827.077</ele>
        <time>2020-12-13T10:54:43Z</time>
      </trkpt>
      <trkpt lat="19.042276" lon="-98.609175">
        <ele>3831.053</ele>
        <time>2020-12-13T10:54:59Z</time>
      </trkpt>
      <trkpt lat="19.042239" lon="-98.60921">
        <ele>3835.043</ele>
        <time>2020-12-13T10:55:27Z</time>
      </trkpt>
      <trkpt lat="19.042197" lon="-98.609235">
        <ele>3831.834</ele>
        <time>2020-12-13T10:55:48Z</time>
      </trkpt>
      <trkpt lat="19.042167" lon="-98.609276">
        <ele>3835.145</ele>
        <time>2020-12-13T10:55:55Z</time>
      </trkpt>
      <trkpt lat="19.042128" lon="-98.60931">
        <ele>3837.594</ele>
        <time>2020-12-13T10:56:08Z</time>
      </trkpt>
      <trkpt lat="19.042086" lon="-98.609347">
        <ele>3840.990</ele>
        <time>2020-12-13T10:56:14Z</time>
      </trkpt>
      <trkpt lat="19.04204" lon="-98.609362">
        <ele>3843.017</ele>
        <time>2020-12-13T10:57:08Z</time>
      </trkpt>
      <trkpt lat="19.041995" lon="-98.609359">
        <ele>3839.037</ele>
        <time>2020-12-13T10:57:20Z</time>
      </trkpt>
      <trkpt lat="19.041948" lon="-98.609363">
        <ele>3835.049</ele>
        <time>2020-12-13T10:57:26Z</time>
      </trkpt>
      <trkpt lat="19.041906" lon="-98.609395">
        <ele>3839.013</ele>
        <time>2020-12-13T10:57:55Z</time>
      </trkpt>
      <trkpt lat="19.041861" lon="-98.609422">
        <ele>3843.008</ele>
        <time>2020-12-13T10:58:00Z</time>
      </trkpt>
      <trkpt lat="19.041815" lon="-98.609455">
        <ele>3847.059</ele>
        <time>2020-12-13T10:58:05Z</time>
      </trkpt>
      <trkpt lat="19.041771" lon="-98.609472">
        <ele>3850.695</ele>
        <time>2020-12-13T10:58:10Z</time>
      </trkpt>
      <trkpt lat="19.041734" lon="-98.609502">
        <ele>3853.215</ele>
        <time>2020-12-13T10:58:15Z</time>
      </trkpt>
      <trkpt lat="19.041714" lon="-98.609545">
        <ele>3854.326</ele>
        <time>2020-12-13T10:58:58Z</time>
      </trkpt>
      <trkpt lat="19.041665" lon="-98.609542">
        <ele>3855.437</ele>
        <time>2020-12-13T10:59:09Z</time>
      </trkpt>
      <trkpt lat="19.04162" lon="-98.609547">
        <ele>3851.466</ele>
        <time>2020-12-13T10:59:19Z</time>
      </trkpt>
      <trkpt lat="19.041614" lon="-98.6096">
        <ele>3847.482</ele>
        <time>2020-12-13T10:59:26Z</time>
      </trkpt>
      <trkpt lat="19.041598" lon="-98.609646">
        <ele>3845.769</ele>
        <time>2020-12-13T10:59:35Z</time>
      </trkpt>
      <trkpt lat="19.041557" lon="-98.609669">
        <ele>3841.764</ele>
        <time>2020-12-13T10:59:47Z</time>
      </trkpt>
      <trkpt lat="19.041509" lon="-98.609684">
        <ele>3837.706</ele>
        <time>2020-12-13T10:59:56Z</time>
      </trkpt>
      <trkpt lat="19.04146" lon="-98.609692">
        <ele>3840.316</ele>
        <time>2020-12-13T11:00:01Z</time>
      </trkpt>
      <trkpt lat="19.041415" lon="-98.609707">
        <ele>3844.308</ele>
        <time>2020-12-13T11:00:21Z</time>
      </trkpt>
      <trkpt lat="19.041362" lon="-98.609699">
        <ele>3848.382</ele>
        <time>2020-12-13T11:00:28Z</time>
      </trkpt>
      <trkpt lat="19.041319" lon="-98.609714">
        <ele>3852.348</ele>
        <time>2020-12-13T11:00:35Z</time>
      </trkpt>
      <trkpt lat="19.041286" lon="-98.609747">
        <ele>3855.468</ele>
        <time>2020-12-13T11:00:54Z</time>
      </trkpt>
      <trkpt lat="19.041243" lon="-98.609771">
        <ele>3859.479</ele>
        <time>2020-12-13T11:01:36Z</time>
      </trkpt>
      <trkpt lat="19.041215" lon="-98.609811">
        <ele>3863.420</ele>
        <time>2020-12-13T11:02:31Z</time>
      </trkpt>
      <trkpt lat="19.041188" lon="-98.60985">
        <ele>3867.469</ele>
        <time>2020-12-13T11:02:44Z</time>
      </trkpt>
      <trkpt lat="19.04118" lon="-98.609901">
        <ele>3871.445</ele>
        <time>2020-12-13T11:02:50Z</time>
      </trkpt>
      <trkpt lat="19.041137" lon="-98.60992">
        <ele>3875.442</ele>
        <time>2020-12-13T11:03:02Z</time>
      </trkpt>
      <trkpt lat="19.041096" lon="-98.609944">
        <ele>3879.421</ele>
        <time>2020-12-13T11:03:09Z</time>
      </trkpt>
      <trkpt lat="19.041061" lon="-98.609975">
        <ele>3883.441</ele>
        <time>2020-12-13T11:03:18Z</time>
      </trkpt>
      <trkpt lat="19.041016" lon="-98.609974">
        <ele>3884.905</ele>
        <time>2020-12-13T11:03:28Z</time>
      </trkpt>
      <trkpt lat="19.040974" lon="-98.610002">
        <ele>3886.208</ele>
        <time>2020-12-13T11:03:35Z</time>
      </trkpt>
      <trkpt lat="19.040945" lon="-98.610046">
        <ele>3888.218</ele>
        <time>2020-12-13T11:03:48Z</time>
      </trkpt>
      <trkpt lat="19.040903" lon="-98.610081">
        <ele>3889.834</ele>
        <time>2020-12-13T11:03:54Z</time>
      </trkpt>
      <trkpt lat="19.040856" lon="-98.610088">
        <ele>3891.624</ele>
        <time>2020-12-13T11:04:09Z</time>
      </trkpt>
      <trkpt lat="19.04081" lon="-98.610086">
        <ele>3893.125</ele>
        <time>2020-12-13T11:04:15Z</time>
      </trkpt>
      <trkpt lat="19.040775" lon="-98.610126">
        <ele>3894.476</ele>
        <time>2020-12-13T11:04:25Z</time>
      </trkpt>
      <trkpt lat="19.040755" lon="-98.610169">
        <ele>3895.695</ele>
        <time>2020-12-13T11:04:30Z</time>
      </trkpt>
      <trkpt lat="19.040731" lon="-98.610212">
        <ele>3895.991</ele>
        <time>2020-12-13T11:04:37Z</time>
      </trkpt>
      <trkpt lat="19.040704" lon="-98.610253">
        <ele>3896.998</ele>
        <time>2020-12-13T11:04:43Z</time>
      </trkpt>
      <trkpt lat="19.040681" lon="-98.610299">
        <ele>3897.931</ele>
        <time>2020-12-13T11:04:50Z</time>
      </trkpt>
      <trkpt lat="19.040653" lon="-98.610345">
        <ele>3898.561</ele>
        <time>2020-12-13T11:04:56Z</time>
      </trkpt>
      <trkpt lat="19.040622" lon="-98.610381">
        <ele>3899.307</ele>
        <time>2020-12-13T11:05:02Z</time>
      </trkpt>
      <trkpt lat="19.040576" lon="-98.61039">
        <ele>3900.208</ele>
        <time>2020-12-13T11:05:15Z</time>
      </trkpt>
      <trkpt lat="19.040533" lon="-98.610419">
        <ele>3901.919</ele>
        <time>2020-12-13T11:05:26Z</time>
      </trkpt>
      <trkpt lat="19.040491" lon="-98.610446">
        <ele>3905.955</ele>
        <time>2020-12-13T11:05:40Z</time>
      </trkpt>
      <trkpt lat="19.040459" lon="-98.610485">
        <ele>3908.525</ele>
        <time>2020-12-13T11:06:30Z</time>
      </trkpt>
      <trkpt lat="19.040411" lon="-98.610502">
        <ele>3911.376</ele>
        <time>2020-12-13T11:06:38Z</time>
      </trkpt>
      <trkpt lat="19.040362" lon="-98.610504">
        <ele>3912.217</ele>
        <time>2020-12-13T11:06:46Z</time>
      </trkpt>
      <trkpt lat="19.040319" lon="-98.610523">
        <ele>3913.946</ele>
        <time>2020-12-13T11:06:52Z</time>
      </trkpt>
      <trkpt lat="19.040292" lon="-98.610563">
        <ele>3913.752</ele>
        <time>2020-12-13T11:07:01Z</time>
      </trkpt>
      <trkpt lat="19.040253" lon="-98.61059">
        <ele>3914.419</ele>
        <time>2020-12-13T11:07:09Z</time>
      </trkpt>
      <trkpt lat="19.040208" lon="-98.610586">
        <ele>3915.676</ele>
        <time>2020-12-13T11:07:17Z</time>
      </trkpt>
      <trkpt lat="19.040159" lon="-98.61059">
        <ele>3919.190</ele>
        <time>2020-12-13T11:08:31Z</time>
      </trkpt>
      <trkpt lat="19.040112" lon="-98.610613">
        <ele>3921.619</ele>
        <time>2020-12-13T11:08:40Z</time>
      </trkpt>
      <trkpt lat="19.040066" lon="-98.61063">
        <ele>3923.108</ele>
        <time>2020-12-13T11:08:47Z</time>
      </trkpt>
      <trkpt lat="19.040023" lon="-98.610648">
        <ele>3924.443</ele>
        <time>2020-12-13T11:08:56Z</time>
      </trkpt>
      <trkpt lat="19.039978" lon="-98.61066">
        <ele>3927.639</ele>
        <time>2020-12-13T11:09:10Z</time>
      </trkpt>
      <trkpt lat="19.039947" lon="-98.610698">
        <ele>3930.369</ele>
        <time>2020-12-13T11:09:21Z</time>
      </trkpt>
      <trkpt lat="19.039904" lon="-98.610723">
        <ele>3932.780</ele>
        <time>2020-12-13T11:09:31Z</time>
      </trkpt>
      <trkpt lat="19.039871" lon="-98.61076">
        <ele>3935.481</ele>
        <time>2020-12-13T11:09:39Z</time>
      </trkpt>
      <trkpt lat="19.039821" lon="-98.610766">
        <ele>3937.470</ele>
        <time>2020-12-13T11:09:48Z</time>
      </trkpt>
      <trkpt lat="19.039777" lon="-98.610791">
        <ele>3937.016</ele>
        <time>2020-12-13T11:09:55Z</time>
      </trkpt>
      <trkpt lat="19.039729" lon="-98.610799">
        <ele>3936.073</ele>
        <time>2020-12-13T11:10:02Z</time>
      </trkpt>
      <trkpt lat="19.039682" lon="-98.610807">
        <ele>3936.649</ele>
        <time>2020-12-13T11:10:33Z</time>
      </trkpt>
      <trkpt lat="19.039638" lon="-98.610827">
        <ele>3936.102</ele>
        <time>2020-12-13T11:10:40Z</time>
      </trkpt>
      <trkpt lat="19.039595" lon="-98.610861">
        <ele>3936.222</ele>
        <time>2020-12-13T11:10:44Z</time>
      </trkpt>
      <trkpt lat="19.039556" lon="-98.610888">
        <ele>3937.508</ele>
        <time>2020-12-13T11:11:00Z</time>
      </trkpt>
      <trkpt lat="19.03951" lon="-98.610905">
        <ele>3938.390</ele>
        <time>2020-12-13T11:11:07Z</time>
      </trkpt>
      <trkpt lat="19.03948" lon="-98.610943">
        <ele>3939.236</ele>
        <time>2020-12-13T11:11:13Z</time>
      </trkpt>
      <trkpt lat="19.039435" lon="-98.610947">
        <ele>3940.146</ele>
        <time>2020-12-13T11:11:21Z</time>
      </trkpt>
      <trkpt lat="19.039391" lon="-98.610961">
        <ele>3943.037</ele>
        <time>2020-12-13T11:11:39Z</time>
      </trkpt>
      <trkpt lat="19.039376" lon="-98.611008">
        <ele>3946.068</ele>
        <time>2020-12-13T11:13:32Z</time>
      </trkpt>
      <trkpt lat="19.039332" lon="-98.611021">
        <ele>3948.257</ele>
        <time>2020-12-13T11:13:40Z</time>
      </trkpt>
      <trkpt lat="19.039287" lon="-98.611055">
        <ele>3949.593</ele>
        <time>2020-12-13T11:13:47Z</time>
      </trkpt>
      <trkpt lat="19.039251" lon="-98.611087">
        <ele>3951.170</ele>
        <time>2020-12-13T11:13:54Z</time>
      </trkpt>
      <trkpt lat="19.039223" lon="-98.61113">
        <ele>3954.196</ele>
        <time>2020-12-13T11:14:09Z</time>
      </trkpt>
      <trkpt lat="19.039188" lon="-98.61116">
        <ele>3955.931</ele>
        <time>2020-12-13T11:14:16Z</time>
      </trkpt>
      <trkpt lat="19.039142" lon="-98.611174">
        <ele>3958.224</ele>
        <time>2020-12-13T11:14:39Z</time>
      </trkpt>
      <trkpt lat="19.039096" lon="-98.611185">
        <ele>3960.008</ele>
        <time>2020-12-13T11:14:54Z</time>
      </trkpt>
      <trkpt lat="19.039048" lon="-98.611189">
        <ele>3963.145</ele>
        <time>2020-12-13T11:15:11Z</time>
      </trkpt>
      <trkpt lat="19.039013" lon="-98.611224">
        <ele>3965.311</ele>
        <time>2020-12-13T11:15:17Z</time>
      </trkpt>
      <trkpt lat="19.038974" lon="-98.611251">
        <ele>3967.011</ele>
        <time>2020-12-13T11:15:24Z</time>
      </trkpt>
      <trkpt lat="19.038924" lon="-98.61124">
        <ele>3967.672</ele>
        <time>2020-12-13T11:15:50Z</time>
      </trkpt>
      <trkpt lat="19.038911" lon="-98.611295">
        <ele>3969.623</ele>
        <time>2020-12-13T11:16:25Z</time>
      </trkpt>
      <trkpt lat="19.038897" lon="-98.611342">
        <ele>3971.622</ele>
        <time>2020-12-13T11:16:33Z</time>
      </trkpt>
      <trkpt lat="19.038871" lon="-98.611382">
        <ele>3973.248</ele>
        <time>2020-12-13T11:16:39Z</time>
      </trkpt>
      <trkpt lat="19.038827" lon="-98.611402">
        <ele>3975.025</ele>
        <time>2020-12-13T11:17:00Z</time>
      </trkpt>
      <trkpt lat="19.038786" lon="-98.611423">
        <ele>3977.382</ele>
        <time>2020-12-13T11:17:06Z</time>
      </trkpt>
      <trkpt lat="19.038752" lon="-98.611463">
        <ele>3977.943</ele>
        <time>2020-12-13T11:17:11Z</time>
      </trkpt>
      <trkpt lat="19.038713" lon="-98.611489">
        <ele>3978.217</ele>
        <time>2020-12-13T11:17:18Z</time>
      </trkpt>
      <trkpt lat="19.038676" lon="-98.611517">
        <ele>3979.608</ele>
        <time>2020-12-13T11:17:34Z</time>
      </trkpt>
      <trkpt lat="19.038644" lon="-98.611556">
        <ele>3980.064</ele>
        <time>2020-12-13T11:17:43Z</time>
      </trkpt>
      <trkpt lat="19.038612" lon="-98.611593">
        <ele>3983.180</ele>
        <time>2020-12-13T11:18:26Z</time>
      </trkpt>
      <trkpt lat="19.038573" lon="-98.611618">
        <ele>3986.510</ele>
        <time>2020-12-13T11:18:48Z</time>
      </trkpt>
      <trkpt lat="19.038539" lon="-98.611654">
        <ele>3990.251</ele>
        <time>2020-12-13T11:18:57Z</time>
      </trkpt>
      <trkpt lat="19.038492" lon="-98.611676">
        <ele>3992.892</ele>
        <time>2020-12-13T11:19:15Z</time>
      </trkpt>
      <trkpt lat="19.03845" lon="-98.611703">
        <ele>3994.481</ele>
        <time>2020-12-13T11:19:23Z</time>
      </trkpt>
      <trkpt lat="19.038418" lon="-98.611739">
        <ele>3996.577</ele>
        <time>2020-12-13T11:19:34Z</time>
      </trkpt>
      <trkpt lat="19.03838" lon="-98.61177">
        <ele>3997.464</ele>
        <time>2020-12-13T11:20:09Z</time>
      </trkpt>
      <trkpt lat="19.038355" lon="-98.611813">
        <ele>3998.785</ele>
        <time>2020-12-13T11:20:14Z</time>
      </trkpt>
      <trkpt lat="19.038309" lon="-98.611834">
        <ele>4000.389</ele>
        <time>2020-12-13T11:20:26Z</time>
      </trkpt>
      <trkpt lat="19.038269" lon="-98.611812">
        <ele>4001.317</ele>
        <time>2020-12-13T11:20:34Z</time>
      </trkpt>
      <trkpt lat="19.038229" lon="-98.611841">
        <ele>4001.508</ele>
        <time>2020-12-13T11:20:44Z</time>
      </trkpt>
      <trkpt lat="19.038189" lon="-98.611867">
        <ele>4001.644</ele>
        <time>2020-12-13T11:20:51Z</time>
      </trkpt>
      <trkpt lat="19.038151" lon="-98.611899">
        <ele>4002.150</ele>
        <time>2020-12-13T11:21:01Z</time>
      </trkpt>
      <trkpt lat="19.038153" lon="-98.611947">
        <ele>4003.290</ele>
        <time>2020-12-13T11:21:09Z</time>
      </trkpt>
      <trkpt lat="19.038135" lon="-98.611994">
        <ele>4005.071</ele>
        <time>2020-12-13T11:22:19Z</time>
      </trkpt>
      <trkpt lat="19.038087" lon="-98.612003">
        <ele>4006.572</ele>
        <time>2020-12-13T11:22:36Z</time>
      </trkpt>
      <trkpt lat="19.038037" lon="-98.612009">
        <ele>4008.611</ele>
        <time>2020-12-13T11:22:49Z</time>
      </trkpt>
      <trkpt lat="19.037997" lon="-98.612033">
        <ele>4011.527</ele>
        <time>2020-12-13T11:23:02Z</time>
      </trkpt>
      <trkpt lat="19.037958" lon="-98.612082">
        <ele>4014.054</ele>
        <time>2020-12-13T11:23:06Z</time>
      </trkpt>
      <trkpt lat="19.037943" lon="-98.612035">
        <ele>4014.793</ele>
        <time>2020-12-13T11:23:15Z</time>
      </trkpt>
      <trkpt lat="19.037902" lon="-98.612057">
        <ele>4015.965</ele>
        <time>2020-12-13T11:23:33Z</time>
      </trkpt>
      <trkpt lat="19.037904" lon="-98.612109">
        <ele>4017.021</ele>
        <time>2020-12-13T11:23:51Z</time>
      </trkpt>
      <trkpt lat="19.037877" lon="-98.612149">
        <ele>4018.108</ele>
        <time>2020-12-13T11:25:02Z</time>
      </trkpt>
      <trkpt lat="19.037828" lon="-98.612149">
        <ele>4019.185</ele>
        <time>2020-12-13T11:25:41Z</time>
      </trkpt>
      <trkpt lat="19.037786" lon="-98.612176">
        <ele>4020.591</ele>
        <time>2020-12-13T11:26:06Z</time>
      </trkpt>
      <trkpt lat="19.037758" lon="-98.612213">
        <ele>4021.841</ele>
        <time>2020-12-13T11:26:23Z</time>
      </trkpt>
      <trkpt lat="19.037714" lon="-98.612234">
        <ele>4025.412</ele>
        <time>2020-12-13T11:26:38Z</time>
      </trkpt>
      <trkpt lat="19.037668" lon="-98.612245">
        <ele>4028.763</ele>
        <time>2020-12-13T11:26:57Z</time>
      </trkpt>
      <trkpt lat="19.037634" lon="-98.612277">
        <ele>4031.152</ele>
        <time>2020-12-13T11:27:01Z</time>
      </trkpt>
      <trkpt lat="19.037612" lon="-98.612322">
        <ele>4032.568</ele>
        <time>2020-12-13T11:27:06Z</time>
      </trkpt>
      <trkpt lat="19.037575" lon="-98.61235">
        <ele>4034.245</ele>
        <time>2020-12-13T11:27:21Z</time>
      </trkpt>
      <trkpt lat="19.037544" lon="-98.612385">
        <ele>4036.827</ele>
        <time>2020-12-13T11:29:10Z</time>
      </trkpt>
      <trkpt lat="19.03751" lon="-98.612419">
        <ele>4038.868</ele>
        <time>2020-12-13T11:29:19Z</time>
      </trkpt>
      <trkpt lat="19.037468" lon="-98.612437">
        <ele>4040.014</ele>
        <time>2020-12-13T11:29:26Z</time>
      </trkpt>
      <trkpt lat="19.03744" lon="-98.612476">
        <ele>4040.708</ele>
        <time>2020-12-13T11:29:33Z</time>
      </trkpt>
      <trkpt lat="19.037406" lon="-98.61251">
        <ele>4042.798</ele>
        <time>2020-12-13T11:29:50Z</time>
      </trkpt>
      <trkpt lat="19.037357" lon="-98.61251">
        <ele>4043.944</ele>
        <time>2020-12-13T11:30:03Z</time>
      </trkpt>
      <trkpt lat="19.037359" lon="-98.612559">
        <ele>4044.684</ele>
        <time>2020-12-13T11:31:24Z</time>
      </trkpt>
      <trkpt lat="19.037314" lon="-98.612581">
        <ele>4047.035</ele>
        <time>2020-12-13T11:31:32Z</time>
      </trkpt>
      <trkpt lat="19.037279" lon="-98.612617">
        <ele>4048.526</ele>
        <time>2020-12-13T11:31:40Z</time>
      </trkpt>
      <trkpt lat="19.037245" lon="-98.612651">
        <ele>4051.435</ele>
        <time>2020-12-13T11:31:46Z</time>
      </trkpt>
      <trkpt lat="19.037204" lon="-98.612678">
        <ele>4054.741</ele>
        <time>2020-12-13T11:32:11Z</time>
      </trkpt>
      <trkpt lat="19.037165" lon="-98.612702">
        <ele>4057.158</ele>
        <time>2020-12-13T11:32:20Z</time>
      </trkpt>
      <trkpt lat="19.037136" lon="-98.61274">
        <ele>4057.715</ele>
        <time>2020-12-13T11:32:25Z</time>
      </trkpt>
      <trkpt lat="19.037114" lon="-98.612785">
        <ele>4058.965</ele>
        <time>2020-12-13T11:34:05Z</time>
      </trkpt>
      <trkpt lat="19.037068" lon="-98.612798">
        <ele>4060.411</ele>
        <time>2020-12-13T11:34:22Z</time>
      </trkpt>
      <trkpt lat="19.037024" lon="-98.612815">
        <ele>4062.508</ele>
        <time>2020-12-13T11:34:34Z</time>
      </trkpt>
      <trkpt lat="19.03698" lon="-98.612842">
        <ele>4064.657</ele>
        <time>2020-12-13T11:35:16Z</time>
      </trkpt>
      <trkpt lat="19.03694" lon="-98.612871">
        <ele>4066.653</ele>
        <time>2020-12-13T11:35:31Z</time>
      </trkpt>
      <trkpt lat="19.036899" lon="-98.612898">
        <ele>4068.263</ele>
        <time>2020-12-13T11:35:40Z</time>
      </trkpt>
      <trkpt lat="19.036865" lon="-98.612931">
        <ele>4070.474</ele>
        <time>2020-12-13T11:35:52Z</time>
      </trkpt>
      <trkpt lat="19.036822" lon="-98.612954">
        <ele>4072.545</ele>
        <time>2020-12-13T11:36:05Z</time>
      </trkpt>
      <trkpt lat="19.036777" lon="-98.612967">
        <ele>4074.234</ele>
        <time>2020-12-13T11:36:39Z</time>
      </trkpt>
      <trkpt lat="19.03674" lon="-98.612996">
        <ele>4075.280</ele>
        <time>2020-12-13T11:36:46Z</time>
      </trkpt>
      <trkpt lat="19.036698" lon="-98.613016">
        <ele>4077.027</ele>
        <time>2020-12-13T11:37:03Z</time>
      </trkpt>
      <trkpt lat="19.036656" lon="-98.613033">
        <ele>4080.175</ele>
        <time>2020-12-13T11:37:18Z</time>
      </trkpt>
      <trkpt lat="19.036611" lon="-98.613057">
        <ele>4082.328</ele>
        <time>2020-12-13T11:37:32Z</time>
      </trkpt>
      <trkpt lat="19.036563" lon="-98.61308">
        <ele>4084.420</ele>
        <time>2020-12-13T11:37:40Z</time>
      </trkpt>
      <trkpt lat="19.036523" lon="-98.613107">
        <ele>4086.908</ele>
        <time>2020-12-13T11:37:52Z</time>
      </trkpt>
      <trkpt lat="19.036477" lon="-98.613133">
        <ele>4088.043</ele>
        <time>2020-12-13T11:37:58Z</time>
      </trkpt>
      <trkpt lat="19.036433" lon="-98.613125">
        <ele>4090.339</ele>
        <time>2020-12-13T11:39:19Z</time>
      </trkpt>
      <trkpt lat="19.0364" lon="-98.613157">
        <ele>4092.979</ele>
        <time>2020-12-13T11:41:03Z</time>
      </trkpt>
      <trkpt lat="19.036358" lon="-98.613175">
        <ele>4096.430</ele>
        <time>2020-12-13T11:41:11Z</time>
      </trkpt>
      <trkpt lat="19.036306" lon="-98.613175">
        <ele>4098.151</ele>
        <time>2020-12-13T11:41:17Z</time>
      </trkpt>
      <trkpt lat="19.036279" lon="-98.613214">
        <ele>4099.560</ele>
        <time>2020-12-13T11:41:25Z</time>
      </trkpt>
      <trkpt lat="19.036259" lon="-98.613257">
        <ele>4101.246</ele>
        <time>2020-12-13T11:43:33Z</time>
      </trkpt>
      <trkpt lat="19.036214" lon="-98.613274">
        <ele>4104.663</ele>
        <time>2020-12-13T11:44:49Z</time>
      </trkpt>
      <trkpt lat="19.036177" lon="-98.613305">
        <ele>4105.877</ele>
        <time>2020-12-13T11:45:18Z</time>
      </trkpt>
      <trkpt lat="19.036188" lon="-98.613354">
        <ele>4108.961</ele>
        <time>2020-12-13T11:45:36Z</time>
      </trkpt>
      <trkpt lat="19.03615" lon="-98.613385">
        <ele>4110.027</ele>
        <time>2020-12-13T11:46:27Z</time>
      </trkpt>
      <trkpt lat="19.036103" lon="-98.613386">
        <ele>4111.508</ele>
        <time>2020-12-13T11:46:46Z</time>
      </trkpt>
      <trkpt lat="19.036054" lon="-98.613401">
        <ele>4113.643</ele>
        <time>2020-12-13T11:46:58Z</time>
      </trkpt>
      <trkpt lat="19.036012" lon="-98.613427">
        <ele>4115.239</ele>
        <time>2020-12-13T11:47:07Z</time>
      </trkpt>
      <trkpt lat="19.035994" lon="-98.613474">
        <ele>4117.869</ele>
        <time>2020-12-13T11:48:18Z</time>
      </trkpt>
      <trkpt lat="19.036007" lon="-98.613522">
        <ele>4119.890</ele>
        <time>2020-12-13T11:48:27Z</time>
      </trkpt>
      <trkpt lat="19.035988" lon="-98.613567">
        <ele>4123.051</ele>
        <time>2020-12-13T11:48:49Z</time>
      </trkpt>
      <trkpt lat="19.035941" lon="-98.613584">
        <ele>4127.060</ele>
        <time>2020-12-13T11:49:38Z</time>
      </trkpt>
      <trkpt lat="19.035915" lon="-98.613623">
        <ele>4130.166</ele>
        <time>2020-12-13T11:49:54Z</time>
      </trkpt>
      <trkpt lat="19.035916" lon="-98.613685">
        <ele>4132.453</ele>
        <time>2020-12-13T11:50:17Z</time>
      </trkpt>
      <trkpt lat="19.035954" lon="-98.613722">
        <ele>4134.261</ele>
        <time>2020-12-13T11:50:22Z</time>
      </trkpt>
      <trkpt lat="19.035912" lon="-98.613747">
        <ele>4134.521</ele>
        <time>2020-12-13T11:51:14Z</time>
      </trkpt>
      <trkpt lat="19.03587" lon="-98.613764">
        <ele>4137.113</ele>
        <time>2020-12-13T11:51:33Z</time>
      </trkpt>
      <trkpt lat="19.035829" lon="-98.613788">
        <ele>4139.008</ele>
        <time>2020-12-13T11:51:54Z</time>
      </trkpt>
      <trkpt lat="19.035778" lon="-98.613788">
        <ele>4141.452</ele>
        <time>2020-12-13T11:52:09Z</time>
      </trkpt>
      <trkpt lat="19.035764" lon="-98.61384">
        <ele>4144.838</ele>
        <time>2020-12-13T11:53:29Z</time>
      </trkpt>
      <trkpt lat="19.035747" lon="-98.613894">
        <ele>4147.678</ele>
        <time>2020-12-13T11:55:29Z</time>
      </trkpt>
      <trkpt lat="19.035703" lon="-98.613917">
        <ele>4151.649</ele>
        <time>2020-12-13T11:55:51Z</time>
      </trkpt>
      <trkpt lat="19.035656" lon="-98.613927">
        <ele>4154.950</ele>
        <time>2020-12-13T11:55:57Z</time>
      </trkpt>
      <trkpt lat="19.035624" lon="-98.613963">
        <ele>4157.719</ele>
        <time>2020-12-13T11:56:08Z</time>
      </trkpt>
      <trkpt lat="19.035579" lon="-98.61398">
        <ele>4161.035</ele>
        <time>2020-12-13T11:56:58Z</time>
      </trkpt>
      <trkpt lat="19.035575" lon="-98.614028">
        <ele>4154.082</ele>
        <time>2020-12-13T11:59:02Z</time>
      </trkpt>
      <trkpt lat="19.035525" lon="-98.61402">
        <ele>4155.251</ele>
        <time>2020-12-13T11:59:49Z</time>
      </trkpt>
      <trkpt lat="19.035485" lon="-98.614047">
        <ele>4156.301</ele>
        <time>2020-12-13T11:59:55Z</time>
      </trkpt>
      <trkpt lat="19.035443" lon="-98.614075">
        <ele>4158.611</ele>
        <time>2020-12-13T12:00:06Z</time>
      </trkpt>
      <trkpt lat="19.035399" lon="-98.614085">
        <ele>4160.408</ele>
        <time>2020-12-13T12:00:13Z</time>
      </trkpt>
      <trkpt lat="19.035363" lon="-98.614118">
        <ele>4159.511</ele>
        <time>2020-12-13T12:00:24Z</time>
      </trkpt>
      <trkpt lat="19.035351" lon="-98.614166">
        <ele>4159.727</ele>
        <time>2020-12-13T12:00:57Z</time>
      </trkpt>
      <trkpt lat="19.035307" lon="-98.614183">
        <ele>4161.087</ele>
        <time>2020-12-13T12:01:34Z</time>
      </trkpt>
      <trkpt lat="19.035263" lon="-98.614202">
        <ele>4162.288</ele>
        <time>2020-12-13T12:01:46Z</time>
      </trkpt>
      <trkpt lat="19.035218" lon="-98.614197">
        <ele>4164.919</ele>
        <time>2020-12-13T12:02:10Z</time>
      </trkpt>
      <trkpt lat="19.035183" lon="-98.614229">
        <ele>4168.538</ele>
        <time>2020-12-13T12:02:47Z</time>
      </trkpt>
      <trkpt lat="19.035166" lon="-98.614277">
        <ele>4170.784</ele>
        <time>2020-12-13T12:02:58Z</time>
      </trkpt>
      <trkpt lat="19.035117" lon="-98.614304">
        <ele>4172.451</ele>
        <time>2020-12-13T12:03:06Z</time>
      </trkpt>
      <trkpt lat="19.035074" lon="-98.61432">
        <ele>4174.264</ele>
        <time>2020-12-13T12:03:12Z</time>
      </trkpt>
      <trkpt lat="19.035057" lon="-98.614365">
        <ele>4175.306</ele>
        <time>2020-12-13T12:03:24Z</time>
      </trkpt>
      <trkpt lat="19.035022" lon="-98.614399">
        <ele>4178.416</ele>
        <time>2020-12-13T12:04:12Z</time>
      </trkpt>
      <trkpt lat="19.034967" lon="-98.614406">
        <ele>4180.608</ele>
        <time>2020-12-13T12:04:19Z</time>
      </trkpt>
      <trkpt lat="19.034933" lon="-98.614441">
        <ele>4182.312</ele>
        <time>2020-12-13T12:04:28Z</time>
      </trkpt>
      <trkpt lat="19.034894" lon="-98.614465">
        <ele>4183.328</ele>
        <time>2020-12-13T12:04:39Z</time>
      </trkpt>
      <trkpt lat="19.03488" lon="-98.614515">
        <ele>4184.738</ele>
        <time>2020-12-13T12:04:48Z</time>
      </trkpt>
      <trkpt lat="19.034887" lon="-98.614563">
        <ele>4186.079</ele>
        <time>2020-12-13T12:05:15Z</time>
      </trkpt>
      <trkpt lat="19.03491" lon="-98.614606">
        <ele>4188.020</ele>
        <time>2020-12-13T12:05:56Z</time>
      </trkpt>
      <trkpt lat="19.034862" lon="-98.614617">
        <ele>4189.249</ele>
        <time>2020-12-13T12:06:09Z</time>
      </trkpt>
      <trkpt lat="19.03483" lon="-98.614655">
        <ele>4189.555</ele>
        <time>2020-12-13T12:06:19Z</time>
      </trkpt>
      <trkpt lat="19.034784" lon="-98.614655">
        <ele>4192.182</ele>
        <time>2020-12-13T12:06:36Z</time>
      </trkpt>
      <trkpt lat="19.034741" lon="-98.614675">
        <ele>4196.115</ele>
        <time>2020-12-13T12:06:52Z</time>
      </trkpt>
      <trkpt lat="19.034704" lon="-98.614704">
        <ele>4198.865</ele>
        <time>2020-12-13T12:07:18Z</time>
      </trkpt>
      <trkpt lat="19.034652" lon="-98.614705">
        <ele>4200.411</ele>
        <time>2020-12-13T12:07:25Z</time>
      </trkpt>
      <trkpt lat="19.034604" lon="-98.614703">
        <ele>4201.408</ele>
        <time>2020-12-13T12:07:32Z</time>
      </trkpt>
      <trkpt lat="19.034564" lon="-98.614727">
        <ele>4204.097</ele>
        <time>2020-12-13T12:08:20Z</time>
      </trkpt>
      <trkpt lat="19.034518" lon="-98.614726">
        <ele>4205.633</ele>
        <time>2020-12-13T12:08:29Z</time>
      </trkpt>
      <trkpt lat="19.034474" lon="-98.614746">
        <ele>4207.733</ele>
        <time>2020-12-13T12:08:45Z</time>
      </trkpt>
      <trkpt lat="19.034444" lon="-98.614782">
        <ele>4210.234</ele>
        <time>2020-12-13T12:09:13Z</time>
      </trkpt>
      <trkpt lat="19.034396" lon="-98.614787">
        <ele>4210.955</ele>
        <time>2020-12-13T12:10:13Z</time>
      </trkpt>
      <trkpt lat="19.034348" lon="-98.614795">
        <ele>4210.114</ele>
        <time>2020-12-13T12:10:21Z</time>
      </trkpt>
      <trkpt lat="19.034308" lon="-98.614821">
        <ele>4211.660</ele>
        <time>2020-12-13T12:10:35Z</time>
      </trkpt>
      <trkpt lat="19.03426" lon="-98.61483">
        <ele>4215.637</ele>
        <time>2020-12-13T12:10:46Z</time>
      </trkpt>
      <trkpt lat="19.034228" lon="-98.614865">
        <ele>4218.589</ele>
        <time>2020-12-13T12:12:01Z</time>
      </trkpt>
      <trkpt lat="19.034188" lon="-98.614894">
        <ele>4221.406</ele>
        <time>2020-12-13T12:12:10Z</time>
      </trkpt>
      <trkpt lat="19.034137" lon="-98.614905">
        <ele>4224.826</ele>
        <time>2020-12-13T12:12:19Z</time>
      </trkpt>
      <trkpt lat="19.034089" lon="-98.614923">
        <ele>4228.808</ele>
        <time>2020-12-13T12:12:29Z</time>
      </trkpt>
      <trkpt lat="19.034062" lon="-98.614961">
        <ele>4231.294</ele>
        <time>2020-12-13T12:12:49Z</time>
      </trkpt>
      <trkpt lat="19.034025" lon="-98.615003">
        <ele>4233.170</ele>
        <time>2020-12-13T12:13:35Z</time>
      </trkpt>
      <trkpt lat="19.033983" lon="-98.615029">
        <ele>4234.640</ele>
        <time>2020-12-13T12:13:42Z</time>
      </trkpt>
      <trkpt lat="19.033938" lon="-98.615049">
        <ele>4237.981</ele>
        <time>2020-12-13T12:13:58Z</time>
      </trkpt>
      <trkpt lat="19.033896" lon="-98.615069">
        <ele>4239.592</ele>
        <time>2020-12-13T12:14:11Z</time>
      </trkpt>
      <trkpt lat="19.033857" lon="-98.615095">
        <ele>4242.181</ele>
        <time>2020-12-13T12:14:16Z</time>
      </trkpt>
      <trkpt lat="19.033825" lon="-98.615131">
        <ele>4245.647</ele>
        <time>2020-12-13T12:15:34Z</time>
      </trkpt>
      <trkpt lat="19.033779" lon="-98.615136">
        <ele>4248.124</ele>
        <time>2020-12-13T12:15:52Z</time>
      </trkpt>
      <trkpt lat="19.033747" lon="-98.615173">
        <ele>4250.412</ele>
        <time>2020-12-13T12:16:10Z</time>
      </trkpt>
      <trkpt lat="19.033704" lon="-98.61519">
        <ele>4253.432</ele>
        <time>2020-12-13T12:16:22Z</time>
      </trkpt>
      <trkpt lat="19.033669" lon="-98.615227">
        <ele>4255.605</ele>
        <time>2020-12-13T12:17:27Z</time>
      </trkpt>
      <trkpt lat="19.033626" lon="-98.615242">
        <ele>4256.908</ele>
        <time>2020-12-13T12:17:41Z</time>
      </trkpt>
      <trkpt lat="19.033576" lon="-98.615237">
        <ele>4259.777</ele>
        <time>2020-12-13T12:17:52Z</time>
      </trkpt>
      <trkpt lat="19.033536" lon="-98.615214">
        <ele>4263.083</ele>
        <time>2020-12-13T12:18:04Z</time>
      </trkpt>
      <trkpt lat="19.033496" lon="-98.615235">
        <ele>4264.633</ele>
        <time>2020-12-13T12:18:10Z</time>
      </trkpt>
      <trkpt lat="19.033453" lon="-98.61525">
        <ele>4266.714</ele>
        <time>2020-12-13T12:18:51Z</time>
      </trkpt>
      <trkpt lat="19.033411" lon="-98.615269">
        <ele>4268.835</ele>
        <time>2020-12-13T12:19:07Z</time>
      </trkpt>
      <trkpt lat="19.033363" lon="-98.615268">
        <ele>4270.854</ele>
        <time>2020-12-13T12:19:17Z</time>
      </trkpt>
      <trkpt lat="19.033331" lon="-98.615233">
        <ele>4273.270</ele>
        <time>2020-12-13T12:19:26Z</time>
      </trkpt>
      <trkpt lat="19.0333" lon="-98.615268">
        <ele>4275.947</ele>
        <time>2020-12-13T12:20:13Z</time>
      </trkpt>
      <trkpt lat="19.033268" lon="-98.615303">
        <ele>4277.593</ele>
        <time>2020-12-13T12:20:37Z</time>
      </trkpt>
      <trkpt lat="19.032971" lon="-98.615607">
        <ele>4281.565</ele>
        <time>2020-12-13T12:31:36Z</time>
      </trkpt>
      <trkpt lat="19.033013" lon="-98.615674">
        <ele>4285.521</ele>
        <time>2020-12-13T12:31:38Z</time>
      </trkpt>
      <trkpt lat="19.033016" lon="-98.615616">
        <ele>4284.108</ele>
        <time>2020-12-13T12:31:42Z</time>
      </trkpt>
      <trkpt lat="19.032973" lon="-98.615634">
        <ele>4288.135</ele>
        <time>2020-12-13T12:31:58Z</time>
      </trkpt>
      <trkpt lat="19.032925" lon="-98.61564">
        <ele>4292.111</ele>
        <time>2020-12-13T12:32:05Z</time>
      </trkpt>
      <trkpt lat="19.032881" lon="-98.615652">
        <ele>4296.171</ele>
        <time>2020-12-13T12:32:48Z</time>
      </trkpt>
      <trkpt lat="19.032857" lon="-98.615698">
        <ele>4300.122</ele>
        <time>2020-12-13T12:33:19Z</time>
      </trkpt>
      <trkpt lat="19.032829" lon="-98.615741">
        <ele>4304.193</ele>
        <time>2020-12-13T12:33:51Z</time>
      </trkpt>
      <trkpt lat="19.032789" lon="-98.615772">
        <ele>4306.422</ele>
        <time>2020-12-13T12:33:58Z</time>
      </trkpt>
      <trkpt lat="19.032756" lon="-98.615812">
        <ele>4309.828</ele>
        <time>2020-12-13T12:34:09Z</time>
      </trkpt>
      <trkpt lat="19.032749" lon="-98.615862">
        <ele>4312.295</ele>
        <time>2020-12-13T12:34:36Z</time>
      </trkpt>
      <trkpt lat="19.032713" lon="-98.615894">
        <ele>4314.933</ele>
        <time>2020-12-13T12:34:45Z</time>
      </trkpt>
      <trkpt lat="19.032685" lon="-98.615933">
        <ele>4318.923</ele>
        <time>2020-12-13T12:35:07Z</time>
      </trkpt>
      <trkpt lat="19.032709" lon="-98.61598">
        <ele>4322.915</ele>
        <time>2020-12-13T12:35:10Z</time>
      </trkpt>
      <trkpt lat="19.032685" lon="-98.616025">
        <ele>4326.908</ele>
        <time>2020-12-13T12:36:28Z</time>
      </trkpt>
      <trkpt lat="19.032647" lon="-98.616052">
        <ele>4330.919</ele>
        <time>2020-12-13T12:36:43Z</time>
      </trkpt>
      <trkpt lat="19.032622" lon="-98.616097">
        <ele>4334.575</ele>
        <time>2020-12-13T12:36:50Z</time>
      </trkpt>
      <trkpt lat="19.032582" lon="-98.616122">
        <ele>4337.165</ele>
        <time>2020-12-13T12:36:58Z</time>
      </trkpt>
      <trkpt lat="19.032557" lon="-98.616163">
        <ele>4338.676</ele>
        <time>2020-12-13T12:37:05Z</time>
      </trkpt>
      <trkpt lat="19.032526" lon="-98.616202">
        <ele>4339.547</ele>
        <time>2020-12-13T12:37:13Z</time>
      </trkpt>
      <trkpt lat="19.032487" lon="-98.616236">
        <ele>4340.516</ele>
        <time>2020-12-13T12:37:27Z</time>
      </trkpt>
      <trkpt lat="19.032455" lon="-98.616271">
        <ele>4341.512</ele>
        <time>2020-12-13T12:37:33Z</time>
      </trkpt>
      <trkpt lat="19.032406" lon="-98.616282">
        <ele>4342.969</ele>
        <time>2020-12-13T12:37:52Z</time>
      </trkpt>
      <trkpt lat="19.032376" lon="-98.616321">
        <ele>4342.998</ele>
        <time>2020-12-13T12:38:21Z</time>
      </trkpt>
      <trkpt lat="19.032349" lon="-98.616362">
        <ele>4343.715</ele>
        <time>2020-12-13T12:38:28Z</time>
      </trkpt>
      <trkpt lat="19.03233" lon="-98.61641">
        <ele>4345.426</ele>
        <time>2020-12-13T12:39:13Z</time>
      </trkpt>
      <trkpt lat="19.032283" lon="-98.616433">
        <ele>4348.408</ele>
        <time>2020-12-13T12:39:33Z</time>
      </trkpt>
      <trkpt lat="19.032238" lon="-98.616451">
        <ele>4349.845</ele>
        <time>2020-12-13T12:39:43Z</time>
      </trkpt>
      <trkpt lat="19.032195" lon="-98.616478">
        <ele>4351.451</ele>
        <time>2020-12-13T12:39:49Z</time>
      </trkpt>
      <trkpt lat="19.032166" lon="-98.616514">
        <ele>4353.641</ele>
        <time>2020-12-13T12:40:50Z</time>
      </trkpt>
      <trkpt lat="19.032138" lon="-98.616558">
        <ele>4354.542</ele>
        <time>2020-12-13T12:40:56Z</time>
      </trkpt>
      <trkpt lat="19.032118" lon="-98.61661">
        <ele>4355.873</ele>
        <time>2020-12-13T12:41:05Z</time>
      </trkpt>
      <trkpt lat="19.032092" lon="-98.61665">
        <ele>4358.612</ele>
        <time>2020-12-13T12:41:15Z</time>
      </trkpt>
      <trkpt lat="19.032088" lon="-98.616699">
        <ele>4361.148</ele>
        <time>2020-12-13T12:41:20Z</time>
      </trkpt>
      <trkpt lat="19.032044" lon="-98.616719">
        <ele>4363.045</ele>
        <time>2020-12-13T12:41:26Z</time>
      </trkpt>
      <trkpt lat="19.032022" lon="-98.616763">
        <ele>4364.976</ele>
        <time>2020-12-13T12:41:34Z</time>
      </trkpt>
      <trkpt lat="19.032026" lon="-98.616811">
        <ele>4365.790</ele>
        <time>2020-12-13T12:42:03Z</time>
      </trkpt>
      <trkpt lat="19.032021" lon="-98.616859">
        <ele>4367.419</ele>
        <time>2020-12-13T12:42:40Z</time>
      </trkpt>
      <trkpt lat="19.031981" lon="-98.616886">
        <ele>4368.408</ele>
        <time>2020-12-13T12:42:50Z</time>
      </trkpt>
      <trkpt lat="19.031954" lon="-98.616926">
        <ele>4371.023</ele>
        <time>2020-12-13T12:43:10Z</time>
      </trkpt>
      <trkpt lat="19.031915" lon="-98.616958">
        <ele>4371.879</ele>
        <time>2020-12-13T12:43:19Z</time>
      </trkpt>
      <trkpt lat="19.031935" lon="-98.617004">
        <ele>4373.569</ele>
        <time>2020-12-13T12:43:27Z</time>
      </trkpt>
      <trkpt lat="19.031968" lon="-98.617038">
        <ele>4374.590</ele>
        <time>2020-12-13T12:44:58Z</time>
      </trkpt>
      <trkpt lat="19.031947" lon="-98.617083">
        <ele>4377.151</ele>
        <time>2020-12-13T12:47:04Z</time>
      </trkpt>
      <trkpt lat="19.031935" lon="-98.617129">
        <ele>4379.550</ele>
        <time>2020-12-13T12:47:17Z</time>
      </trkpt>
      <trkpt lat="19.03191" lon="-98.617173">
        <ele>4380.986</ele>
        <time>2020-12-13T12:47:27Z</time>
      </trkpt>
      <trkpt lat="19.031883" lon="-98.617212">
        <ele>4381.773</ele>
        <time>2020-12-13T12:47:49Z</time>
      </trkpt>
      <trkpt lat="19.031853" lon="-98.617252">
        <ele>4383.064</ele>
        <time>2020-12-13T12:47:56Z</time>
      </trkpt>
      <trkpt lat="19.031861" lon="-98.617299">
        <ele>4385.806</ele>
        <time>2020-12-13T12:48:36Z</time>
      </trkpt>
      <trkpt lat="19.031843" lon="-98.617349">
        <ele>4388.316</ele>
        <time>2020-12-13T12:49:12Z</time>
      </trkpt>
      <trkpt lat="19.031816" lon="-98.617394">
        <ele>4390.608</ele>
        <time>2020-12-13T12:49:20Z</time>
      </trkpt>
      <trkpt lat="19.031806" lon="-98.617444">
        <ele>4392.472</ele>
        <time>2020-12-13T12:49:27Z</time>
      </trkpt>
      <trkpt lat="19.031787" lon="-98.617492">
        <ele>4393.548</ele>
        <time>2020-12-13T12:49:37Z</time>
      </trkpt>
      <trkpt lat="19.031762" lon="-98.617535">
        <ele>4395.388</ele>
        <time>2020-12-13T12:49:43Z</time>
      </trkpt>
      <trkpt lat="19.031733" lon="-98.617573">
        <ele>4396.819</ele>
        <time>2020-12-13T12:50:00Z</time>
      </trkpt>
      <trkpt lat="19.031739" lon="-98.617625">
        <ele>4398.150</ele>
        <time>2020-12-13T12:50:12Z</time>
      </trkpt>
      <trkpt lat="19.031728" lon="-98.617674">
        <ele>4398.939</ele>
        <time>2020-12-13T12:50:20Z</time>
      </trkpt>
      <trkpt lat="19.031739" lon="-98.617721">
        <ele>4401.415</ele>
        <time>2020-12-13T12:50:37Z</time>
      </trkpt>
      <trkpt lat="19.031698" lon="-98.61775">
        <ele>4404.192</ele>
        <time>2020-12-13T12:51:29Z</time>
      </trkpt>
      <trkpt lat="19.031684" lon="-98.617801">
        <ele>4406.118</ele>
        <time>2020-12-13T12:51:39Z</time>
      </trkpt>
      <trkpt lat="19.031671" lon="-98.617849">
        <ele>4406.598</ele>
        <time>2020-12-13T12:51:47Z</time>
      </trkpt>
      <trkpt lat="19.031638" lon="-98.61789">
        <ele>4407.917</ele>
        <time>2020-12-13T12:52:00Z</time>
      </trkpt>
      <trkpt lat="19.031622" lon="-98.617936">
        <ele>4410.008</ele>
        <time>2020-12-13T12:52:08Z</time>
      </trkpt>
      <trkpt lat="19.031616" lon="-98.617984">
        <ele>4412.427</ele>
        <time>2020-12-13T12:52:43Z</time>
      </trkpt>
      <trkpt lat="19.031581" lon="-98.61802">
        <ele>4414.343</ele>
        <time>2020-12-13T12:53:01Z</time>
      </trkpt>
      <trkpt lat="19.031559" lon="-98.618065">
        <ele>4416.623</ele>
        <time>2020-12-13T12:53:09Z</time>
      </trkpt>
      <trkpt lat="19.03154" lon="-98.618111">
        <ele>4419.644</ele>
        <time>2020-12-13T12:53:20Z</time>
      </trkpt>
      <trkpt lat="19.031517" lon="-98.618153">
        <ele>4422.295</ele>
        <time>2020-12-13T12:53:33Z</time>
      </trkpt>
      <trkpt lat="19.031507" lon="-98.6182">
        <ele>4423.034</ele>
        <time>2020-12-13T12:54:15Z</time>
      </trkpt>
      <trkpt lat="19.031481" lon="-98.61824">
        <ele>4425.560</ele>
        <time>2020-12-13T12:55:09Z</time>
      </trkpt>
      <trkpt lat="19.031435" lon="-98.618253">
        <ele>4428.257</ele>
        <time>2020-12-13T12:55:57Z</time>
      </trkpt>
      <trkpt lat="19.031396" lon="-98.618278">
        <ele>4429.898</ele>
        <time>2020-12-13T12:56:06Z</time>
      </trkpt>
      <trkpt lat="19.031351" lon="-98.618299">
        <ele>4432.815</ele>
        <time>2020-12-13T12:56:18Z</time>
      </trkpt>
      <trkpt lat="19.031311" lon="-98.618325">
        <ele>4435.026</ele>
        <time>2020-12-13T12:56:35Z</time>
      </trkpt>
      <trkpt lat="19.031276" lon="-98.618365">
        <ele>4437.508</ele>
        <time>2020-12-13T12:57:33Z</time>
      </trkpt>
      <trkpt lat="19.03125" lon="-98.618404">
        <ele>4439.075</ele>
        <time>2020-12-13T12:57:40Z</time>
      </trkpt>
      <trkpt lat="19.031205" lon="-98.618391">
        <ele>4441.161</ele>
        <time>2020-12-13T12:57:55Z</time>
      </trkpt>
      <trkpt lat="19.031154" lon="-98.618388">
        <ele>4445.181</ele>
        <time>2020-12-13T12:58:11Z</time>
      </trkpt>
      <trkpt lat="19.031108" lon="-98.618386">
        <ele>4449.192</ele>
        <time>2020-12-13T12:58:30Z</time>
      </trkpt>
      <trkpt lat="19.031063" lon="-98.618389">
        <ele>4452.463</ele>
        <time>2020-12-13T13:00:01Z</time>
      </trkpt>
      <trkpt lat="19.031019" lon="-98.618404">
        <ele>4454.832</ele>
        <time>2020-12-13T13:00:11Z</time>
      </trkpt>
      <trkpt lat="19.030975" lon="-98.618416">
        <ele>4457.078</ele>
        <time>2020-12-13T13:01:14Z</time>
      </trkpt>
      <trkpt lat="19.030926" lon="-98.618418">
        <ele>4459.515</ele>
        <time>2020-12-13T13:01:33Z</time>
      </trkpt>
      <trkpt lat="19.030883" lon="-98.618402">
        <ele>4463.481</ele>
        <time>2020-12-13T13:01:46Z</time>
      </trkpt>
      <trkpt lat="19.030843" lon="-98.618427">
        <ele>4465.461</ele>
        <time>2020-12-13T13:02:13Z</time>
      </trkpt>
      <trkpt lat="19.030801" lon="-98.618444">
        <ele>4465.817</ele>
        <time>2020-12-13T13:02:47Z</time>
      </trkpt>
      <trkpt lat="19.030754" lon="-98.618454">
        <ele>4467.608</ele>
        <time>2020-12-13T13:03:01Z</time>
      </trkpt>
      <trkpt lat="19.030706" lon="-98.618464">
        <ele>4471.614</ele>
        <time>2020-12-13T13:03:20Z</time>
      </trkpt>
      <trkpt lat="19.030686" lon="-98.618513">
        <ele>4474.340</ele>
        <time>2020-12-13T13:03:32Z</time>
      </trkpt>
      <trkpt lat="19.030654" lon="-98.61855">
        <ele>4476.330</ele>
        <time>2020-12-13T13:04:09Z</time>
      </trkpt>
      <trkpt lat="19.030619" lon="-98.618583">
        <ele>4479.131</ele>
        <time>2020-12-13T13:05:51Z</time>
      </trkpt>
      <trkpt lat="19.030581" lon="-98.618616">
        <ele>4480.492</ele>
        <time>2020-12-13T13:06:04Z</time>
      </trkpt>
      <trkpt lat="19.030536" lon="-98.61863">
        <ele>4482.471</ele>
        <time>2020-12-13T13:06:18Z</time>
      </trkpt>
      <trkpt lat="19.030492" lon="-98.618642">
        <ele>4486.047</ele>
        <time>2020-12-13T13:06:30Z</time>
      </trkpt>
      <trkpt lat="19.030456" lon="-98.618675">
        <ele>4488.164</ele>
        <time>2020-12-13T13:07:33Z</time>
      </trkpt>
      <trkpt lat="19.030413" lon="-98.618693">
        <ele>4489.473</ele>
        <time>2020-12-13T13:07:44Z</time>
      </trkpt>
      <trkpt lat="19.030368" lon="-98.618701">
        <ele>4490.685</ele>
        <time>2020-12-13T13:08:04Z</time>
      </trkpt>
      <trkpt lat="19.030326" lon="-98.61872">
        <ele>4494.113</ele>
        <time>2020-12-13T13:09:28Z</time>
      </trkpt>
      <trkpt lat="19.030281" lon="-98.618715">
        <ele>4497.808</ele>
        <time>2020-12-13T13:09:36Z</time>
      </trkpt>
      <trkpt lat="19.030235" lon="-98.618716">
        <ele>4501.653</ele>
        <time>2020-12-13T13:09:46Z</time>
      </trkpt>
      <trkpt lat="19.03019" lon="-98.618721">
        <ele>4503.999</ele>
        <time>2020-12-13T13:10:28Z</time>
      </trkpt>
      <trkpt lat="19.030146" lon="-98.618733">
        <ele>4505.769</ele>
        <time>2020-12-13T13:10:48Z</time>
      </trkpt>
      <trkpt lat="19.030101" lon="-98.618746">
        <ele>4509.630</ele>
        <time>2020-12-13T13:10:59Z</time>
      </trkpt>
      <trkpt lat="19.03006" lon="-98.618766">
        <ele>4513.611</ele>
        <time>2020-12-13T13:12:36Z</time>
      </trkpt>
      <trkpt lat="19.030013" lon="-98.618773">
        <ele>4517.620</ele>
        <time>2020-12-13T13:12:42Z</time>
      </trkpt>
      <trkpt lat="19.029967" lon="-98.618774">
        <ele>4521.666</ele>
        <time>2020-12-13T13:13:03Z</time>
      </trkpt>
      <trkpt lat="19.029937" lon="-98.61881">
        <ele>4524.333</ele>
        <time>2020-12-13T13:14:10Z</time>
      </trkpt>
      <trkpt lat="19.029908" lon="-98.618849">
        <ele>4525.983</ele>
        <time>2020-12-13T13:14:37Z</time>
      </trkpt>
      <trkpt lat="19.029881" lon="-98.618889">
        <ele>4527.725</ele>
        <time>2020-12-13T13:14:57Z</time>
      </trkpt>
      <trkpt lat="19.029376" lon="-98.619115">
        <ele>4516.017</ele>
        <time>2020-12-13T13:27:24Z</time>
      </trkpt>
      <trkpt lat="19.02939" lon="-98.619161">
        <ele>4521.008</ele>
        <time>2020-12-13T13:28:02Z</time>
      </trkpt>
      <trkpt lat="19.029349" lon="-98.619189">
        <ele>4521.434</ele>
        <time>2020-12-13T13:29:22Z</time>
      </trkpt>
      <trkpt lat="19.029308" lon="-98.619211">
        <ele>4522.020</ele>
        <time>2020-12-13T13:30:15Z</time>
      </trkpt>
      <trkpt lat="19.02926" lon="-98.619213">
        <ele>4523.210</ele>
        <time>2020-12-13T13:30:23Z</time>
      </trkpt>
      <trkpt lat="19.029214" lon="-98.619219">
        <ele>4524.791</ele>
        <time>2020-12-13T13:30:27Z</time>
      </trkpt>
      <trkpt lat="19.029174" lon="-98.619247">
        <ele>4526.812</ele>
        <time>2020-12-13T13:30:34Z</time>
      </trkpt>
      <trkpt lat="19.029206" lon="-98.619284">
        <ele>4527.721</ele>
        <time>2020-12-13T13:31:08Z</time>
      </trkpt>
      <trkpt lat="19.029235" lon="-98.619324">
        <ele>4529.847</ele>
        <time>2020-12-13T13:32:04Z</time>
      </trkpt>
      <trkpt lat="19.029237" lon="-98.619377">
        <ele>4533.174</ele>
        <time>2020-12-13T13:32:15Z</time>
      </trkpt>
      <trkpt lat="19.029185" lon="-98.619378">
        <ele>4535.113</ele>
        <time>2020-12-13T13:33:24Z</time>
      </trkpt>
      <trkpt lat="19.029149" lon="-98.619338">
        <ele>4535.943</ele>
        <time>2020-12-13T13:33:30Z</time>
      </trkpt>
      <trkpt lat="19.029102" lon="-98.619312">
        <ele>4536.807</ele>
        <time>2020-12-13T13:35:08Z</time>
      </trkpt>
      <trkpt lat="19.029062" lon="-98.619282">
        <ele>4536.108</ele>
        <time>2020-12-13T13:35:13Z</time>
      </trkpt>
      <trkpt lat="19.02902" lon="-98.619254">
        <ele>4536.167</ele>
        <time>2020-12-13T13:35:24Z</time>
      </trkpt>
      <trkpt lat="19.02897" lon="-98.619236">
        <ele>4537.343</ele>
        <time>2020-12-13T13:36:50Z</time>
      </trkpt>
      <trkpt lat="19.028925" lon="-98.619244">
        <ele>4540.463</ele>
        <time>2020-12-13T13:37:19Z</time>
      </trkpt>
      <trkpt lat="19.02889" lon="-98.61921">
        <ele>4542.734</ele>
        <time>2020-12-13T13:38:12Z</time>
      </trkpt>
      <trkpt lat="19.028842" lon="-98.619212">
        <ele>4545.395</ele>
        <time>2020-12-13T13:38:27Z</time>
      </trkpt>
      <trkpt lat="19.028791" lon="-98.619204">
        <ele>4548.074</ele>
        <time>2020-12-13T13:42:15Z</time>
      </trkpt>
      <trkpt lat="19.028748" lon="-98.619189">
        <ele>4551.270</ele>
        <time>2020-12-13T13:42:29Z</time>
      </trkpt>
      <trkpt lat="19.028697" lon="-98.619175">
        <ele>4554.337</ele>
        <time>2020-12-13T13:43:24Z</time>
      </trkpt>
      <trkpt lat="19.02866" lon="-98.619141">
        <ele>4556.235</ele>
        <time>2020-12-13T13:43:30Z</time>
      </trkpt>
      <trkpt lat="19.028619" lon="-98.61912">
        <ele>4558.186</ele>
        <time>2020-12-13T13:43:44Z</time>
      </trkpt>
      <trkpt lat="19.02857" lon="-98.619112">
        <ele>4562.114</ele>
        <time>2020-12-13T13:46:55Z</time>
      </trkpt>
      <trkpt lat="19.028518" lon="-98.61912">
        <ele>4566.108</ele>
        <time>2020-12-13T13:46:59Z</time>
      </trkpt>
      <trkpt lat="19.028464" lon="-98.619109">
        <ele>4570.179</ele>
        <time>2020-12-13T13:47:05Z</time>
      </trkpt>
      <trkpt lat="19.028424" lon="-98.619083">
        <ele>4572.515</ele>
        <time>2020-12-13T13:47:10Z</time>
      </trkpt>
      <trkpt lat="19.028399" lon="-98.619043">
        <ele>4573.925</ele>
        <time>2020-12-13T13:47:16Z</time>
      </trkpt>
      <trkpt lat="19.028364" lon="-98.619011">
        <ele>4574.856</ele>
        <time>2020-12-13T13:47:22Z</time>
      </trkpt>
      <trkpt lat="19.028321" lon="-98.619024">
        <ele>4575.347</ele>
        <time>2020-12-13T13:47:33Z</time>
      </trkpt>
      <trkpt lat="19.028269" lon="-98.619042">
        <ele>4578.086</ele>
        <time>2020-12-13T13:49:40Z</time>
      </trkpt>
      <trkpt lat="19.028256" lon="-98.619088">
        <ele>4582.032</ele>
        <time>2020-12-13T13:51:08Z</time>
      </trkpt>
      <trkpt lat="19.028209" lon="-98.619112">
        <ele>4586.079</ele>
        <time>2020-12-13T13:51:14Z</time>
      </trkpt>
      <trkpt lat="19.028149" lon="-98.619122">
        <ele>4589.213</ele>
        <time>2020-12-13T13:51:18Z</time>
      </trkpt>
      <trkpt lat="19.028103" lon="-98.619127">
        <ele>4591.143</ele>
        <time>2020-12-13T13:51:28Z</time>
      </trkpt>
      <trkpt lat="19.028057" lon="-98.619141">
        <ele>4591.907</ele>
        <time>2020-12-13T13:54:26Z</time>
      </trkpt>
      <trkpt lat="19.028013" lon="-98.619125">
        <ele>4593.208</ele>
        <time>2020-12-13T13:54:30Z</time>
      </trkpt>
      <trkpt lat="19.027962" lon="-98.61912">
        <ele>4594.847</ele>
        <time>2020-12-13T13:54:34Z</time>
      </trkpt>
      <trkpt lat="19.027917" lon="-98.619129">
        <ele>4595.313</ele>
        <time>2020-12-13T13:54:42Z</time>
      </trkpt>
      <trkpt lat="19.027868" lon="-98.619111">
        <ele>4598.033</ele>
        <time>2020-12-13T13:57:10Z</time>
      </trkpt>
      <trkpt lat="19.027827" lon="-98.619134">
        <ele>4600.844</ele>
        <time>2020-12-13T13:57:17Z</time>
      </trkpt>
      <trkpt lat="19.02779" lon="-98.619164">
        <ele>4604.885</ele>
        <time>2020-12-13T13:58:23Z</time>
      </trkpt>
      <trkpt lat="19.027741" lon="-98.619168">
        <ele>4608.864</ele>
        <time>2020-12-13T13:59:50Z</time>
      </trkpt>
      <trkpt lat="19.027685" lon="-98.619178">
        <ele>4612.830</ele>
        <time>2020-12-13T14:01:06Z</time>
      </trkpt>
      <trkpt lat="19.027678" lon="-98.619227">
        <ele>4616.877</ele>
        <time>2020-12-13T14:01:20Z</time>
      </trkpt>
      <trkpt lat="19.027646" lon="-98.619262">
        <ele>4620.827</ele>
        <time>2020-12-13T14:01:39Z</time>
      </trkpt>
      <trkpt lat="19.027694" lon="-98.619258">
        <ele>4624.868</ele>
        <time>2020-12-13T14:02:13Z</time>
      </trkpt>
      <trkpt lat="19.027652" lon="-98.619225">
        <ele>4625.314</ele>
        <time>2020-12-13T14:02:24Z</time>
      </trkpt>
      <trkpt lat="19.027645" lon="-98.619272">
        <ele>4627.208</ele>
        <time>2020-12-13T14:02:47Z</time>
      </trkpt>
      <trkpt lat="19.027602" lon="-98.619308">
        <ele>4630.738</ele>
        <time>2020-12-13T14:04:46Z</time>
      </trkpt>
      <trkpt lat="19.027559" lon="-98.619341">
        <ele>4633.244</ele>
        <time>2020-12-13T14:04:50Z</time>
      </trkpt>
      <trkpt lat="19.027516" lon="-98.619369">
        <ele>4635.534</ele>
        <time>2020-12-13T14:04:54Z</time>
      </trkpt>
      <trkpt lat="19.027502" lon="-98.61942">
        <ele>4639.585</ele>
        <time>2020-12-13T14:06:27Z</time>
      </trkpt>
      <trkpt lat="19.027451" lon="-98.619419">
        <ele>4641.346</ele>
        <time>2020-12-13T14:06:33Z</time>
      </trkpt>
      <trkpt lat="19.027443" lon="-98.619466">
        <ele>4645.395</ele>
        <time>2020-12-13T14:06:55Z</time>
      </trkpt>
      <trkpt lat="19.027398" lon="-98.619469">
        <ele>4647.651</ele>
        <time>2020-12-13T14:07:29Z</time>
      </trkpt>
      <trkpt lat="19.027375" lon="-98.619513">
        <ele>4651.028</ele>
        <time>2020-12-13T14:10:25Z</time>
      </trkpt>
      <trkpt lat="19.027331" lon="-98.619528">
        <ele>4651.494</ele>
        <time>2020-12-13T14:10:37Z</time>
      </trkpt>
      <trkpt lat="19.027341" lon="-98.619574">
        <ele>4653.757</ele>
        <time>2020-12-13T14:11:25Z</time>
      </trkpt>
      <trkpt lat="19.027361" lon="-98.619618">
        <ele>4655.522</ele>
        <time>2020-12-13T14:11:42Z</time>
      </trkpt>
      <trkpt lat="19.027335" lon="-98.619668">
        <ele>4658.208</ele>
        <time>2020-12-13T14:13:42Z</time>
      </trkpt>
      <trkpt lat="19.027352" lon="-98.619713">
        <ele>4661.065</ele>
        <time>2020-12-13T14:13:49Z</time>
      </trkpt>
      <trkpt lat="19.027329" lon="-98.619756">
        <ele>4661.191</ele>
        <time>2020-12-13T14:14:53Z</time>
      </trkpt>
      <trkpt lat="19.027306" lon="-98.619802">
        <ele>4660.311</ele>
        <time>2020-12-13T14:14:57Z</time>
      </trkpt>
      <trkpt lat="19.027262" lon="-98.619825">
        <ele>4661.472</ele>
        <time>2020-12-13T14:15:53Z</time>
      </trkpt>
      <trkpt lat="19.027207" lon="-98.619863">
        <ele>4664.573</ele>
        <time>2020-12-13T14:19:42Z</time>
      </trkpt>
      <trkpt lat="19.027156" lon="-98.619882">
        <ele>4668.092</ele>
        <time>2020-12-13T14:19:46Z</time>
      </trkpt>
      <trkpt lat="19.027119" lon="-98.619924">
        <ele>4671.348</ele>
        <time>2020-12-13T14:20:28Z</time>
      </trkpt>
      <trkpt lat="19.027086" lon="-98.61997">
        <ele>4673.785</ele>
        <time>2020-12-13T14:20:32Z</time>
      </trkpt>
      <trkpt lat="19.027077" lon="-98.620018">
        <ele>4677.774</ele>
        <time>2020-12-13T14:20:49Z</time>
      </trkpt>
      <trkpt lat="19.027059" lon="-98.620063">
        <ele>4681.756</ele>
        <time>2020-12-13T14:22:55Z</time>
      </trkpt>
      <trkpt lat="19.02703" lon="-98.620102">
        <ele>4684.321</ele>
        <time>2020-12-13T14:23:10Z</time>
      </trkpt>
      <trkpt lat="19.027013" lon="-98.620149">
        <ele>4685.908</ele>
        <time>2020-12-13T14:23:22Z</time>
      </trkpt>
      <trkpt lat="19.027" lon="-98.620196">
        <ele>4687.693</ele>
        <time>2020-12-13T14:24:05Z</time>
      </trkpt>
      <trkpt lat="19.026987" lon="-98.620242">
        <ele>4687.839</ele>
        <time>2020-12-13T14:24:22Z</time>
      </trkpt>
      <trkpt lat="19.026961" lon="-98.620285">
        <ele>4689.559</ele>
        <time>2020-12-13T14:27:21Z</time>
      </trkpt>
      <trkpt lat="19.026924" lon="-98.62032">
        <ele>4691.750</ele>
        <time>2020-12-13T14:27:26Z</time>
      </trkpt>
      <trkpt lat="19.026918" lon="-98.620368">
        <ele>4694.661</ele>
        <time>2020-12-13T14:27:55Z</time>
      </trkpt>
      <trkpt lat="19.026907" lon="-98.62042">
        <ele>4698.640</ele>
        <time>2020-12-13T14:30:22Z</time>
      </trkpt>
      <trkpt lat="19.026899" lon="-98.620467">
        <ele>4702.686</ele>
        <time>2020-12-13T14:30:25Z</time>
      </trkpt>
      <trkpt lat="19.026885" lon="-98.620515">
        <ele>4706.683</ele>
        <time>2020-12-13T14:30:29Z</time>
      </trkpt>
      <trkpt lat="19.026865" lon="-98.62047">
        <ele>4710.633</ele>
        <time>2020-12-13T14:30:34Z</time>
      </trkpt>
      <trkpt lat="19.026833" lon="-98.620504">
        <ele>4714.623</ele>
        <time>2020-12-13T14:34:24Z</time>
      </trkpt>
      <trkpt lat="19.026788" lon="-98.620543">
        <ele>4718.415</ele>
        <time>2020-12-13T14:34:27Z</time>
      </trkpt>
      <trkpt lat="19.026757" lon="-98.620586">
        <ele>4721.108</ele>
        <time>2020-12-13T14:34:31Z</time>
      </trkpt>
      <trkpt lat="19.026735" lon="-98.62063">
        <ele>4725.189</ele>
        <time>2020-12-13T14:34:54Z</time>
      </trkpt>
      <trkpt lat="19.026715" lon="-98.620675">
        <ele>4727.925</ele>
        <time>2020-12-13T14:36:24Z</time>
      </trkpt>
      <trkpt lat="19.026687" lon="-98.620719">
        <ele>4730.815</ele>
        <time>2020-12-13T14:36:55Z</time>
      </trkpt>
      <trkpt lat="19.02666" lon="-98.620759">
        <ele>4732.186</ele>
        <time>2020-12-13T14:36:59Z</time>
      </trkpt>
      <trkpt lat="19.026647" lon="-98.620806">
        <ele>4733.397</ele>
        <time>2020-12-13T14:37:03Z</time>
      </trkpt>
      <trkpt lat="19.026622" lon="-98.620846">
        <ele>4734.826</ele>
        <time>2020-12-13T14:37:07Z</time>
      </trkpt>
      <trkpt lat="19.026576" lon="-98.620882">
        <ele>4738.812</ele>
        <time>2020-12-13T14:39:51Z</time>
      </trkpt>
      <trkpt lat="19.026542" lon="-98.620938">
        <ele>4742.899</ele>
        <time>2020-12-13T14:39:53Z</time>
      </trkpt>
      <trkpt lat="19.026516" lon="-98.620979">
        <ele>4745.772</ele>
        <time>2020-12-13T14:39:56Z</time>
      </trkpt>
      <trkpt lat="19.026475" lon="-98.621001">
        <ele>4748.613</ele>
        <time>2020-12-13T14:40:31Z</time>
      </trkpt>
      <trkpt lat="19.026448" lon="-98.62104">
        <ele>4752.614</ele>
        <time>2020-12-13T14:43:31Z</time>
      </trkpt>
      <trkpt lat="19.026434" lon="-98.621088">
        <ele>4756.608</ele>
        <time>2020-12-13T14:43:34Z</time>
      </trkpt>
      <trkpt lat="19.026401" lon="-98.621124">
        <ele>4760.613</ele>
        <time>2020-12-13T14:43:39Z</time>
      </trkpt>
      <trkpt lat="19.026365" lon="-98.621153">
        <ele>4763.289</ele>
        <time>2020-12-13T14:44:18Z</time>
      </trkpt>
      <trkpt lat="19.026316" lon="-98.621174">
        <ele>4765.129</ele>
        <time>2020-12-13T14:44:55Z</time>
      </trkpt>
      <trkpt lat="19.026274" lon="-98.621193">
        <ele>4767.510</ele>
        <time>2020-12-13T14:45:06Z</time>
      </trkpt>
      <trkpt lat="19.026227" lon="-98.621191">
        <ele>4770.171</ele>
        <time>2020-12-13T14:45:58Z</time>
      </trkpt>
      <trkpt lat="19.026184" lon="-98.621218">
        <ele>4774.170</ele>
        <time>2020-12-13T14:46:17Z</time>
      </trkpt>
      <trkpt lat="19.026144" lon="-98.62124">
        <ele>4777.756</ele>
        <time>2020-12-13T14:47:05Z</time>
      </trkpt>
      <trkpt lat="19.02611" lon="-98.621279">
        <ele>4780.243</ele>
        <time>2020-12-13T14:47:22Z</time>
      </trkpt>
      <trkpt lat="19.026065" lon="-98.621268">
        <ele>4784.216</ele>
        <time>2020-12-13T14:49:04Z</time>
      </trkpt>
      <trkpt lat="19.026104" lon="-98.621299">
        <ele>4786.976</ele>
        <time>2020-12-13T14:50:26Z</time>
      </trkpt>
      <trkpt lat="19.026141" lon="-98.621331">
        <ele>4788.113</ele>
        <time>2020-12-13T14:50:30Z</time>
      </trkpt>
      <trkpt lat="19.026162" lon="-98.621375">
        <ele>4788.008</ele>
        <time>2020-12-13T14:50:35Z</time>
      </trkpt>
      <trkpt lat="19.026206" lon="-98.621396">
        <ele>4787.247</ele>
        <time>2020-12-13T14:50:41Z</time>
      </trkpt>
      <trkpt lat="19.025377" lon="-98.62218">
        <ele>5156.093</ele>
        <time>2020-12-13T14:57:52Z</time>
      </trkpt>
      <trkpt lat="19.025451" lon="-98.622161">
        <ele>5156.423</ele>
        <time>2020-12-13T14:58:00Z</time>
      </trkpt>
      <trkpt lat="19.025505" lon="-98.622023">
        <ele>5163.054</ele>
        <time>2020-12-13T14:58:21Z</time>
      </trkpt>
      <trkpt lat="19.025497" lon="-98.622104">
        <ele>5159.095</ele>
        <time>2020-12-13T14:58:23Z</time>
      </trkpt>
      <trkpt lat="19.025481" lon="-98.622191">
        <ele>5155.044</ele>
        <time>2020-12-13T14:58:25Z</time>
      </trkpt>
      <trkpt lat="19.02547" lon="-98.622241">
        <ele>5153.490</ele>
        <time>2020-12-13T14:58:28Z</time>
      </trkpt>
      <trkpt lat="19.025486" lon="-98.622249">
        <ele>5153.076</ele>
        <time>2020-12-13T14:58:54Z</time>
      </trkpt>
      <trkpt lat="19.025525" lon="-98.622214">
        <ele>5153.290</ele>
        <time>2020-12-13T14:59:20Z</time>
      </trkpt>
      <trkpt lat="19.02556" lon="-98.622174">
        <ele>5153.919</ele>
        <time>2020-12-13T14:59:27Z</time>
      </trkpt>
      <trkpt lat="19.025598" lon="-98.622142">
        <ele>5155.508</ele>
        <time>2020-12-13T14:59:32Z</time>
      </trkpt>
      <trkpt lat="19.025649" lon="-98.622124">
        <ele>5155.743</ele>
        <time>2020-12-13T15:00:10Z</time>
      </trkpt>
      <trkpt lat="19.026007" lon="-98.622108">
        <ele>5152.839</ele>
        <time>2020-12-13T15:00:26Z</time>
      </trkpt>
      <trkpt lat="19.025939" lon="-98.622125">
        <ele>5148.849</ele>
        <time>2020-12-13T15:00:27Z</time>
      </trkpt>
      <trkpt lat="19.025907" lon="-98.62208">
        <ele>5152.070</ele>
        <time>2020-12-13T15:00:29Z</time>
      </trkpt>
      <trkpt lat="19.025864" lon="-98.622064">
        <ele>5154.791</ele>
        <time>2020-12-13T15:00:31Z</time>
      </trkpt>
      <trkpt lat="19.025907" lon="-98.622037">
        <ele>5153.910</ele>
        <time>2020-12-13T15:00:51Z</time>
      </trkpt>
      <trkpt lat="19.025939" lon="-98.621996">
        <ele>5152.226</ele>
        <time>2020-12-13T15:00:54Z</time>
      </trkpt>
      <trkpt lat="19.02597" lon="-98.621959">
        <ele>5153.622</ele>
        <time>2020-12-13T15:01:19Z</time>
      </trkpt>
      <trkpt lat="19.025996" lon="-98.621918">
        <ele>5155.632</ele>
        <time>2020-12-13T15:01:25Z</time>
      </trkpt>
      <trkpt lat="19.026041" lon="-98.621914">
        <ele>5157.292</ele>
        <time>2020-12-13T15:01:34Z</time>
      </trkpt>
      <trkpt lat="19.02607" lon="-98.621875">
        <ele>5159.811</ele>
        <time>2020-12-13T15:02:03Z</time>
      </trkpt>
      <trkpt lat="19.026079" lon="-98.621827">
        <ele>5162.108</ele>
        <time>2020-12-13T15:02:09Z</time>
      </trkpt>
      <trkpt lat="19.026086" lon="-98.621777">
        <ele>5165.519</ele>
        <time>2020-12-13T15:02:48Z</time>
      </trkpt>
      <trkpt lat="19.026121" lon="-98.621745">
        <ele>5166.785</ele>
        <time>2020-12-13T15:02:53Z</time>
      </trkpt>
      <trkpt lat="19.026145" lon="-98.6217">
        <ele>5169.065</ele>
        <time>2020-12-13T15:03:01Z</time>
      </trkpt>
      <trkpt lat="19.026117" lon="-98.621741">
        <ele>5170.476</ele>
        <time>2020-12-13T15:03:10Z</time>
      </trkpt>
      <trkpt lat="19.026148" lon="-98.621699">
        <ele>5174.467</ele>
        <time>2020-12-13T15:03:47Z</time>
      </trkpt>
      <trkpt lat="19.026191" lon="-98.621679">
        <ele>5174.466</ele>
        <time>2020-12-13T15:05:23Z</time>
      </trkpt>
      <trkpt lat="19.026235" lon="-98.62166">
        <ele>5176.042</ele>
        <time>2020-12-13T15:05:51Z</time>
      </trkpt>
      <trkpt lat="19.026276" lon="-98.621641">
        <ele>5177.898</ele>
        <time>2020-12-13T15:06:21Z</time>
      </trkpt>
      <trkpt lat="19.026314" lon="-98.621675">
        <ele>5178.515</ele>
        <time>2020-12-13T15:09:03Z</time>
      </trkpt>
      <trkpt lat="19.02633" lon="-98.62172">
        <ele>5178.965</ele>
        <time>2020-12-13T15:09:09Z</time>
      </trkpt>
      <trkpt lat="19.026371" lon="-98.621761">
        <ele>5177.911</ele>
        <time>2020-12-13T15:09:16Z</time>
      </trkpt>
      <trkpt lat="19.026385" lon="-98.621809">
        <ele>5176.508</ele>
        <time>2020-12-13T15:09:21Z</time>
      </trkpt>
      <trkpt lat="19.026419" lon="-98.621845">
        <ele>5176.117</ele>
        <time>2020-12-13T15:09:32Z</time>
      </trkpt>
      <trkpt lat="19.026428" lon="-98.621897">
        <ele>5176.623</ele>
        <time>2020-12-13T15:09:48Z</time>
      </trkpt>
      <trkpt lat="19.026434" lon="-98.621949">
        <ele>5178.183</ele>
        <time>2020-12-13T15:09:55Z</time>
      </trkpt>
      <trkpt lat="19.026446" lon="-98.622">
        <ele>5179.474</ele>
        <time>2020-12-13T15:10:01Z</time>
      </trkpt>
      <trkpt lat="19.02647" lon="-98.622043">
        <ele>5180.245</ele>
        <time>2020-12-13T15:10:07Z</time>
      </trkpt>
      <trkpt lat="19.026493" lon="-98.622091">
        <ele>5179.114</ele>
        <time>2020-12-13T15:10:13Z</time>
      </trkpt>
      <trkpt lat="19.026515" lon="-98.622137">
        <ele>5178.040</ele>
        <time>2020-12-13T15:10:18Z</time>
      </trkpt>
      <trkpt lat="19.026525" lon="-98.622191">
        <ele>5177.816</ele>
        <time>2020-12-13T15:10:24Z</time>
      </trkpt>
      <trkpt lat="19.026535" lon="-98.622243">
        <ele>5177.767</ele>
        <time>2020-12-13T15:10:32Z</time>
      </trkpt>
      <trkpt lat="19.026549" lon="-98.622294">
        <ele>5178.081</ele>
        <time>2020-12-13T15:10:49Z</time>
      </trkpt>
      <trkpt lat="19.02658" lon="-98.622331">
        <ele>5178.619</ele>
        <time>2020-12-13T15:11:03Z</time>
      </trkpt>
      <trkpt lat="19.026599" lon="-98.622378">
        <ele>5178.608</ele>
        <time>2020-12-13T15:11:12Z</time>
      </trkpt>
      <trkpt lat="19.026626" lon="-98.622416">
        <ele>5178.262</ele>
        <time>2020-12-13T15:11:22Z</time>
      </trkpt>
      <trkpt lat="19.026656" lon="-98.622374">
        <ele>5178.788</ele>
        <time>2020-12-13T15:12:50Z</time>
      </trkpt>
      <trkpt lat="19.026704" lon="-98.622366">
        <ele>5177.068</ele>
        <time>2020-12-13T15:12:56Z</time>
      </trkpt>
      <trkpt lat="19.026748" lon="-98.622389">
        <ele>5175.669</ele>
        <time>2020-12-13T15:13:01Z</time>
      </trkpt>
      <trkpt lat="19.026794" lon="-98.622412">
        <ele>5174.460</ele>
        <time>2020-12-13T15:13:07Z</time>
      </trkpt>
      <trkpt lat="19.026807" lon="-98.622363">
        <ele>5171.759</ele>
        <time>2020-12-13T15:13:24Z</time>
      </trkpt>
      <trkpt lat="19.026856" lon="-98.62235">
        <ele>5168.535</ele>
        <time>2020-12-13T15:13:29Z</time>
      </trkpt>
      <trkpt lat="19.026896" lon="-98.622379">
        <ele>5165.841</ele>
        <time>2020-12-13T15:13:35Z</time>
      </trkpt>
      <trkpt lat="19.02694" lon="-98.622389">
        <ele>5163.458</ele>
        <time>2020-12-13T15:13:49Z</time>
      </trkpt>
      <trkpt lat="19.026988" lon="-98.622369">
        <ele>5161.552</ele>
        <time>2020-12-13T15:13:56Z</time>
      </trkpt>
      <trkpt lat="19.027038" lon="-98.62239">
        <ele>5158.817</ele>
        <time>2020-12-13T15:14:04Z</time>
      </trkpt>
      <trkpt lat="19.027094" lon="-98.62237">
        <ele>5157.608</ele>
        <time>2020-12-13T15:14:10Z</time>
      </trkpt>
      <trkpt lat="19.02714" lon="-98.622356">
        <ele>5154.961</ele>
        <time>2020-12-13T15:14:18Z</time>
      </trkpt>
      <trkpt lat="19.027187" lon="-98.622347">
        <ele>5150.967</ele>
        <time>2020-12-13T15:14:40Z</time>
      </trkpt>
      <trkpt lat="19.027231" lon="-98.622333">
        <ele>5147.357</ele>
        <time>2020-12-13T15:14:46Z</time>
      </trkpt>
      <trkpt lat="19.027272" lon="-98.622304">
        <ele>5143.388</ele>
        <time>2020-12-13T15:15:26Z</time>
      </trkpt>
      <trkpt lat="19.027319" lon="-98.622278">
        <ele>5140.799</ele>
        <time>2020-12-13T15:15:30Z</time>
      </trkpt>
      <trkpt lat="19.02736" lon="-98.622248">
        <ele>5140.358</ele>
        <time>2020-12-13T15:15:35Z</time>
      </trkpt>
      <trkpt lat="19.027392" lon="-98.622213">
        <ele>5139.394</ele>
        <time>2020-12-13T15:15:42Z</time>
      </trkpt>
      <trkpt lat="19.027434" lon="-98.622176">
        <ele>5136.720</ele>
        <time>2020-12-13T15:16:06Z</time>
      </trkpt>
      <trkpt lat="19.027469" lon="-98.622142">
        <ele>5132.714</ele>
        <time>2020-12-13T15:16:16Z</time>
      </trkpt>
      <trkpt lat="19.027505" lon="-98.62211">
        <ele>5128.754</ele>
        <time>2020-12-13T15:16:25Z</time>
      </trkpt>
      <trkpt lat="19.027529" lon="-98.622067">
        <ele>5124.709</ele>
        <time>2020-12-13T15:16:30Z</time>
      </trkpt>
      <trkpt lat="19.027552" lon="-98.622025">
        <ele>5121.508</ele>
        <time>2020-12-13T15:16:34Z</time>
      </trkpt>
      <trkpt lat="19.027583" lon="-98.62199">
        <ele>5117.577</ele>
        <time>2020-12-13T15:16:40Z</time>
      </trkpt>
      <trkpt lat="19.027601" lon="-98.621941">
        <ele>5113.633</ele>
        <time>2020-12-13T15:16:44Z</time>
      </trkpt>
      <trkpt lat="19.027636" lon="-98.621975">
        <ele>5109.663</ele>
        <time>2020-12-13T15:16:57Z</time>
      </trkpt>
      <trkpt lat="19.02768" lon="-98.62199">
        <ele>5105.694</ele>
        <time>2020-12-13T15:17:05Z</time>
      </trkpt>
      <trkpt lat="19.027718" lon="-98.621951">
        <ele>5102.145</ele>
        <time>2020-12-13T15:17:09Z</time>
      </trkpt>
      <trkpt lat="19.027756" lon="-98.621922">
        <ele>5099.244</ele>
        <time>2020-12-13T15:17:12Z</time>
      </trkpt>
      <trkpt lat="19.027804" lon="-98.621891">
        <ele>5096.680</ele>
        <time>2020-12-13T15:17:16Z</time>
      </trkpt>
      <trkpt lat="19.027847" lon="-98.621863">
        <ele>5095.156</ele>
        <time>2020-12-13T15:17:20Z</time>
      </trkpt>
      <trkpt lat="19.027896" lon="-98.621852">
        <ele>5091.156</ele>
        <time>2020-12-13T15:25:41Z</time>
      </trkpt>
      <trkpt lat="19.027948" lon="-98.621834">
        <ele>5087.159</ele>
        <time>2020-12-13T15:25:45Z</time>
      </trkpt>
      <trkpt lat="19.027993" lon="-98.621823">
        <ele>5083.414</ele>
        <time>2020-12-13T15:25:48Z</time>
      </trkpt>
      <trkpt lat="19.028044" lon="-98.62181">
        <ele>5081.208</ele>
        <time>2020-12-13T15:25:51Z</time>
      </trkpt>
      <trkpt lat="19.028088" lon="-98.621791">
        <ele>5078.741</ele>
        <time>2020-12-13T15:25:55Z</time>
      </trkpt>
      <trkpt lat="19.028136" lon="-98.621753">
        <ele>5076.087</ele>
        <time>2020-12-13T15:25:59Z</time>
      </trkpt>
      <trkpt lat="19.028192" lon="-98.621742">
        <ele>5075.247</ele>
        <time>2020-12-13T15:26:02Z</time>
      </trkpt>
      <trkpt lat="19.028237" lon="-98.621728">
        <ele>5073.968</ele>
        <time>2020-12-13T15:26:06Z</time>
      </trkpt>
      <trkpt lat="19.028272" lon="-98.621692">
        <ele>5071.519</ele>
        <time>2020-12-13T15:26:10Z</time>
      </trkpt>
      <trkpt lat="19.028331" lon="-98.621688">
        <ele>5067.588</ele>
        <time>2020-12-13T15:26:32Z</time>
      </trkpt>
      <trkpt lat="19.028377" lon="-98.621696">
        <ele>5063.554</ele>
        <time>2020-12-13T15:26:43Z</time>
      </trkpt>
      <trkpt lat="19.028422" lon="-98.621689">
        <ele>5059.570</ele>
        <time>2020-12-13T15:27:48Z</time>
      </trkpt>
      <trkpt lat="19.029483" lon="-98.621593">
        <ele>4986.157</ele>
        <time>2020-12-13T15:36:06Z</time>
      </trkpt>
      <trkpt lat="19.029526" lon="-98.621567">
        <ele>4982.900</ele>
        <time>2020-12-13T15:37:32Z</time>
      </trkpt>
      <trkpt lat="19.029583" lon="-98.621578">
        <ele>4979.820</ele>
        <time>2020-12-13T15:37:36Z</time>
      </trkpt>
      <trkpt lat="19.029629" lon="-98.621572">
        <ele>4976.308</ele>
        <time>2020-12-13T15:37:40Z</time>
      </trkpt>
      <trkpt lat="19.029675" lon="-98.621566">
        <ele>4974.221</ele>
        <time>2020-12-13T15:37:42Z</time>
      </trkpt>
      <trkpt lat="19.029721" lon="-98.621553">
        <ele>4972.637</ele>
        <time>2020-12-13T15:37:47Z</time>
      </trkpt>
      <trkpt lat="19.029768" lon="-98.621525">
        <ele>4969.647</ele>
        <time>2020-12-13T15:37:52Z</time>
      </trkpt>
      <trkpt lat="19.029822" lon="-98.621511">
        <ele>4967.078</ele>
        <time>2020-12-13T15:37:57Z</time>
      </trkpt>
      <trkpt lat="19.029878" lon="-98.621503">
        <ele>4963.439</ele>
        <time>2020-12-13T15:38:01Z</time>
      </trkpt>
      <trkpt lat="19.02993" lon="-98.621495">
        <ele>4959.438</ele>
        <time>2020-12-13T15:38:05Z</time>
      </trkpt>
      <trkpt lat="19.029986" lon="-98.62148">
        <ele>4956.174</ele>
        <time>2020-12-13T15:38:09Z</time>
      </trkpt>
      <trkpt lat="19.030033" lon="-98.621469">
        <ele>4952.130</ele>
        <time>2020-12-13T15:38:14Z</time>
      </trkpt>
      <trkpt lat="19.030077" lon="-98.621454">
        <ele>4949.763</ele>
        <time>2020-12-13T15:38:35Z</time>
      </trkpt>
      <trkpt lat="19.030124" lon="-98.621445">
        <ele>4947.544</ele>
        <time>2020-12-13T15:38:39Z</time>
      </trkpt>
      <trkpt lat="19.030168" lon="-98.621427">
        <ele>4944.618</ele>
        <time>2020-12-13T15:38:43Z</time>
      </trkpt>
      <trkpt lat="19.030213" lon="-98.62141">
        <ele>4942.808</ele>
        <time>2020-12-13T15:38:47Z</time>
      </trkpt>
      <trkpt lat="19.030259" lon="-98.621393">
        <ele>4938.842</ele>
        <time>2020-12-13T15:39:10Z</time>
      </trkpt>
      <trkpt lat="19.030291" lon="-98.621358">
        <ele>4935.368</ele>
        <time>2020-12-13T15:39:14Z</time>
      </trkpt>
      <trkpt lat="19.030316" lon="-98.62131">
        <ele>4934.838</ele>
        <time>2020-12-13T15:39:26Z</time>
      </trkpt>
      <trkpt lat="19.03033" lon="-98.621264">
        <ele>4933.729</ele>
        <time>2020-12-13T15:39:30Z</time>
      </trkpt>
      <trkpt lat="19.030348" lon="-98.62122">
        <ele>4931.810</ele>
        <time>2020-12-13T15:39:34Z</time>
      </trkpt>
      <trkpt lat="19.030378" lon="-98.62118">
        <ele>4931.159</ele>
        <time>2020-12-13T15:39:42Z</time>
      </trkpt>
      <trkpt lat="19.030424" lon="-98.62116">
        <ele>4928.375</ele>
        <time>2020-12-13T15:40:41Z</time>
      </trkpt>
      <trkpt lat="19.030458" lon="-98.621127">
        <ele>4925.861</ele>
        <time>2020-12-13T15:40:46Z</time>
      </trkpt>
      <trkpt lat="19.030499" lon="-98.621108">
        <ele>4923.562</ele>
        <time>2020-12-13T15:41:03Z</time>
      </trkpt>
      <trkpt lat="19.030524" lon="-98.621059">
        <ele>4920.183</ele>
        <time>2020-12-13T15:41:30Z</time>
      </trkpt>
      <trkpt lat="19.030526" lon="-98.621005">
        <ele>4917.711</ele>
        <time>2020-12-13T15:41:36Z</time>
      </trkpt>
      <trkpt lat="19.030541" lon="-98.620955">
        <ele>4914.608</ele>
        <time>2020-12-13T15:41:42Z</time>
      </trkpt>
      <trkpt lat="19.03055" lon="-98.620907">
        <ele>4910.692</ele>
        <time>2020-12-13T15:41:53Z</time>
      </trkpt>
      <trkpt lat="19.030565" lon="-98.62085">
        <ele>4906.618</ele>
        <time>2020-12-13T15:41:56Z</time>
      </trkpt>
      <trkpt lat="19.030574" lon="-98.620793">
        <ele>4902.688</ele>
        <time>2020-12-13T15:42:01Z</time>
      </trkpt>
      <trkpt lat="19.030596" lon="-98.620747">
        <ele>4899.249</ele>
        <time>2020-12-13T15:42:05Z</time>
      </trkpt>
      <trkpt lat="19.03063" lon="-98.620707">
        <ele>4896.380</ele>
        <time>2020-12-13T15:42:09Z</time>
      </trkpt>
      <trkpt lat="19.03065" lon="-98.620651">
        <ele>4893.049</ele>
        <time>2020-12-13T15:42:13Z</time>
      </trkpt>
      <trkpt lat="19.030664" lon="-98.620595">
        <ele>4889.895</ele>
        <time>2020-12-13T15:42:17Z</time>
      </trkpt>
      <trkpt lat="19.03069" lon="-98.620555">
        <ele>4885.871</ele>
        <time>2020-12-13T15:42:21Z</time>
      </trkpt>
      <trkpt lat="19.030705" lon="-98.620504">
        <ele>4883.537</ele>
        <time>2020-12-13T15:42:25Z</time>
      </trkpt>
      <trkpt lat="19.030733" lon="-98.620466">
        <ele>4882.549</ele>
        <time>2020-12-13T15:42:29Z</time>
      </trkpt>
      <trkpt lat="19.030786" lon="-98.620444">
        <ele>4881.513</ele>
        <time>2020-12-13T15:42:32Z</time>
      </trkpt>
      <trkpt lat="19.030837" lon="-98.620445">
        <ele>4880.908</ele>
        <time>2020-12-13T15:42:36Z</time>
      </trkpt>
      <trkpt lat="19.030877" lon="-98.620418">
        <ele>4878.939</ele>
        <time>2020-12-13T15:42:41Z</time>
      </trkpt>
      <trkpt lat="19.030916" lon="-98.620389">
        <ele>4876.175</ele>
        <time>2020-12-13T15:42:47Z</time>
      </trkpt>
      <trkpt lat="19.030959" lon="-98.620363">
        <ele>4872.495</ele>
        <time>2020-12-13T15:42:53Z</time>
      </trkpt>
      <trkpt lat="19.031001" lon="-98.620338">
        <ele>4868.646</ele>
        <time>2020-12-13T15:43:00Z</time>
      </trkpt>
      <trkpt lat="19.031047" lon="-98.620302">
        <ele>4864.647</ele>
        <time>2020-12-13T15:43:07Z</time>
      </trkpt>
      <trkpt lat="19.031084" lon="-98.620258">
        <ele>4860.796</ele>
        <time>2020-12-13T15:43:11Z</time>
      </trkpt>
      <trkpt lat="19.031108" lon="-98.620217">
        <ele>4857.682</ele>
        <time>2020-12-13T15:43:18Z</time>
      </trkpt>
      <trkpt lat="19.03115" lon="-98.620235">
        <ele>4857.758</ele>
        <time>2020-12-13T15:43:52Z</time>
      </trkpt>
      <trkpt lat="19.031186" lon="-98.620199">
        <ele>4856.657</ele>
        <time>2020-12-13T15:43:58Z</time>
      </trkpt>
      <trkpt lat="19.031212" lon="-98.620156">
        <ele>4854.700</ele>
        <time>2020-12-13T15:44:18Z</time>
      </trkpt>
      <trkpt lat="19.031254" lon="-98.620137">
        <ele>4851.620</ele>
        <time>2020-12-13T15:44:27Z</time>
      </trkpt>
      <trkpt lat="19.031302" lon="-98.620126">
        <ele>4848.508</ele>
        <time>2020-12-13T15:44:39Z</time>
      </trkpt>
      <trkpt lat="19.031348" lon="-98.620118">
        <ele>4847.551</ele>
        <time>2020-12-13T15:45:13Z</time>
      </trkpt>
      <trkpt lat="19.031386" lon="-98.620152">
        <ele>4846.997</ele>
        <time>2020-12-13T15:45:17Z</time>
      </trkpt>
      <trkpt lat="19.031422" lon="-98.620211">
        <ele>4845.777</ele>
        <time>2020-12-13T15:45:21Z</time>
      </trkpt>
      <trkpt lat="19.031444" lon="-98.620263">
        <ele>4845.498</ele>
        <time>2020-12-13T15:45:25Z</time>
      </trkpt>
      <trkpt lat="19.031492" lon="-98.620281">
        <ele>4842.059</ele>
        <time>2020-12-13T15:45:31Z</time>
      </trkpt>
      <trkpt lat="19.031546" lon="-98.620301">
        <ele>4839.638</ele>
        <time>2020-12-13T15:45:36Z</time>
      </trkpt>
      <trkpt lat="19.031592" lon="-98.620334">
        <ele>4837.734</ele>
        <time>2020-12-13T15:45:40Z</time>
      </trkpt>
      <trkpt lat="19.031634" lon="-98.620357">
        <ele>4837.050</ele>
        <time>2020-12-13T15:45:44Z</time>
      </trkpt>
      <trkpt lat="19.031678" lon="-98.620334">
        <ele>4835.424</ele>
        <time>2020-12-13T15:45:51Z</time>
      </trkpt>
      <trkpt lat="19.031729" lon="-98.620353">
        <ele>4831.404</ele>
        <time>2020-12-13T15:46:03Z</time>
      </trkpt>
      <trkpt lat="19.031775" lon="-98.620344">
        <ele>4828.414</ele>
        <time>2020-12-13T15:46:10Z</time>
      </trkpt>
      <trkpt lat="19.031821" lon="-98.620325">
        <ele>4824.608</ele>
        <time>2020-12-13T15:46:12Z</time>
      </trkpt>
      <trkpt lat="19.031855" lon="-98.620281">
        <ele>4821.928</ele>
        <time>2020-12-13T15:46:16Z</time>
      </trkpt>
      <trkpt lat="19.031887" lon="-98.620243">
        <ele>4817.994</ele>
        <time>2020-12-13T15:46:21Z</time>
      </trkpt>
      <trkpt lat="19.031934" lon="-98.620215">
        <ele>4813.914</ele>
        <time>2020-12-13T15:46:27Z</time>
      </trkpt>
      <trkpt lat="19.031981" lon="-98.620198">
        <ele>4809.925</ele>
        <time>2020-12-13T15:46:32Z</time>
      </trkpt>
      <trkpt lat="19.032022" lon="-98.62022">
        <ele>4805.976</ele>
        <time>2020-12-13T15:46:46Z</time>
      </trkpt>
      <trkpt lat="19.032076" lon="-98.620204">
        <ele>4801.925</ele>
        <time>2020-12-13T15:46:50Z</time>
      </trkpt>
      <trkpt lat="19.032127" lon="-98.620191">
        <ele>4797.921</ele>
        <time>2020-12-13T15:46:56Z</time>
      </trkpt>
      <trkpt lat="19.032174" lon="-98.620176">
        <ele>4793.917</ele>
        <time>2020-12-13T15:47:00Z</time>
      </trkpt>
      <trkpt lat="19.032206" lon="-98.620139">
        <ele>4789.973</ele>
        <time>2020-12-13T15:47:13Z</time>
      </trkpt>
      <trkpt lat="19.032254" lon="-98.620125">
        <ele>4786.385</ele>
        <time>2020-12-13T15:47:18Z</time>
      </trkpt>
      <trkpt lat="19.032296" lon="-98.620106">
        <ele>4782.913</ele>
        <time>2020-12-13T15:47:25Z</time>
      </trkpt>
      <trkpt lat="19.03234" lon="-98.620092">
        <ele>4779.708</ele>
        <time>2020-12-13T15:47:31Z</time>
      </trkpt>
      <trkpt lat="19.032385" lon="-98.620088">
        <ele>4777.853</ele>
        <time>2020-12-13T15:47:36Z</time>
      </trkpt>
      <trkpt lat="19.032431" lon="-98.620095">
        <ele>4775.479</ele>
        <time>2020-12-13T15:47:40Z</time>
      </trkpt>
      <trkpt lat="19.032467" lon="-98.620059">
        <ele>4772.819</ele>
        <time>2020-12-13T15:47:47Z</time>
      </trkpt>
      <trkpt lat="19.032494" lon="-98.620013">
        <ele>4770.090</ele>
        <time>2020-12-13T15:47:51Z</time>
      </trkpt>
      <trkpt lat="19.032541" lon="-98.619995">
        <ele>4767.171</ele>
        <time>2020-12-13T15:47:56Z</time>
      </trkpt>
      <trkpt lat="19.032584" lon="-98.619965">
        <ele>4763.190</ele>
        <time>2020-12-13T15:48:03Z</time>
      </trkpt>
      <trkpt lat="19.032587" lon="-98.619914">
        <ele>4759.166</ele>
        <time>2020-12-13T15:48:06Z</time>
      </trkpt>
      <trkpt lat="19.0326" lon="-98.619867">
        <ele>4756.292</ele>
        <time>2020-12-13T15:48:09Z</time>
      </trkpt>
      <trkpt lat="19.032619" lon="-98.619818">
        <ele>4754.486</ele>
        <time>2020-12-13T15:48:13Z</time>
      </trkpt>
      <trkpt lat="19.032643" lon="-98.61976">
        <ele>4752.560</ele>
        <time>2020-12-13T15:48:17Z</time>
      </trkpt>
      <trkpt lat="19.032666" lon="-98.619707">
        <ele>4749.026</ele>
        <time>2020-12-13T15:48:21Z</time>
      </trkpt>
      <trkpt lat="19.032711" lon="-98.619677">
        <ele>4745.308</ele>
        <time>2020-12-13T15:48:28Z</time>
      </trkpt>
      <trkpt lat="19.03274" lon="-98.619633">
        <ele>4743.564</ele>
        <time>2020-12-13T15:48:32Z</time>
      </trkpt>
      <trkpt lat="19.032772" lon="-98.619598">
        <ele>4740.850</ele>
        <time>2020-12-13T15:48:37Z</time>
      </trkpt>
      <trkpt lat="19.032814" lon="-98.619576">
        <ele>4740.420</ele>
        <time>2020-12-13T15:48:44Z</time>
      </trkpt>
      <trkpt lat="19.032862" lon="-98.619582">
        <ele>4739.841</ele>
        <time>2020-12-13T15:48:50Z</time>
      </trkpt>
      <trkpt lat="19.032921" lon="-98.619577">
        <ele>4739.042</ele>
        <time>2020-12-13T15:48:53Z</time>
      </trkpt>
      <trkpt lat="19.032968" lon="-98.619567">
        <ele>4738.111</ele>
        <time>2020-12-13T15:48:56Z</time>
      </trkpt>
      <trkpt lat="19.033011" lon="-98.619588">
        <ele>4735.287</ele>
        <time>2020-12-13T15:49:01Z</time>
      </trkpt>
      <trkpt lat="19.033062" lon="-98.619576">
        <ele>4733.463</ele>
        <time>2020-12-13T15:49:08Z</time>
      </trkpt>
      <trkpt lat="19.033107" lon="-98.61958">
        <ele>4731.115</ele>
        <time>2020-12-13T15:49:14Z</time>
      </trkpt>
      <trkpt lat="19.033157" lon="-98.619589">
        <ele>4727.365</ele>
        <time>2020-12-13T15:49:22Z</time>
      </trkpt>
      <trkpt lat="19.033197" lon="-98.619619">
        <ele>4724.611</ele>
        <time>2020-12-13T15:49:25Z</time>
      </trkpt>
      <trkpt lat="19.033239" lon="-98.619643">
        <ele>4722.208</ele>
        <time>2020-12-13T15:49:29Z</time>
      </trkpt>
      <trkpt lat="19.03329" lon="-98.619672">
        <ele>4718.867</ele>
        <time>2020-12-13T15:49:33Z</time>
      </trkpt>
      <trkpt lat="19.033338" lon="-98.619638">
        <ele>4716.363</ele>
        <time>2020-12-13T15:49:37Z</time>
      </trkpt>
      <trkpt lat="19.033385" lon="-98.619662">
        <ele>4714.033</ele>
        <time>2020-12-13T15:49:49Z</time>
      </trkpt>
      <trkpt lat="19.033399" lon="-98.619715">
        <ele>4712.684</ele>
        <time>2020-12-13T15:49:53Z</time>
      </trkpt>
      <trkpt lat="19.033409" lon="-98.619769">
        <ele>4713.425</ele>
        <time>2020-12-13T15:49:56Z</time>
      </trkpt>
      <trkpt lat="19.03344" lon="-98.619822">
        <ele>4712.754</ele>
        <time>2020-12-13T15:50:00Z</time>
      </trkpt>
      <trkpt lat="19.033482" lon="-98.619848">
        <ele>4710.770</ele>
        <time>2020-12-13T15:50:05Z</time>
      </trkpt>
      <trkpt lat="19.033533" lon="-98.619862">
        <ele>4708.746</ele>
        <time>2020-12-13T15:50:10Z</time>
      </trkpt>
      <trkpt lat="19.033583" lon="-98.619884">
        <ele>4706.384</ele>
        <time>2020-12-13T15:50:14Z</time>
      </trkpt>
      <trkpt lat="19.033634" lon="-98.619892">
        <ele>4704.907</ele>
        <time>2020-12-13T15:50:17Z</time>
      </trkpt>
      <trkpt lat="19.033684" lon="-98.619888">
        <ele>4702.417</ele>
        <time>2020-12-13T15:50:20Z</time>
      </trkpt>
      <trkpt lat="19.033732" lon="-98.619887">
        <ele>4698.908</ele>
        <time>2020-12-13T15:50:29Z</time>
      </trkpt>
      <trkpt lat="19.033765" lon="-98.619848">
        <ele>4694.994</ele>
        <time>2020-12-13T15:50:44Z</time>
      </trkpt>
      <trkpt lat="19.033824" lon="-98.619841">
        <ele>4690.960</ele>
        <time>2020-12-13T15:50:50Z</time>
      </trkpt>
      <trkpt lat="19.033869" lon="-98.619842">
        <ele>4687.640</ele>
        <time>2020-12-13T15:50:54Z</time>
      </trkpt>
      <trkpt lat="19.03392" lon="-98.619833">
        <ele>4683.641</ele>
        <time>2020-12-13T15:51:04Z</time>
      </trkpt>
      <trkpt lat="19.033964" lon="-98.619813">
        <ele>4680.082</ele>
        <time>2020-12-13T15:51:09Z</time>
      </trkpt>
      <trkpt lat="19.034009" lon="-98.619796">
        <ele>4678.371</ele>
        <time>2020-12-13T15:51:38Z</time>
      </trkpt>
      <trkpt lat="19.034062" lon="-98.619789">
        <ele>4676.987</ele>
        <time>2020-12-13T15:52:07Z</time>
      </trkpt>
      <trkpt lat="19.034106" lon="-98.619773">
        <ele>4672.953</ele>
        <time>2020-12-13T15:52:20Z</time>
      </trkpt>
      <trkpt lat="19.034147" lon="-98.619751">
        <ele>4668.994</ele>
        <time>2020-12-13T15:52:24Z</time>
      </trkpt>
      <trkpt lat="19.034185" lon="-98.619717">
        <ele>4665.257</ele>
        <time>2020-12-13T15:52:29Z</time>
      </trkpt>
      <trkpt lat="19.034227" lon="-98.619749">
        <ele>4664.622</ele>
        <time>2020-12-13T15:52:35Z</time>
      </trkpt>
      <trkpt lat="19.034267" lon="-98.619781">
        <ele>4665.008</ele>
        <time>2020-12-13T15:52:39Z</time>
      </trkpt>
      <trkpt lat="19.034313" lon="-98.619785">
        <ele>4664.195</ele>
        <time>2020-12-13T15:52:44Z</time>
      </trkpt>
      <trkpt lat="19.03436" lon="-98.619789">
        <ele>4662.371</ele>
        <time>2020-12-13T15:52:48Z</time>
      </trkpt>
      <trkpt lat="19.034416" lon="-98.619791">
        <ele>4659.621</ele>
        <time>2020-12-13T15:52:52Z</time>
      </trkpt>
      <trkpt lat="19.03447" lon="-98.619782">
        <ele>4657.642</ele>
        <time>2020-12-13T15:52:56Z</time>
      </trkpt>
      <trkpt lat="19.034507" lon="-98.619755">
        <ele>4654.863</ele>
        <time>2020-12-13T15:53:00Z</time>
      </trkpt>
      <trkpt lat="19.034556" lon="-98.619738">
        <ele>4651.162</ele>
        <time>2020-12-13T15:53:07Z</time>
      </trkpt>
      <trkpt lat="19.034593" lon="-98.619703">
        <ele>4647.128</ele>
        <time>2020-12-13T15:53:13Z</time>
      </trkpt>
      <trkpt lat="19.034635" lon="-98.619723">
        <ele>4645.344</ele>
        <time>2020-12-13T15:53:18Z</time>
      </trkpt>
      <trkpt lat="19.034686" lon="-98.619731">
        <ele>4644.686</ele>
        <time>2020-12-13T15:53:25Z</time>
      </trkpt>
      <trkpt lat="19.034736" lon="-98.619724">
        <ele>4641.860</ele>
        <time>2020-12-13T15:53:30Z</time>
      </trkpt>
      <trkpt lat="19.034788" lon="-98.619716">
        <ele>4640.526</ele>
        <time>2020-12-13T15:53:34Z</time>
      </trkpt>
      <trkpt lat="19.034827" lon="-98.619682">
        <ele>4637.708</ele>
        <time>2020-12-13T15:53:40Z</time>
      </trkpt>
      <trkpt lat="19.034879" lon="-98.619694">
        <ele>4635.294</ele>
        <time>2020-12-13T15:53:47Z</time>
      </trkpt>
      <trkpt lat="19.034917" lon="-98.619722">
        <ele>4632.540</ele>
        <time>2020-12-13T15:53:51Z</time>
      </trkpt>
      <trkpt lat="19.034962" lon="-98.619734">
        <ele>4629.320</ele>
        <time>2020-12-13T15:53:57Z</time>
      </trkpt>
      <trkpt lat="19.035017" lon="-98.619756">
        <ele>4627.441</ele>
        <time>2020-12-13T15:54:01Z</time>
      </trkpt>
      <trkpt lat="19.035071" lon="-98.61979">
        <ele>4626.682</ele>
        <time>2020-12-13T15:54:04Z</time>
      </trkpt>
      <trkpt lat="19.035119" lon="-98.619785">
        <ele>4623.311</ele>
        <time>2020-12-13T15:54:10Z</time>
      </trkpt>
      <trkpt lat="19.035166" lon="-98.61981">
        <ele>4620.567</ele>
        <time>2020-12-13T15:54:27Z</time>
      </trkpt>
      <trkpt lat="19.03522" lon="-98.619815">
        <ele>4618.093</ele>
        <time>2020-12-13T15:54:33Z</time>
      </trkpt>
      <trkpt lat="19.035265" lon="-98.619839">
        <ele>4616.129</ele>
        <time>2020-12-13T15:54:37Z</time>
      </trkpt>
      <trkpt lat="19.035305" lon="-98.619864">
        <ele>4615.800</ele>
        <time>2020-12-13T15:54:41Z</time>
      </trkpt>
      <trkpt lat="19.035357" lon="-98.61987">
        <ele>4613.220</ele>
        <time>2020-12-13T15:54:50Z</time>
      </trkpt>
      <trkpt lat="19.035405" lon="-98.619846">
        <ele>4611.208</ele>
        <time>2020-12-13T15:54:54Z</time>
      </trkpt>
      <trkpt lat="19.035452" lon="-98.619843">
        <ele>4608.438</ele>
        <time>2020-12-13T15:54:58Z</time>
      </trkpt>
      <trkpt lat="19.0355" lon="-98.619848">
        <ele>4605.924</ele>
        <time>2020-12-13T15:55:05Z</time>
      </trkpt>
      <trkpt lat="19.035551" lon="-98.619852">
        <ele>4605.244</ele>
        <time>2020-12-13T15:55:12Z</time>
      </trkpt>
      <trkpt lat="19.035602" lon="-98.619853">
        <ele>4605.215</ele>
        <time>2020-12-13T15:55:20Z</time>
      </trkpt>
      <trkpt lat="19.035648" lon="-98.619857">
        <ele>4604.486</ele>
        <time>2020-12-13T15:55:26Z</time>
      </trkpt>
      <trkpt lat="19.035668" lon="-98.619805">
        <ele>4600.435</ele>
        <time>2020-12-13T15:55:49Z</time>
      </trkpt>
      <trkpt lat="19.035691" lon="-98.619762">
        <ele>4597.981</ele>
        <time>2020-12-13T15:55:54Z</time>
      </trkpt>
      <trkpt lat="19.035711" lon="-98.619719">
        <ele>4596.037</ele>
        <time>2020-12-13T15:55:59Z</time>
      </trkpt>
      <trkpt lat="19.035732" lon="-98.619673">
        <ele>4593.785</ele>
        <time>2020-12-13T15:56:06Z</time>
      </trkpt>
      <trkpt lat="19.035778" lon="-98.619662">
        <ele>4591.189</ele>
        <time>2020-12-13T15:56:14Z</time>
      </trkpt>
      <trkpt lat="19.035817" lon="-98.619625">
        <ele>4589.517</ele>
        <time>2020-12-13T15:56:20Z</time>
      </trkpt>
      <trkpt lat="19.03583" lon="-98.619578">
        <ele>4587.808</ele>
        <time>2020-12-13T15:56:26Z</time>
      </trkpt>
      <trkpt lat="19.03585" lon="-98.619529">
        <ele>4585.674</ele>
        <time>2020-12-13T15:56:30Z</time>
      </trkpt>
      <trkpt lat="19.035868" lon="-98.61948">
        <ele>4582.350</ele>
        <time>2020-12-13T15:56:36Z</time>
      </trkpt>
      <trkpt lat="19.0359" lon="-98.619433">
        <ele>4581.970</ele>
        <time>2020-12-13T15:56:41Z</time>
      </trkpt>
      <trkpt lat="19.035921" lon="-98.619383">
        <ele>4580.591</ele>
        <time>2020-12-13T15:56:46Z</time>
      </trkpt>
      <trkpt lat="19.035932" lon="-98.619333">
        <ele>4578.052</ele>
        <time>2020-12-13T15:56:52Z</time>
      </trkpt>
      <trkpt lat="19.035947" lon="-98.619277">
        <ele>4576.141</ele>
        <time>2020-12-13T15:56:58Z</time>
      </trkpt>
      <trkpt lat="19.035956" lon="-98.619229">
        <ele>4575.097</ele>
        <time>2020-12-13T15:57:01Z</time>
      </trkpt>
      <trkpt lat="19.035963" lon="-98.619177">
        <ele>4574.763</ele>
        <time>2020-12-13T15:57:06Z</time>
      </trkpt>
      <trkpt lat="19.035975" lon="-98.61913">
        <ele>4573.378</ele>
        <time>2020-12-13T15:57:10Z</time>
      </trkpt>
      <trkpt lat="19.035998" lon="-98.619077">
        <ele>4570.933</ele>
        <time>2020-12-13T15:57:15Z</time>
      </trkpt>
      <trkpt lat="19.036014" lon="-98.619026">
        <ele>4568.626</ele>
        <time>2020-12-13T15:57:19Z</time>
      </trkpt>
      <trkpt lat="19.036038" lon="-98.618969">
        <ele>4567.208</ele>
        <time>2020-12-13T15:57:23Z</time>
      </trkpt>
      <trkpt lat="19.036054" lon="-98.618922">
        <ele>4566.033</ele>
        <time>2020-12-13T15:57:27Z</time>
      </trkpt>
      <trkpt lat="19.036091" lon="-98.618879">
        <ele>4565.769</ele>
        <time>2020-12-13T15:57:32Z</time>
      </trkpt>
      <trkpt lat="19.036121" lon="-98.618841">
        <ele>4563.929</ele>
        <time>2020-12-13T15:57:36Z</time>
      </trkpt>
      <trkpt lat="19.036163" lon="-98.618822">
        <ele>4562.840</ele>
        <time>2020-12-13T15:57:40Z</time>
      </trkpt>
      <trkpt lat="19.036202" lon="-98.61879">
        <ele>4559.421</ele>
        <time>2020-12-13T15:57:49Z</time>
      </trkpt>
      <trkpt lat="19.036249" lon="-98.618757">
        <ele>4558.580</ele>
        <time>2020-12-13T15:57:55Z</time>
      </trkpt>
      <trkpt lat="19.036282" lon="-98.618723">
        <ele>4557.256</ele>
        <time>2020-12-13T15:57:59Z</time>
      </trkpt>
      <trkpt lat="19.036324" lon="-98.618697">
        <ele>4556.062</ele>
        <time>2020-12-13T15:58:03Z</time>
      </trkpt>
      <trkpt lat="19.036359" lon="-98.618668">
        <ele>4554.558</ele>
        <time>2020-12-13T15:58:07Z</time>
      </trkpt>
      <trkpt lat="19.036399" lon="-98.618634">
        <ele>4554.052</ele>
        <time>2020-12-13T15:58:12Z</time>
      </trkpt>
      <trkpt lat="19.036444" lon="-98.618624">
        <ele>4553.317</ele>
        <time>2020-12-13T15:58:20Z</time>
      </trkpt>
      <trkpt lat="19.036489" lon="-98.618607">
        <ele>4552.908</ele>
        <time>2020-12-13T15:58:27Z</time>
      </trkpt>
      <trkpt lat="19.036535" lon="-98.618581">
        <ele>4552.241</ele>
        <time>2020-12-13T15:58:33Z</time>
      </trkpt>
      <trkpt lat="19.036583" lon="-98.618564">
        <ele>4551.437</ele>
        <time>2020-12-13T15:58:37Z</time>
      </trkpt>
      <trkpt lat="19.036635" lon="-98.618535">
        <ele>4549.397</ele>
        <time>2020-12-13T15:58:41Z</time>
      </trkpt>
      <trkpt lat="19.03669" lon="-98.618525">
        <ele>4545.358</ele>
        <time>2020-12-13T15:58:45Z</time>
      </trkpt>
      <trkpt lat="19.036721" lon="-98.61848">
        <ele>4541.319</ele>
        <time>2020-12-13T15:58:49Z</time>
      </trkpt>
      <trkpt lat="19.036766" lon="-98.618452">
        <ele>4537.338</ele>
        <time>2020-12-13T15:59:19Z</time>
      </trkpt>
      <trkpt lat="19.036826" lon="-98.618458">
        <ele>4533.374</ele>
        <time>2020-12-13T15:59:22Z</time>
      </trkpt>
      <trkpt lat="19.036884" lon="-98.618466">
        <ele>4530.140</ele>
        <time>2020-12-13T15:59:25Z</time>
      </trkpt>
      <trkpt lat="19.036935" lon="-98.618443">
        <ele>4527.424</ele>
        <time>2020-12-13T15:59:28Z</time>
      </trkpt>
      <trkpt lat="19.03698" lon="-98.618413">
        <ele>4523.404</ele>
        <time>2020-12-13T15:59:31Z</time>
      </trkpt>
      <trkpt lat="19.037026" lon="-98.618384">
        <ele>4519.414</ele>
        <time>2020-12-13T15:59:34Z</time>
      </trkpt>
      <trkpt lat="19.037075" lon="-98.618358">
        <ele>4515.808</ele>
        <time>2020-12-13T15:59:38Z</time>
      </trkpt>
      <trkpt lat="19.037094" lon="-98.618306">
        <ele>4514.048</ele>
        <time>2020-12-13T15:59:42Z</time>
      </trkpt>
      <trkpt lat="19.037119" lon="-98.618263">
        <ele>4512.594</ele>
        <time>2020-12-13T15:59:45Z</time>
      </trkpt>
      <trkpt lat="19.037167" lon="-98.618231">
        <ele>4510.074</ele>
        <time>2020-12-13T15:59:49Z</time>
      </trkpt>
      <trkpt lat="19.037225" lon="-98.618222">
        <ele>4506.045</ele>
        <time>2020-12-13T15:59:53Z</time>
      </trkpt>
      <trkpt lat="19.037277" lon="-98.618198">
        <ele>4502.076</ele>
        <time>2020-12-13T15:59:57Z</time>
      </trkpt>
      <trkpt lat="19.037323" lon="-98.618197">
        <ele>4499.325</ele>
        <time>2020-12-13T16:00:00Z</time>
      </trkpt>
      <trkpt lat="19.037371" lon="-98.618183">
        <ele>4497.781</ele>
        <time>2020-12-13T16:00:03Z</time>
      </trkpt>
      <trkpt lat="19.037411" lon="-98.618158">
        <ele>4494.367</ele>
        <time>2020-12-13T16:00:06Z</time>
      </trkpt>
      <trkpt lat="19.037454" lon="-98.618139">
        <ele>4491.558</ele>
        <time>2020-12-13T16:00:45Z</time>
      </trkpt>
      <trkpt lat="19.037493" lon="-98.618109">
        <ele>4489.852</ele>
        <time>2020-12-13T16:00:49Z</time>
      </trkpt>
      <trkpt lat="19.037535" lon="-98.618075">
        <ele>4487.217</ele>
        <time>2020-12-13T16:00:54Z</time>
      </trkpt>
      <trkpt lat="19.037563" lon="-98.618038">
        <ele>4485.608</ele>
        <time>2020-12-13T16:00:59Z</time>
      </trkpt>
      <trkpt lat="19.037611" lon="-98.618025">
        <ele>4483.551</ele>
        <time>2020-12-13T16:01:05Z</time>
      </trkpt>
      <trkpt lat="19.037663" lon="-98.618009">
        <ele>4481.867</ele>
        <time>2020-12-13T16:01:09Z</time>
      </trkpt>
      <trkpt lat="19.037704" lon="-98.617986">
        <ele>4479.237</ele>
        <time>2020-12-13T16:01:12Z</time>
      </trkpt>
      <trkpt lat="19.037753" lon="-98.617954">
        <ele>4477.298</ele>
        <time>2020-12-13T16:01:15Z</time>
      </trkpt>
      <trkpt lat="19.037809" lon="-98.617937">
        <ele>4474.859</ele>
        <time>2020-12-13T16:01:18Z</time>
      </trkpt>
      <trkpt lat="19.037858" lon="-98.617904">
        <ele>4471.818</ele>
        <time>2020-12-13T16:01:22Z</time>
      </trkpt>
      <trkpt lat="19.037898" lon="-98.61787">
        <ele>4470.094</ele>
        <time>2020-12-13T16:01:25Z</time>
      </trkpt>
      <trkpt lat="19.037948" lon="-98.617861">
        <ele>4468.510</ele>
        <time>2020-12-13T16:01:28Z</time>
      </trkpt>
      <trkpt lat="19.037995" lon="-98.617842">
        <ele>4467.258</ele>
        <time>2020-12-13T16:01:31Z</time>
      </trkpt>
      <trkpt lat="19.038048" lon="-98.61782">
        <ele>4466.452</ele>
        <time>2020-12-13T16:01:34Z</time>
      </trkpt>
      <trkpt lat="19.038097" lon="-98.617792">
        <ele>4465.117</ele>
        <time>2020-12-13T16:01:37Z</time>
      </trkpt>
      <trkpt lat="19.038138" lon="-98.617743">
        <ele>4464.708</ele>
        <time>2020-12-13T16:01:40Z</time>
      </trkpt>
      <trkpt lat="19.038189" lon="-98.617715">
        <ele>4464.551</ele>
        <time>2020-12-13T16:01:43Z</time>
      </trkpt>
      <trkpt lat="19.038245" lon="-98.6177">
        <ele>4463.687</ele>
        <time>2020-12-13T16:01:46Z</time>
      </trkpt>
      <trkpt lat="19.038289" lon="-98.617675">
        <ele>4462.297</ele>
        <time>2020-12-13T16:01:49Z</time>
      </trkpt>
      <trkpt lat="19.038346" lon="-98.617657">
        <ele>4460.268</ele>
        <time>2020-12-13T16:01:53Z</time>
      </trkpt>
      <trkpt lat="19.038393" lon="-98.617644">
        <ele>4458.299</ele>
        <time>2020-12-13T16:01:56Z</time>
      </trkpt>
      <trkpt lat="19.038427" lon="-98.617609">
        <ele>4456.248</ele>
        <time>2020-12-13T16:01:59Z</time>
      </trkpt>
      <trkpt lat="19.038457" lon="-98.617561">
        <ele>4454.644</ele>
        <time>2020-12-13T16:02:02Z</time>
      </trkpt>
      <trkpt lat="19.038489" lon="-98.617507">
        <ele>4452.070</ele>
        <time>2020-12-13T16:02:05Z</time>
      </trkpt>
      <trkpt lat="19.038533" lon="-98.617459">
        <ele>4449.395</ele>
        <time>2020-12-13T16:02:09Z</time>
      </trkpt>
      <trkpt lat="19.038578" lon="-98.617441">
        <ele>4447.349</ele>
        <time>2020-12-13T16:02:11Z</time>
      </trkpt>
      <trkpt lat="19.038628" lon="-98.617427">
        <ele>4445.323</ele>
        <time>2020-12-13T16:02:15Z</time>
      </trkpt>
      <trkpt lat="19.038693" lon="-98.617424">
        <ele>4443.708</ele>
        <time>2020-12-13T16:02:20Z</time>
      </trkpt>
      <trkpt lat="19.03875" lon="-98.617433">
        <ele>4442.325</ele>
        <time>2020-12-13T16:02:22Z</time>
      </trkpt>
      <trkpt lat="19.038795" lon="-98.61744">
        <ele>4441.191</ele>
        <time>2020-12-13T16:02:25Z</time>
      </trkpt>
      <trkpt lat="19.038847" lon="-98.61744">
        <ele>4439.221</ele>
        <time>2020-12-13T16:02:27Z</time>
      </trkpt>
      <trkpt lat="19.038891" lon="-98.617413">
        <ele>4436.062</ele>
        <time>2020-12-13T16:02:32Z</time>
      </trkpt>
      <trkpt lat="19.038938" lon="-98.617393">
        <ele>4433.343</ele>
        <time>2020-12-13T16:02:37Z</time>
      </trkpt>
      <trkpt lat="19.038971" lon="-98.617348">
        <ele>4430.962</ele>
        <time>2020-12-13T16:02:41Z</time>
      </trkpt>
      <trkpt lat="19.038992" lon="-98.617301">
        <ele>4429.038</ele>
        <time>2020-12-13T16:02:44Z</time>
      </trkpt>
      <trkpt lat="19.039022" lon="-98.617264">
        <ele>4427.144</ele>
        <time>2020-12-13T16:02:47Z</time>
      </trkpt>
      <trkpt lat="19.039065" lon="-98.617235">
        <ele>4425.674</ele>
        <time>2020-12-13T16:02:50Z</time>
      </trkpt>
      <trkpt lat="19.039114" lon="-98.617201">
        <ele>4422.756</ele>
        <time>2020-12-13T16:02:54Z</time>
      </trkpt>
      <trkpt lat="19.039164" lon="-98.617188">
        <ele>4420.521</ele>
        <time>2020-12-13T16:02:58Z</time>
      </trkpt>
      <trkpt lat="19.039219" lon="-98.617177">
        <ele>4418.408</ele>
        <time>2020-12-13T16:03:02Z</time>
      </trkpt>
      <trkpt lat="19.039249" lon="-98.617139">
        <ele>4415.143</ele>
        <time>2020-12-13T16:03:08Z</time>
      </trkpt>
      <trkpt lat="19.039281" lon="-98.617094">
        <ele>4412.379</ele>
        <time>2020-12-13T16:03:13Z</time>
      </trkpt>
      <trkpt lat="19.039329" lon="-98.61707">
        <ele>4409.819</ele>
        <time>2020-12-13T16:03:17Z</time>
      </trkpt>
      <trkpt lat="19.039371" lon="-98.617042">
        <ele>4407.910</ele>
        <time>2020-12-13T16:03:21Z</time>
      </trkpt>
      <trkpt lat="19.039412" lon="-98.617012">
        <ele>4406.441</ele>
        <time>2020-12-13T16:03:25Z</time>
      </trkpt>
      <trkpt lat="19.039464" lon="-98.616978">
        <ele>4405.160</ele>
        <time>2020-12-13T16:03:29Z</time>
      </trkpt>
      <trkpt lat="19.039519" lon="-98.616966">
        <ele>4404.726</ele>
        <time>2020-12-13T16:03:32Z</time>
      </trkpt>
      <trkpt lat="19.039571" lon="-98.616967">
        <ele>4404.122</ele>
        <time>2020-12-13T16:03:35Z</time>
      </trkpt>
      <trkpt lat="19.03962" lon="-98.616958">
        <ele>4403.345</ele>
        <time>2020-12-13T16:03:38Z</time>
      </trkpt>
      <trkpt lat="19.039671" lon="-98.616954">
        <ele>4400.847</ele>
        <time>2020-12-13T16:03:45Z</time>
      </trkpt>
      <trkpt lat="19.039703" lon="-98.616996">
        <ele>4399.711</ele>
        <time>2020-12-13T16:03:48Z</time>
      </trkpt>
      <trkpt lat="19.039736" lon="-98.61705">
        <ele>4399.108</ele>
        <time>2020-12-13T16:03:51Z</time>
      </trkpt>
      <trkpt lat="19.039777" lon="-98.617088">
        <ele>4398.770</ele>
        <time>2020-12-13T16:03:54Z</time>
      </trkpt>
      <trkpt lat="19.039819" lon="-98.617119">
        <ele>4396.996</ele>
        <time>2020-12-13T16:03:57Z</time>
      </trkpt>
      <trkpt lat="19.039866" lon="-98.617141">
        <ele>4394.616</ele>
        <time>2020-12-13T16:04:00Z</time>
      </trkpt>
      <trkpt lat="19.039915" lon="-98.617148">
        <ele>4392.887</ele>
        <time>2020-12-13T16:04:03Z</time>
      </trkpt>
      <trkpt lat="19.039959" lon="-98.617139">
        <ele>4390.598</ele>
        <time>2020-12-13T16:04:06Z</time>
      </trkpt>
      <trkpt lat="19.04001" lon="-98.617141">
        <ele>4388.717</ele>
        <time>2020-12-13T16:04:10Z</time>
      </trkpt>
      <trkpt lat="19.040055" lon="-98.617137">
        <ele>4387.693</ele>
        <time>2020-12-13T16:04:14Z</time>
      </trkpt>
      <trkpt lat="19.040106" lon="-98.617145">
        <ele>4385.099</ele>
        <time>2020-12-13T16:04:19Z</time>
      </trkpt>
      <trkpt lat="19.040162" lon="-98.61714">
        <ele>4383.824</ele>
        <time>2020-12-13T16:04:22Z</time>
      </trkpt>
      <trkpt lat="19.040217" lon="-98.617145">
        <ele>4383.104</ele>
        <time>2020-12-13T16:04:25Z</time>
      </trkpt>
      <trkpt lat="19.040264" lon="-98.617143">
        <ele>4382.314</ele>
        <time>2020-12-13T16:04:30Z</time>
      </trkpt>
      <trkpt lat="19.040309" lon="-98.617155">
        <ele>4381.808</ele>
        <time>2020-12-13T16:04:35Z</time>
      </trkpt>
      <trkpt lat="19.04035" lon="-98.617134">
        <ele>4380.738</ele>
        <time>2020-12-13T16:04:39Z</time>
      </trkpt>
      <trkpt lat="19.040404" lon="-98.617128">
        <ele>4378.884</ele>
        <time>2020-12-13T16:04:43Z</time>
      </trkpt>
      <trkpt lat="19.04045" lon="-98.617137">
        <ele>4376.184</ele>
        <time>2020-12-13T16:04:47Z</time>
      </trkpt>
      <trkpt lat="19.040489" lon="-98.617108">
        <ele>4372.145</ele>
        <time>2020-12-13T16:04:53Z</time>
      </trkpt>
      <trkpt lat="19.040529" lon="-98.61708">
        <ele>4369.776</ele>
        <time>2020-12-13T16:04:57Z</time>
      </trkpt>
      <trkpt lat="19.040583" lon="-98.617069">
        <ele>4368.245</ele>
        <time>2020-12-13T16:05:01Z</time>
      </trkpt>
      <trkpt lat="19.04063" lon="-98.617072">
        <ele>4367.381</ele>
        <time>2020-12-13T16:05:09Z</time>
      </trkpt>
      <trkpt lat="19.040667" lon="-98.61704">
        <ele>4366.467</ele>
        <time>2020-12-13T16:05:42Z</time>
      </trkpt>
      <trkpt lat="19.040723" lon="-98.61704">
        <ele>4365.079</ele>
        <time>2020-12-13T16:05:46Z</time>
      </trkpt>
      <trkpt lat="19.040776" lon="-98.617053">
        <ele>4363.405</ele>
        <time>2020-12-13T16:05:50Z</time>
      </trkpt>
      <trkpt lat="19.040822" lon="-98.617066">
        <ele>4361.625</ele>
        <time>2020-12-13T16:05:54Z</time>
      </trkpt>
      <trkpt lat="19.040868" lon="-98.617063">
        <ele>4360.108</ele>
        <time>2020-12-13T16:05:59Z</time>
      </trkpt>
      <trkpt lat="19.040898" lon="-98.617019">
        <ele>4359.273</ele>
        <time>2020-12-13T16:06:13Z</time>
      </trkpt>
      <trkpt lat="19.040925" lon="-98.616971">
        <ele>4357.539</ele>
        <time>2020-12-13T16:06:17Z</time>
      </trkpt>
      <trkpt lat="19.040954" lon="-98.616923">
        <ele>4356.139</ele>
        <time>2020-12-13T16:06:21Z</time>
      </trkpt>
      <trkpt lat="19.040994" lon="-98.616875">
        <ele>4355.210</ele>
        <time>2020-12-13T16:06:25Z</time>
      </trkpt>
      <trkpt lat="19.041036" lon="-98.616851">
        <ele>4354.321</ele>
        <time>2020-12-13T16:06:28Z</time>
      </trkpt>
      <trkpt lat="19.041091" lon="-98.61683">
        <ele>4354.510</ele>
        <time>2020-12-13T16:06:32Z</time>
      </trkpt>
      <trkpt lat="19.041135" lon="-98.616788">
        <ele>4352.676</ele>
        <time>2020-12-13T16:06:36Z</time>
      </trkpt>
      <trkpt lat="19.041141" lon="-98.616733">
        <ele>4351.582</ele>
        <time>2020-12-13T16:06:40Z</time>
      </trkpt>
      <trkpt lat="19.041158" lon="-98.616683">
        <ele>4350.815</ele>
        <time>2020-12-13T16:06:45Z</time>
      </trkpt>
      <trkpt lat="19.041214" lon="-98.616662">
        <ele>4350.465</ele>
        <time>2020-12-13T16:06:49Z</time>
      </trkpt>
      <trkpt lat="19.041255" lon="-98.616638">
        <ele>4350.611</ele>
        <time>2020-12-13T16:06:52Z</time>
      </trkpt>
      <trkpt lat="19.041301" lon="-98.616602">
        <ele>4349.908</ele>
        <time>2020-12-13T16:06:56Z</time>
      </trkpt>
      <trkpt lat="19.041315" lon="-98.616555">
        <ele>4348.777</ele>
        <time>2020-12-13T16:06:59Z</time>
      </trkpt>
      <trkpt lat="19.041313" lon="-98.616505">
        <ele>4347.213</ele>
        <time>2020-12-13T16:07:02Z</time>
      </trkpt>
      <trkpt lat="19.041294" lon="-98.616452">
        <ele>4345.543</ele>
        <time>2020-12-13T16:07:06Z</time>
      </trkpt>
      <trkpt lat="19.041284" lon="-98.616402">
        <ele>4344.944</ele>
        <time>2020-12-13T16:07:11Z</time>
      </trkpt>
      <trkpt lat="19.0413" lon="-98.616349">
        <ele>4342.515</ele>
        <time>2020-12-13T16:07:16Z</time>
      </trkpt>
      <trkpt lat="19.04132" lon="-98.61629">
        <ele>4340.774</ele>
        <time>2020-12-13T16:07:20Z</time>
      </trkpt>
      <trkpt lat="19.041348" lon="-98.616248">
        <ele>4340.030</ele>
        <time>2020-12-13T16:07:23Z</time>
      </trkpt>
      <trkpt lat="19.041377" lon="-98.616197">
        <ele>4339.286</ele>
        <time>2020-12-13T16:07:26Z</time>
      </trkpt>
      <trkpt lat="19.041405" lon="-98.616156">
        <ele>4338.768</ele>
        <time>2020-12-13T16:07:28Z</time>
      </trkpt>
      <trkpt lat="19.04144" lon="-98.616116">
        <ele>4338.442</ele>
        <time>2020-12-13T16:07:31Z</time>
      </trkpt>
      <trkpt lat="19.04147" lon="-98.616074">
        <ele>4337.026</ele>
        <time>2020-12-13T16:07:35Z</time>
      </trkpt>
      <trkpt lat="19.041505" lon="-98.616038">
        <ele>4335.408</ele>
        <time>2020-12-13T16:07:39Z</time>
      </trkpt>
      <trkpt lat="19.041542" lon="-98.615997">
        <ele>4334.092</ele>
        <time>2020-12-13T16:07:43Z</time>
      </trkpt>
      <trkpt lat="19.041571" lon="-98.615942">
        <ele>4332.418</ele>
        <time>2020-12-13T16:07:47Z</time>
      </trkpt>
      <trkpt lat="19.041604" lon="-98.615886">
        <ele>4331.418</ele>
        <time>2020-12-13T16:07:50Z</time>
      </trkpt>
      <trkpt lat="19.041632" lon="-98.615842">
        <ele>4330.089</ele>
        <time>2020-12-13T16:07:52Z</time>
      </trkpt>
      <trkpt lat="19.04166" lon="-98.615794">
        <ele>4328.490</ele>
        <time>2020-12-13T16:07:54Z</time>
      </trkpt>
      <trkpt lat="19.041686" lon="-98.615748">
        <ele>4326.629</ele>
        <time>2020-12-13T16:07:56Z</time>
      </trkpt>
      <trkpt lat="19.041724" lon="-98.6157">
        <ele>4324.755</ele>
        <time>2020-12-13T16:07:58Z</time>
      </trkpt>
      <trkpt lat="19.041772" lon="-98.615659">
        <ele>4323.691</ele>
        <time>2020-12-13T16:08:00Z</time>
      </trkpt>
      <trkpt lat="19.041821" lon="-98.615623">
        <ele>4322.599</ele>
        <time>2020-12-13T16:08:02Z</time>
      </trkpt>
      <trkpt lat="19.041872" lon="-98.615586">
        <ele>4321.907</ele>
        <time>2020-12-13T16:08:04Z</time>
      </trkpt>
      <trkpt lat="19.041926" lon="-98.615564">
        <ele>4319.127</ele>
        <time>2020-12-13T16:08:06Z</time>
      </trkpt>
      <trkpt lat="19.041975" lon="-98.615555">
        <ele>4316.208</ele>
        <time>2020-12-13T16:08:08Z</time>
      </trkpt>
      <trkpt lat="19.04202" lon="-98.615542">
        <ele>4314.135</ele>
        <time>2020-12-13T16:08:10Z</time>
      </trkpt>
      <trkpt lat="19.042065" lon="-98.61552">
        <ele>4312.491</ele>
        <time>2020-12-13T16:08:13Z</time>
      </trkpt>
      <trkpt lat="19.042097" lon="-98.615486">
        <ele>4311.441</ele>
        <time>2020-12-13T16:08:14Z</time>
      </trkpt>
      <trkpt lat="19.042125" lon="-98.615438">
        <ele>4310.032</ele>
        <time>2020-12-13T16:08:16Z</time>
      </trkpt>
      <trkpt lat="19.042152" lon="-98.615385">
        <ele>4308.833</ele>
        <time>2020-12-13T16:08:18Z</time>
      </trkpt>
      <trkpt lat="19.042177" lon="-98.61533">
        <ele>4307.752</ele>
        <time>2020-12-13T16:08:20Z</time>
      </trkpt>
      <trkpt lat="19.042204" lon="-98.61527">
        <ele>4307.068</ele>
        <time>2020-12-13T16:08:22Z</time>
      </trkpt>
      <trkpt lat="19.042232" lon="-98.615212">
        <ele>4307.074</ele>
        <time>2020-12-13T16:08:24Z</time>
      </trkpt>
      <trkpt lat="19.042256" lon="-98.615153">
        <ele>4306.214</ele>
        <time>2020-12-13T16:08:26Z</time>
      </trkpt>
      <trkpt lat="19.042275" lon="-98.615096">
        <ele>4305.354</ele>
        <time>2020-12-13T16:08:28Z</time>
      </trkpt>
      <trkpt lat="19.04229" lon="-98.615034">
        <ele>4304.409</ele>
        <time>2020-12-13T16:08:30Z</time>
      </trkpt>
      <trkpt lat="19.042307" lon="-98.614977">
        <ele>4303.408</ele>
        <time>2020-12-13T16:08:32Z</time>
      </trkpt>
      <trkpt lat="19.042326" lon="-98.61493">
        <ele>4302.857</ele>
        <time>2020-12-13T16:08:34Z</time>
      </trkpt>
      <trkpt lat="19.042341" lon="-98.614882">
        <ele>4301.743</ele>
        <time>2020-12-13T16:08:36Z</time>
      </trkpt>
      <trkpt lat="19.042369" lon="-98.61484">
        <ele>4300.613</ele>
        <time>2020-12-13T16:08:39Z</time>
      </trkpt>
      <trkpt lat="19.042411" lon="-98.614792">
        <ele>4299.194</ele>
        <time>2020-12-13T16:08:41Z</time>
      </trkpt>
      <trkpt lat="19.042437" lon="-98.614752">
        <ele>4298.265</ele>
        <time>2020-12-13T16:08:43Z</time>
      </trkpt>
      <trkpt lat="19.042465" lon="-98.614712">
        <ele>4297.794</ele>
        <time>2020-12-13T16:08:45Z</time>
      </trkpt>
      <trkpt lat="19.042495" lon="-98.614671">
        <ele>4296.290</ele>
        <time>2020-12-13T16:08:47Z</time>
      </trkpt>
      <trkpt lat="19.042522" lon="-98.614626">
        <ele>4294.526</ele>
        <time>2020-12-13T16:08:49Z</time>
      </trkpt>
      <trkpt lat="19.042548" lon="-98.614584">
        <ele>4292.327</ele>
        <time>2020-12-13T16:08:51Z</time>
      </trkpt>
      <trkpt lat="19.042576" lon="-98.614544">
        <ele>4291.868</ele>
        <time>2020-12-13T16:08:53Z</time>
      </trkpt>
      <trkpt lat="19.042599" lon="-98.614498">
        <ele>4292.714</ele>
        <time>2020-12-13T16:08:55Z</time>
      </trkpt>
      <trkpt lat="19.042618" lon="-98.614445">
        <ele>4292.808</ele>
        <time>2020-12-13T16:08:57Z</time>
      </trkpt>
      <trkpt lat="19.042636" lon="-98.614394">
        <ele>4292.128</ele>
        <time>2020-12-13T16:08:59Z</time>
      </trkpt>
      <trkpt lat="19.042655" lon="-98.614348">
        <ele>4290.944</ele>
        <time>2020-12-13T16:09:01Z</time>
      </trkpt>
      <trkpt lat="19.042669" lon="-98.614288">
        <ele>4289.084</ele>
        <time>2020-12-13T16:09:04Z</time>
      </trkpt>
      <trkpt lat="19.042665" lon="-98.614226">
        <ele>4287.865</ele>
        <time>2020-12-13T16:09:08Z</time>
      </trkpt>
      <trkpt lat="19.042652" lon="-98.614169">
        <ele>4285.986</ele>
        <time>2020-12-13T16:09:12Z</time>
      </trkpt>
      <trkpt lat="19.042666" lon="-98.614122">
        <ele>4284.845</ele>
        <time>2020-12-13T16:09:18Z</time>
      </trkpt>
      <trkpt lat="19.042715" lon="-98.614136">
        <ele>4282.161</ele>
        <time>2020-12-13T16:09:24Z</time>
      </trkpt>
      <trkpt lat="19.042761" lon="-98.614128">
        <ele>4278.147</ele>
        <time>2020-12-13T16:09:28Z</time>
      </trkpt>
      <trkpt lat="19.042806" lon="-98.614122">
        <ele>4275.387</ele>
        <time>2020-12-13T16:09:30Z</time>
      </trkpt>
      <trkpt lat="19.042857" lon="-98.614128">
        <ele>4273.642</ele>
        <time>2020-12-13T16:09:32Z</time>
      </trkpt>
      <trkpt lat="19.042906" lon="-98.614143">
        <ele>4271.026</ele>
        <time>2020-12-13T16:09:34Z</time>
      </trkpt>
      <trkpt lat="19.042961" lon="-98.614152">
        <ele>4269.808</ele>
        <time>2020-12-13T16:09:37Z</time>
      </trkpt>
      <trkpt lat="19.043008" lon="-98.614162">
        <ele>4268.734</ele>
        <time>2020-12-13T16:09:40Z</time>
      </trkpt>
      <trkpt lat="19.043072" lon="-98.614187">
        <ele>4268.060</ele>
        <time>2020-12-13T16:09:43Z</time>
      </trkpt>
      <trkpt lat="19.043122" lon="-98.614213">
        <ele>4267.210</ele>
        <time>2020-12-13T16:09:45Z</time>
      </trkpt>
      <trkpt lat="19.043173" lon="-98.614239">
        <ele>4265.921</ele>
        <time>2020-12-13T16:09:48Z</time>
      </trkpt>
      <trkpt lat="19.043217" lon="-98.614254">
        <ele>4266.722</ele>
        <time>2020-12-13T16:09:51Z</time>
      </trkpt>
      <trkpt lat="19.043272" lon="-98.614278">
        <ele>4266.011</ele>
        <time>2020-12-13T16:09:54Z</time>
      </trkpt>
      <trkpt lat="19.043316" lon="-98.614294">
        <ele>4265.697</ele>
        <time>2020-12-13T16:09:57Z</time>
      </trkpt>
      <trkpt lat="19.043366" lon="-98.614309">
        <ele>4265.783</ele>
        <time>2020-12-13T16:10:00Z</time>
      </trkpt>
      <trkpt lat="19.043418" lon="-98.614338">
        <ele>4266.241</ele>
        <time>2020-12-13T16:10:04Z</time>
      </trkpt>
      <trkpt lat="19.043461" lon="-98.614366">
        <ele>4266.581</ele>
        <time>2020-12-13T16:10:07Z</time>
      </trkpt>
      <trkpt lat="19.043513" lon="-98.614395">
        <ele>4267.109</ele>
        <time>2020-12-13T16:10:11Z</time>
      </trkpt>
      <trkpt lat="19.04356" lon="-98.614408">
        <ele>4267.008</ele>
        <time>2020-12-13T16:10:15Z</time>
      </trkpt>
      <trkpt lat="19.043604" lon="-98.61444">
        <ele>4267.080</ele>
        <time>2020-12-13T16:10:20Z</time>
      </trkpt>
      <trkpt lat="19.043645" lon="-98.614473">
        <ele>4265.856</ele>
        <time>2020-12-13T16:10:24Z</time>
      </trkpt>
      <trkpt lat="19.043681" lon="-98.614503">
        <ele>4263.976</ele>
        <time>2020-12-13T16:10:29Z</time>
      </trkpt>
      <trkpt lat="19.043724" lon="-98.61452">
        <ele>4261.917</ele>
        <time>2020-12-13T16:10:35Z</time>
      </trkpt>
      <trkpt lat="19.043765" lon="-98.614553">
        <ele>4259.158</ele>
        <time>2020-12-13T16:10:40Z</time>
      </trkpt>
      <trkpt lat="19.043805" lon="-98.614589">
        <ele>4258.667</ele>
        <time>2020-12-13T16:10:44Z</time>
      </trkpt>
      <trkpt lat="19.043834" lon="-98.614635">
        <ele>4257.953</ele>
        <time>2020-12-13T16:10:54Z</time>
      </trkpt>
      <trkpt lat="19.04388" lon="-98.614664">
        <ele>4260.319</ele>
        <time>2020-12-13T16:10:57Z</time>
      </trkpt>
      <trkpt lat="19.04391" lon="-98.614712">
        <ele>4261.394</ele>
        <time>2020-12-13T16:11:00Z</time>
      </trkpt>
      <trkpt lat="19.043935" lon="-98.614759">
        <ele>4261.157</ele>
        <time>2020-12-13T16:11:03Z</time>
      </trkpt>
      <trkpt lat="19.043973" lon="-98.614799">
        <ele>4259.422</ele>
        <time>2020-12-13T16:11:07Z</time>
      </trkpt>
      <trkpt lat="19.044025" lon="-98.614773">
        <ele>4257.208</ele>
        <time>2020-12-13T16:11:14Z</time>
      </trkpt>
      <trkpt lat="19.044059" lon="-98.614736">
        <ele>4254.765</ele>
        <time>2020-12-13T16:11:18Z</time>
      </trkpt>
      <trkpt lat="19.044099" lon="-98.614691">
        <ele>4253.251</ele>
        <time>2020-12-13T16:11:22Z</time>
      </trkpt>
      <trkpt lat="19.044129" lon="-98.614646">
        <ele>4252.751</ele>
        <time>2020-12-13T16:11:25Z</time>
      </trkpt>
      <trkpt lat="19.044145" lon="-98.614591">
        <ele>4250.032</ele>
        <time>2020-12-13T16:11:31Z</time>
      </trkpt>
      <trkpt lat="19.044199" lon="-98.614564">
        <ele>4246.813</ele>
        <time>2020-12-13T16:11:35Z</time>
      </trkpt>
      <trkpt lat="19.044245" lon="-98.614568">
        <ele>4244.172</ele>
        <time>2020-12-13T16:11:38Z</time>
      </trkpt>
      <trkpt lat="19.044303" lon="-98.614587">
        <ele>4241.718</ele>
        <time>2020-12-13T16:11:41Z</time>
      </trkpt>
      <trkpt lat="19.04436" lon="-98.614585">
        <ele>4240.264</ele>
        <time>2020-12-13T16:11:44Z</time>
      </trkpt>
      <trkpt lat="19.044411" lon="-98.614583">
        <ele>4238.532</ele>
        <time>2020-12-13T16:11:47Z</time>
      </trkpt>
      <trkpt lat="19.044459" lon="-98.614563">
        <ele>4235.592</ele>
        <time>2020-12-13T16:11:50Z</time>
      </trkpt>
      <trkpt lat="19.044505" lon="-98.614529">
        <ele>4232.111</ele>
        <time>2020-12-13T16:11:54Z</time>
      </trkpt>
      <trkpt lat="19.044565" lon="-98.614527">
        <ele>4229.308</ele>
        <time>2020-12-13T16:11:57Z</time>
      </trkpt>
      <trkpt lat="19.044628" lon="-98.614545">
        <ele>4226.459</ele>
        <time>2020-12-13T16:12:00Z</time>
      </trkpt>
      <trkpt lat="19.044692" lon="-98.614554">
        <ele>4224.375</ele>
        <time>2020-12-13T16:12:03Z</time>
      </trkpt>
      <trkpt lat="19.044746" lon="-98.614568">
        <ele>4222.685</ele>
        <time>2020-12-13T16:12:06Z</time>
      </trkpt>
      <trkpt lat="19.044798" lon="-98.614589">
        <ele>4221.656</ele>
        <time>2020-12-13T16:12:09Z</time>
      </trkpt>
      <trkpt lat="19.044851" lon="-98.614621">
        <ele>4219.857</ele>
        <time>2020-12-13T16:12:12Z</time>
      </trkpt>
      <trkpt lat="19.044899" lon="-98.614644">
        <ele>4217.166</ele>
        <time>2020-12-13T16:12:15Z</time>
      </trkpt>
      <trkpt lat="19.044941" lon="-98.614664">
        <ele>4215.942</ele>
        <time>2020-12-13T16:12:17Z</time>
      </trkpt>
      <trkpt lat="19.044982" lon="-98.614693">
        <ele>4214.438</ele>
        <time>2020-12-13T16:12:20Z</time>
      </trkpt>
      <trkpt lat="19.045019" lon="-98.614722">
        <ele>4211.543</ele>
        <time>2020-12-13T16:12:24Z</time>
      </trkpt>
      <trkpt lat="19.045068" lon="-98.614732">
        <ele>4208.664</ele>
        <time>2020-12-13T16:12:27Z</time>
      </trkpt>
      <trkpt lat="19.045121" lon="-98.614719">
        <ele>4206.810</ele>
        <time>2020-12-13T16:12:31Z</time>
      </trkpt>
      <trkpt lat="19.045181" lon="-98.614708">
        <ele>4204.508</ele>
        <time>2020-12-13T16:12:35Z</time>
      </trkpt>
      <trkpt lat="19.045232" lon="-98.614709">
        <ele>4201.150</ele>
        <time>2020-12-13T16:12:39Z</time>
      </trkpt>
      <trkpt lat="19.045288" lon="-98.614714">
        <ele>4197.156</ele>
        <time>2020-12-13T16:12:44Z</time>
      </trkpt>
      <trkpt lat="19.045336" lon="-98.614714">
        <ele>4195.996</ele>
        <time>2020-12-13T16:12:47Z</time>
      </trkpt>
      <trkpt lat="19.045384" lon="-98.614723">
        <ele>4195.277</ele>
        <time>2020-12-13T16:12:51Z</time>
      </trkpt>
      <trkpt lat="19.045444" lon="-98.614724">
        <ele>4192.818</ele>
        <time>2020-12-13T16:12:58Z</time>
      </trkpt>
      <trkpt lat="19.045483" lon="-98.614699">
        <ele>4189.787</ele>
        <time>2020-12-13T16:13:01Z</time>
      </trkpt>
      <trkpt lat="19.045527" lon="-98.614676">
        <ele>4187.973</ele>
        <time>2020-12-13T16:13:07Z</time>
      </trkpt>
      <trkpt lat="19.045568" lon="-98.614642">
        <ele>4185.249</ele>
        <time>2020-12-13T16:13:11Z</time>
      </trkpt>
      <trkpt lat="19.045589" lon="-98.614597">
        <ele>4183.618</ele>
        <time>2020-12-13T16:13:16Z</time>
      </trkpt>
      <trkpt lat="19.045622" lon="-98.614565">
        <ele>4182.698</ele>
        <time>2020-12-13T16:13:20Z</time>
      </trkpt>
      <trkpt lat="19.04566" lon="-98.614521">
        <ele>4180.417</ele>
        <time>2020-12-13T16:13:24Z</time>
      </trkpt>
      <trkpt lat="19.045698" lon="-98.614483">
        <ele>4179.108</ele>
        <time>2020-12-13T16:13:28Z</time>
      </trkpt>
      <trkpt lat="19.045736" lon="-98.614449">
        <ele>4178.317</ele>
        <time>2020-12-13T16:13:34Z</time>
      </trkpt>
      <trkpt lat="19.045765" lon="-98.6144">
        <ele>4175.433</ele>
        <time>2020-12-13T16:13:39Z</time>
      </trkpt>
      <trkpt lat="19.045811" lon="-98.614371">
        <ele>4172.563</ele>
        <time>2020-12-13T16:13:44Z</time>
      </trkpt>
      <trkpt lat="19.045853" lon="-98.614342">
        <ele>4170.324</ele>
        <time>2020-12-13T16:13:48Z</time>
      </trkpt>
      <trkpt lat="19.045899" lon="-98.614317">
        <ele>4167.855</ele>
        <time>2020-12-13T16:13:54Z</time>
      </trkpt>
      <trkpt lat="19.04595" lon="-98.614317">
        <ele>4164.714</ele>
        <time>2020-12-13T16:13:59Z</time>
      </trkpt>
      <trkpt lat="19.046002" lon="-98.614331">
        <ele>4162.850</ele>
        <time>2020-12-13T16:14:06Z</time>
      </trkpt>
      <trkpt lat="19.04605" lon="-98.614317">
        <ele>4160.976</ele>
        <time>2020-12-13T16:14:13Z</time>
      </trkpt>
      <trkpt lat="19.046065" lon="-98.614264">
        <ele>4159.893</ele>
        <time>2020-12-13T16:14:17Z</time>
      </trkpt>
      <trkpt lat="19.046086" lon="-98.614217">
        <ele>4159.165</ele>
        <time>2020-12-13T16:14:20Z</time>
      </trkpt>
      <trkpt lat="19.046107" lon="-98.614172">
        <ele>4158.321</ele>
        <time>2020-12-13T16:14:24Z</time>
      </trkpt>
      <trkpt lat="19.046123" lon="-98.614126">
        <ele>4155.808</ele>
        <time>2020-12-13T16:14:29Z</time>
      </trkpt>
      <trkpt lat="19.046171" lon="-98.614134">
        <ele>4153.955</ele>
        <time>2020-12-13T16:14:34Z</time>
      </trkpt>
      <trkpt lat="19.04621" lon="-98.614108">
        <ele>4153.671</ele>
        <time>2020-12-13T16:14:39Z</time>
      </trkpt>
      <trkpt lat="19.04624" lon="-98.614068">
        <ele>4152.221</ele>
        <time>2020-12-13T16:14:44Z</time>
      </trkpt>
      <trkpt lat="19.046286" lon="-98.61404">
        <ele>4151.022</ele>
        <time>2020-12-13T16:14:47Z</time>
      </trkpt>
      <trkpt lat="19.046337" lon="-98.614023">
        <ele>4148.323</ele>
        <time>2020-12-13T16:14:51Z</time>
      </trkpt>
      <trkpt lat="19.046382" lon="-98.614003">
        <ele>4145.972</ele>
        <time>2020-12-13T16:14:56Z</time>
      </trkpt>
      <trkpt lat="19.046427" lon="-98.61398">
        <ele>4144.088</ele>
        <time>2020-12-13T16:15:02Z</time>
      </trkpt>
      <trkpt lat="19.046478" lon="-98.613969">
        <ele>4141.754</ele>
        <time>2020-12-13T16:15:07Z</time>
      </trkpt>
      <trkpt lat="19.046506" lon="-98.613926">
        <ele>4139.588</ele>
        <time>2020-12-13T16:15:11Z</time>
      </trkpt>
      <trkpt lat="19.04654" lon="-98.613884">
        <ele>4137.424</ele>
        <time>2020-12-13T16:15:15Z</time>
      </trkpt>
      <trkpt lat="19.046588" lon="-98.61385">
        <ele>4135.726</ele>
        <time>2020-12-13T16:15:19Z</time>
      </trkpt>
      <trkpt lat="19.046637" lon="-98.613845">
        <ele>4133.508</ele>
        <time>2020-12-13T16:15:22Z</time>
      </trkpt>
      <trkpt lat="19.046683" lon="-98.61385">
        <ele>4132.244</ele>
        <time>2020-12-13T16:15:25Z</time>
      </trkpt>
      <trkpt lat="19.046751" lon="-98.613858">
        <ele>4131.470</ele>
        <time>2020-12-13T16:15:29Z</time>
      </trkpt>
      <trkpt lat="19.046808" lon="-98.613853">
        <ele>4132.130</ele>
        <time>2020-12-13T16:15:31Z</time>
      </trkpt>
      <trkpt lat="19.04686" lon="-98.613854">
        <ele>4133.311</ele>
        <time>2020-12-13T16:15:33Z</time>
      </trkpt>
      <trkpt lat="19.046924" lon="-98.613846">
        <ele>4133.272</ele>
        <time>2020-12-13T16:15:36Z</time>
      </trkpt>
      <trkpt lat="19.046976" lon="-98.613835">
        <ele>4134.071</ele>
        <time>2020-12-13T16:15:39Z</time>
      </trkpt>
      <trkpt lat="19.047013" lon="-98.613803">
        <ele>4133.777</ele>
        <time>2020-12-13T16:15:47Z</time>
      </trkpt>
      <trkpt lat="19.047045" lon="-98.613763">
        <ele>4132.713</ele>
        <time>2020-12-13T16:15:52Z</time>
      </trkpt>
      <trkpt lat="19.047076" lon="-98.613725">
        <ele>4131.793</ele>
        <time>2020-12-13T16:16:00Z</time>
      </trkpt>
      <trkpt lat="19.047128" lon="-98.613703">
        <ele>4130.365</ele>
        <time>2020-12-13T16:16:04Z</time>
      </trkpt>
      <trkpt lat="19.047193" lon="-98.613696">
        <ele>4127.921</ele>
        <time>2020-12-13T16:16:07Z</time>
      </trkpt>
      <trkpt lat="19.047251" lon="-98.613689">
        <ele>4125.608</ele>
        <time>2020-12-13T16:16:10Z</time>
      </trkpt>
      <trkpt lat="19.047297" lon="-98.613681">
        <ele>4123.445</ele>
        <time>2020-12-13T16:16:16Z</time>
      </trkpt>
      <trkpt lat="19.047339" lon="-98.613714">
        <ele>4121.721</ele>
        <time>2020-12-13T16:16:24Z</time>
      </trkpt>
      <trkpt lat="19.047384" lon="-98.61372">
        <ele>4121.191</ele>
        <time>2020-12-13T16:16:31Z</time>
      </trkpt>
      <trkpt lat="19.047407" lon="-98.613677">
        <ele>4119.162</ele>
        <time>2020-12-13T16:16:37Z</time>
      </trkpt>
      <trkpt lat="19.047452" lon="-98.613665">
        <ele>4115.533</ele>
        <time>2020-12-13T16:16:50Z</time>
      </trkpt>
      <trkpt lat="19.047501" lon="-98.613649">
        <ele>4113.052</ele>
        <time>2020-12-13T16:16:54Z</time>
      </trkpt>
      <trkpt lat="19.047536" lon="-98.61361">
        <ele>4110.758</ele>
        <time>2020-12-13T16:17:00Z</time>
      </trkpt>
      <trkpt lat="19.047548" lon="-98.613661">
        <ele>4108.584</ele>
        <time>2020-12-13T16:17:09Z</time>
      </trkpt>
      <trkpt lat="19.047584" lon="-98.613705">
        <ele>4106.481</ele>
        <time>2020-12-13T16:17:14Z</time>
      </trkpt>
      <trkpt lat="19.04761" lon="-98.61375">
        <ele>4105.561</ele>
        <time>2020-12-13T16:17:18Z</time>
      </trkpt>
      <trkpt lat="19.047645" lon="-98.613783">
        <ele>4102.617</ele>
        <time>2020-12-13T16:17:27Z</time>
      </trkpt>
      <trkpt lat="19.047636" lon="-98.613834">
        <ele>4100.808</ele>
        <time>2020-12-13T16:17:33Z</time>
      </trkpt>
      <trkpt lat="19.047676" lon="-98.613857">
        <ele>4098.544</ele>
        <time>2020-12-13T16:17:37Z</time>
      </trkpt>
      <trkpt lat="19.04774" lon="-98.613846">
        <ele>4095.920</ele>
        <time>2020-12-13T16:17:40Z</time>
      </trkpt>
      <trkpt lat="19.047793" lon="-98.613825">
        <ele>4094.870</ele>
        <time>2020-12-13T16:17:42Z</time>
      </trkpt>
      <trkpt lat="19.047832" lon="-98.613801">
        <ele>4094.571</ele>
        <time>2020-12-13T16:17:45Z</time>
      </trkpt>
      <trkpt lat="19.047866" lon="-98.613761">
        <ele>4093.172</ele>
        <time>2020-12-13T16:17:48Z</time>
      </trkpt>
      <trkpt lat="19.047894" lon="-98.613703">
        <ele>4091.581</ele>
        <time>2020-12-13T16:17:52Z</time>
      </trkpt>
      <trkpt lat="19.047926" lon="-98.613652">
        <ele>4090.587</ele>
        <time>2020-12-13T16:17:55Z</time>
      </trkpt>
      <trkpt lat="19.047969" lon="-98.613603">
        <ele>4089.963</ele>
        <time>2020-12-13T16:17:58Z</time>
      </trkpt>
      <trkpt lat="19.048018" lon="-98.613556">
        <ele>4088.489</ele>
        <time>2020-12-13T16:18:01Z</time>
      </trkpt>
      <trkpt lat="19.048071" lon="-98.613511">
        <ele>4085.906</ele>
        <time>2020-12-13T16:18:04Z</time>
      </trkpt>
      <trkpt lat="19.048119" lon="-98.613468">
        <ele>4083.626</ele>
        <time>2020-12-13T16:18:07Z</time>
      </trkpt>
      <trkpt lat="19.048176" lon="-98.613433">
        <ele>4082.208</ele>
        <time>2020-12-13T16:18:10Z</time>
      </trkpt>
      <trkpt lat="19.048221" lon="-98.613416">
        <ele>4080.684</ele>
        <time>2020-12-13T16:18:12Z</time>
      </trkpt>
      <trkpt lat="19.04827" lon="-98.613405">
        <ele>4078.810</ele>
        <time>2020-12-13T16:18:14Z</time>
      </trkpt>
      <trkpt lat="19.048326" lon="-98.613396">
        <ele>4077.310</ele>
        <time>2020-12-13T16:18:16Z</time>
      </trkpt>
      <trkpt lat="19.048387" lon="-98.613381">
        <ele>4075.661</ele>
        <time>2020-12-13T16:18:18Z</time>
      </trkpt>
      <trkpt lat="19.048448" lon="-98.61336">
        <ele>4073.882</ele>
        <time>2020-12-13T16:18:20Z</time>
      </trkpt>
      <trkpt lat="19.048514" lon="-98.613338">
        <ele>4071.931</ele>
        <time>2020-12-13T16:18:22Z</time>
      </trkpt>
      <trkpt lat="19.048574" lon="-98.613316">
        <ele>4070.447</ele>
        <time>2020-12-13T16:18:24Z</time>
      </trkpt>
      <trkpt lat="19.048639" lon="-98.613289">
        <ele>4069.123</ele>
        <time>2020-12-13T16:18:27Z</time>
      </trkpt>
      <trkpt lat="19.048703" lon="-98.613265">
        <ele>4068.749</ele>
        <time>2020-12-13T16:18:28Z</time>
      </trkpt>
      <trkpt lat="19.048771" lon="-98.61324">
        <ele>4068.102</ele>
        <time>2020-12-13T16:18:30Z</time>
      </trkpt>
      <trkpt lat="19.048826" lon="-98.613213">
        <ele>4066.922</ele>
        <time>2020-12-13T16:18:32Z</time>
      </trkpt>
      <trkpt lat="19.048872" lon="-98.613185">
        <ele>4066.208</ele>
        <time>2020-12-13T16:18:34Z</time>
      </trkpt>
      <trkpt lat="19.048916" lon="-98.613161">
        <ele>4065.410</ele>
        <time>2020-12-13T16:18:36Z</time>
      </trkpt>
      <trkpt lat="19.048963" lon="-98.613139">
        <ele>4064.566</ele>
        <time>2020-12-13T16:18:38Z</time>
      </trkpt>
      <trkpt lat="19.049011" lon="-98.613119">
        <ele>4064.496</ele>
        <time>2020-12-13T16:18:40Z</time>
      </trkpt>
      <trkpt lat="19.049062" lon="-98.613099">
        <ele>4063.187</ele>
        <time>2020-12-13T16:18:42Z</time>
      </trkpt>
      <trkpt lat="19.049112" lon="-98.613083">
        <ele>4061.548</ele>
        <time>2020-12-13T16:18:44Z</time>
      </trkpt>
      <trkpt lat="19.049163" lon="-98.613069">
        <ele>4060.277</ele>
        <time>2020-12-13T16:18:46Z</time>
      </trkpt>
      <trkpt lat="19.049219" lon="-98.613052">
        <ele>4059.023</ele>
        <time>2020-12-13T16:18:48Z</time>
      </trkpt>
      <trkpt lat="19.049277" lon="-98.613035">
        <ele>4058.359</ele>
        <time>2020-12-13T16:18:50Z</time>
      </trkpt>
      <trkpt lat="19.04934" lon="-98.613016">
        <ele>4058.335</ele>
        <time>2020-12-13T16:18:52Z</time>
      </trkpt>
      <trkpt lat="19.049401" lon="-98.612996">
        <ele>4057.186</ele>
        <time>2020-12-13T16:18:54Z</time>
      </trkpt>
      <trkpt lat="19.04947" lon="-98.612973">
        <ele>4056.014</ele>
        <time>2020-12-13T16:18:57Z</time>
      </trkpt>
      <trkpt lat="19.049528" lon="-98.612954">
        <ele>4054.108</ele>
        <time>2020-12-13T16:18:58Z</time>
      </trkpt>
      <trkpt lat="19.049589" lon="-98.612934">
        <ele>4052.639</ele>
        <time>2020-12-13T16:19:00Z</time>
      </trkpt>
      <trkpt lat="19.049658" lon="-98.612913">
        <ele>4051.745</ele>
        <time>2020-12-13T16:19:02Z</time>
      </trkpt>
      <trkpt lat="19.049724" lon="-98.612894">
        <ele>4050.855</ele>
        <time>2020-12-13T16:19:04Z</time>
      </trkpt>
      <trkpt lat="19.049789" lon="-98.612883">
        <ele>4049.086</ele>
        <time>2020-12-13T16:19:06Z</time>
      </trkpt>
      <trkpt lat="19.04985" lon="-98.612879">
        <ele>4047.177</ele>
        <time>2020-12-13T16:19:08Z</time>
      </trkpt>
      <trkpt lat="19.04991" lon="-98.612878">
        <ele>4045.246</ele>
        <time>2020-12-13T16:19:10Z</time>
      </trkpt>
      <trkpt lat="19.049969" lon="-98.612879">
        <ele>4043.292</ele>
        <time>2020-12-13T16:19:12Z</time>
      </trkpt>
      <trkpt lat="19.05003" lon="-98.612883">
        <ele>4041.678</ele>
        <time>2020-12-13T16:19:14Z</time>
      </trkpt>
      <trkpt lat="19.050088" lon="-98.612886">
        <ele>4040.356</ele>
        <time>2020-12-13T16:19:16Z</time>
      </trkpt>
      <trkpt lat="19.050144" lon="-98.612887">
        <ele>4038.759</ele>
        <time>2020-12-13T16:19:18Z</time>
      </trkpt>
      <trkpt lat="19.050205" lon="-98.612885">
        <ele>4037.714</ele>
        <time>2020-12-13T16:19:21Z</time>
      </trkpt>
      <trkpt lat="19.050261" lon="-98.612882">
        <ele>4036.308</ele>
        <time>2020-12-13T16:19:25Z</time>
      </trkpt>
      <trkpt lat="19.050217" lon="-98.612894">
        <ele>4032.781</ele>
        <time>2020-12-13T16:19:49Z</time>
      </trkpt>
      <trkpt lat="19.050267" lon="-98.612926">
        <ele>4029.727</ele>
        <time>2020-12-13T16:20:01Z</time>
      </trkpt>
      <trkpt lat="19.050316" lon="-98.61295">
        <ele>4027.587</ele>
        <time>2020-12-13T16:20:05Z</time>
      </trkpt>
      <trkpt lat="19.050367" lon="-98.612944">
        <ele>4026.668</ele>
        <time>2020-12-13T16:20:12Z</time>
      </trkpt>
      <trkpt lat="19.050414" lon="-98.612973">
        <ele>4026.119</ele>
        <time>2020-12-13T16:20:17Z</time>
      </trkpt>
      <trkpt lat="19.050463" lon="-98.612983">
        <ele>4026.268</ele>
        <time>2020-12-13T16:20:32Z</time>
      </trkpt>
      <trkpt lat="19.050488" lon="-98.613024">
        <ele>4025.044</ele>
        <time>2020-12-13T16:20:36Z</time>
      </trkpt>
      <trkpt lat="19.050513" lon="-98.613065">
        <ele>4023.150</ele>
        <time>2020-12-13T16:20:42Z</time>
      </trkpt>
      <trkpt lat="19.050552" lon="-98.613092">
        <ele>4020.476</ele>
        <time>2020-12-13T16:20:52Z</time>
      </trkpt>
      <trkpt lat="19.05058" lon="-98.613147">
        <ele>4018.090</ele>
        <time>2020-12-13T16:20:56Z</time>
      </trkpt>
      <trkpt lat="19.0506" lon="-98.613195">
        <ele>4016.119</ele>
        <time>2020-12-13T16:20:59Z</time>
      </trkpt>
      <trkpt lat="19.050626" lon="-98.613241">
        <ele>4015.808</ele>
        <time>2020-12-13T16:21:03Z</time>
      </trkpt>
      <trkpt lat="19.050647" lon="-98.613284">
        <ele>4014.863</ele>
        <time>2020-12-13T16:21:08Z</time>
      </trkpt>
      <trkpt lat="19.050692" lon="-98.613301">
        <ele>4011.899</ele>
        <time>2020-12-13T16:21:17Z</time>
      </trkpt>
      <trkpt lat="19.050746" lon="-98.613301">
        <ele>4008.849</ele>
        <time>2020-12-13T16:21:20Z</time>
      </trkpt>
      <trkpt lat="19.050792" lon="-98.6133">
        <ele>4006.220</ele>
        <time>2020-12-13T16:21:23Z</time>
      </trkpt>
      <trkpt lat="19.050847" lon="-98.613304">
        <ele>4004.231</ele>
        <time>2020-12-13T16:21:27Z</time>
      </trkpt>
      <trkpt lat="19.050893" lon="-98.613306">
        <ele>4002.640</ele>
        <time>2020-12-13T16:21:30Z</time>
      </trkpt>
      <trkpt lat="19.050944" lon="-98.613294">
        <ele>4001.366</ele>
        <time>2020-12-13T16:21:34Z</time>
      </trkpt>
      <trkpt lat="19.050999" lon="-98.613287">
        <ele>3998.512</ele>
        <time>2020-12-13T16:21:39Z</time>
      </trkpt>
      <trkpt lat="19.05105" lon="-98.613267">
        <ele>3996.061</ele>
        <time>2020-12-13T16:21:44Z</time>
      </trkpt>
      <trkpt lat="19.051099" lon="-98.613274">
        <ele>3994.921</ele>
        <time>2020-12-13T16:22:01Z</time>
      </trkpt>
      <trkpt lat="19.051129" lon="-98.61323">
        <ele>3994.613</ele>
        <time>2020-12-13T16:22:06Z</time>
      </trkpt>
      <trkpt lat="19.051181" lon="-98.613225">
        <ele>3992.808</ele>
        <time>2020-12-13T16:22:12Z</time>
      </trkpt>
      <trkpt lat="19.051213" lon="-98.613189">
        <ele>3990.922</ele>
        <time>2020-12-13T16:22:17Z</time>
      </trkpt>
      <trkpt lat="19.051261" lon="-98.613179">
        <ele>3989.818</ele>
        <time>2020-12-13T16:22:25Z</time>
      </trkpt>
      <trkpt lat="19.051293" lon="-98.613143">
        <ele>3988.748</ele>
        <time>2020-12-13T16:22:30Z</time>
      </trkpt>
      <trkpt lat="19.051308" lon="-98.613194">
        <ele>3986.949</ele>
        <time>2020-12-13T16:22:41Z</time>
      </trkpt>
      <trkpt lat="19.05136" lon="-98.613217">
        <ele>3986.290</ele>
        <time>2020-12-13T16:22:48Z</time>
      </trkpt>
      <trkpt lat="19.051381" lon="-98.613262">
        <ele>3984.659</ele>
        <time>2020-12-13T16:22:52Z</time>
      </trkpt>
      <trkpt lat="19.051381" lon="-98.613314">
        <ele>3984.425</ele>
        <time>2020-12-13T16:22:57Z</time>
      </trkpt>
      <trkpt lat="19.051424" lon="-98.61328">
        <ele>3983.121</ele>
        <time>2020-12-13T16:23:08Z</time>
      </trkpt>
      <trkpt lat="19.051467" lon="-98.613264">
        <ele>3981.931</ele>
        <time>2020-12-13T16:23:11Z</time>
      </trkpt>
      <trkpt lat="19.051519" lon="-98.613274">
        <ele>3980.461</ele>
        <time>2020-12-13T16:23:17Z</time>
      </trkpt>
      <trkpt lat="19.051572" lon="-98.613282">
        <ele>3979.907</ele>
        <time>2020-12-13T16:23:22Z</time>
      </trkpt>
      <trkpt lat="19.051625" lon="-98.613279">
        <ele>3979.208</ele>
        <time>2020-12-13T16:23:26Z</time>
      </trkpt>
      <trkpt lat="19.051674" lon="-98.613269">
        <ele>3978.039</ele>
        <time>2020-12-13T16:23:41Z</time>
      </trkpt>
      <trkpt lat="19.051717" lon="-98.613235">
        <ele>3976.935</ele>
        <time>2020-12-13T16:23:44Z</time>
      </trkpt>
      <trkpt lat="19.051757" lon="-98.613198">
        <ele>3975.415</ele>
        <time>2020-12-13T16:23:48Z</time>
      </trkpt>
      <trkpt lat="19.051798" lon="-98.613177">
        <ele>3973.346</ele>
        <time>2020-12-13T16:23:50Z</time>
      </trkpt>
      <trkpt lat="19.051845" lon="-98.613177">
        <ele>3970.887</ele>
        <time>2020-12-13T16:23:58Z</time>
      </trkpt>
      <trkpt lat="19.0519" lon="-98.613177">
        <ele>3967.326</ele>
        <time>2020-12-13T16:24:12Z</time>
      </trkpt>
      <trkpt lat="19.051949" lon="-98.613198">
        <ele>3963.652</ele>
        <time>2020-12-13T16:24:15Z</time>
      </trkpt>
      <trkpt lat="19.051994" lon="-98.613204">
        <ele>3961.028</ele>
        <time>2020-12-13T16:24:18Z</time>
      </trkpt>
      <trkpt lat="19.052043" lon="-98.613204">
        <ele>3960.233</ele>
        <time>2020-12-13T16:24:21Z</time>
      </trkpt>
      <trkpt lat="19.052107" lon="-98.613202">
        <ele>3959.723</ele>
        <time>2020-12-13T16:24:24Z</time>
      </trkpt>
      <trkpt lat="19.052154" lon="-98.613199">
        <ele>3959.015</ele>
        <time>2020-12-13T16:24:28Z</time>
      </trkpt>
      <trkpt lat="19.052208" lon="-98.613211">
        <ele>3957.808</ele>
        <time>2020-12-13T16:24:32Z</time>
      </trkpt>
      <trkpt lat="19.052248" lon="-98.613178">
        <ele>3953.939</ele>
        <time>2020-12-13T16:24:41Z</time>
      </trkpt>
      <trkpt lat="19.052265" lon="-98.613132">
        <ele>3951.945</ele>
        <time>2020-12-13T16:24:46Z</time>
      </trkpt>
      <trkpt lat="19.052304" lon="-98.613087">
        <ele>3950.755</ele>
        <time>2020-12-13T16:24:54Z</time>
      </trkpt>
      <trkpt lat="19.052359" lon="-98.613066">
        <ele>3950.416</ele>
        <time>2020-12-13T16:24:57Z</time>
      </trkpt>
      <trkpt lat="19.052402" lon="-98.613051">
        <ele>3950.687</ele>
        <time>2020-12-13T16:25:00Z</time>
      </trkpt>
      <trkpt lat="19.052454" lon="-98.613033">
        <ele>3949.976</ele>
        <time>2020-12-13T16:25:05Z</time>
      </trkpt>
      <trkpt lat="19.052499" lon="-98.613007">
        <ele>3948.752</ele>
        <time>2020-12-13T16:25:25Z</time>
      </trkpt>
      <trkpt lat="19.052553" lon="-98.613012">
        <ele>3947.258</ele>
        <time>2020-12-13T16:25:30Z</time>
      </trkpt>
      <trkpt lat="19.05261" lon="-98.613037">
        <ele>3945.168</ele>
        <time>2020-12-13T16:25:34Z</time>
      </trkpt>
      <trkpt lat="19.052644" lon="-98.613073">
        <ele>3944.242</ele>
        <time>2020-12-13T16:25:40Z</time>
      </trkpt>
      <trkpt lat="19.052694" lon="-98.613073">
        <ele>3942.926</ele>
        <time>2020-12-13T16:25:55Z</time>
      </trkpt>
      <trkpt lat="19.052737" lon="-98.61309">
        <ele>3943.308</ele>
        <time>2020-12-13T16:26:03Z</time>
      </trkpt>
      <trkpt lat="19.052788" lon="-98.613115">
        <ele>3942.372</ele>
        <time>2020-12-13T16:26:28Z</time>
      </trkpt>
      <trkpt lat="19.052825" lon="-98.613143">
        <ele>3941.338</ele>
        <time>2020-12-13T16:26:32Z</time>
      </trkpt>
      <trkpt lat="19.052854" lon="-98.613185">
        <ele>3941.148</ele>
        <time>2020-12-13T16:26:40Z</time>
      </trkpt>
      <trkpt lat="19.052914" lon="-98.613193">
        <ele>3941.089</ele>
        <time>2020-12-13T16:26:43Z</time>
      </trkpt>
      <trkpt lat="19.052961" lon="-98.613201">
        <ele>3940.180</ele>
        <time>2020-12-13T16:26:46Z</time>
      </trkpt>
      <trkpt lat="19.053001" lon="-98.613231">
        <ele>3940.449</ele>
        <time>2020-12-13T16:26:49Z</time>
      </trkpt>
      <trkpt lat="19.053032" lon="-98.61327">
        <ele>3941.425</ele>
        <time>2020-12-13T16:26:53Z</time>
      </trkpt>
      <trkpt lat="19.053084" lon="-98.613299">
        <ele>3941.241</ele>
        <time>2020-12-13T16:27:04Z</time>
      </trkpt>
      <trkpt lat="19.053128" lon="-98.613323">
        <ele>3940.346</ele>
        <time>2020-12-13T16:27:08Z</time>
      </trkpt>
      <trkpt lat="19.053167" lon="-98.613352">
        <ele>3940.588</ele>
        <time>2020-12-13T16:27:13Z</time>
      </trkpt>
      <trkpt lat="19.053197" lon="-98.6134">
        <ele>3941.016</ele>
        <time>2020-12-13T16:27:19Z</time>
      </trkpt>
      <trkpt lat="19.053231" lon="-98.613437">
        <ele>3941.708</ele>
        <time>2020-12-13T16:27:23Z</time>
      </trkpt>
      <trkpt lat="19.053278" lon="-98.613446">
        <ele>3940.920</ele>
        <time>2020-12-13T16:27:27Z</time>
      </trkpt>
      <trkpt lat="19.053306" lon="-98.613491">
        <ele>3940.836</ele>
        <time>2020-12-13T16:27:45Z</time>
      </trkpt>
      <trkpt lat="19.053342" lon="-98.613527">
        <ele>3940.876</ele>
        <time>2020-12-13T16:27:51Z</time>
      </trkpt>
      <trkpt lat="19.053378" lon="-98.613572">
        <ele>3940.477</ele>
        <time>2020-12-13T16:27:54Z</time>
      </trkpt>
      <trkpt lat="19.053422" lon="-98.613601">
        <ele>3940.948</ele>
        <time>2020-12-13T16:27:58Z</time>
      </trkpt>
      <trkpt lat="19.053471" lon="-98.613626">
        <ele>3939.287</ele>
        <time>2020-12-13T16:28:30Z</time>
      </trkpt>
      <trkpt lat="19.053494" lon="-98.613677">
        <ele>3939.473</ele>
        <time>2020-12-13T16:28:33Z</time>
      </trkpt>
      <trkpt lat="19.053508" lon="-98.613722">
        <ele>3940.719</ele>
        <time>2020-12-13T16:28:41Z</time>
      </trkpt>
      <trkpt lat="19.053494" lon="-98.613778">
        <ele>3941.554</ele>
        <time>2020-12-13T16:28:46Z</time>
      </trkpt>
      <trkpt lat="19.053504" lon="-98.613837">
        <ele>3943.256</ele>
        <time>2020-12-13T16:28:50Z</time>
      </trkpt>
      <trkpt lat="19.053542" lon="-98.613871">
        <ele>3944.211</ele>
        <time>2020-12-13T16:28:52Z</time>
      </trkpt>
      <trkpt lat="19.053583" lon="-98.613895">
        <ele>3944.808</ele>
        <time>2020-12-13T16:28:55Z</time>
      </trkpt>
      <trkpt lat="19.053635" lon="-98.613945">
        <ele>3945.691</ele>
        <time>2020-12-13T16:29:15Z</time>
      </trkpt>
      <trkpt lat="19.053665" lon="-98.613991">
        <ele>3945.337</ele>
        <time>2020-12-13T16:29:17Z</time>
      </trkpt>
      <trkpt lat="19.053703" lon="-98.614033">
        <ele>3943.947</ele>
        <time>2020-12-13T16:29:20Z</time>
      </trkpt>
      <trkpt lat="19.053736" lon="-98.614069">
        <ele>3943.198</ele>
        <time>2020-12-13T16:29:22Z</time>
      </trkpt>
      <trkpt lat="19.053763" lon="-98.614123">
        <ele>3942.249</ele>
        <time>2020-12-13T16:29:25Z</time>
      </trkpt>
      <trkpt lat="19.053769" lon="-98.614181">
        <ele>3942.168</ele>
        <time>2020-12-13T16:29:29Z</time>
      </trkpt>
      <trkpt lat="19.053764" lon="-98.614236">
        <ele>3942.434</ele>
        <time>2020-12-13T16:29:32Z</time>
      </trkpt>
      <trkpt lat="19.053739" lon="-98.614279">
        <ele>3942.620</ele>
        <time>2020-12-13T16:29:35Z</time>
      </trkpt>
      <trkpt lat="19.053742" lon="-98.614331">
        <ele>3942.768</ele>
        <time>2020-12-13T16:29:39Z</time>
      </trkpt>
      <trkpt lat="19.053769" lon="-98.614374">
        <ele>3940.442</ele>
        <time>2020-12-13T16:29:59Z</time>
      </trkpt>
      <trkpt lat="19.053815" lon="-98.614364">
        <ele>3939.826</ele>
        <time>2020-12-13T16:30:08Z</time>
      </trkpt>
      <trkpt lat="19.05386" lon="-98.614369">
        <ele>3939.408</ele>
        <time>2020-12-13T16:30:10Z</time>
      </trkpt>
      <trkpt lat="19.053908" lon="-98.614383">
        <ele>3940.412</ele>
        <time>2020-12-13T16:30:14Z</time>
      </trkpt>
      <trkpt lat="19.053953" lon="-98.614385">
        <ele>3941.438</ele>
        <time>2020-12-13T16:30:28Z</time>
      </trkpt>
      <trkpt lat="19.054002" lon="-98.614373">
        <ele>3942.018</ele>
        <time>2020-12-13T16:30:33Z</time>
      </trkpt>
      <trkpt lat="19.05405" lon="-98.614393">
        <ele>3940.469</ele>
        <time>2020-12-13T16:30:40Z</time>
      </trkpt>
      <trkpt lat="19.054099" lon="-98.614408">
        <ele>3939.440</ele>
        <time>2020-12-13T16:30:44Z</time>
      </trkpt>
      <trkpt lat="19.054159" lon="-98.614409">
        <ele>3936.899</ele>
        <time>2020-12-13T16:30:48Z</time>
      </trkpt>
      <trkpt lat="19.054216" lon="-98.614397">
        <ele>3934.875</ele>
        <time>2020-12-13T16:30:52Z</time>
      </trkpt>
      <trkpt lat="19.054231" lon="-98.614352">
        <ele>3930.831</ele>
        <time>2020-12-13T16:30:59Z</time>
      </trkpt>
      <trkpt lat="19.054194" lon="-98.614325">
        <ele>3926.879</ele>
        <time>2020-12-13T16:31:03Z</time>
      </trkpt>
      <trkpt lat="19.054146" lon="-98.614306">
        <ele>3922.805</ele>
        <time>2020-12-13T16:31:07Z</time>
      </trkpt>
      <trkpt lat="19.05411" lon="-98.614275">
        <ele>3921.625</ele>
        <time>2020-12-13T16:31:21Z</time>
      </trkpt>
      <trkpt lat="19.054121" lon="-98.614228">
        <ele>3920.908</ele>
        <time>2020-12-13T16:31:30Z</time>
      </trkpt>
      <trkpt lat="19.054154" lon="-98.61426">
        <ele>3924.953</ele>
        <time>2020-12-13T16:37:42Z</time>
      </trkpt>
      <trkpt lat="19.054148" lon="-98.614312">
        <ele>3924.189</ele>
        <time>2020-12-13T16:38:24Z</time>
      </trkpt>
      <trkpt lat="19.0542" lon="-98.614348">
        <ele>3922.449</ele>
        <time>2020-12-13T16:38:28Z</time>
      </trkpt>
      <trkpt lat="19.054241" lon="-98.614368">
        <ele>3921.040</ele>
        <time>2020-12-13T16:39:22Z</time>
      </trkpt>
      <trkpt lat="19.055126" lon="-98.614542">
        <ele>3909.821</ele>
        <time>2020-12-13T16:42:21Z</time>
      </trkpt>
      <trkpt lat="19.055225" lon="-98.614505">
        <ele>3913.830</ele>
        <time>2020-12-13T16:42:22Z</time>
      </trkpt>
      <trkpt lat="19.055205" lon="-98.614555">
        <ele>3917.826</ele>
        <time>2020-12-13T16:42:25Z</time>
      </trkpt>
      <trkpt lat="19.055272" lon="-98.614561">
        <ele>3921.822</ele>
        <time>2020-12-13T16:42:28Z</time>
      </trkpt>
      <trkpt lat="19.055333" lon="-98.614559">
        <ele>3925.822</ele>
        <time>2020-12-13T16:42:30Z</time>
      </trkpt>
      <trkpt lat="19.055273" lon="-98.614533">
        <ele>3929.062</ele>
        <time>2020-12-13T16:42:34Z</time>
      </trkpt>
      <trkpt lat="19.055219" lon="-98.614531">
        <ele>3930.508</ele>
        <time>2020-12-13T16:42:36Z</time>
      </trkpt>
      <trkpt lat="19.055225" lon="-98.614583">
        <ele>3927.808</ele>
        <time>2020-12-13T16:43:10Z</time>
      </trkpt>
      <trkpt lat="19.055255" lon="-98.614618">
        <ele>3925.828</ele>
        <time>2020-12-13T16:43:14Z</time>
      </trkpt>
      <trkpt lat="19.05527" lon="-98.614664">
        <ele>3923.884</ele>
        <time>2020-12-13T16:43:23Z</time>
      </trkpt>
      <trkpt lat="19.05532" lon="-98.61468">
        <ele>3921.014</ele>
        <time>2020-12-13T16:43:37Z</time>
      </trkpt>
      <trkpt lat="19.055366" lon="-98.614704">
        <ele>3917.775</ele>
        <time>2020-12-13T16:43:42Z</time>
      </trkpt>
      <trkpt lat="19.055379" lon="-98.614766">
        <ele>3917.776</ele>
        <time>2020-12-13T16:43:48Z</time>
      </trkpt>
      <trkpt lat="19.055392" lon="-98.614821">
        <ele>3917.315</ele>
        <time>2020-12-13T16:43:52Z</time>
      </trkpt>
      <trkpt lat="19.055415" lon="-98.61487">
        <ele>3917.161</ele>
        <time>2020-12-13T16:43:58Z</time>
      </trkpt>
      <trkpt lat="19.055441" lon="-98.614909">
        <ele>3916.697</ele>
        <time>2020-12-13T16:44:05Z</time>
      </trkpt>
      <trkpt lat="19.055481" lon="-98.614887">
        <ele>3915.134</ele>
        <time>2020-12-13T16:44:11Z</time>
      </trkpt>
      <trkpt lat="19.05552" lon="-98.61486">
        <ele>3911.155</ele>
        <time>2020-12-13T16:44:18Z</time>
      </trkpt>
      <trkpt lat="19.055563" lon="-98.61483">
        <ele>3907.110</ele>
        <time>2020-12-13T16:44:22Z</time>
      </trkpt>
      <trkpt lat="19.058232" lon="-98.614751">
        <ele>3934.108</ele>
        <time>2020-12-13T16:48:40Z</time>
      </trkpt>
      <trkpt lat="19.058316" lon="-98.614855">
        <ele>3903.179</ele>
        <time>2020-12-13T16:48:41Z</time>
      </trkpt>
      <trkpt lat="19.058254" lon="-98.614795">
        <ele>3907.175</ele>
        <time>2020-12-13T16:48:43Z</time>
      </trkpt>
      <trkpt lat="19.058252" lon="-98.614734">
        <ele>3911.135</ele>
        <time>2020-12-13T16:48:44Z</time>
      </trkpt>
      <trkpt lat="19.058204" lon="-98.614802">
        <ele>3907.196</ele>
        <time>2020-12-13T16:48:46Z</time>
      </trkpt>
      <trkpt lat="19.058175" lon="-98.614765">
        <ele>3907.137</ele>
        <time>2020-12-13T16:48:54Z</time>
      </trkpt>
      <trkpt lat="19.058215" lon="-98.614737">
        <ele>3910.766</ele>
        <time>2020-12-13T16:49:02Z</time>
      </trkpt>
      <trkpt lat="19.058258" lon="-98.614712">
        <ele>3913.352</ele>
        <time>2020-12-13T16:49:04Z</time>
      </trkpt>
      <trkpt lat="19.058319" lon="-98.614704">
        <ele>3917.378</ele>
        <time>2020-12-13T16:49:08Z</time>
      </trkpt>
      <trkpt lat="19.058359" lon="-98.61467">
        <ele>3913.385</ele>
        <time>2020-12-13T16:49:13Z</time>
      </trkpt>
      <trkpt lat="19.058381" lon="-98.614624">
        <ele>3910.089</ele>
        <time>2020-12-13T16:49:17Z</time>
      </trkpt>
      <trkpt lat="19.058412" lon="-98.614579">
        <ele>3908.017</ele>
        <time>2020-12-13T16:49:22Z</time>
      </trkpt>
      <trkpt lat="19.058437" lon="-98.614538">
        <ele>3906.008</ele>
        <time>2020-12-13T16:49:27Z</time>
      </trkpt>
      <trkpt lat="19.058468" lon="-98.614499">
        <ele>3905.624</ele>
        <time>2020-12-13T16:49:32Z</time>
      </trkpt>
      <trkpt lat="19.058511" lon="-98.614452">
        <ele>3903.030</ele>
        <time>2020-12-13T16:49:37Z</time>
      </trkpt>
      <trkpt lat="19.058551" lon="-98.614412">
        <ele>3901.060</ele>
        <time>2020-12-13T16:49:40Z</time>
      </trkpt>
      <trkpt lat="19.058587" lon="-98.614379">
        <ele>3899.051</ele>
        <time>2020-12-13T16:49:43Z</time>
      </trkpt>
      <trkpt lat="19.058632" lon="-98.614341">
        <ele>3896.682</ele>
        <time>2020-12-13T16:49:47Z</time>
      </trkpt>
      <trkpt lat="19.058668" lon="-98.614313">
        <ele>3895.211</ele>
        <time>2020-12-13T16:49:51Z</time>
      </trkpt>
      <trkpt lat="19.058714" lon="-98.614267">
        <ele>3895.157</ele>
        <time>2020-12-13T16:49:53Z</time>
      </trkpt>
      <trkpt lat="19.058753" lon="-98.614228">
        <ele>3895.193</ele>
        <time>2020-12-13T16:49:56Z</time>
      </trkpt>
      <trkpt lat="19.058803" lon="-98.614197">
        <ele>3894.738</ele>
        <time>2020-12-13T16:50:00Z</time>
      </trkpt>
      <trkpt lat="19.05885" lon="-98.614187">
        <ele>3894.470</ele>
        <time>2020-12-13T16:50:04Z</time>
      </trkpt>
      <trkpt lat="19.0589" lon="-98.614191">
        <ele>3893.417</ele>
        <time>2020-12-13T16:50:08Z</time>
      </trkpt>
      <trkpt lat="19.058945" lon="-98.614195">
        <ele>3893.608</ele>
        <time>2020-12-13T16:50:11Z</time>
      </trkpt>
      <trkpt lat="19.058994" lon="-98.614197">
        <ele>3893.329</ele>
        <time>2020-12-13T16:50:15Z</time>
      </trkpt>
      <trkpt lat="19.05905" lon="-98.614214">
        <ele>3893.125</ele>
        <time>2020-12-13T16:50:19Z</time>
      </trkpt>
      <trkpt lat="19.059094" lon="-98.614227">
        <ele>3892.675</ele>
        <time>2020-12-13T16:50:22Z</time>
      </trkpt>
      <trkpt lat="19.059144" lon="-98.614244">
        <ele>3892.356</ele>
        <time>2020-12-13T16:50:26Z</time>
      </trkpt>
      <trkpt lat="19.05918" lon="-98.614277">
        <ele>3891.797</ele>
        <time>2020-12-13T16:50:30Z</time>
      </trkpt>
      <trkpt lat="19.059212" lon="-98.614314">
        <ele>3891.056</ele>
        <time>2020-12-13T16:50:34Z</time>
      </trkpt>
      <trkpt lat="19.059246" lon="-98.61435">
        <ele>3890.612</ele>
        <time>2020-12-13T16:50:38Z</time>
      </trkpt>
      <trkpt lat="19.059284" lon="-98.614392">
        <ele>3890.778</ele>
        <time>2020-12-13T16:50:42Z</time>
      </trkpt>
      <trkpt lat="19.059302" lon="-98.614446">
        <ele>3890.859</ele>
        <time>2020-12-13T16:50:46Z</time>
      </trkpt>
      <trkpt lat="19.059339" lon="-98.614496">
        <ele>3889.203</ele>
        <time>2020-12-13T16:50:50Z</time>
      </trkpt>
      <trkpt lat="19.059375" lon="-98.614542">
        <ele>3888.723</ele>
        <time>2020-12-13T16:50:54Z</time>
      </trkpt>
      <trkpt lat="19.059398" lon="-98.614584">
        <ele>3889.208</ele>
        <time>2020-12-13T16:50:58Z</time>
      </trkpt>
      <trkpt lat="19.059416" lon="-98.614628">
        <ele>3890.391</ele>
        <time>2020-12-13T16:51:01Z</time>
      </trkpt>
      <trkpt lat="19.059442" lon="-98.614681">
        <ele>3890.227</ele>
        <time>2020-12-13T16:51:05Z</time>
      </trkpt>
      <trkpt lat="19.059485" lon="-98.614724">
        <ele>3891.717</ele>
        <time>2020-12-13T16:51:09Z</time>
      </trkpt>
      <trkpt lat="19.059536" lon="-98.614749">
        <ele>3891.428</ele>
        <time>2020-12-13T16:51:13Z</time>
      </trkpt>
      <trkpt lat="19.059581" lon="-98.614763">
        <ele>3890.499</ele>
        <time>2020-12-13T16:51:16Z</time>
      </trkpt>
      <trkpt lat="19.059635" lon="-98.61478">
        <ele>3889.448</ele>
        <time>2020-12-13T16:51:20Z</time>
      </trkpt>
      <trkpt lat="19.059684" lon="-98.614807">
        <ele>3890.034</ele>
        <time>2020-12-13T16:51:24Z</time>
      </trkpt>
      <trkpt lat="19.059738" lon="-98.614818">
        <ele>3890.010</ele>
        <time>2020-12-13T16:51:28Z</time>
      </trkpt>
      <trkpt lat="19.059792" lon="-98.614826">
        <ele>3890.876</ele>
        <time>2020-12-13T16:51:32Z</time>
      </trkpt>
      <trkpt lat="19.059846" lon="-98.61484">
        <ele>3892.590</ele>
        <time>2020-12-13T16:51:36Z</time>
      </trkpt>
      <trkpt lat="19.059888" lon="-98.614864">
        <ele>3893.519</ele>
        <time>2020-12-13T16:51:40Z</time>
      </trkpt>
      <trkpt lat="19.059932" lon="-98.6149">
        <ele>3893.308</ele>
        <time>2020-12-13T16:51:45Z</time>
      </trkpt>
      <trkpt lat="19.059971" lon="-98.614927">
        <ele>3893.283</ele>
        <time>2020-12-13T16:51:51Z</time>
      </trkpt>
      <trkpt lat="19.060017" lon="-98.614934">
        <ele>3891.149</ele>
        <time>2020-12-13T16:51:57Z</time>
      </trkpt>
      <trkpt lat="19.060061" lon="-98.614957">
        <ele>3889.939</ele>
        <time>2020-12-13T16:52:01Z</time>
      </trkpt>
      <trkpt lat="19.06011" lon="-98.614976">
        <ele>3889.680</ele>
        <time>2020-12-13T16:52:04Z</time>
      </trkpt>
      <trkpt lat="19.060164" lon="-98.614994">
        <ele>3889.451</ele>
        <time>2020-12-13T16:52:07Z</time>
      </trkpt>
      <trkpt lat="19.060223" lon="-98.615011">
        <ele>3890.520</ele>
        <time>2020-12-13T16:52:10Z</time>
      </trkpt>
      <trkpt lat="19.06028" lon="-98.61503">
        <ele>3891.566</ele>
        <time>2020-12-13T16:52:13Z</time>
      </trkpt>
      <trkpt lat="19.060322" lon="-98.615052">
        <ele>3890.572</ele>
        <time>2020-12-13T16:52:16Z</time>
      </trkpt>
      <trkpt lat="19.060365" lon="-98.615082">
        <ele>3889.567</ele>
        <time>2020-12-13T16:52:20Z</time>
      </trkpt>
      <trkpt lat="19.0604" lon="-98.615113">
        <ele>3887.781</ele>
        <time>2020-12-13T16:52:24Z</time>
      </trkpt>
      <trkpt lat="19.06044" lon="-98.615136">
        <ele>3886.619</ele>
        <time>2020-12-13T16:52:28Z</time>
      </trkpt>
      <trkpt lat="19.060487" lon="-98.615169">
        <ele>3884.008</ele>
        <time>2020-12-13T16:52:33Z</time>
      </trkpt>
      <trkpt lat="19.060531" lon="-98.615185">
        <ele>3882.852</ele>
        <time>2020-12-13T16:52:36Z</time>
      </trkpt>
      <trkpt lat="19.060578" lon="-98.615209">
        <ele>3882.948</ele>
        <time>2020-12-13T16:52:39Z</time>
      </trkpt>
      <trkpt lat="19.060618" lon="-98.615235">
        <ele>3882.698</ele>
        <time>2020-12-13T16:52:42Z</time>
      </trkpt>
      <trkpt lat="19.060655" lon="-98.615264">
        <ele>3882.889</ele>
        <time>2020-12-13T16:52:45Z</time>
      </trkpt>
      <trkpt lat="19.060695" lon="-98.615309">
        <ele>3883.750</ele>
        <time>2020-12-13T16:52:49Z</time>
      </trkpt>
      <trkpt lat="19.060722" lon="-98.615357">
        <ele>3885.079</ele>
        <time>2020-12-13T16:52:53Z</time>
      </trkpt>
      <trkpt lat="19.06075" lon="-98.615399">
        <ele>3884.615</ele>
        <time>2020-12-13T16:52:56Z</time>
      </trkpt>
      <trkpt lat="19.060781" lon="-98.615451">
        <ele>3884.091</ele>
        <time>2020-12-13T16:53:00Z</time>
      </trkpt>
      <trkpt lat="19.060794" lon="-98.615511">
        <ele>3884.414</ele>
        <time>2020-12-13T16:53:03Z</time>
      </trkpt>
      <trkpt lat="19.060791" lon="-98.615562">
        <ele>3883.954</ele>
        <time>2020-12-13T16:53:06Z</time>
      </trkpt>
      <trkpt lat="19.060808" lon="-98.615607">
        <ele>3883.209</ele>
        <time>2020-12-13T16:53:11Z</time>
      </trkpt>
      <trkpt lat="19.060857" lon="-98.615615">
        <ele>3882.808</ele>
        <time>2020-12-13T16:53:15Z</time>
      </trkpt>
      <trkpt lat="19.060906" lon="-98.615627">
        <ele>3883.327</ele>
        <time>2020-12-13T16:53:18Z</time>
      </trkpt>
      <trkpt lat="19.060948" lon="-98.61565">
        <ele>3883.643</ele>
        <time>2020-12-13T16:53:21Z</time>
      </trkpt>
      <trkpt lat="19.060998" lon="-98.615661">
        <ele>3884.653</ele>
        <time>2020-12-13T16:53:24Z</time>
      </trkpt>
      <trkpt lat="19.061043" lon="-98.615659">
        <ele>3884.464</ele>
        <time>2020-12-13T16:53:27Z</time>
      </trkpt>
      <trkpt lat="19.061092" lon="-98.615663">
        <ele>3885.145</ele>
        <time>2020-12-13T16:53:30Z</time>
      </trkpt>
      <trkpt lat="19.061147" lon="-98.615659">
        <ele>3885.984</ele>
        <time>2020-12-13T16:53:33Z</time>
      </trkpt>
      <trkpt lat="19.061191" lon="-98.615669">
        <ele>3884.820</ele>
        <time>2020-12-13T16:53:35Z</time>
      </trkpt>
      <trkpt lat="19.061241" lon="-98.615672">
        <ele>3882.536</ele>
        <time>2020-12-13T16:53:38Z</time>
      </trkpt>
      <trkpt lat="19.061279" lon="-98.615697">
        <ele>3879.926</ele>
        <time>2020-12-13T16:53:43Z</time>
      </trkpt>
      <trkpt lat="19.061317" lon="-98.615725">
        <ele>3878.447</ele>
        <time>2020-12-13T16:53:55Z</time>
      </trkpt>
      <trkpt lat="19.061376" lon="-98.615735">
        <ele>3876.711</ele>
        <time>2020-12-13T16:54:02Z</time>
      </trkpt>
      <trkpt lat="19.061449" lon="-98.615734">
        <ele>3875.308</ele>
        <time>2020-12-13T16:54:05Z</time>
      </trkpt>
      <trkpt lat="19.061497" lon="-98.615718">
        <ele>3874.478</ele>
        <time>2020-12-13T16:54:07Z</time>
      </trkpt>
      <trkpt lat="19.06155" lon="-98.615693">
        <ele>3873.534</ele>
        <time>2020-12-13T16:54:10Z</time>
      </trkpt>
      <trkpt lat="19.061596" lon="-98.615687">
        <ele>3872.684</ele>
        <time>2020-12-13T16:54:13Z</time>
      </trkpt>
      <trkpt lat="19.061647" lon="-98.615685">
        <ele>3872.465</ele>
        <time>2020-12-13T16:54:16Z</time>
      </trkpt>
      <trkpt lat="19.061701" lon="-98.615687">
        <ele>3871.596</ele>
        <time>2020-12-13T16:54:20Z</time>
      </trkpt>
      <trkpt lat="19.061749" lon="-98.615683">
        <ele>3871.465</ele>
        <time>2020-12-13T16:54:25Z</time>
      </trkpt>
      <trkpt lat="19.061795" lon="-98.615698">
        <ele>3871.351</ele>
        <time>2020-12-13T16:54:29Z</time>
      </trkpt>
      <trkpt lat="19.061843" lon="-98.615706">
        <ele>3871.617</ele>
        <time>2020-12-13T16:54:32Z</time>
      </trkpt>
      <trkpt lat="19.061894" lon="-98.615706">
        <ele>3871.498</ele>
        <time>2020-12-13T16:54:35Z</time>
      </trkpt>
      <trkpt lat="19.061946" lon="-98.615695">
        <ele>3870.515</ele>
        <time>2020-12-13T16:54:38Z</time>
      </trkpt>
      <trkpt lat="19.061998" lon="-98.615692">
        <ele>3869.626</ele>
        <time>2020-12-13T16:54:42Z</time>
      </trkpt>
      <trkpt lat="19.062049" lon="-98.6157">
        <ele>3868.608</ele>
        <time>2020-12-13T16:54:46Z</time>
      </trkpt>
      <trkpt lat="19.062097" lon="-98.615716">
        <ele>3867.225</ele>
        <time>2020-12-13T16:54:49Z</time>
      </trkpt>
      <trkpt lat="19.062143" lon="-98.615745">
        <ele>3865.621</ele>
        <time>2020-12-13T16:54:53Z</time>
      </trkpt>
      <trkpt lat="19.062178" lon="-98.61579">
        <ele>3863.461</ele>
        <time>2020-12-13T16:54:57Z</time>
      </trkpt>
      <trkpt lat="19.062224" lon="-98.615795">
        <ele>3861.322</ele>
        <time>2020-12-13T16:55:01Z</time>
      </trkpt>
      <trkpt lat="19.06227" lon="-98.615786">
        <ele>3859.623</ele>
        <time>2020-12-13T16:55:05Z</time>
      </trkpt>
      <trkpt lat="19.062326" lon="-98.615777">
        <ele>3858.222</ele>
        <time>2020-12-13T16:55:08Z</time>
      </trkpt>
      <trkpt lat="19.06239" lon="-98.61575">
        <ele>3857.018</ele>
        <time>2020-12-13T16:55:10Z</time>
      </trkpt>
      <trkpt lat="19.062451" lon="-98.615723">
        <ele>3855.914</ele>
        <time>2020-12-13T16:55:12Z</time>
      </trkpt>
      <trkpt lat="19.062507" lon="-98.615692">
        <ele>3855.278</ele>
        <time>2020-12-13T16:55:15Z</time>
      </trkpt>
      <trkpt lat="19.062558" lon="-98.615674">
        <ele>3854.433</ele>
        <time>2020-12-13T16:55:18Z</time>
      </trkpt>
      <trkpt lat="19.062608" lon="-98.615668">
        <ele>3853.526</ele>
        <time>2020-12-13T16:55:22Z</time>
      </trkpt>
      <trkpt lat="19.062659" lon="-98.615683">
        <ele>3853.008</ele>
        <time>2020-12-13T16:55:25Z</time>
      </trkpt>
      <trkpt lat="19.062698" lon="-98.615656">
        <ele>3852.783</ele>
        <time>2020-12-13T16:55:33Z</time>
      </trkpt>
      <trkpt lat="19.062732" lon="-98.615615">
        <ele>3850.949</ele>
        <time>2020-12-13T16:55:45Z</time>
      </trkpt>
      <trkpt lat="19.062786" lon="-98.615577">
        <ele>3847.039</ele>
        <time>2020-12-13T16:55:48Z</time>
      </trkpt>
      <trkpt lat="19.062845" lon="-98.615551">
        <ele>3843.540</ele>
        <time>2020-12-13T16:55:51Z</time>
      </trkpt>
      <trkpt lat="19.062892" lon="-98.615527">
        <ele>3840.651</ele>
        <time>2020-12-13T16:55:54Z</time>
      </trkpt>
      <trkpt lat="19.062939" lon="-98.615509">
        <ele>3840.110</ele>
        <time>2020-12-13T16:55:57Z</time>
      </trkpt>
      <trkpt lat="19.062983" lon="-98.615495">
        <ele>3840.266</ele>
        <time>2020-12-13T16:56:09Z</time>
      </trkpt>
      <trkpt lat="19.06302" lon="-98.615457">
        <ele>3837.832</ele>
        <time>2020-12-13T16:56:14Z</time>
      </trkpt>
      <trkpt lat="19.06306" lon="-98.615421">
        <ele>3837.242</ele>
        <time>2020-12-13T16:56:18Z</time>
      </trkpt>
      <trkpt lat="19.063104" lon="-98.615376">
        <ele>3836.422</ele>
        <time>2020-12-13T16:56:21Z</time>
      </trkpt>
      <trkpt lat="19.063148" lon="-98.615342">
        <ele>3835.514</ele>
        <time>2020-12-13T16:56:23Z</time>
      </trkpt>
      <trkpt lat="19.063204" lon="-98.615315">
        <ele>3834.608</ele>
        <time>2020-12-13T16:56:26Z</time>
      </trkpt>
      <trkpt lat="19.063263" lon="-98.615284">
        <ele>3833.660</ele>
        <time>2020-12-13T16:56:29Z</time>
      </trkpt>
      <trkpt lat="19.063315" lon="-98.615261">
        <ele>3833.086</ele>
        <time>2020-12-13T16:56:31Z</time>
      </trkpt>
      <trkpt lat="19.063372" lon="-98.615243">
        <ele>3832.316</ele>
        <time>2020-12-13T16:56:33Z</time>
      </trkpt>
      <trkpt lat="19.063414" lon="-98.61522">
        <ele>3829.977</ele>
        <time>2020-12-13T16:56:35Z</time>
      </trkpt>
      <trkpt lat="19.063459" lon="-98.615194">
        <ele>3828.438</ele>
        <time>2020-12-13T16:56:38Z</time>
      </trkpt>
      <trkpt lat="19.063516" lon="-98.615157">
        <ele>3826.387</ele>
        <time>2020-12-13T16:56:41Z</time>
      </trkpt>
      <trkpt lat="19.063565" lon="-98.615115">
        <ele>3823.563</ele>
        <time>2020-12-13T16:56:44Z</time>
      </trkpt>
      <trkpt lat="19.063618" lon="-98.615074">
        <ele>3821.859</ele>
        <time>2020-12-13T16:56:47Z</time>
      </trkpt>
      <trkpt lat="19.063663" lon="-98.615046">
        <ele>3820.875</ele>
        <time>2020-12-13T16:56:49Z</time>
      </trkpt>
      <trkpt lat="19.063723" lon="-98.615013">
        <ele>3819.828</ele>
        <time>2020-12-13T16:56:52Z</time>
      </trkpt>
      <trkpt lat="19.063764" lon="-98.61499">
        <ele>3817.220</ele>
        <time>2020-12-13T16:56:54Z</time>
      </trkpt>
      <trkpt lat="19.063807" lon="-98.614961">
        <ele>3815.208</ele>
        <time>2020-12-13T16:56:57Z</time>
      </trkpt>
      <trkpt lat="19.063856" lon="-98.61493">
        <ele>3812.873</ele>
        <time>2020-12-13T16:57:00Z</time>
      </trkpt>
      <trkpt lat="19.063887" lon="-98.614885">
        <ele>3808.879</ele>
        <time>2020-12-13T16:57:07Z</time>
      </trkpt>
      <trkpt lat="19.063921" lon="-98.614838">
        <ele>3805.869</ele>
        <time>2020-12-13T16:57:11Z</time>
      </trkpt>
      <trkpt lat="19.063947" lon="-98.614772">
        <ele>3804.420</ele>
        <time>2020-12-13T16:57:14Z</time>
      </trkpt>
      <trkpt lat="19.063971" lon="-98.614728">
        <ele>3804.441</ele>
        <time>2020-12-13T16:57:16Z</time>
      </trkpt>
      <trkpt lat="19.064007" lon="-98.614692">
        <ele>3805.240</ele>
        <time>2020-12-13T16:57:19Z</time>
      </trkpt>
      <trkpt lat="19.064033" lon="-98.614647">
        <ele>3805.396</ele>
        <time>2020-12-13T16:57:23Z</time>
      </trkpt>
      <trkpt lat="19.064068" lon="-98.614589">
        <ele>3804.582</ele>
        <time>2020-12-13T16:57:27Z</time>
      </trkpt>
      <trkpt lat="19.064109" lon="-98.614566">
        <ele>3804.016</ele>
        <time>2020-12-13T16:57:29Z</time>
      </trkpt>
      <trkpt lat="19.064159" lon="-98.614541">
        <ele>3802.976</ele>
        <time>2020-12-13T16:57:31Z</time>
      </trkpt>
      <trkpt lat="19.064208" lon="-98.614517">
        <ele>3802.713</ele>
        <time>2020-12-13T16:57:33Z</time>
      </trkpt>
      <trkpt lat="19.064255" lon="-98.614496">
        <ele>3801.808</ele>
        <time>2020-12-13T16:57:35Z</time>
      </trkpt>
      <trkpt lat="19.06431" lon="-98.614473">
        <ele>3801.677</ele>
        <time>2020-12-13T16:57:38Z</time>
      </trkpt>
      <trkpt lat="19.064349" lon="-98.614443">
        <ele>3800.783</ele>
        <time>2020-12-13T16:57:41Z</time>
      </trkpt>
      <trkpt lat="19.064389" lon="-98.614397">
        <ele>3800.263</ele>
        <time>2020-12-13T16:57:45Z</time>
      </trkpt>
      <trkpt lat="19.064431" lon="-98.614378">
        <ele>3800.314</ele>
        <time>2020-12-13T16:57:48Z</time>
      </trkpt>
      <trkpt lat="19.064468" lon="-98.614338">
        <ele>3800.385</ele>
        <time>2020-12-13T16:57:51Z</time>
      </trkpt>
      <trkpt lat="19.064504" lon="-98.614292">
        <ele>3800.354</ele>
        <time>2020-12-13T16:57:55Z</time>
      </trkpt>
      <trkpt lat="19.064525" lon="-98.61425">
        <ele>3799.130</ele>
        <time>2020-12-13T16:57:57Z</time>
      </trkpt>
      <trkpt lat="19.064556" lon="-98.614204">
        <ele>3799.266</ele>
        <time>2020-12-13T16:58:00Z</time>
      </trkpt>
      <trkpt lat="19.064591" lon="-98.614162">
        <ele>3799.372</ele>
        <time>2020-12-13T16:58:03Z</time>
      </trkpt>
      <trkpt lat="19.064643" lon="-98.614124">
        <ele>3796.913</ele>
        <time>2020-12-13T16:58:07Z</time>
      </trkpt>
      <trkpt lat="19.064684" lon="-98.614097">
        <ele>3795.114</ele>
        <time>2020-12-13T16:58:10Z</time>
      </trkpt>
      <trkpt lat="19.064735" lon="-98.614082">
        <ele>3794.008</ele>
        <time>2020-12-13T16:58:14Z</time>
      </trkpt>
      <trkpt lat="19.064797" lon="-98.614089">
        <ele>3793.713</ele>
        <time>2020-12-13T16:58:18Z</time>
      </trkpt>
      <trkpt lat="19.064851" lon="-98.614085">
        <ele>3793.599</ele>
        <time>2020-12-13T16:58:21Z</time>
      </trkpt>
      <trkpt lat="19.064897" lon="-98.614068">
        <ele>3793.419</ele>
        <time>2020-12-13T16:58:24Z</time>
      </trkpt>
      <trkpt lat="19.064942" lon="-98.614033">
        <ele>3794.120</ele>
        <time>2020-12-13T16:58:28Z</time>
      </trkpt>
      <trkpt lat="19.064979" lon="-98.61399">
        <ele>3793.311</ele>
        <time>2020-12-13T16:58:33Z</time>
      </trkpt>
      <trkpt lat="19.065026" lon="-98.613957">
        <ele>3794.040</ele>
        <time>2020-12-13T16:58:37Z</time>
      </trkpt>
      <trkpt lat="19.065058" lon="-98.613924">
        <ele>3791.266</ele>
        <time>2020-12-13T16:58:42Z</time>
      </trkpt>
      <trkpt lat="19.065101" lon="-98.613905">
        <ele>3789.512</ele>
        <time>2020-12-13T16:58:49Z</time>
      </trkpt>
      <trkpt lat="19.065143" lon="-98.613924">
        <ele>3788.593</ele>
        <time>2020-12-13T16:59:03Z</time>
      </trkpt>
      <trkpt lat="19.065193" lon="-98.613933">
        <ele>3787.965</ele>
        <time>2020-12-13T16:59:08Z</time>
      </trkpt>
      <trkpt lat="19.065235" lon="-98.613955">
        <ele>3787.121</ele>
        <time>2020-12-13T16:59:12Z</time>
      </trkpt>
      <trkpt lat="19.06528" lon="-98.613971">
        <ele>3786.208</ele>
        <time>2020-12-13T16:59:16Z</time>
      </trkpt>
      <trkpt lat="19.065331" lon="-98.613992">
        <ele>3784.935</ele>
        <time>2020-12-13T16:59:19Z</time>
      </trkpt>
      <trkpt lat="19.065382" lon="-98.614015">
        <ele>3783.721</ele>
        <time>2020-12-13T16:59:24Z</time>
      </trkpt>
      <trkpt lat="19.06543" lon="-98.614035">
        <ele>3782.691</ele>
        <time>2020-12-13T16:59:28Z</time>
      </trkpt>
      <trkpt lat="19.065484" lon="-98.61406">
        <ele>3780.732</ele>
        <time>2020-12-13T16:59:32Z</time>
      </trkpt>
      <trkpt lat="19.065529" lon="-98.614086">
        <ele>3780.823</ele>
        <time>2020-12-13T16:59:35Z</time>
      </trkpt>
      <trkpt lat="19.065578" lon="-98.614108">
        <ele>3780.462</ele>
        <time>2020-12-13T16:59:38Z</time>
      </trkpt>
      <trkpt lat="19.065622" lon="-98.614133">
        <ele>3779.828</ele>
        <time>2020-12-13T16:59:41Z</time>
      </trkpt>
      <trkpt lat="19.065661" lon="-98.614161">
        <ele>3779.084</ele>
        <time>2020-12-13T16:59:44Z</time>
      </trkpt>
      <trkpt lat="19.065706" lon="-98.614191">
        <ele>3779.325</ele>
        <time>2020-12-13T16:59:48Z</time>
      </trkpt>
      <trkpt lat="19.06576" lon="-98.614197">
        <ele>3778.726</ele>
        <time>2020-12-13T16:59:51Z</time>
      </trkpt>
      <trkpt lat="19.065817" lon="-98.614205">
        <ele>3779.108</ele>
        <time>2020-12-13T16:59:54Z</time>
      </trkpt>
      <trkpt lat="19.06588" lon="-98.614223">
        <ele>3778.608</ele>
        <time>2020-12-13T16:59:57Z</time>
      </trkpt>
      <trkpt lat="19.065923" lon="-98.614241">
        <ele>3777.928</ele>
        <time>2020-12-13T17:00:00Z</time>
      </trkpt>
      <trkpt lat="19.065973" lon="-98.614261">
        <ele>3777.934</ele>
        <time>2020-12-13T17:00:01Z</time>
      </trkpt>
      <trkpt lat="19.06602" lon="-98.61428">
        <ele>3777.514</ele>
        <time>2020-12-13T17:00:03Z</time>
      </trkpt>
      <trkpt lat="19.06606" lon="-98.614302">
        <ele>3778.025</ele>
        <time>2020-12-13T17:00:05Z</time>
      </trkpt>
      <trkpt lat="19.066094" lon="-98.614337">
        <ele>3778.396</ele>
        <time>2020-12-13T17:00:07Z</time>
      </trkpt>
      <trkpt lat="19.06612" lon="-98.614379">
        <ele>3778.575</ele>
        <time>2020-12-13T17:00:11Z</time>
      </trkpt>
      <trkpt lat="19.066157" lon="-98.614408">
        <ele>3779.421</ele>
        <time>2020-12-13T17:00:16Z</time>
      </trkpt>
      <trkpt lat="19.066195" lon="-98.61444">
        <ele>3780.067</ele>
        <time>2020-12-13T17:00:25Z</time>
      </trkpt>
      <trkpt lat="19.06621" lon="-98.614485">
        <ele>3780.798</ele>
        <time>2020-12-13T17:00:30Z</time>
      </trkpt>
      <trkpt lat="19.066254" lon="-98.614504">
        <ele>3780.315</ele>
        <time>2020-12-13T17:00:38Z</time>
      </trkpt>
      <trkpt lat="19.066292" lon="-98.614535">
        <ele>3778.926</ele>
        <time>2020-12-13T17:00:50Z</time>
      </trkpt>
      <trkpt lat="19.066343" lon="-98.614542">
        <ele>3777.608</ele>
        <time>2020-12-13T17:00:59Z</time>
      </trkpt>
      <trkpt lat="19.066386" lon="-98.614562">
        <ele>3778.435</ele>
        <time>2020-12-13T17:01:03Z</time>
      </trkpt>
      <trkpt lat="19.066438" lon="-98.614596">
        <ele>3780.171</ele>
        <time>2020-12-13T17:01:06Z</time>
      </trkpt>
      <trkpt lat="19.066479" lon="-98.614617">
        <ele>3779.931</ele>
        <time>2020-12-13T17:01:09Z</time>
      </trkpt>
      <trkpt lat="19.066523" lon="-98.614654">
        <ele>3781.012</ele>
        <time>2020-12-13T17:01:13Z</time>
      </trkpt>
      <trkpt lat="19.066559" lon="-98.614687">
        <ele>3781.733</ele>
        <time>2020-12-13T17:01:16Z</time>
      </trkpt>
      <trkpt lat="19.066619" lon="-98.614715">
        <ele>3782.912</ele>
        <time>2020-12-13T17:01:19Z</time>
      </trkpt>
      <trkpt lat="19.066667" lon="-98.614728">
        <ele>3784.058</ele>
        <time>2020-12-13T17:01:21Z</time>
      </trkpt>
      <trkpt lat="19.066714" lon="-98.614742">
        <ele>3785.514</ele>
        <time>2020-12-13T17:01:23Z</time>
      </trkpt>
      <trkpt lat="19.066771" lon="-98.614766">
        <ele>3785.223</ele>
        <time>2020-12-13T17:01:26Z</time>
      </trkpt>
      <trkpt lat="19.066809" lon="-98.614794">
        <ele>3784.683</ele>
        <time>2020-12-13T17:01:30Z</time>
      </trkpt>
      <trkpt lat="19.06685" lon="-98.614775">
        <ele>3783.411</ele>
        <time>2020-12-13T17:01:34Z</time>
      </trkpt>
      <trkpt lat="19.0669" lon="-98.614757">
        <ele>3781.908</ele>
        <time>2020-12-13T17:01:38Z</time>
      </trkpt>
      <trkpt lat="19.066954" lon="-98.614756">
        <ele>3780.638</ele>
        <time>2020-12-13T17:01:43Z</time>
      </trkpt>
      <trkpt lat="19.067" lon="-98.614762">
        <ele>3779.844</ele>
        <time>2020-12-13T17:01:48Z</time>
      </trkpt>
      <trkpt lat="19.067045" lon="-98.614796">
        <ele>3779.344</ele>
        <time>2020-12-13T17:01:54Z</time>
      </trkpt>
      <trkpt lat="19.067067" lon="-98.61484">
        <ele>3778.285</ele>
        <time>2020-12-13T17:01:58Z</time>
      </trkpt>
      <trkpt lat="19.067098" lon="-98.614878">
        <ele>3778.436</ele>
        <time>2020-12-13T17:02:03Z</time>
      </trkpt>
      <trkpt lat="19.06714" lon="-98.614913">
        <ele>3778.965</ele>
        <time>2020-12-13T17:02:08Z</time>
      </trkpt>
      <trkpt lat="19.067164" lon="-98.614957">
        <ele>3779.641</ele>
        <time>2020-12-13T17:02:14Z</time>
      </trkpt>
      <trkpt lat="19.067178" lon="-98.615006">
        <ele>3778.827</ele>
        <time>2020-12-13T17:02:21Z</time>
      </trkpt>
      <trkpt lat="19.0672" lon="-98.615056">
        <ele>3779.169</ele>
        <time>2020-12-13T17:02:27Z</time>
      </trkpt>
      <trkpt lat="19.067237" lon="-98.615089">
        <ele>3780.104</ele>
        <time>2020-12-13T17:02:33Z</time>
      </trkpt>
      <trkpt lat="19.067274" lon="-98.615136">
        <ele>3782.324</ele>
        <time>2020-12-13T17:02:38Z</time>
      </trkpt>
      <trkpt lat="19.0673" lon="-98.615178">
        <ele>3783.608</ele>
        <time>2020-12-13T17:02:41Z</time>
      </trkpt>
      <trkpt lat="19.067328" lon="-98.615223">
        <ele>3784.422</ele>
        <time>2020-12-13T17:02:44Z</time>
      </trkpt>
      <trkpt lat="19.067359" lon="-98.615274">
        <ele>3784.978</ele>
        <time>2020-12-13T17:02:47Z</time>
      </trkpt>
      <trkpt lat="19.067389" lon="-98.615312">
        <ele>3785.248</ele>
        <time>2020-12-13T17:02:50Z</time>
      </trkpt>
      <trkpt lat="19.067423" lon="-98.615356">
        <ele>3783.879</ele>
        <time>2020-12-13T17:02:54Z</time>
      </trkpt>
      <trkpt lat="19.067446" lon="-98.615402">
        <ele>3782.130</ele>
        <time>2020-12-13T17:02:58Z</time>
      </trkpt>
      <trkpt lat="19.067456" lon="-98.615449">
        <ele>3781.599</ele>
        <time>2020-12-13T17:03:02Z</time>
      </trkpt>
      <trkpt lat="19.067438" lon="-98.6155">
        <ele>3780.725</ele>
        <time>2020-12-13T17:03:08Z</time>
      </trkpt>
      <trkpt lat="19.067403" lon="-98.615546">
        <ele>3781.481</ele>
        <time>2020-12-13T17:03:14Z</time>
      </trkpt>
      <trkpt lat="19.067398" lon="-98.615593">
        <ele>3781.499</ele>
        <time>2020-12-13T17:03:19Z</time>
      </trkpt>
      <trkpt lat="19.067385" lon="-98.615639">
        <ele>3780.607</ele>
        <time>2020-12-13T17:03:25Z</time>
      </trkpt>
      <trkpt lat="19.067355" lon="-98.61568">
        <ele>3780.927</ele>
        <time>2020-12-13T17:03:30Z</time>
      </trkpt>
      <trkpt lat="19.067344" lon="-98.615726">
        <ele>3782.308</ele>
        <time>2020-12-13T17:03:34Z</time>
      </trkpt>
      <trkpt lat="19.067352" lon="-98.615773">
        <ele>3782.785</ele>
        <time>2020-12-13T17:03:38Z</time>
      </trkpt>
      <trkpt lat="19.067367" lon="-98.61582">
        <ele>3782.621</ele>
        <time>2020-12-13T17:03:43Z</time>
      </trkpt>
      <trkpt lat="19.0674" lon="-98.615868">
        <ele>3782.181</ele>
        <time>2020-12-13T17:03:49Z</time>
      </trkpt>
      <trkpt lat="19.067418" lon="-98.615918">
        <ele>3781.882</ele>
        <time>2020-12-13T17:03:52Z</time>
      </trkpt>
      <trkpt lat="19.067419" lon="-98.615975">
        <ele>3782.043</ele>
        <time>2020-12-13T17:03:55Z</time>
      </trkpt>
      <trkpt lat="19.067413" lon="-98.616032">
        <ele>3782.552</ele>
        <time>2020-12-13T17:03:58Z</time>
      </trkpt>
      <trkpt lat="19.067413" lon="-98.616091">
        <ele>3783.638</ele>
        <time>2020-12-13T17:04:02Z</time>
      </trkpt>
      <trkpt lat="19.067452" lon="-98.616124">
        <ele>3784.384</ele>
        <time>2020-12-13T17:04:08Z</time>
      </trkpt>
      <trkpt lat="19.067489" lon="-98.616156">
        <ele>3785.173</ele>
        <time>2020-12-13T17:04:18Z</time>
      </trkpt>
      <trkpt lat="19.067531" lon="-98.61619">
        <ele>3787.285</ele>
        <time>2020-12-13T17:04:26Z</time>
      </trkpt>
      <trkpt lat="19.067556" lon="-98.616244">
        <ele>3788.013</ele>
        <time>2020-12-13T17:04:31Z</time>
      </trkpt>
      <trkpt lat="19.067568" lon="-98.616302">
        <ele>3788.908</ele>
        <time>2020-12-13T17:04:35Z</time>
      </trkpt>
      <trkpt lat="19.067576" lon="-98.616351">
        <ele>3789.893</ele>
        <time>2020-12-13T17:04:38Z</time>
      </trkpt>
      <trkpt lat="19.067605" lon="-98.61639">
        <ele>3790.069</ele>
        <time>2020-12-13T17:04:43Z</time>
      </trkpt>
      <trkpt lat="19.067634" lon="-98.616434">
        <ele>3789.729</ele>
        <time>2020-12-13T17:04:46Z</time>
      </trkpt>
      <trkpt lat="19.067666" lon="-98.616494">
        <ele>3789.540</ele>
        <time>2020-12-13T17:04:49Z</time>
      </trkpt>
      <trkpt lat="19.067692" lon="-98.616538">
        <ele>3789.881</ele>
        <time>2020-12-13T17:04:52Z</time>
      </trkpt>
      <trkpt lat="19.06772" lon="-98.616579">
        <ele>3789.650</ele>
        <time>2020-12-13T17:04:56Z</time>
      </trkpt>
      <trkpt lat="19.067731" lon="-98.616628">
        <ele>3789.936</ele>
        <time>2020-12-13T17:05:00Z</time>
      </trkpt>
      <trkpt lat="19.067738" lon="-98.616676">
        <ele>3789.382</ele>
        <time>2020-12-13T17:05:05Z</time>
      </trkpt>
      <trkpt lat="19.067753" lon="-98.616732">
        <ele>3788.119</ele>
        <time>2020-12-13T17:05:09Z</time>
      </trkpt>
      <trkpt lat="19.067769" lon="-98.616784">
        <ele>3787.009</ele>
        <time>2020-12-13T17:05:14Z</time>
      </trkpt>
      <trkpt lat="19.067783" lon="-98.616844">
        <ele>3787.119</ele>
        <time>2020-12-13T17:05:19Z</time>
      </trkpt>
      <trkpt lat="19.067804" lon="-98.616897">
        <ele>3786.808</ele>
        <time>2020-12-13T17:05:22Z</time>
      </trkpt>
      <trkpt lat="19.067826" lon="-98.61695">
        <ele>3787.837</ele>
        <time>2020-12-13T17:05:25Z</time>
      </trkpt>
      <trkpt lat="19.067848" lon="-98.616994">
        <ele>3788.863</ele>
        <time>2020-12-13T17:05:28Z</time>
      </trkpt>
      <trkpt lat="19.067877" lon="-98.617036">
        <ele>3789.073</ele>
        <time>2020-12-13T17:05:32Z</time>
      </trkpt>
      <trkpt lat="19.067928" lon="-98.61705">
        <ele>3789.194</ele>
        <time>2020-12-13T17:05:37Z</time>
      </trkpt>
      <trkpt lat="19.067983" lon="-98.617024">
        <ele>3788.895</ele>
        <time>2020-12-13T17:05:41Z</time>
      </trkpt>
      <trkpt lat="19.068015" lon="-98.616971">
        <ele>3788.254</ele>
        <time>2020-12-13T17:05:44Z</time>
      </trkpt>
      <trkpt lat="19.068027" lon="-98.616917">
        <ele>3788.250</ele>
        <time>2020-12-13T17:05:47Z</time>
      </trkpt>
      <trkpt lat="19.068051" lon="-98.616859">
        <ele>3787.826</ele>
        <time>2020-12-13T17:05:50Z</time>
      </trkpt>
      <trkpt lat="19.068075" lon="-98.616817">
        <ele>3787.632</ele>
        <time>2020-12-13T17:05:53Z</time>
      </trkpt>
      <trkpt lat="19.068096" lon="-98.616774">
        <ele>3787.192</ele>
        <time>2020-12-13T17:05:54Z</time>
      </trkpt>
      <trkpt lat="19.06812" lon="-98.616709">
        <ele>3787.211</ele>
        <time>2020-12-13T17:05:57Z</time>
      </trkpt>
      <trkpt lat="19.068151" lon="-98.616656">
        <ele>3786.808</ele>
        <time>2020-12-13T17:06:00Z</time>
      </trkpt>
      <trkpt lat="19.068201" lon="-98.616611">
        <ele>3787.459</ele>
        <time>2020-12-13T17:06:03Z</time>
      </trkpt>
      <trkpt lat="19.06825" lon="-98.61658">
        <ele>3788.255</ele>
        <time>2020-12-13T17:06:05Z</time>
      </trkpt>
      <trkpt lat="19.068306" lon="-98.616551">
        <ele>3788.755</ele>
        <time>2020-12-13T17:06:07Z</time>
      </trkpt>
      <trkpt lat="19.068363" lon="-98.61653">
        <ele>3789.476</ele>
        <time>2020-12-13T17:06:09Z</time>
      </trkpt>
      <trkpt lat="19.068421" lon="-98.616516">
        <ele>3789.037</ele>
        <time>2020-12-13T17:06:11Z</time>
      </trkpt>
      <trkpt lat="19.068479" lon="-98.616508">
        <ele>3788.896</ele>
        <time>2020-12-13T17:06:13Z</time>
      </trkpt>
      <trkpt lat="19.06853" lon="-98.616508">
        <ele>3788.322</ele>
        <time>2020-12-13T17:06:15Z</time>
      </trkpt>
      <trkpt lat="19.068576" lon="-98.616501">
        <ele>3786.828</ele>
        <time>2020-12-13T17:06:17Z</time>
      </trkpt>
      <trkpt lat="19.06864" lon="-98.616486">
        <ele>3785.592</ele>
        <time>2020-12-13T17:06:21Z</time>
      </trkpt>
      <trkpt lat="19.06869" lon="-98.616475">
        <ele>3784.773</ele>
        <time>2020-12-13T17:06:23Z</time>
      </trkpt>
      <trkpt lat="19.068735" lon="-98.616463">
        <ele>3784.620</ele>
        <time>2020-12-13T17:06:26Z</time>
      </trkpt>
      <trkpt lat="19.068781" lon="-98.616451">
        <ele>3783.008</ele>
        <time>2020-12-13T17:06:29Z</time>
      </trkpt>
      <trkpt lat="19.068834" lon="-98.616443">
        <ele>3781.245</ele>
        <time>2020-12-13T17:06:32Z</time>
      </trkpt>
      <trkpt lat="19.068898" lon="-98.616428">
        <ele>3778.551</ele>
        <time>2020-12-13T17:06:35Z</time>
      </trkpt>
      <trkpt lat="19.068956" lon="-98.6164">
        <ele>3776.931</ele>
        <time>2020-12-13T17:06:38Z</time>
      </trkpt>
      <trkpt lat="19.06901" lon="-98.616371">
        <ele>3775.922</ele>
        <time>2020-12-13T17:06:41Z</time>
      </trkpt>
      <trkpt lat="19.069075" lon="-98.616352">
        <ele>3774.173</ele>
        <time>2020-12-13T17:06:44Z</time>
      </trkpt>
      <trkpt lat="19.06912" lon="-98.616348">
        <ele>3772.212</ele>
        <time>2020-12-13T17:06:46Z</time>
      </trkpt>
      <trkpt lat="19.069187" lon="-98.616351">
        <ele>3769.548</ele>
        <time>2020-12-13T17:06:49Z</time>
      </trkpt>
      <trkpt lat="19.069242" lon="-98.616361">
        <ele>3767.994</ele>
        <time>2020-12-13T17:06:52Z</time>
      </trkpt>
      <trkpt lat="19.069302" lon="-98.61637">
        <ele>3767.326</ele>
        <time>2020-12-13T17:06:55Z</time>
      </trkpt>
      <trkpt lat="19.069362" lon="-98.616392">
        <ele>3767.047</ele>
        <time>2020-12-13T17:06:58Z</time>
      </trkpt>
      <trkpt lat="19.06942" lon="-98.616412">
        <ele>3767.611</ele>
        <time>2020-12-13T17:07:01Z</time>
      </trkpt>
      <trkpt lat="19.069471" lon="-98.616425">
        <ele>3768.008</ele>
        <time>2020-12-13T17:07:03Z</time>
      </trkpt>
      <trkpt lat="19.069532" lon="-98.616435">
        <ele>3768.228</ele>
        <time>2020-12-13T17:07:06Z</time>
      </trkpt>
      <trkpt lat="19.069589" lon="-98.616433">
        <ele>3767.584</ele>
        <time>2020-12-13T17:07:07Z</time>
      </trkpt>
      <trkpt lat="19.069644" lon="-98.616424">
        <ele>3767.114</ele>
        <time>2020-12-13T17:07:09Z</time>
      </trkpt>
      <trkpt lat="19.069703" lon="-98.616397">
        <ele>3766.965</ele>
        <time>2020-12-13T17:07:11Z</time>
      </trkpt>
      <trkpt lat="19.069748" lon="-98.616363">
        <ele>3766.046</ele>
        <time>2020-12-13T17:07:13Z</time>
      </trkpt>
      <trkpt lat="19.069786" lon="-98.616335">
        <ele>3765.815</ele>
        <time>2020-12-13T17:07:15Z</time>
      </trkpt>
      <trkpt lat="19.069827" lon="-98.616304">
        <ele>3766.571</ele>
        <time>2020-12-13T17:07:18Z</time>
      </trkpt>
      <trkpt lat="19.069874" lon="-98.616268">
        <ele>3766.557</ele>
        <time>2020-12-13T17:07:22Z</time>
      </trkpt>
      <trkpt lat="19.069909" lon="-98.616223">
        <ele>3767.394</ele>
        <time>2020-12-13T17:07:26Z</time>
      </trkpt>
      <trkpt lat="19.069935" lon="-98.61618">
        <ele>3768.657</ele>
        <time>2020-12-13T17:07:30Z</time>
      </trkpt>
      <trkpt lat="19.069965" lon="-98.616124">
        <ele>3770.222</ele>
        <time>2020-12-13T17:07:35Z</time>
      </trkpt>
      <trkpt lat="19.069992" lon="-98.616082">
        <ele>3771.508</ele>
        <time>2020-12-13T17:07:40Z</time>
      </trkpt>
      <trkpt lat="19.070015" lon="-98.616038">
        <ele>3772.345</ele>
        <time>2020-12-13T17:07:43Z</time>
      </trkpt>
      <trkpt lat="19.070047" lon="-98.615996">
        <ele>3772.421</ele>
        <time>2020-12-13T17:07:46Z</time>
      </trkpt>
      <trkpt lat="19.070088" lon="-98.615959">
        <ele>3772.561</ele>
        <time>2020-12-13T17:07:49Z</time>
      </trkpt>
      <trkpt lat="19.070138" lon="-98.615933">
        <ele>3773.352</ele>
        <time>2020-12-13T17:07:53Z</time>
      </trkpt>
      <trkpt lat="19.070192" lon="-98.615926">
        <ele>3774.213</ele>
        <time>2020-12-13T17:07:57Z</time>
      </trkpt>
      <trkpt lat="19.070236" lon="-98.61591">
        <ele>3774.322</ele>
        <time>2020-12-13T17:08:01Z</time>
      </trkpt>
      <trkpt lat="19.070292" lon="-98.615904">
        <ele>3773.688</ele>
        <time>2020-12-13T17:08:05Z</time>
      </trkpt>
      <trkpt lat="19.070334" lon="-98.615879">
        <ele>3773.664</ele>
        <time>2020-12-13T17:08:08Z</time>
      </trkpt>
      <trkpt lat="19.070365" lon="-98.615845">
        <ele>3772.822</ele>
        <time>2020-12-13T17:08:12Z</time>
      </trkpt>
      <trkpt lat="19.070402" lon="-98.61581">
        <ele>3771.962</ele>
        <time>2020-12-13T17:08:17Z</time>
      </trkpt>
      <trkpt lat="19.070447" lon="-98.615816">
        <ele>3772.608</ele>
        <time>2020-12-13T17:08:43Z</time>
      </trkpt>
      <trkpt lat="19.070448" lon="-98.615764">
        <ele>3771.808</ele>
        <time>2020-12-13T17:08:48Z</time>
      </trkpt>
      <trkpt lat="19.070467" lon="-98.615706">
        <ele>3772.198</ele>
        <time>2020-12-13T17:08:52Z</time>
      </trkpt>
      <trkpt lat="19.070494" lon="-98.615652">
        <ele>3773.524</ele>
        <time>2020-12-13T17:08:55Z</time>
      </trkpt>
      <trkpt lat="19.070523" lon="-98.615608">
        <ele>3774.324</ele>
        <time>2020-12-13T17:08:58Z</time>
      </trkpt>
      <trkpt lat="19.070551" lon="-98.615564">
        <ele>3774.865</ele>
        <time>2020-12-13T17:09:01Z</time>
      </trkpt>
      <trkpt lat="19.070564" lon="-98.615509">
        <ele>3773.926</ele>
        <time>2020-12-13T17:09:04Z</time>
      </trkpt>
      <trkpt lat="19.070568" lon="-98.615454">
        <ele>3773.875</ele>
        <time>2020-12-13T17:09:07Z</time>
      </trkpt>
      <trkpt lat="19.070572" lon="-98.615403">
        <ele>3773.751</ele>
        <time>2020-12-13T17:09:10Z</time>
      </trkpt>
      <trkpt lat="19.070581" lon="-98.615348">
        <ele>3774.077</ele>
        <time>2020-12-13T17:09:13Z</time>
      </trkpt>
      <trkpt lat="19.070589" lon="-98.615296">
        <ele>3774.276</ele>
        <time>2020-12-13T17:09:16Z</time>
      </trkpt>
      <trkpt lat="19.0706" lon="-98.615239">
        <ele>3773.990</ele>
        <time>2020-12-13T17:09:19Z</time>
      </trkpt>
      <trkpt lat="19.070612" lon="-98.615185">
        <ele>3773.719</ele>
        <time>2020-12-13T17:09:22Z</time>
      </trkpt>
      <trkpt lat="19.070627" lon="-98.615137">
        <ele>3774.008</ele>
        <time>2020-12-13T17:09:25Z</time>
      </trkpt>
      <trkpt lat="19.070668" lon="-98.615105">
        <ele>3773.893</ele>
        <time>2020-12-13T17:09:29Z</time>
      </trkpt>
      <trkpt lat="19.07072" lon="-98.615103">
        <ele>3772.919</ele>
        <time>2020-12-13T17:09:33Z</time>
      </trkpt>
      <trkpt lat="19.070769" lon="-98.615114">
        <ele>3772.399</ele>
        <time>2020-12-13T17:09:37Z</time>
      </trkpt>
      <trkpt lat="19.070826" lon="-98.615122">
        <ele>3771.280</ele>
        <time>2020-12-13T17:09:42Z</time>
      </trkpt>
      <trkpt lat="19.070869" lon="-98.615108">
        <ele>3770.141</ele>
        <time>2020-12-13T17:09:45Z</time>
      </trkpt>
      <trkpt lat="19.070912" lon="-98.615071">
        <ele>3769.990</ele>
        <time>2020-12-13T17:09:48Z</time>
      </trkpt>
      <trkpt lat="19.070942" lon="-98.615027">
        <ele>3769.436</ele>
        <time>2020-12-13T17:09:51Z</time>
      </trkpt>
      <trkpt lat="19.07097" lon="-98.614965">
        <ele>3769.562</ele>
        <time>2020-12-13T17:09:54Z</time>
      </trkpt>
      <trkpt lat="19.070996" lon="-98.614916">
        <ele>3768.362</ele>
        <time>2020-12-13T17:09:56Z</time>
      </trkpt>
      <trkpt lat="19.071028" lon="-98.614868">
        <ele>3767.683</ele>
        <time>2020-12-13T17:09:58Z</time>
      </trkpt>
      <trkpt lat="19.071055" lon="-98.614823">
        <ele>3768.011</ele>
        <time>2020-12-13T17:10:00Z</time>
      </trkpt>
      <trkpt lat="19.071083" lon="-98.614779">
        <ele>3768.608</ele>
        <time>2020-12-13T17:10:03Z</time>
      </trkpt>
      <trkpt lat="19.071119" lon="-98.61472">
        <ele>3768.272</ele>
        <time>2020-12-13T17:10:05Z</time>
      </trkpt>
      <trkpt lat="19.07116" lon="-98.614664">
        <ele>3767.538</ele>
        <time>2020-12-13T17:10:08Z</time>
      </trkpt>
      <trkpt lat="19.071202" lon="-98.61461">
        <ele>3767.948</ele>
        <time>2020-12-13T17:10:11Z</time>
      </trkpt>
      <trkpt lat="19.071229" lon="-98.614567">
        <ele>3767.789</ele>
        <time>2020-12-13T17:10:13Z</time>
      </trkpt>
      <trkpt lat="19.071252" lon="-98.614517">
        <ele>3767.230</ele>
        <time>2020-12-13T17:10:15Z</time>
      </trkpt>
      <trkpt lat="19.071272" lon="-98.614469">
        <ele>3766.119</ele>
        <time>2020-12-13T17:10:17Z</time>
      </trkpt>
      <trkpt lat="19.071293" lon="-98.614426">
        <ele>3763.485</ele>
        <time>2020-12-13T17:10:19Z</time>
      </trkpt>
      <trkpt lat="19.071319" lon="-98.614376">
        <ele>3761.441</ele>
        <time>2020-12-13T17:10:22Z</time>
      </trkpt>
      <trkpt lat="19.071336" lon="-98.61433">
        <ele>3758.689</ele>
        <time>2020-12-13T17:10:26Z</time>
      </trkpt>
      <trkpt lat="19.071371" lon="-98.61429">
        <ele>3757.706</ele>
        <time>2020-12-13T17:10:30Z</time>
      </trkpt>
      <trkpt lat="19.071407" lon="-98.614254">
        <ele>3756.426</ele>
        <time>2020-12-13T17:10:34Z</time>
      </trkpt>
      <trkpt lat="19.071442" lon="-98.614217">
        <ele>3754.808</ele>
        <time>2020-12-13T17:10:38Z</time>
      </trkpt>
      <trkpt lat="19.07147" lon="-98.614177">
        <ele>3753.074</ele>
        <time>2020-12-13T17:10:41Z</time>
      </trkpt>
      <trkpt lat="19.071494" lon="-98.614131">
        <ele>3750.360</ele>
        <time>2020-12-13T17:10:44Z</time>
      </trkpt>
      <trkpt lat="19.071505" lon="-98.614082">
        <ele>3749.120</ele>
        <time>2020-12-13T17:10:47Z</time>
      </trkpt>
      <trkpt lat="19.071504" lon="-98.614014">
        <ele>3748.021</ele>
        <time>2020-12-13T17:10:50Z</time>
      </trkpt>
      <trkpt lat="19.071503" lon="-98.613964">
        <ele>3746.552</ele>
        <time>2020-12-13T17:10:52Z</time>
      </trkpt>
      <trkpt lat="19.071505" lon="-98.613916">
        <ele>3745.661</ele>
        <time>2020-12-13T17:10:54Z</time>
      </trkpt>
      <trkpt lat="19.071507" lon="-98.613863">
        <ele>3745.157</ele>
        <time>2020-12-13T17:10:56Z</time>
      </trkpt>
      <trkpt lat="19.071506" lon="-98.613809">
        <ele>3744.843</ele>
        <time>2020-12-13T17:10:58Z</time>
      </trkpt>
      <trkpt lat="19.071502" lon="-98.613756">
        <ele>3744.299</ele>
        <time>2020-12-13T17:11:00Z</time>
      </trkpt>
      <trkpt lat="19.071496" lon="-98.613702">
        <ele>3743.807</ele>
        <time>2020-12-13T17:11:02Z</time>
      </trkpt>
      <trkpt lat="19.071488" lon="-98.613648">
        <ele>3743.227</ele>
        <time>2020-12-13T17:11:04Z</time>
      </trkpt>
      <trkpt lat="19.071467" lon="-98.613591">
        <ele>3743.208</ele>
        <time>2020-12-13T17:11:06Z</time>
      </trkpt>
      <trkpt lat="19.071447" lon="-98.613545">
        <ele>3742.865</ele>
        <time>2020-12-13T17:11:08Z</time>
      </trkpt>
      <trkpt lat="19.071418" lon="-98.613481">
        <ele>3742.281</ele>
        <time>2020-12-13T17:11:11Z</time>
      </trkpt>
      <trkpt lat="19.071398" lon="-98.613434">
        <ele>3741.851</ele>
        <time>2020-12-13T17:11:15Z</time>
      </trkpt>
      <trkpt lat="19.071383" lon="-98.613388">
        <ele>3742.062</ele>
        <time>2020-12-13T17:11:20Z</time>
      </trkpt>
      <trkpt lat="19.071407" lon="-98.613339">
        <ele>3741.733</ele>
        <time>2020-12-13T17:11:31Z</time>
      </trkpt>
      <trkpt lat="19.07143" lon="-98.613285">
        <ele>3741.972</ele>
        <time>2020-12-13T17:11:34Z</time>
      </trkpt>
      <trkpt lat="19.071476" lon="-98.613269">
        <ele>3742.048</ele>
        <time>2020-12-13T17:11:39Z</time>
      </trkpt>
      <trkpt lat="19.071524" lon="-98.613258">
        <ele>3742.194</ele>
        <time>2020-12-13T17:11:42Z</time>
      </trkpt>
      <trkpt lat="19.071588" lon="-98.613235">
        <ele>3740.963</ele>
        <time>2020-12-13T17:11:45Z</time>
      </trkpt>
      <trkpt lat="19.071631" lon="-98.613218">
        <ele>3740.244</ele>
        <time>2020-12-13T17:11:47Z</time>
      </trkpt>
      <trkpt lat="19.071691" lon="-98.613195">
        <ele>3738.618</ele>
        <time>2020-12-13T17:11:50Z</time>
      </trkpt>
      <trkpt lat="19.071749" lon="-98.613164">
        <ele>3736.408</ele>
        <time>2020-12-13T17:11:53Z</time>
      </trkpt>
      <trkpt lat="19.07179" lon="-98.61313">
        <ele>3734.732</ele>
        <time>2020-12-13T17:11:56Z</time>
      </trkpt>
      <trkpt lat="19.071829" lon="-98.613078">
        <ele>3734.968</ele>
        <time>2020-12-13T17:11:59Z</time>
      </trkpt>
      <trkpt lat="19.071857" lon="-98.613035">
        <ele>3733.888</ele>
        <time>2020-12-13T17:12:01Z</time>
      </trkpt>
      <trkpt lat="19.071886" lon="-98.612983">
        <ele>3733.179</ele>
        <time>2020-12-13T17:12:03Z</time>
      </trkpt>
      <trkpt lat="19.071918" lon="-98.612928">
        <ele>3732.370</ele>
        <time>2020-12-13T17:12:05Z</time>
      </trkpt>
      <trkpt lat="19.071954" lon="-98.612873">
        <ele>3730.289</ele>
        <time>2020-12-13T17:12:07Z</time>
      </trkpt>
      <trkpt lat="19.071988" lon="-98.612819">
        <ele>3729.415</ele>
        <time>2020-12-13T17:12:09Z</time>
      </trkpt>
      <trkpt lat="19.072023" lon="-98.612767">
        <ele>3728.591</ele>
        <time>2020-12-13T17:12:11Z</time>
      </trkpt>
      <trkpt lat="19.072061" lon="-98.612719">
        <ele>3728.473</ele>
        <time>2020-12-13T17:12:13Z</time>
      </trkpt>
      <trkpt lat="19.072097" lon="-98.612669">
        <ele>3728.385</ele>
        <time>2020-12-13T17:12:15Z</time>
      </trkpt>
      <trkpt lat="19.072129" lon="-98.612623">
        <ele>3727.413</ele>
        <time>2020-12-13T17:12:17Z</time>
      </trkpt>
      <trkpt lat="19.07216" lon="-98.612579">
        <ele>3726.508</ele>
        <time>2020-12-13T17:12:19Z</time>
      </trkpt>
      <trkpt lat="19.072195" lon="-98.612529">
        <ele>3726.433</ele>
        <time>2020-12-13T17:12:22Z</time>
      </trkpt>
      <trkpt lat="19.072238" lon="-98.612477">
        <ele>3726.799</ele>
        <time>2020-12-13T17:12:24Z</time>
      </trkpt>
      <trkpt lat="19.072271" lon="-98.612443">
        <ele>3728.579</ele>
        <time>2020-12-13T17:12:26Z</time>
      </trkpt>
      <trkpt lat="19.072304" lon="-98.61241">
        <ele>3729.670</ele>
        <time>2020-12-13T17:12:29Z</time>
      </trkpt>
      <trkpt lat="19.072346" lon="-98.612377">
        <ele>3727.821</ele>
        <time>2020-12-13T17:12:50Z</time>
      </trkpt>
      <trkpt lat="19.072392" lon="-98.612342">
        <ele>3726.330</ele>
        <time>2020-12-13T17:12:53Z</time>
      </trkpt>
      <trkpt lat="19.072429" lon="-98.612311">
        <ele>3725.076</ele>
        <time>2020-12-13T17:12:55Z</time>
      </trkpt>
      <trkpt lat="19.072469" lon="-98.612275">
        <ele>3724.662</ele>
        <time>2020-12-13T17:12:57Z</time>
      </trkpt>
      <trkpt lat="19.072511" lon="-98.612227">
        <ele>3724.458</ele>
        <time>2020-12-13T17:12:59Z</time>
      </trkpt>
      <trkpt lat="19.072552" lon="-98.612181">
        <ele>3724.352</ele>
        <time>2020-12-13T17:13:01Z</time>
      </trkpt>
      <trkpt lat="19.072582" lon="-98.61214">
        <ele>3724.617</ele>
        <time>2020-12-13T17:13:03Z</time>
      </trkpt>
      <trkpt lat="19.072618" lon="-98.612078">
        <ele>3724.408</ele>
        <time>2020-12-13T17:13:06Z</time>
      </trkpt>
      <trkpt lat="19.072646" lon="-98.612036">
        <ele>3724.361</ele>
        <time>2020-12-13T17:13:08Z</time>
      </trkpt>
      <trkpt lat="19.072678" lon="-98.611994">
        <ele>3724.697</ele>
        <time>2020-12-13T17:13:10Z</time>
      </trkpt>
      <trkpt lat="19.072711" lon="-98.611949">
        <ele>3724.817</ele>
        <time>2020-12-13T17:13:12Z</time>
      </trkpt>
      <trkpt lat="19.072744" lon="-98.61191">
        <ele>3724.998</ele>
        <time>2020-12-13T17:13:14Z</time>
      </trkpt>
      <trkpt lat="19.072786" lon="-98.611872">
        <ele>3725.889</ele>
        <time>2020-12-13T17:13:17Z</time>
      </trkpt>
      <trkpt lat="19.072839" lon="-98.611849">
        <ele>3724.748</ele>
        <time>2020-12-13T17:13:20Z</time>
      </trkpt>
      <trkpt lat="19.072907" lon="-98.611848">
        <ele>3724.514</ele>
        <time>2020-12-13T17:13:23Z</time>
      </trkpt>
      <trkpt lat="19.072968" lon="-98.611857">
        <ele>3724.840</ele>
        <time>2020-12-13T17:13:25Z</time>
      </trkpt>
      <trkpt lat="19.073044" lon="-98.611873">
        <ele>3723.845</ele>
        <time>2020-12-13T17:13:27Z</time>
      </trkpt>
      <trkpt lat="19.073118" lon="-98.61189">
        <ele>3722.847</ele>
        <time>2020-12-13T17:13:29Z</time>
      </trkpt>
      <trkpt lat="19.073186" lon="-98.611903">
        <ele>3723.011</ele>
        <time>2020-12-13T17:13:31Z</time>
      </trkpt>
      <trkpt lat="19.073246" lon="-98.611912">
        <ele>3722.308</ele>
        <time>2020-12-13T17:13:33Z</time>
      </trkpt>
      <trkpt lat="19.073293" lon="-98.611923">
        <ele>3722.330</ele>
        <time>2020-12-13T17:13:35Z</time>
      </trkpt>
      <trkpt lat="19.073343" lon="-98.611936">
        <ele>3721.186</ele>
        <time>2020-12-13T17:13:38Z</time>
      </trkpt>
      <trkpt lat="19.073388" lon="-98.611938">
        <ele>3719.296</ele>
        <time>2020-12-13T17:13:40Z</time>
      </trkpt>
      <trkpt lat="19.073437" lon="-98.611938">
        <ele>3718.477</ele>
        <time>2020-12-13T17:13:42Z</time>
      </trkpt>
      <trkpt lat="19.073502" lon="-98.611936">
        <ele>3717.588</ele>
        <time>2020-12-13T17:13:45Z</time>
      </trkpt>
      <trkpt lat="19.073563" lon="-98.611919">
        <ele>3716.217</ele>
        <time>2020-12-13T17:13:48Z</time>
      </trkpt>
      <trkpt lat="19.073603" lon="-98.611886">
        <ele>3715.093</ele>
        <time>2020-12-13T17:13:51Z</time>
      </trkpt>
      <trkpt lat="19.073605" lon="-98.611826">
        <ele>3713.519</ele>
        <time>2020-12-13T17:13:55Z</time>
      </trkpt>
      <trkpt lat="19.073599" lon="-98.611774">
        <ele>3711.058</ele>
        <time>2020-12-13T17:13:59Z</time>
      </trkpt>
      <trkpt lat="19.073606" lon="-98.61172">
        <ele>3709.152</ele>
        <time>2020-12-13T17:14:01Z</time>
      </trkpt>
      <trkpt lat="19.073622" lon="-98.611667">
        <ele>3706.817</ele>
        <time>2020-12-13T17:14:04Z</time>
      </trkpt>
      <trkpt lat="19.073651" lon="-98.61162">
        <ele>3704.208</ele>
        <time>2020-12-13T17:14:07Z</time>
      </trkpt>
      <trkpt lat="19.073693" lon="-98.611565">
        <ele>3701.881</ele>
        <time>2020-12-13T17:14:10Z</time>
      </trkpt>
      <trkpt lat="19.073721" lon="-98.611522">
        <ele>3700.067</ele>
        <time>2020-12-13T17:14:12Z</time>
      </trkpt>
      <trkpt lat="19.07375" lon="-98.611478">
        <ele>3697.777</ele>
        <time>2020-12-13T17:14:14Z</time>
      </trkpt>
      <trkpt lat="19.073779" lon="-98.611438">
        <ele>3695.548</ele>
        <time>2020-12-13T17:14:16Z</time>
      </trkpt>
      <trkpt lat="19.073808" lon="-98.611394">
        <ele>3694.639</ele>
        <time>2020-12-13T17:14:18Z</time>
      </trkpt>
      <trkpt lat="19.073839" lon="-98.611349">
        <ele>3694.588</ele>
        <time>2020-12-13T17:14:20Z</time>
      </trkpt>
      <trkpt lat="19.07388" lon="-98.611303">
        <ele>3694.494</ele>
        <time>2020-12-13T17:14:22Z</time>
      </trkpt>
      <trkpt lat="19.073922" lon="-98.611248">
        <ele>3694.350</ele>
        <time>2020-12-13T17:14:24Z</time>
      </trkpt>
      <trkpt lat="19.073962" lon="-98.61119">
        <ele>3693.985</ele>
        <time>2020-12-13T17:14:26Z</time>
      </trkpt>
      <trkpt lat="19.073998" lon="-98.611132">
        <ele>3692.489</ele>
        <time>2020-12-13T17:14:28Z</time>
      </trkpt>
      <trkpt lat="19.074026" lon="-98.611081">
        <ele>3691.517</ele>
        <time>2020-12-13T17:14:30Z</time>
      </trkpt>
      <trkpt lat="19.07405" lon="-98.611022">
        <ele>3691.408</ele>
        <time>2020-12-13T17:14:33Z</time>
      </trkpt>
      <trkpt lat="19.074094" lon="-98.61098">
        <ele>3690.524</ele>
        <time>2020-12-13T17:14:37Z</time>
      </trkpt>
      <trkpt lat="19.074146" lon="-98.610953">
        <ele>3689.620</ele>
        <time>2020-12-13T17:14:40Z</time>
      </trkpt>
      <trkpt lat="19.074205" lon="-98.610936">
        <ele>3687.810</ele>
        <time>2020-12-13T17:14:43Z</time>
      </trkpt>
      <trkpt lat="19.074264" lon="-98.610907">
        <ele>3686.721</ele>
        <time>2020-12-13T17:14:46Z</time>
      </trkpt>
      <trkpt lat="19.074323" lon="-98.610871">
        <ele>3683.712</ele>
        <time>2020-12-13T17:14:49Z</time>
      </trkpt>
      <trkpt lat="19.07436" lon="-98.610843">
        <ele>3680.791</ele>
        <time>2020-12-13T17:14:51Z</time>
      </trkpt>
      <trkpt lat="19.074394" lon="-98.610812">
        <ele>3678.537</ele>
        <time>2020-12-13T17:14:53Z</time>
      </trkpt>
      <trkpt lat="19.07443" lon="-98.610756">
        <ele>3676.093</ele>
        <time>2020-12-13T17:14:56Z</time>
      </trkpt>
      <trkpt lat="19.074463" lon="-98.610698">
        <ele>3674.192</ele>
        <time>2020-12-13T17:14:59Z</time>
      </trkpt>
      <trkpt lat="19.074499" lon="-98.610643">
        <ele>3673.473</ele>
        <time>2020-12-13T17:15:02Z</time>
      </trkpt>
      <trkpt lat="19.074531" lon="-98.6106">
        <ele>3671.020</ele>
        <time>2020-12-13T17:15:05Z</time>
      </trkpt>
      <trkpt lat="19.074567" lon="-98.610558">
        <ele>3668.708</ele>
        <time>2020-12-13T17:15:08Z</time>
      </trkpt>
      <trkpt lat="19.074608" lon="-98.610522">
        <ele>3666.555</ele>
        <time>2020-12-13T17:15:11Z</time>
      </trkpt>
      <trkpt lat="19.07465" lon="-98.610501">
        <ele>3665.231</ele>
        <time>2020-12-13T17:15:14Z</time>
      </trkpt>
      <trkpt lat="19.074695" lon="-98.610482">
        <ele>3664.441</ele>
        <time>2020-12-13T17:15:17Z</time>
      </trkpt>
      <trkpt lat="19.074748" lon="-98.610454">
        <ele>3662.742</ele>
        <time>2020-12-13T17:15:20Z</time>
      </trkpt>
      <trkpt lat="19.074796" lon="-98.610421">
        <ele>3661.713</ele>
        <time>2020-12-13T17:15:23Z</time>
      </trkpt>
      <trkpt lat="19.074836" lon="-98.610397">
        <ele>3661.592</ele>
        <time>2020-12-13T17:15:25Z</time>
      </trkpt>
      <trkpt lat="19.074883" lon="-98.610368">
        <ele>3661.088</ele>
        <time>2020-12-13T17:15:27Z</time>
      </trkpt>
      <trkpt lat="19.074931" lon="-98.610335">
        <ele>3660.724</ele>
        <time>2020-12-13T17:15:29Z</time>
      </trkpt>
      <trkpt lat="19.074982" lon="-98.610298">
        <ele>3660.587</ele>
        <time>2020-12-13T17:15:31Z</time>
      </trkpt>
      <trkpt lat="19.075036" lon="-98.610264">
        <ele>3660.842</ele>
        <time>2020-12-13T17:15:33Z</time>
      </trkpt>
      <trkpt lat="19.075092" lon="-98.610233">
        <ele>3659.826</ele>
        <time>2020-12-13T17:15:35Z</time>
      </trkpt>
      <trkpt lat="19.075146" lon="-98.610201">
        <ele>3658.408</ele>
        <time>2020-12-13T17:15:37Z</time>
      </trkpt>
      <trkpt lat="19.075189" lon="-98.610173">
        <ele>3657.634</ele>
        <time>2020-12-13T17:15:39Z</time>
      </trkpt>
      <trkpt lat="19.075239" lon="-98.610136">
        <ele>3657.170</ele>
        <time>2020-12-13T17:15:42Z</time>
      </trkpt>
      <trkpt lat="19.07528" lon="-98.610107">
        <ele>3655.650</ele>
        <time>2020-12-13T17:15:45Z</time>
      </trkpt>
      <trkpt lat="19.075316" lon="-98.610078">
        <ele>3655.151</ele>
        <time>2020-12-13T17:15:48Z</time>
      </trkpt>
      <trkpt lat="19.075347" lon="-98.610042">
        <ele>3654.472</ele>
        <time>2020-12-13T17:15:51Z</time>
      </trkpt>
      <trkpt lat="19.0754" lon="-98.610001">
        <ele>3653.631</ele>
        <time>2020-12-13T17:15:54Z</time>
      </trkpt>
      <trkpt lat="19.075438" lon="-98.609974">
        <ele>3653.557</ele>
        <time>2020-12-13T17:15:56Z</time>
      </trkpt>
      <trkpt lat="19.075502" lon="-98.609943">
        <ele>3653.843</ele>
        <time>2020-12-13T17:15:59Z</time>
      </trkpt>
      <trkpt lat="19.075562" lon="-98.609927">
        <ele>3654.856</ele>
        <time>2020-12-13T17:16:01Z</time>
      </trkpt>
      <trkpt lat="19.075629" lon="-98.609917">
        <ele>3653.459</ele>
        <time>2020-12-13T17:16:03Z</time>
      </trkpt>
      <trkpt lat="19.075686" lon="-98.609909">
        <ele>3653.414</ele>
        <time>2020-12-13T17:16:05Z</time>
      </trkpt>
      <trkpt lat="19.075731" lon="-98.609899">
        <ele>3653.408</ele>
        <time>2020-12-13T17:16:07Z</time>
      </trkpt>
      <trkpt lat="19.075795" lon="-98.609873">
        <ele>3652.251</ele>
        <time>2020-12-13T17:16:10Z</time>
      </trkpt>
      <trkpt lat="19.075835" lon="-98.60985">
        <ele>3652.367</ele>
        <time>2020-12-13T17:16:12Z</time>
      </trkpt>
      <trkpt lat="19.075881" lon="-98.609823">
        <ele>3651.977</ele>
        <time>2020-12-13T17:16:14Z</time>
      </trkpt>
      <trkpt lat="19.075926" lon="-98.609801">
        <ele>3651.388</ele>
        <time>2020-12-13T17:16:16Z</time>
      </trkpt>
      <trkpt lat="19.075977" lon="-98.609783">
        <ele>3651.369</ele>
        <time>2020-12-13T17:16:18Z</time>
      </trkpt>
      <trkpt lat="19.076039" lon="-98.609772">
        <ele>3650.548</ele>
        <time>2020-12-13T17:16:20Z</time>
      </trkpt>
      <trkpt lat="19.076094" lon="-98.60977">
        <ele>3649.644</ele>
        <time>2020-12-13T17:16:22Z</time>
      </trkpt>
      <trkpt lat="19.076156" lon="-98.609779">
        <ele>3649.570</ele>
        <time>2020-12-13T17:16:25Z</time>
      </trkpt>
      <trkpt lat="19.076203" lon="-98.609788">
        <ele>3649.882</ele>
        <time>2020-12-13T17:16:28Z</time>
      </trkpt>
      <trkpt lat="19.076249" lon="-98.609792">
        <ele>3648.843</ele>
        <time>2020-12-13T17:16:31Z</time>
      </trkpt>
      <trkpt lat="19.076297" lon="-98.609798">
        <ele>3645.417</ele>
        <time>2020-12-13T17:16:35Z</time>
      </trkpt>
      <trkpt lat="19.076352" lon="-98.609803">
        <ele>3642.608</ele>
        <time>2020-12-13T17:16:39Z</time>
      </trkpt>
      <trkpt lat="19.07641" lon="-98.609787">
        <ele>3641.364</ele>
        <time>2020-12-13T17:16:42Z</time>
      </trkpt>
      <trkpt lat="19.076466" lon="-98.609772">
        <ele>3639.710</ele>
        <time>2020-12-13T17:16:44Z</time>
      </trkpt>
      <trkpt lat="19.07653" lon="-98.609755">
        <ele>3638.410</ele>
        <time>2020-12-13T17:16:46Z</time>
      </trkpt>
      <trkpt lat="19.076595" lon="-98.609733">
        <ele>3637.251</ele>
        <time>2020-12-13T17:16:48Z</time>
      </trkpt>
      <trkpt lat="19.076654" lon="-98.60971">
        <ele>3636.192</ele>
        <time>2020-12-13T17:16:50Z</time>
      </trkpt>
      <trkpt lat="19.076713" lon="-98.609688">
        <ele>3636.241</ele>
        <time>2020-12-13T17:16:52Z</time>
      </trkpt>
      <trkpt lat="19.076768" lon="-98.609674">
        <ele>3635.957</ele>
        <time>2020-12-13T17:16:54Z</time>
      </trkpt>
      <trkpt lat="19.076814" lon="-98.609669">
        <ele>3636.513</ele>
        <time>2020-12-13T17:16:56Z</time>
      </trkpt>
      <trkpt lat="19.076878" lon="-98.609672">
        <ele>3638.143</ele>
        <time>2020-12-13T17:17:00Z</time>
      </trkpt>
      <trkpt lat="19.076925" lon="-98.609685">
        <ele>3639.464</ele>
        <time>2020-12-13T17:17:02Z</time>
      </trkpt>
      <trkpt lat="19.076969" lon="-98.609702">
        <ele>3640.210</ele>
        <time>2020-12-13T17:17:05Z</time>
      </trkpt>
      <trkpt lat="19.077022" lon="-98.609722">
        <ele>3640.308</ele>
        <time>2020-12-13T17:17:09Z</time>
      </trkpt>
      <trkpt lat="19.077068" lon="-98.609745">
        <ele>3640.350</ele>
        <time>2020-12-13T17:17:13Z</time>
      </trkpt>
      <trkpt lat="19.077118" lon="-98.609765">
        <ele>3639.136</ele>
        <time>2020-12-13T17:17:17Z</time>
      </trkpt>
      <trkpt lat="19.077161" lon="-98.609783">
        <ele>3638.896</ele>
        <time>2020-12-13T17:17:21Z</time>
      </trkpt>
      <trkpt lat="19.077208" lon="-98.609812">
        <ele>3638.637</ele>
        <time>2020-12-13T17:17:25Z</time>
      </trkpt>
      <trkpt lat="19.077255" lon="-98.60984">
        <ele>3637.738</ele>
        <time>2020-12-13T17:17:29Z</time>
      </trkpt>
      <trkpt lat="19.077302" lon="-98.609863">
        <ele>3637.297</ele>
        <time>2020-12-13T17:17:34Z</time>
      </trkpt>
      <trkpt lat="19.077352" lon="-98.609891">
        <ele>3636.113</ele>
        <time>2020-12-13T17:17:39Z</time>
      </trkpt>
      <trkpt lat="19.077389" lon="-98.609929">
        <ele>3635.029</ele>
        <time>2020-12-13T17:17:43Z</time>
      </trkpt>
      <trkpt lat="19.077424" lon="-98.609968">
        <ele>3633.644</ele>
        <time>2020-12-13T17:17:48Z</time>
      </trkpt>
      <trkpt lat="19.07745" lon="-98.610027">
        <ele>3632.705</ele>
        <time>2020-12-13T17:17:53Z</time>
      </trkpt>
      <trkpt lat="19.07745" lon="-98.610076">
        <ele>3632.615</ele>
        <time>2020-12-13T17:17:56Z</time>
      </trkpt>
      <trkpt lat="19.07745" lon="-98.610127">
        <ele>3632.508</ele>
        <time>2020-12-13T17:17:59Z</time>
      </trkpt>
      <trkpt lat="19.07746" lon="-98.610186">
        <ele>3632.560</ele>
        <time>2020-12-13T17:18:02Z</time>
      </trkpt>
      <trkpt lat="19.077484" lon="-98.610242">
        <ele>3632.146</ele>
        <time>2020-12-13T17:18:05Z</time>
      </trkpt>
      <trkpt lat="19.077506" lon="-98.610285">
        <ele>3633.426</ele>
        <time>2020-12-13T17:18:07Z</time>
      </trkpt>
      <trkpt lat="19.077535" lon="-98.610329">
        <ele>3634.667</ele>
        <time>2020-12-13T17:18:09Z</time>
      </trkpt>
      <trkpt lat="19.077568" lon="-98.61037">
        <ele>3635.738</ele>
        <time>2020-12-13T17:18:11Z</time>
      </trkpt>
      <trkpt lat="19.077607" lon="-98.610413">
        <ele>3636.447</ele>
        <time>2020-12-13T17:18:13Z</time>
      </trkpt>
      <trkpt lat="19.077647" lon="-98.610454">
        <ele>3636.463</ele>
        <time>2020-12-13T17:18:15Z</time>
      </trkpt>
      <trkpt lat="19.077692" lon="-98.610497">
        <ele>3636.029</ele>
        <time>2020-12-13T17:18:18Z</time>
      </trkpt>
      <trkpt lat="19.077744" lon="-98.610528">
        <ele>3635.053</ele>
        <time>2020-12-13T17:18:21Z</time>
      </trkpt>
      <trkpt lat="19.07779" lon="-98.610548">
        <ele>3634.404</ele>
        <time>2020-12-13T17:18:24Z</time>
      </trkpt>
      <trkpt lat="19.077845" lon="-98.610551">
        <ele>3633.614</ele>
        <time>2020-12-13T17:18:27Z</time>
      </trkpt>
      <trkpt lat="19.077895" lon="-98.610536">
        <ele>3632.708</ele>
        <time>2020-12-13T17:18:31Z</time>
      </trkpt>
      <trkpt lat="19.077947" lon="-98.610535">
        <ele>3633.021</ele>
        <time>2020-12-13T17:18:35Z</time>
      </trkpt>
      <trkpt lat="19.078" lon="-98.610535">
        <ele>3632.887</ele>
        <time>2020-12-13T17:18:38Z</time>
      </trkpt>
      <trkpt lat="19.078049" lon="-98.610529">
        <ele>3633.137</ele>
        <time>2020-12-13T17:18:41Z</time>
      </trkpt>
      <trkpt lat="19.078093" lon="-98.610516">
        <ele>3631.788</ele>
        <time>2020-12-13T17:18:44Z</time>
      </trkpt>
      <trkpt lat="19.078136" lon="-98.610484">
        <ele>3630.819</ele>
        <time>2020-12-13T17:18:48Z</time>
      </trkpt>
      <trkpt lat="19.078172" lon="-98.610446">
        <ele>3631.198</ele>
        <time>2020-12-13T17:18:54Z</time>
      </trkpt>
      <trkpt lat="19.078204" lon="-98.610405">
        <ele>3630.914</ele>
        <time>2020-12-13T17:19:00Z</time>
      </trkpt>
      <trkpt lat="19.078228" lon="-98.610363">
        <ele>3629.260</ele>
        <time>2020-12-13T17:19:04Z</time>
      </trkpt>
      <trkpt lat="19.078261" lon="-98.610319">
        <ele>3628.271</ele>
        <time>2020-12-13T17:19:08Z</time>
      </trkpt>
      <trkpt lat="19.078302" lon="-98.610283">
        <ele>3626.841</ele>
        <time>2020-12-13T17:19:12Z</time>
      </trkpt>
      <trkpt lat="19.078343" lon="-98.610261">
        <ele>3624.315</ele>
        <time>2020-12-13T17:19:16Z</time>
      </trkpt>
      <trkpt lat="19.078389" lon="-98.610257">
        <ele>3622.008</ele>
        <time>2020-12-13T17:19:24Z</time>
      </trkpt>
      <trkpt lat="19.078431" lon="-98.610233">
        <ele>3621.083</ele>
        <time>2020-12-13T17:19:31Z</time>
      </trkpt>
      <trkpt lat="19.078469" lon="-98.610187">
        <ele>3619.619</ele>
        <time>2020-12-13T17:19:34Z</time>
      </trkpt>
      <trkpt lat="19.078514" lon="-98.610153">
        <ele>3617.679</ele>
        <time>2020-12-13T17:19:36Z</time>
      </trkpt>
      <trkpt lat="19.078563" lon="-98.610122">
        <ele>3616.460</ele>
        <time>2020-12-13T17:19:38Z</time>
      </trkpt>
      <trkpt lat="19.078617" lon="-98.610093">
        <ele>3616.171</ele>
        <time>2020-12-13T17:19:40Z</time>
      </trkpt>
      <trkpt lat="19.078674" lon="-98.610066">
        <ele>3615.510</ele>
        <time>2020-12-13T17:19:42Z</time>
      </trkpt>
      <trkpt lat="19.078736" lon="-98.610043">
        <ele>3615.176</ele>
        <time>2020-12-13T17:19:44Z</time>
      </trkpt>
      <trkpt lat="19.078793" lon="-98.610032">
        <ele>3614.112</ele>
        <time>2020-12-13T17:19:46Z</time>
      </trkpt>
      <trkpt lat="19.078848" lon="-98.610027">
        <ele>3613.572</ele>
        <time>2020-12-13T17:19:48Z</time>
      </trkpt>
      <trkpt lat="19.078911" lon="-98.610029">
        <ele>3613.513</ele>
        <time>2020-12-13T17:19:50Z</time>
      </trkpt>
      <trkpt lat="19.078982" lon="-98.610038">
        <ele>3613.914</ele>
        <time>2020-12-13T17:19:52Z</time>
      </trkpt>
      <trkpt lat="19.079057" lon="-98.610045">
        <ele>3615.008</ele>
        <time>2020-12-13T17:19:54Z</time>
      </trkpt>
      <trkpt lat="19.079124" lon="-98.610047">
        <ele>3614.833</ele>
        <time>2020-12-13T17:19:56Z</time>
      </trkpt>
      <trkpt lat="19.079191" lon="-98.610043">
        <ele>3614.779</ele>
        <time>2020-12-13T17:19:58Z</time>
      </trkpt>
      <trkpt lat="19.079253" lon="-98.610036">
        <ele>3615.039</ele>
        <time>2020-12-13T17:20:00Z</time>
      </trkpt>
      <trkpt lat="19.079315" lon="-98.610023">
        <ele>3615.660</ele>
        <time>2020-12-13T17:20:02Z</time>
      </trkpt>
      <trkpt lat="19.079373" lon="-98.610007">
        <ele>3615.271</ele>
        <time>2020-12-13T17:20:04Z</time>
      </trkpt>
      <trkpt lat="19.079435" lon="-98.609989">
        <ele>3614.550</ele>
        <time>2020-12-13T17:20:06Z</time>
      </trkpt>
      <trkpt lat="19.079487" lon="-98.609973">
        <ele>3614.556</ele>
        <time>2020-12-13T17:20:08Z</time>
      </trkpt>
      <trkpt lat="19.07953" lon="-98.609955">
        <ele>3614.162</ele>
        <time>2020-12-13T17:20:10Z</time>
      </trkpt>
      <trkpt lat="19.079575" lon="-98.609933">
        <ele>3613.962</ele>
        <time>2020-12-13T17:20:12Z</time>
      </trkpt>
      <trkpt lat="19.079622" lon="-98.609908">
        <ele>3614.283</ele>
        <time>2020-12-13T17:20:14Z</time>
      </trkpt>
      <trkpt lat="19.079667" lon="-98.609878">
        <ele>3614.811</ele>
        <time>2020-12-13T17:20:16Z</time>
      </trkpt>
      <trkpt lat="19.079712" lon="-98.609844">
        <ele>3614.708</ele>
        <time>2020-12-13T17:20:18Z</time>
      </trkpt>
      <trkpt lat="19.079756" lon="-98.60981">
        <ele>3614.362</ele>
        <time>2020-12-13T17:20:20Z</time>
      </trkpt>
      <trkpt lat="19.079798" lon="-98.609776">
        <ele>3613.628</ele>
        <time>2020-12-13T17:20:22Z</time>
      </trkpt>
      <trkpt lat="19.079834" lon="-98.609744">
        <ele>3613.228</ele>
        <time>2020-12-13T17:20:24Z</time>
      </trkpt>
      <trkpt lat="19.07987" lon="-98.609712">
        <ele>3612.239</ele>
        <time>2020-12-13T17:20:26Z</time>
      </trkpt>
      <trkpt lat="19.079908" lon="-98.609683">
        <ele>3611.280</ele>
        <time>2020-12-13T17:20:28Z</time>
      </trkpt>
      <trkpt lat="19.079949" lon="-98.609653">
        <ele>3610.629</ele>
        <time>2020-12-13T17:20:31Z</time>
      </trkpt>
      <trkpt lat="19.080005" lon="-98.609612">
        <ele>3611.065</ele>
        <time>2020-12-13T17:20:33Z</time>
      </trkpt>
      <trkpt lat="19.080045" lon="-98.609588">
        <ele>3610.551</ele>
        <time>2020-12-13T17:20:35Z</time>
      </trkpt>
      <trkpt lat="19.080091" lon="-98.609568">
        <ele>3609.899</ele>
        <time>2020-12-13T17:20:37Z</time>
      </trkpt>
      <trkpt lat="19.080133" lon="-98.609543">
        <ele>3609.007</ele>
        <time>2020-12-13T17:20:39Z</time>
      </trkpt>
      <trkpt lat="19.08017" lon="-98.609514">
        <ele>3608.927</ele>
        <time>2020-12-13T17:20:41Z</time>
      </trkpt>
      <trkpt lat="19.080205" lon="-98.609481">
        <ele>3608.408</ele>
        <time>2020-12-13T17:20:43Z</time>
      </trkpt>
      <trkpt lat="19.080246" lon="-98.60943">
        <ele>3607.765</ele>
        <time>2020-12-13T17:20:46Z</time>
      </trkpt>
      <trkpt lat="19.080278" lon="-98.609378">
        <ele>3606.911</ele>
        <time>2020-12-13T17:20:50Z</time>
      </trkpt>
      <trkpt lat="19.080316" lon="-98.609332">
        <ele>3605.661</ele>
        <time>2020-12-13T17:20:53Z</time>
      </trkpt>
      <trkpt lat="19.080356" lon="-98.609302">
        <ele>3604.852</ele>
        <time>2020-12-13T17:20:57Z</time>
      </trkpt>
      <trkpt lat="19.080384" lon="-98.609264">
        <ele>3603.583</ele>
        <time>2020-12-13T17:21:01Z</time>
      </trkpt>
      <trkpt lat="19.080411" lon="-98.609211">
        <ele>3603.162</ele>
        <time>2020-12-13T17:21:05Z</time>
      </trkpt>
      <trkpt lat="19.080429" lon="-98.60916">
        <ele>3602.198</ele>
        <time>2020-12-13T17:21:09Z</time>
      </trkpt>
      <trkpt lat="19.080443" lon="-98.609101">
        <ele>3602.324</ele>
        <time>2020-12-13T17:21:14Z</time>
      </trkpt>
      <trkpt lat="19.080463" lon="-98.609048">
        <ele>3602.058</ele>
        <time>2020-12-13T17:21:17Z</time>
      </trkpt>
      <trkpt lat="19.080478" lon="-98.608987">
        <ele>3602.252</ele>
        <time>2020-12-13T17:21:20Z</time>
      </trkpt>
      <trkpt lat="19.08051" lon="-98.608931">
        <ele>3601.517</ele>
        <time>2020-12-13T17:21:23Z</time>
      </trkpt>
      <trkpt lat="19.080559" lon="-98.608876">
        <ele>3600.708</ele>
        <time>2020-12-13T17:21:26Z</time>
      </trkpt>
      <trkpt lat="19.080597" lon="-98.608834">
        <ele>3600.281</ele>
        <time>2020-12-13T17:21:28Z</time>
      </trkpt>
      <trkpt lat="19.080639" lon="-98.608791">
        <ele>3599.517</ele>
        <time>2020-12-13T17:21:30Z</time>
      </trkpt>
      <trkpt lat="19.080689" lon="-98.608745">
        <ele>3600.397</ele>
        <time>2020-12-13T17:21:32Z</time>
      </trkpt>
      <trkpt lat="19.080735" lon="-98.608697">
        <ele>3600.478</ele>
        <time>2020-12-13T17:21:34Z</time>
      </trkpt>
      <trkpt lat="19.080772" lon="-98.60865">
        <ele>3600.079</ele>
        <time>2020-12-13T17:21:36Z</time>
      </trkpt>
      <trkpt lat="19.080814" lon="-98.608606">
        <ele>3599.018</ele>
        <time>2020-12-13T17:21:38Z</time>
      </trkpt>
      <trkpt lat="19.080854" lon="-98.608572">
        <ele>3598.824</ele>
        <time>2020-12-13T17:21:40Z</time>
      </trkpt>
      <trkpt lat="19.080901" lon="-98.608535">
        <ele>3597.920</ele>
        <time>2020-12-13T17:21:43Z</time>
      </trkpt>
      <trkpt lat="19.080936" lon="-98.608502">
        <ele>3597.316</ele>
        <time>2020-12-13T17:21:46Z</time>
      </trkpt>
      <trkpt lat="19.080967" lon="-98.608465">
        <ele>3596.276</ele>
        <time>2020-12-13T17:21:49Z</time>
      </trkpt>
      <trkpt lat="19.081021" lon="-98.608444">
        <ele>3593.913</ele>
        <time>2020-12-13T17:21:52Z</time>
      </trkpt>
      <trkpt lat="19.081065" lon="-98.608429">
        <ele>3592.508</ele>
        <time>2020-12-13T17:21:55Z</time>
      </trkpt>
      <trkpt lat="19.081109" lon="-98.608413">
        <ele>3590.577</ele>
        <time>2020-12-13T17:21:56Z</time>
      </trkpt>
      <trkpt lat="19.081154" lon="-98.608392">
        <ele>3589.333</ele>
        <time>2020-12-13T17:21:58Z</time>
      </trkpt>
      <trkpt lat="19.081207" lon="-98.608369">
        <ele>3589.413</ele>
        <time>2020-12-13T17:22:00Z</time>
      </trkpt>
      <trkpt lat="19.08126" lon="-98.608346">
        <ele>3589.084</ele>
        <time>2020-12-13T17:22:02Z</time>
      </trkpt>
      <trkpt lat="19.081315" lon="-98.608322">
        <ele>3588.425</ele>
        <time>2020-12-13T17:22:04Z</time>
      </trkpt>
      <trkpt lat="19.081368" lon="-98.608295">
        <ele>3588.034</ele>
        <time>2020-12-13T17:22:06Z</time>
      </trkpt>
      <trkpt lat="19.08141" lon="-98.608261">
        <ele>3587.820</ele>
        <time>2020-12-13T17:22:08Z</time>
      </trkpt>
      <trkpt lat="19.081446" lon="-98.608227">
        <ele>3587.366</ele>
        <time>2020-12-13T17:22:10Z</time>
      </trkpt>
      <trkpt lat="19.081489" lon="-98.608177">
        <ele>3588.234</ele>
        <time>2020-12-13T17:22:13Z</time>
      </trkpt>
      <trkpt lat="19.081533" lon="-98.608134">
        <ele>3588.355</ele>
        <time>2020-12-13T17:22:16Z</time>
      </trkpt>
      <trkpt lat="19.081579" lon="-98.608101">
        <ele>3588.410</ele>
        <time>2020-12-13T17:22:19Z</time>
      </trkpt>
      <trkpt lat="19.081625" lon="-98.608071">
        <ele>3588.008</ele>
        <time>2020-12-13T17:22:22Z</time>
      </trkpt>
      <trkpt lat="19.081669" lon="-98.608051">
        <ele>3587.469</ele>
        <time>2020-12-13T17:22:25Z</time>
      </trkpt>
      <trkpt lat="19.081717" lon="-98.608037">
        <ele>3585.815</ele>
        <time>2020-12-13T17:22:28Z</time>
      </trkpt>
      <trkpt lat="19.081768" lon="-98.60802">
        <ele>3585.375</ele>
        <time>2020-12-13T17:22:31Z</time>
      </trkpt>
      <trkpt lat="19.081821" lon="-98.608003">
        <ele>3584.676</ele>
        <time>2020-12-13T17:22:34Z</time>
      </trkpt>
      <trkpt lat="19.081877" lon="-98.607985">
        <ele>3584.237</ele>
        <time>2020-12-13T17:22:37Z</time>
      </trkpt>
      <trkpt lat="19.081933" lon="-98.607971">
        <ele>3582.786</ele>
        <time>2020-12-13T17:22:40Z</time>
      </trkpt>
      <trkpt lat="19.082002" lon="-98.607964">
        <ele>3581.042</ele>
        <time>2020-12-13T17:22:43Z</time>
      </trkpt>
      <trkpt lat="19.082061" lon="-98.607962">
        <ele>3579.648</ele>
        <time>2020-12-13T17:22:45Z</time>
      </trkpt>
      <trkpt lat="19.082125" lon="-98.607956">
        <ele>3578.891</ele>
        <time>2020-12-13T17:22:47Z</time>
      </trkpt>
      <trkpt lat="19.082185" lon="-98.607943">
        <ele>3578.381</ele>
        <time>2020-12-13T17:22:49Z</time>
      </trkpt>
      <trkpt lat="19.082237" lon="-98.607927">
        <ele>3577.619</ele>
        <time>2020-12-13T17:22:51Z</time>
      </trkpt>
      <trkpt lat="19.082287" lon="-98.607908">
        <ele>3577.208</ele>
        <time>2020-12-13T17:22:53Z</time>
      </trkpt>
      <trkpt lat="19.082338" lon="-98.607889">
        <ele>3576.555</ele>
        <time>2020-12-13T17:22:55Z</time>
      </trkpt>
      <trkpt lat="19.082393" lon="-98.607873">
        <ele>3576.571</ele>
        <time>2020-12-13T17:22:57Z</time>
      </trkpt>
      <trkpt lat="19.082456" lon="-98.607853">
        <ele>3576.951</ele>
        <time>2020-12-13T17:22:59Z</time>
      </trkpt>
      <trkpt lat="19.082519" lon="-98.607827">
        <ele>3577.132</ele>
        <time>2020-12-13T17:23:01Z</time>
      </trkpt>
      <trkpt lat="19.082585" lon="-98.607793">
        <ele>3577.643</ele>
        <time>2020-12-13T17:23:03Z</time>
      </trkpt>
      <trkpt lat="19.082655" lon="-98.607751">
        <ele>3578.722</ele>
        <time>2020-12-13T17:23:05Z</time>
      </trkpt>
      <trkpt lat="19.082716" lon="-98.60771">
        <ele>3579.098</ele>
        <time>2020-12-13T17:23:07Z</time>
      </trkpt>
      <trkpt lat="19.082762" lon="-98.607679">
        <ele>3578.894</ele>
        <time>2020-12-13T17:23:09Z</time>
      </trkpt>
      <trkpt lat="19.082802" lon="-98.607655">
        <ele>3578.749</ele>
        <time>2020-12-13T17:23:11Z</time>
      </trkpt>
      <trkpt lat="19.082842" lon="-98.607631">
        <ele>3578.602</ele>
        <time>2020-12-13T17:23:13Z</time>
      </trkpt>
      <trkpt lat="19.082897" lon="-98.607593">
        <ele>3579.722</ele>
        <time>2020-12-13T17:23:16Z</time>
      </trkpt>
      <trkpt lat="19.082938" lon="-98.607556">
        <ele>3581.608</ele>
        <time>2020-12-13T17:23:18Z</time>
      </trkpt>
      <trkpt lat="19.082983" lon="-98.607514">
        <ele>3582.370</ele>
        <time>2020-12-13T17:23:21Z</time>
      </trkpt>
      <trkpt lat="19.083029" lon="-98.607481">
        <ele>3583.126</ele>
        <time>2020-12-13T17:23:24Z</time>
      </trkpt>
      <trkpt lat="19.083072" lon="-98.607449">
        <ele>3583.236</ele>
        <time>2020-12-13T17:23:27Z</time>
      </trkpt>
      <trkpt lat="19.083116" lon="-98.607417">
        <ele>3583.757</ele>
        <time>2020-12-13T17:23:31Z</time>
      </trkpt>
      <trkpt lat="19.083168" lon="-98.607388">
        <ele>3584.088</ele>
        <time>2020-12-13T17:23:35Z</time>
      </trkpt>
      <trkpt lat="19.083213" lon="-98.60736">
        <ele>3583.427</ele>
        <time>2020-12-13T17:23:39Z</time>
      </trkpt>
      <trkpt lat="19.083259" lon="-98.607328">
        <ele>3582.273</ele>
        <time>2020-12-13T17:23:43Z</time>
      </trkpt>
      <trkpt lat="19.083294" lon="-98.607276">
        <ele>3581.949</ele>
        <time>2020-12-13T17:23:47Z</time>
      </trkpt>
      <trkpt lat="19.083333" lon="-98.60722">
        <ele>3582.132</ele>
        <time>2020-12-13T17:23:50Z</time>
      </trkpt>
      <trkpt lat="19.08336" lon="-98.607177">
        <ele>3582.292</ele>
        <time>2020-12-13T17:23:52Z</time>
      </trkpt>
      <trkpt lat="19.083391" lon="-98.607124">
        <ele>3582.311</ele>
        <time>2020-12-13T17:23:54Z</time>
      </trkpt>
      <trkpt lat="19.083421" lon="-98.607067">
        <ele>3582.708</ele>
        <time>2020-12-13T17:23:56Z</time>
      </trkpt>
      <trkpt lat="19.083451" lon="-98.60702">
        <ele>3583.499</ele>
        <time>2020-12-13T17:23:59Z</time>
      </trkpt>
      <trkpt lat="19.083494" lon="-98.606975">
        <ele>3583.835</ele>
        <time>2020-12-13T17:24:01Z</time>
      </trkpt>
      <trkpt lat="19.083543" lon="-98.606931">
        <ele>3583.665</ele>
        <time>2020-12-13T17:24:04Z</time>
      </trkpt>
      <trkpt lat="19.083578" lon="-98.606893">
        <ele>3583.526</ele>
        <time>2020-12-13T17:24:06Z</time>
      </trkpt>
      <trkpt lat="19.083618" lon="-98.606848">
        <ele>3583.477</ele>
        <time>2020-12-13T17:24:08Z</time>
      </trkpt>
      <trkpt lat="19.083659" lon="-98.606807">
        <ele>3582.626</ele>
        <time>2020-12-13T17:24:10Z</time>
      </trkpt>
      <trkpt lat="19.083703" lon="-98.606762">
        <ele>3582.122</ele>
        <time>2020-12-13T17:24:12Z</time>
      </trkpt>
      <trkpt lat="19.08374" lon="-98.606726">
        <ele>3582.618</ele>
        <time>2020-12-13T17:24:15Z</time>
      </trkpt>
      <trkpt lat="19.083778" lon="-98.60669">
        <ele>3582.988</ele>
        <time>2020-12-13T17:24:16Z</time>
      </trkpt>
      <trkpt lat="19.083824" lon="-98.606642">
        <ele>3583.124</ele>
        <time>2020-12-13T17:24:18Z</time>
      </trkpt>
      <trkpt lat="19.083872" lon="-98.606583">
        <ele>3582.426</ele>
        <time>2020-12-13T17:24:20Z</time>
      </trkpt>
      <trkpt lat="19.083908" lon="-98.606544">
        <ele>3580.808</ele>
        <time>2020-12-13T17:24:22Z</time>
      </trkpt>
      <trkpt lat="19.083942" lon="-98.606506">
        <ele>3579.034</ele>
        <time>2020-12-13T17:24:24Z</time>
      </trkpt>
      <trkpt lat="19.083974" lon="-98.606467">
        <ele>3578.310</ele>
        <time>2020-12-13T17:24:26Z</time>
      </trkpt>
      <trkpt lat="19.084009" lon="-98.606427">
        <ele>3577.990</ele>
        <time>2020-12-13T17:24:28Z</time>
      </trkpt>
      <trkpt lat="19.084046" lon="-98.606394">
        <ele>3577.761</ele>
        <time>2020-12-13T17:24:30Z</time>
      </trkpt>
      <trkpt lat="19.084091" lon="-98.60636">
        <ele>3578.472</ele>
        <time>2020-12-13T17:24:32Z</time>
      </trkpt>
      <trkpt lat="19.084134" lon="-98.606325">
        <ele>3579.261</ele>
        <time>2020-12-13T17:24:34Z</time>
      </trkpt>
      <trkpt lat="19.084172" lon="-98.606286">
        <ele>3579.757</ele>
        <time>2020-12-13T17:24:36Z</time>
      </trkpt>
      <trkpt lat="19.084213" lon="-98.60625">
        <ele>3579.693</ele>
        <time>2020-12-13T17:24:38Z</time>
      </trkpt>
      <trkpt lat="19.084253" lon="-98.606217">
        <ele>3579.566</ele>
        <time>2020-12-13T17:24:40Z</time>
      </trkpt>
      <trkpt lat="19.084294" lon="-98.606185">
        <ele>3579.129</ele>
        <time>2020-12-13T17:24:42Z</time>
      </trkpt>
      <trkpt lat="19.084331" lon="-98.606157">
        <ele>3577.621</ele>
        <time>2020-12-13T17:24:44Z</time>
      </trkpt>
      <trkpt lat="19.084384" lon="-98.606125">
        <ele>3575.508</ele>
        <time>2020-12-13T17:24:47Z</time>
      </trkpt>
      <trkpt lat="19.084435" lon="-98.606107">
        <ele>3574.742</ele>
        <time>2020-12-13T17:24:50Z</time>
      </trkpt>
      <trkpt lat="19.084487" lon="-98.606102">
        <ele>3574.228</ele>
        <time>2020-12-13T17:24:54Z</time>
      </trkpt>
      <trkpt lat="19.084529" lon="-98.60608">
        <ele>3572.748</ele>
        <time>2020-12-13T17:24:58Z</time>
      </trkpt>
      <trkpt lat="19.084574" lon="-98.606063">
        <ele>3571.089</ele>
        <time>2020-12-13T17:25:02Z</time>
      </trkpt>
      <trkpt lat="19.084623" lon="-98.606044">
        <ele>3569.630</ele>
        <time>2020-12-13T17:25:07Z</time>
      </trkpt>
      <trkpt lat="19.084672" lon="-98.606028">
        <ele>3567.539</ele>
        <time>2020-12-13T17:25:11Z</time>
      </trkpt>
      <trkpt lat="19.084723" lon="-98.606018">
        <ele>3566.795</ele>
        <time>2020-12-13T17:25:14Z</time>
      </trkpt>
      <trkpt lat="19.084775" lon="-98.606009">
        <ele>3566.281</ele>
        <time>2020-12-13T17:25:17Z</time>
      </trkpt>
      <trkpt lat="19.084833" lon="-98.605999">
        <ele>3565.527</ele>
        <time>2020-12-13T17:25:20Z</time>
      </trkpt>
      <trkpt lat="19.084895" lon="-98.605984">
        <ele>3565.168</ele>
        <time>2020-12-13T17:25:23Z</time>
      </trkpt>
      <trkpt lat="19.084955" lon="-98.605956">
        <ele>3563.614</ele>
        <time>2020-12-13T17:25:26Z</time>
      </trkpt>
      <trkpt lat="19.084996" lon="-98.605934">
        <ele>3563.108</ele>
        <time>2020-12-13T17:25:28Z</time>
      </trkpt>
      <trkpt lat="19.085036" lon="-98.605912">
        <ele>3562.838</ele>
        <time>2020-12-13T17:25:30Z</time>
      </trkpt>
      <trkpt lat="19.085076" lon="-98.605884">
        <ele>3562.284</ele>
        <time>2020-12-13T17:25:32Z</time>
      </trkpt>
      <trkpt lat="19.085118" lon="-98.60585">
        <ele>3561.584</ele>
        <time>2020-12-13T17:25:34Z</time>
      </trkpt>
      <trkpt lat="19.085164" lon="-98.605818">
        <ele>3561.165</ele>
        <time>2020-12-13T17:25:36Z</time>
      </trkpt>
      <trkpt lat="19.085213" lon="-98.605791">
        <ele>3560.436</ele>
        <time>2020-12-13T17:25:38Z</time>
      </trkpt>
      <trkpt lat="19.085265" lon="-98.605759">
        <ele>3559.275</ele>
        <time>2020-12-13T17:25:40Z</time>
      </trkpt>
      <trkpt lat="19.085317" lon="-98.605727">
        <ele>3558.931</ele>
        <time>2020-12-13T17:25:42Z</time>
      </trkpt>
      <trkpt lat="19.085365" lon="-98.605694">
        <ele>3557.917</ele>
        <time>2020-12-13T17:25:44Z</time>
      </trkpt>
      <trkpt lat="19.085417" lon="-98.605664">
        <ele>3557.344</ele>
        <time>2020-12-13T17:25:46Z</time>
      </trkpt>
      <trkpt lat="19.085469" lon="-98.605638">
        <ele>3556.105</ele>
        <time>2020-12-13T17:25:48Z</time>
      </trkpt>
      <trkpt lat="19.085517" lon="-98.605618">
        <ele>3555.815</ele>
        <time>2020-12-13T17:25:50Z</time>
      </trkpt>
      <trkpt lat="19.085558" lon="-98.605599">
        <ele>3554.808</ele>
        <time>2020-12-13T17:25:52Z</time>
      </trkpt>
      <trkpt lat="19.085614" lon="-98.605573">
        <ele>3554.260</ele>
        <time>2020-12-13T17:25:55Z</time>
      </trkpt>
      <trkpt lat="19.085659" lon="-98.605553">
        <ele>3555.056</ele>
        <time>2020-12-13T17:25:57Z</time>
      </trkpt>
      <trkpt lat="19.08571" lon="-98.60553">
        <ele>3556.396</ele>
        <time>2020-12-13T17:25:59Z</time>
      </trkpt>
      <trkpt lat="19.085754" lon="-98.605511">
        <ele>3557.587</ele>
        <time>2020-12-13T17:26:01Z</time>
      </trkpt>
      <trkpt lat="19.085808" lon="-98.60549">
        <ele>3558.628</ele>
        <time>2020-12-13T17:26:04Z</time>
      </trkpt>
      <trkpt lat="19.085862" lon="-98.605474">
        <ele>3560.557</ele>
        <time>2020-12-13T17:26:07Z</time>
      </trkpt>
      <trkpt lat="19.085914" lon="-98.605478">
        <ele>3560.863</ele>
        <time>2020-12-13T17:26:10Z</time>
      </trkpt>
      <trkpt lat="19.085962" lon="-98.605478">
        <ele>3561.429</ele>
        <time>2020-12-13T17:26:13Z</time>
      </trkpt>
      <trkpt lat="19.08602" lon="-98.605469">
        <ele>3561.897</ele>
        <time>2020-12-13T17:26:16Z</time>
      </trkpt>
      <trkpt lat="19.086082" lon="-98.605454">
        <ele>3561.623</ele>
        <time>2020-12-13T17:26:19Z</time>
      </trkpt>
      <trkpt lat="19.086139" lon="-98.605437">
        <ele>3561.925</ele>
        <time>2020-12-13T17:26:22Z</time>
      </trkpt>
      <trkpt lat="19.086189" lon="-98.605422">
        <ele>3563.308</ele>
        <time>2020-12-13T17:26:25Z</time>
      </trkpt>
      <trkpt lat="19.086239" lon="-98.605414">
        <ele>3563.765</ele>
        <time>2020-12-13T17:26:28Z</time>
      </trkpt>
      <trkpt lat="19.086286" lon="-98.60542">
        <ele>3563.271</ele>
        <time>2020-12-13T17:26:31Z</time>
      </trkpt>
      <trkpt lat="19.086337" lon="-98.605429">
        <ele>3561.721</ele>
        <time>2020-12-13T17:26:34Z</time>
      </trkpt>
      <trkpt lat="19.086387" lon="-98.605434">
        <ele>3560.812</ele>
        <time>2020-12-13T17:26:37Z</time>
      </trkpt>
      <trkpt lat="19.086436" lon="-98.605433">
        <ele>3561.143</ele>
        <time>2020-12-13T17:26:40Z</time>
      </trkpt>
      <trkpt lat="19.086488" lon="-98.605436">
        <ele>3561.392</ele>
        <time>2020-12-13T17:26:43Z</time>
      </trkpt>
      <trkpt lat="19.086546" lon="-98.605443">
        <ele>3561.098</ele>
        <time>2020-12-13T17:26:46Z</time>
      </trkpt>
      <trkpt lat="19.086604" lon="-98.605452">
        <ele>3562.024</ele>
        <time>2020-12-13T17:26:49Z</time>
      </trkpt>
      <trkpt lat="19.08665" lon="-98.605456">
        <ele>3563.085</ele>
        <time>2020-12-13T17:26:52Z</time>
      </trkpt>
      <trkpt lat="19.086695" lon="-98.605463">
        <ele>3562.889</ele>
        <time>2020-12-13T17:26:55Z</time>
      </trkpt>
      <trkpt lat="19.086755" lon="-98.605472">
        <ele>3561.917</ele>
        <time>2020-12-13T17:26:58Z</time>
      </trkpt>
      <trkpt lat="19.086803" lon="-98.605473">
        <ele>3562.108</ele>
        <time>2020-12-13T17:27:00Z</time>
      </trkpt>
      <trkpt lat="19.086855" lon="-98.60547">
        <ele>3561.054</ele>
        <time>2020-12-13T17:27:02Z</time>
      </trkpt>
      <trkpt lat="19.086907" lon="-98.605466">
        <ele>3560.490</ele>
        <time>2020-12-13T17:27:04Z</time>
      </trkpt>
      <trkpt lat="19.08696" lon="-98.605455">
        <ele>3559.670</ele>
        <time>2020-12-13T17:27:06Z</time>
      </trkpt>
      <trkpt lat="19.087004" lon="-98.605427">
        <ele>3559.971</ele>
        <time>2020-12-13T17:27:08Z</time>
      </trkpt>
      <trkpt lat="19.087029" lon="-98.605385">
        <ele>3559.742</ele>
        <time>2020-12-13T17:27:10Z</time>
      </trkpt>
      <trkpt lat="19.087024" lon="-98.60532">
        <ele>3559.621</ele>
        <time>2020-12-13T17:27:13Z</time>
      </trkpt>
      <trkpt lat="19.086996" lon="-98.605276">
        <ele>3559.187</ele>
        <time>2020-12-13T17:27:16Z</time>
      </trkpt>
      <trkpt lat="19.086954" lon="-98.605247">
        <ele>3558.843</ele>
        <time>2020-12-13T17:27:19Z</time>
      </trkpt>
      <trkpt lat="19.086912" lon="-98.605223">
        <ele>3558.683</ele>
        <time>2020-12-13T17:27:21Z</time>
      </trkpt>
      <trkpt lat="19.086873" lon="-98.605198">
        <ele>3557.725</ele>
        <time>2020-12-13T17:27:23Z</time>
      </trkpt>
      <trkpt lat="19.086826" lon="-98.605165">
        <ele>3556.417</ele>
        <time>2020-12-13T17:27:26Z</time>
      </trkpt>
      <trkpt lat="19.086795" lon="-98.60513">
        <ele>3553.208</ele>
        <time>2020-12-13T17:27:47Z</time>
      </trkpt>
      <trkpt lat="19.086751" lon="-98.605106">
        <ele>3552.174</ele>
        <time>2020-12-13T17:27:50Z</time>
      </trkpt>
      <trkpt lat="19.086703" lon="-98.605081">
        <ele>3551.470</ele>
        <time>2020-12-13T17:27:54Z</time>
      </trkpt>
      <trkpt lat="19.08668" lon="-98.605037">
        <ele>3550.280</ele>
        <time>2020-12-13T17:27:57Z</time>
      </trkpt>
      <trkpt lat="19.08665" lon="-98.604998">
        <ele>3548.751</ele>
        <time>2020-12-13T17:28:00Z</time>
      </trkpt>
      <trkpt lat="19.086603" lon="-98.60496">
        <ele>3546.222</ele>
        <time>2020-12-13T17:28:04Z</time>
      </trkpt>
      <trkpt lat="19.086555" lon="-98.604931">
        <ele>3545.531</ele>
        <time>2020-12-13T17:28:07Z</time>
      </trkpt>
      <trkpt lat="19.086509" lon="-98.604917">
        <ele>3544.387</ele>
        <time>2020-12-13T17:28:10Z</time>
      </trkpt>
      <trkpt lat="19.086456" lon="-98.604892">
        <ele>3544.473</ele>
        <time>2020-12-13T17:28:13Z</time>
      </trkpt>
      <trkpt lat="19.086397" lon="-98.604857">
        <ele>3543.688</ele>
        <time>2020-12-13T17:28:16Z</time>
      </trkpt>
      <trkpt lat="19.086355" lon="-98.604834">
        <ele>3543.124</ele>
        <time>2020-12-13T17:28:18Z</time>
      </trkpt>
      <trkpt lat="19.086308" lon="-98.604806">
        <ele>3543.226</ele>
        <time>2020-12-13T17:28:20Z</time>
      </trkpt>
      <trkpt lat="19.086253" lon="-98.604772">
        <ele>3542.908</ele>
        <time>2020-12-13T17:28:22Z</time>
      </trkpt>
      <trkpt lat="19.086201" lon="-98.604744">
        <ele>3543.164</ele>
        <time>2020-12-13T17:28:24Z</time>
      </trkpt>
      <trkpt lat="19.086151" lon="-98.604718">
        <ele>3543.290</ele>
        <time>2020-12-13T17:28:26Z</time>
      </trkpt>
      <trkpt lat="19.0861" lon="-98.604691">
        <ele>3543.740</ele>
        <time>2020-12-13T17:28:28Z</time>
      </trkpt>
      <trkpt lat="19.086056" lon="-98.604664">
        <ele>3543.671</ele>
        <time>2020-12-13T17:28:30Z</time>
      </trkpt>
      <trkpt lat="19.086013" lon="-98.604628">
        <ele>3542.722</ele>
        <time>2020-12-13T17:28:33Z</time>
      </trkpt>
      <trkpt lat="19.085961" lon="-98.604613">
        <ele>3541.061</ele>
        <time>2020-12-13T17:28:37Z</time>
      </trkpt>
      <trkpt lat="19.085904" lon="-98.604624">
        <ele>3539.647</ele>
        <time>2020-12-13T17:28:41Z</time>
      </trkpt>
      <trkpt lat="19.085845" lon="-98.604628">
        <ele>3537.963</ele>
        <time>2020-12-13T17:28:44Z</time>
      </trkpt>
      <trkpt lat="19.085794" lon="-98.604626">
        <ele>3537.768</ele>
        <time>2020-12-13T17:28:52Z</time>
      </trkpt>
      <trkpt lat="19.085748" lon="-98.604621">
        <ele>3536.442</ele>
        <time>2020-12-13T17:28:55Z</time>
      </trkpt>
      <trkpt lat="19.085704" lon="-98.604586">
        <ele>3535.226</ele>
        <time>2020-12-13T17:28:59Z</time>
      </trkpt>
      <trkpt lat="19.085648" lon="-98.604568">
        <ele>3532.908</ele>
        <time>2020-12-13T17:29:03Z</time>
      </trkpt>
      <trkpt lat="19.085581" lon="-98.604566">
        <ele>3533.132</ele>
        <time>2020-12-13T17:29:06Z</time>
      </trkpt>
      <trkpt lat="19.085529" lon="-98.60455">
        <ele>3533.618</ele>
        <time>2020-12-13T17:29:09Z</time>
      </trkpt>
      <trkpt lat="19.085477" lon="-98.604519">
        <ele>3535.938</ele>
        <time>2020-12-13T17:29:12Z</time>
      </trkpt>
      <trkpt lat="19.085435" lon="-98.604501">
        <ele>3536.959</ele>
        <time>2020-12-13T17:29:14Z</time>
      </trkpt>
      <trkpt lat="19.085394" lon="-98.604476">
        <ele>3538.360</ele>
        <time>2020-12-13T17:29:16Z</time>
      </trkpt>
      <trkpt lat="19.08534" lon="-98.604456">
        <ele>3538.769</ele>
        <time>2020-12-13T17:29:19Z</time>
      </trkpt>
      <trkpt lat="19.08529" lon="-98.60444">
        <ele>3538.615</ele>
        <time>2020-12-13T17:29:23Z</time>
      </trkpt>
      <trkpt lat="19.085234" lon="-98.60441">
        <ele>3540.171</ele>
        <time>2020-12-13T17:29:26Z</time>
      </trkpt>
      <trkpt lat="19.08518" lon="-98.604375">
        <ele>3540.631</ele>
        <time>2020-12-13T17:29:29Z</time>
      </trkpt>
      <trkpt lat="19.085127" lon="-98.604343">
        <ele>3540.961</ele>
        <time>2020-12-13T17:29:32Z</time>
      </trkpt>
      <trkpt lat="19.085082" lon="-98.604309">
        <ele>3541.107</ele>
        <time>2020-12-13T17:29:35Z</time>
      </trkpt>
      <trkpt lat="19.085033" lon="-98.604266">
        <ele>3541.208</ele>
        <time>2020-12-13T17:29:38Z</time>
      </trkpt>
      <trkpt lat="19.084977" lon="-98.604222">
        <ele>3541.769</ele>
        <time>2020-12-13T17:29:41Z</time>
      </trkpt>
      <trkpt lat="19.084938" lon="-98.604189">
        <ele>3541.695</ele>
        <time>2020-12-13T17:29:43Z</time>
      </trkpt>
      <trkpt lat="19.084888" lon="-98.604151">
        <ele>3540.725</ele>
        <time>2020-12-13T17:29:46Z</time>
      </trkpt>
      <trkpt lat="19.084839" lon="-98.604123">
        <ele>3539.036</ele>
        <time>2020-12-13T17:29:49Z</time>
      </trkpt>
      <trkpt lat="19.084793" lon="-98.60411">
        <ele>3538.037</ele>
        <time>2020-12-13T17:29:52Z</time>
      </trkpt>
      <trkpt lat="19.084738" lon="-98.604093">
        <ele>3536.296</ele>
        <time>2020-12-13T17:29:55Z</time>
      </trkpt>
      <trkpt lat="19.084683" lon="-98.604075">
        <ele>3535.552</ele>
        <time>2020-12-13T17:29:58Z</time>
      </trkpt>
      <trkpt lat="19.084624" lon="-98.604055">
        <ele>3534.738</ele>
        <time>2020-12-13T17:30:01Z</time>
      </trkpt>
      <trkpt lat="19.084575" lon="-98.60404">
        <ele>3534.629</ele>
        <time>2020-12-13T17:30:03Z</time>
      </trkpt>
      <trkpt lat="19.084518" lon="-98.604023">
        <ele>3535.300</ele>
        <time>2020-12-13T17:30:05Z</time>
      </trkpt>
      <trkpt lat="19.084462" lon="-98.604004">
        <ele>3536.120</ele>
        <time>2020-12-13T17:30:07Z</time>
      </trkpt>
      <trkpt lat="19.084415" lon="-98.60397">
        <ele>3536.208</ele>
        <time>2020-12-13T17:30:09Z</time>
      </trkpt>
      <trkpt lat="19.084386" lon="-98.603927">
        <ele>3536.338</ele>
        <time>2020-12-13T17:30:11Z</time>
      </trkpt>
      <trkpt lat="19.084368" lon="-98.603873">
        <ele>3536.324</ele>
        <time>2020-12-13T17:30:13Z</time>
      </trkpt>
      <trkpt lat="19.084369" lon="-98.603816">
        <ele>3535.924</ele>
        <time>2020-12-13T17:30:15Z</time>
      </trkpt>
      <trkpt lat="19.084394" lon="-98.603752">
        <ele>3534.915</ele>
        <time>2020-12-13T17:30:18Z</time>
      </trkpt>
      <trkpt lat="19.084432" lon="-98.603697">
        <ele>3533.926</ele>
        <time>2020-12-13T17:30:21Z</time>
      </trkpt>
      <trkpt lat="19.084465" lon="-98.603649">
        <ele>3532.965</ele>
        <time>2020-12-13T17:30:24Z</time>
      </trkpt>
      <trkpt lat="19.08449" lon="-98.603599">
        <ele>3532.311</ele>
        <time>2020-12-13T17:30:27Z</time>
      </trkpt>
      <trkpt lat="19.08452" lon="-98.603543">
        <ele>3531.567</ele>
        <time>2020-12-13T17:30:30Z</time>
      </trkpt>
      <trkpt lat="19.084552" lon="-98.603492">
        <ele>3529.485</ele>
        <time>2020-12-13T17:30:33Z</time>
      </trkpt>
      <trkpt lat="19.084583" lon="-98.603432">
        <ele>3527.889</ele>
        <time>2020-12-13T17:30:36Z</time>
      </trkpt>
      <trkpt lat="19.084597" lon="-98.603369">
        <ele>3525.217</ele>
        <time>2020-12-13T17:30:39Z</time>
      </trkpt>
      <trkpt lat="19.084613" lon="-98.603306">
        <ele>3522.908</ele>
        <time>2020-12-13T17:30:42Z</time>
      </trkpt>
      <trkpt lat="19.084629" lon="-98.603261">
        <ele>3521.554</ele>
        <time>2020-12-13T17:30:44Z</time>
      </trkpt>
      <trkpt lat="19.084647" lon="-98.603215">
        <ele>3519.510</ele>
        <time>2020-12-13T17:30:46Z</time>
      </trkpt>
      <trkpt lat="19.084665" lon="-98.603167">
        <ele>3517.920</ele>
        <time>2020-12-13T17:30:48Z</time>
      </trkpt>
      <trkpt lat="19.084682" lon="-98.603118">
        <ele>3516.571</ele>
        <time>2020-12-13T17:30:50Z</time>
      </trkpt>
      <trkpt lat="19.084699" lon="-98.603072">
        <ele>3515.742</ele>
        <time>2020-12-13T17:30:52Z</time>
      </trkpt>
      <trkpt lat="19.084725" lon="-98.603012">
        <ele>3514.841</ele>
        <time>2020-12-13T17:30:55Z</time>
      </trkpt>
      <trkpt lat="19.084754" lon="-98.602958">
        <ele>3513.947</ele>
        <time>2020-12-13T17:30:58Z</time>
      </trkpt>
      <trkpt lat="19.084778" lon="-98.602902">
        <ele>3512.953</ele>
        <time>2020-12-13T17:31:01Z</time>
      </trkpt>
      <trkpt lat="19.084803" lon="-98.602847">
        <ele>3511.955</ele>
        <time>2020-12-13T17:31:04Z</time>
      </trkpt>
      <trkpt lat="19.084844" lon="-98.602788">
        <ele>3510.507</ele>
        <time>2020-12-13T17:31:07Z</time>
      </trkpt>
      <trkpt lat="19.084874" lon="-98.602749">
        <ele>3509.317</ele>
        <time>2020-12-13T17:31:09Z</time>
      </trkpt>
      <trkpt lat="19.084899" lon="-98.602706">
        <ele>3509.008</ele>
        <time>2020-12-13T17:31:11Z</time>
      </trkpt>
      <trkpt lat="19.084919" lon="-98.602637">
        <ele>3510.891</ele>
        <time>2020-12-13T17:31:14Z</time>
      </trkpt>
      <trkpt lat="19.084929" lon="-98.602574">
        <ele>3512.397</ele>
        <time>2020-12-13T17:31:16Z</time>
      </trkpt>
      <trkpt lat="19.084935" lon="-98.602508">
        <ele>3513.637</ele>
        <time>2020-12-13T17:31:18Z</time>
      </trkpt>
      <trkpt lat="19.084945" lon="-98.602433">
        <ele>3515.238</ele>
        <time>2020-12-13T17:31:21Z</time>
      </trkpt>
      <trkpt lat="19.084964" lon="-98.602372">
        <ele>3516.129</ele>
        <time>2020-12-13T17:31:22Z</time>
      </trkpt>
      <trkpt lat="19.085004" lon="-98.60232">
        <ele>3516.348</ele>
        <time>2020-12-13T17:31:25Z</time>
      </trkpt>
      <trkpt lat="19.085036" lon="-98.602281">
        <ele>3515.664</ele>
        <time>2020-12-13T17:31:28Z</time>
      </trkpt>
      <trkpt lat="19.085081" lon="-98.602245">
        <ele>3514.030</ele>
        <time>2020-12-13T17:31:33Z</time>
      </trkpt>
      <trkpt lat="19.085113" lon="-98.602206">
        <ele>3512.659</ele>
        <time>2020-12-13T17:31:37Z</time>
      </trkpt>
      <trkpt lat="19.085148" lon="-98.602152">
        <ele>3511.803</ele>
        <time>2020-12-13T17:31:41Z</time>
      </trkpt>
      <trkpt lat="19.085183" lon="-98.602102">
        <ele>3511.323</ele>
        <time>2020-12-13T17:31:44Z</time>
      </trkpt>
      <trkpt lat="19.085222" lon="-98.602051">
        <ele>3509.808</ele>
        <time>2020-12-13T17:31:47Z</time>
      </trkpt>
      <trkpt lat="19.085257" lon="-98.602008">
        <ele>3507.711</ele>
        <time>2020-12-13T17:31:50Z</time>
      </trkpt>
      <trkpt lat="19.085301" lon="-98.601952">
        <ele>3505.637</ele>
        <time>2020-12-13T17:31:53Z</time>
      </trkpt>
      <trkpt lat="19.085324" lon="-98.601908">
        <ele>3504.857</ele>
        <time>2020-12-13T17:31:55Z</time>
      </trkpt>
      <trkpt lat="19.085342" lon="-98.601842">
        <ele>3504.398</ele>
        <time>2020-12-13T17:31:58Z</time>
      </trkpt>
      <trkpt lat="19.085358" lon="-98.601771">
        <ele>3503.699</ele>
        <time>2020-12-13T17:32:01Z</time>
      </trkpt>
      <trkpt lat="19.085364" lon="-98.601717">
        <ele>3502.458</ele>
        <time>2020-12-13T17:32:03Z</time>
      </trkpt>
      <trkpt lat="19.085374" lon="-98.601661">
        <ele>3501.324</ele>
        <time>2020-12-13T17:32:05Z</time>
      </trkpt>
      <trkpt lat="19.085389" lon="-98.60161">
        <ele>3501.430</ele>
        <time>2020-12-13T17:32:07Z</time>
      </trkpt>
      <trkpt lat="19.085409" lon="-98.601561">
        <ele>3501.919</ele>
        <time>2020-12-13T17:32:09Z</time>
      </trkpt>
      <trkpt lat="19.085434" lon="-98.601506">
        <ele>3502.609</ele>
        <time>2020-12-13T17:32:11Z</time>
      </trkpt>
      <trkpt lat="19.085465" lon="-98.601458">
        <ele>3502.619</ele>
        <time>2020-12-13T17:32:13Z</time>
      </trkpt>
      <trkpt lat="19.085501" lon="-98.601418">
        <ele>3503.008</ele>
        <time>2020-12-13T17:32:15Z</time>
      </trkpt>
      <trkpt lat="19.085546" lon="-98.601365">
        <ele>3503.247</ele>
        <time>2020-12-13T17:32:18Z</time>
      </trkpt>
      <trkpt lat="19.08559" lon="-98.60131">
        <ele>3503.323</ele>
        <time>2020-12-13T17:32:21Z</time>
      </trkpt>
      <trkpt lat="19.085624" lon="-98.601267">
        <ele>3503.823</ele>
        <time>2020-12-13T17:32:23Z</time>
      </trkpt>
      <trkpt lat="19.085663" lon="-98.601215">
        <ele>3504.514</ele>
        <time>2020-12-13T17:32:25Z</time>
      </trkpt>
      <trkpt lat="19.085699" lon="-98.601159">
        <ele>3506.195</ele>
        <time>2020-12-13T17:32:27Z</time>
      </trkpt>
      <trkpt lat="19.085725" lon="-98.601099">
        <ele>3506.374</ele>
        <time>2020-12-13T17:32:29Z</time>
      </trkpt>
      <trkpt lat="19.085733" lon="-98.601049">
        <ele>3506.030</ele>
        <time>2020-12-13T17:32:31Z</time>
      </trkpt>
      <trkpt lat="19.085744" lon="-98.601003">
        <ele>3506.626</ele>
        <time>2020-12-13T17:32:33Z</time>
      </trkpt>
      <trkpt lat="19.08576" lon="-98.600955">
        <ele>3506.664</ele>
        <time>2020-12-13T17:32:35Z</time>
      </trkpt>
      <trkpt lat="19.085776" lon="-98.600909">
        <ele>3506.606</ele>
        <time>2020-12-13T17:32:37Z</time>
      </trkpt>
      <trkpt lat="19.08579" lon="-98.600858">
        <ele>3506.616</ele>
        <time>2020-12-13T17:32:39Z</time>
      </trkpt>
      <trkpt lat="19.08581" lon="-98.600809">
        <ele>3506.608</ele>
        <time>2020-12-13T17:32:41Z</time>
      </trkpt>
      <trkpt lat="19.085832" lon="-98.600764">
        <ele>3506.682</ele>
        <time>2020-12-13T17:32:43Z</time>
      </trkpt>
      <trkpt lat="19.085854" lon="-98.600722">
        <ele>3506.618</ele>
        <time>2020-12-13T17:32:45Z</time>
      </trkpt>
      <trkpt lat="19.085889" lon="-98.60067">
        <ele>3505.478</ele>
        <time>2020-12-13T17:32:48Z</time>
      </trkpt>
      <trkpt lat="19.085902" lon="-98.60061">
        <ele>3503.949</ele>
        <time>2020-12-13T17:32:51Z</time>
      </trkpt>
      <trkpt lat="19.085899" lon="-98.600552">
        <ele>3503.030</ele>
        <time>2020-12-13T17:32:54Z</time>
      </trkpt>
      <trkpt lat="19.08591" lon="-98.600492">
        <ele>3502.139</ele>
        <time>2020-12-13T17:32:57Z</time>
      </trkpt>
      <trkpt lat="19.085923" lon="-98.600426">
        <ele>3501.965</ele>
        <time>2020-12-13T17:33:00Z</time>
      </trkpt>
      <trkpt lat="19.085941" lon="-98.600381">
        <ele>3501.061</ele>
        <time>2020-12-13T17:33:03Z</time>
      </trkpt>
      <trkpt lat="19.085979" lon="-98.600332">
        <ele>3500.546</ele>
        <time>2020-12-13T17:33:07Z</time>
      </trkpt>
      <trkpt lat="19.086005" lon="-98.600281">
        <ele>3499.488</ele>
        <time>2020-12-13T17:33:10Z</time>
      </trkpt>
      <trkpt lat="19.08605" lon="-98.600265">
        <ele>3496.316</ele>
        <time>2020-12-13T17:33:14Z</time>
      </trkpt>
      <trkpt lat="19.086103" lon="-98.600253">
        <ele>3494.508</ele>
        <time>2020-12-13T17:33:19Z</time>
      </trkpt>
      <trkpt lat="19.086147" lon="-98.600228">
        <ele>3493.440</ele>
        <time>2020-12-13T17:33:22Z</time>
      </trkpt>
      <trkpt lat="19.086184" lon="-98.600182">
        <ele>3492.716</ele>
        <time>2020-12-13T17:33:25Z</time>
      </trkpt>
      <trkpt lat="19.086204" lon="-98.600123">
        <ele>3492.386</ele>
        <time>2020-12-13T17:33:28Z</time>
      </trkpt>
      <trkpt lat="19.086237" lon="-98.60007">
        <ele>3493.327</ele>
        <time>2020-12-13T17:33:31Z</time>
      </trkpt>
      <trkpt lat="19.086288" lon="-98.600036">
        <ele>3492.738</ele>
        <time>2020-12-13T17:33:34Z</time>
      </trkpt>
      <trkpt lat="19.086341" lon="-98.600017">
        <ele>3492.767</ele>
        <time>2020-12-13T17:33:37Z</time>
      </trkpt>
      <trkpt lat="19.086379" lon="-98.599964">
        <ele>3492.373</ele>
        <time>2020-12-13T17:33:40Z</time>
      </trkpt>
      <trkpt lat="19.08641" lon="-98.599907">
        <ele>3491.339</ele>
        <time>2020-12-13T17:33:43Z</time>
      </trkpt>
      <trkpt lat="19.086435" lon="-98.599859">
        <ele>3489.952</ele>
        <time>2020-12-13T17:33:46Z</time>
      </trkpt>
      <trkpt lat="19.086462" lon="-98.599819">
        <ele>3489.053</ele>
        <time>2020-12-13T17:33:49Z</time>
      </trkpt>
      <trkpt lat="19.086499" lon="-98.599783">
        <ele>3487.708</ele>
        <time>2020-12-13T17:33:53Z</time>
      </trkpt>
      <trkpt lat="19.086534" lon="-98.599744">
        <ele>3487.308</ele>
        <time>2020-12-13T17:33:57Z</time>
      </trkpt>
      <trkpt lat="19.086563" lon="-98.599694">
        <ele>3485.971</ele>
        <time>2020-12-13T17:34:01Z</time>
      </trkpt>
      <trkpt lat="19.086584" lon="-98.599645">
        <ele>3484.687</ele>
        <time>2020-12-13T17:34:05Z</time>
      </trkpt>
      <trkpt lat="19.086585" lon="-98.599589">
        <ele>3484.677</ele>
        <time>2020-12-13T17:34:09Z</time>
      </trkpt>
      <trkpt lat="19.086584" lon="-98.599537">
        <ele>3485.448</ele>
        <time>2020-12-13T17:34:12Z</time>
      </trkpt>
      <trkpt lat="19.086587" lon="-98.599484">
        <ele>3486.389</ele>
        <time>2020-12-13T17:34:15Z</time>
      </trkpt>
      <trkpt lat="19.086592" lon="-98.59942">
        <ele>3488.068</ele>
        <time>2020-12-13T17:34:18Z</time>
      </trkpt>
      <trkpt lat="19.086602" lon="-98.599357">
        <ele>3488.254</ele>
        <time>2020-12-13T17:34:21Z</time>
      </trkpt>
      <trkpt lat="19.086605" lon="-98.599297">
        <ele>3488.310</ele>
        <time>2020-12-13T17:34:24Z</time>
      </trkpt>
      <trkpt lat="19.08658" lon="-98.599242">
        <ele>3487.682</ele>
        <time>2020-12-13T17:34:27Z</time>
      </trkpt>
      <trkpt lat="19.086576" lon="-98.599172">
        <ele>3486.843</ele>
        <time>2020-12-13T17:34:30Z</time>
      </trkpt>
      <trkpt lat="19.086584" lon="-98.59912">
        <ele>3485.517</ele>
        <time>2020-12-13T17:34:32Z</time>
      </trkpt>
      <trkpt lat="19.086601" lon="-98.599065">
        <ele>3483.908</ele>
        <time>2020-12-13T17:34:34Z</time>
      </trkpt>
      <trkpt lat="19.086623" lon="-98.599003">
        <ele>3483.034</ele>
        <time>2020-12-13T17:34:36Z</time>
      </trkpt>
      <trkpt lat="19.086648" lon="-98.598938">
        <ele>3481.290</ele>
        <time>2020-12-13T17:34:38Z</time>
      </trkpt>
      <trkpt lat="19.086666" lon="-98.598878">
        <ele>3480.580</ele>
        <time>2020-12-13T17:34:40Z</time>
      </trkpt>
      <trkpt lat="19.086685" lon="-98.598815">
        <ele>3481.391</ele>
        <time>2020-12-13T17:34:42Z</time>
      </trkpt>
      <trkpt lat="19.086715" lon="-98.598739">
        <ele>3481.822</ele>
        <time>2020-12-13T17:34:44Z</time>
      </trkpt>
      <trkpt lat="19.086752" lon="-98.598667">
        <ele>3483.321</ele>
        <time>2020-12-13T17:34:46Z</time>
      </trkpt>
      <trkpt lat="19.086819" lon="-98.598616">
        <ele>3484.297</ele>
        <time>2020-12-13T17:34:48Z</time>
      </trkpt>
      <trkpt lat="19.086856" lon="-98.598582">
        <ele>3484.783</ele>
        <time>2020-12-13T17:34:50Z</time>
      </trkpt>
      <trkpt lat="19.086879" lon="-98.598539">
        <ele>3485.086</ele>
        <time>2020-12-13T17:34:52Z</time>
      </trkpt>
      <trkpt lat="19.086909" lon="-98.598488">
        <ele>3483.260</ele>
        <time>2020-12-13T17:34:55Z</time>
      </trkpt>
      <trkpt lat="19.086957" lon="-98.598443">
        <ele>3482.526</ele>
        <time>2020-12-13T17:34:58Z</time>
      </trkpt>
      <trkpt lat="19.086995" lon="-98.598408">
        <ele>3481.308</ele>
        <time>2020-12-13T17:35:00Z</time>
      </trkpt>
      <trkpt lat="19.087039" lon="-98.598374">
        <ele>3479.014</ele>
        <time>2020-12-13T17:35:03Z</time>
      </trkpt>
      <trkpt lat="19.087087" lon="-98.598354">
        <ele>3476.870</ele>
        <time>2020-12-13T17:35:06Z</time>
      </trkpt>
      <trkpt lat="19.087132" lon="-98.598337">
        <ele>3475.110</ele>
        <time>2020-12-13T17:35:09Z</time>
      </trkpt>
      <trkpt lat="19.08719" lon="-98.59832">
        <ele>3472.141</ele>
        <time>2020-12-13T17:35:12Z</time>
      </trkpt>
      <trkpt lat="19.087234" lon="-98.598331">
        <ele>3469.512</ele>
        <time>2020-12-13T17:35:14Z</time>
      </trkpt>
      <trkpt lat="19.087296" lon="-98.598342">
        <ele>3467.171</ele>
        <time>2020-12-13T17:35:16Z</time>
      </trkpt>
      <trkpt lat="19.087351" lon="-98.598337">
        <ele>3464.997</ele>
        <time>2020-12-13T17:35:18Z</time>
      </trkpt>
      <trkpt lat="19.087403" lon="-98.59833">
        <ele>3463.263</ele>
        <time>2020-12-13T17:35:20Z</time>
      </trkpt>
      <trkpt lat="19.087461" lon="-98.598324">
        <ele>3461.476</ele>
        <time>2020-12-13T17:35:23Z</time>
      </trkpt>
      <trkpt lat="19.087536" lon="-98.598313">
        <ele>3458.790</ele>
        <time>2020-12-13T17:35:26Z</time>
      </trkpt>
      <trkpt lat="19.087606" lon="-98.598306">
        <ele>3456.319</ele>
        <time>2020-12-13T17:35:28Z</time>
      </trkpt>
      <trkpt lat="19.087677" lon="-98.598307">
        <ele>3455.208</ele>
        <time>2020-12-13T17:35:30Z</time>
      </trkpt>
      <trkpt lat="19.087755" lon="-98.598314">
        <ele>3455.013</ele>
        <time>2020-12-13T17:35:32Z</time>
      </trkpt>
      <trkpt lat="19.087827" lon="-98.598324">
        <ele>3454.999</ele>
        <time>2020-12-13T17:35:34Z</time>
      </trkpt>
      <trkpt lat="19.087898" lon="-98.598332">
        <ele>3457.299</ele>
        <time>2020-12-13T17:35:36Z</time>
      </trkpt>
      <trkpt lat="19.087955" lon="-98.598347">
        <ele>3459.070</ele>
        <time>2020-12-13T17:35:38Z</time>
      </trkpt>
      <trkpt lat="19.088001" lon="-98.598369">
        <ele>3460.541</ele>
        <time>2020-12-13T17:35:40Z</time>
      </trkpt>
      <trkpt lat="19.088057" lon="-98.598401">
        <ele>3461.430</ele>
        <time>2020-12-13T17:35:43Z</time>
      </trkpt>
      <trkpt lat="19.088098" lon="-98.598424">
        <ele>3463.156</ele>
        <time>2020-12-13T17:35:45Z</time>
      </trkpt>
      <trkpt lat="19.088146" lon="-98.598443">
        <ele>3464.592</ele>
        <time>2020-12-13T17:35:47Z</time>
      </trkpt>
      <trkpt lat="19.088191" lon="-98.598451">
        <ele>3465.889</ele>
        <time>2020-12-13T17:35:49Z</time>
      </trkpt>
      <trkpt lat="19.088255" lon="-98.598457">
        <ele>3466.206</ele>
        <time>2020-12-13T17:35:52Z</time>
      </trkpt>
      <trkpt lat="19.088313" lon="-98.598474">
        <ele>3466.826</ele>
        <time>2020-12-13T17:35:55Z</time>
      </trkpt>
      <trkpt lat="19.088356" lon="-98.598501">
        <ele>3465.608</ele>
        <time>2020-12-13T17:35:58Z</time>
      </trkpt>
      <trkpt lat="19.08839" lon="-98.59855">
        <ele>3464.544</ele>
        <time>2020-12-13T17:36:01Z</time>
      </trkpt>
      <trkpt lat="19.088414" lon="-98.598593">
        <ele>3463.060</ele>
        <time>2020-12-13T17:36:04Z</time>
      </trkpt>
      <trkpt lat="19.088443" lon="-98.598642">
        <ele>3461.710</ele>
        <time>2020-12-13T17:36:07Z</time>
      </trkpt>
      <trkpt lat="19.088471" lon="-98.598692">
        <ele>3460.921</ele>
        <time>2020-12-13T17:36:10Z</time>
      </trkpt>
      <trkpt lat="19.088499" lon="-98.598752">
        <ele>3459.272</ele>
        <time>2020-12-13T17:36:13Z</time>
      </trkpt>
      <trkpt lat="19.088518" lon="-98.598796">
        <ele>3458.251</ele>
        <time>2020-12-13T17:36:15Z</time>
      </trkpt>
      <trkpt lat="19.088548" lon="-98.59884">
        <ele>3457.227</ele>
        <time>2020-12-13T17:36:17Z</time>
      </trkpt>
      <trkpt lat="19.088571" lon="-98.598883">
        <ele>3455.833</ele>
        <time>2020-12-13T17:36:19Z</time>
      </trkpt>
      <trkpt lat="19.088597" lon="-98.598928">
        <ele>3455.035</ele>
        <time>2020-12-13T17:36:22Z</time>
      </trkpt>
      <trkpt lat="19.088628" lon="-98.598962">
        <ele>3454.186</ele>
        <time>2020-12-13T17:36:25Z</time>
      </trkpt>
      <trkpt lat="19.088669" lon="-98.598998">
        <ele>3454.014</ele>
        <time>2020-12-13T17:36:28Z</time>
      </trkpt>
      <trkpt lat="19.088698" lon="-98.599037">
        <ele>3453.508</ele>
        <time>2020-12-13T17:36:32Z</time>
      </trkpt>
      <trkpt lat="19.088739" lon="-98.599078">
        <ele>3452.819</ele>
        <time>2020-12-13T17:36:37Z</time>
      </trkpt>
      <trkpt lat="19.088753" lon="-98.599131">
        <ele>3452.475</ele>
        <time>2020-12-13T17:36:40Z</time>
      </trkpt>
      <trkpt lat="19.088747" lon="-98.59919">
        <ele>3452.265</ele>
        <time>2020-12-13T17:36:44Z</time>
      </trkpt>
      <trkpt lat="19.088724" lon="-98.599233">
        <ele>3452.526</ele>
        <time>2020-12-13T17:36:48Z</time>
      </trkpt>
      <trkpt lat="19.088756" lon="-98.599279">
        <ele>3451.957</ele>
        <time>2020-12-13T17:36:53Z</time>
      </trkpt>
      <trkpt lat="19.088806" lon="-98.599301">
        <ele>3452.326</ele>
        <time>2020-12-13T17:36:56Z</time>
      </trkpt>
      <trkpt lat="19.088857" lon="-98.599341">
        <ele>3453.742</ele>
        <time>2020-12-13T17:36:59Z</time>
      </trkpt>
      <trkpt lat="19.088894" lon="-98.599376">
        <ele>3455.048</ele>
        <time>2020-12-13T17:37:01Z</time>
      </trkpt>
      <trkpt lat="19.088947" lon="-98.599403">
        <ele>3455.444</ele>
        <time>2020-12-13T17:37:04Z</time>
      </trkpt>
      <trkpt lat="19.088991" lon="-98.599419">
        <ele>3456.005</ele>
        <time>2020-12-13T17:37:06Z</time>
      </trkpt>
      <trkpt lat="19.089042" lon="-98.599444">
        <ele>3457.215</ele>
        <time>2020-12-13T17:37:08Z</time>
      </trkpt>
      <trkpt lat="19.089073" lon="-98.599484">
        <ele>3457.508</ele>
        <time>2020-12-13T17:37:10Z</time>
      </trkpt>
      <trkpt lat="19.089097" lon="-98.599536">
        <ele>3458.120</ele>
        <time>2020-12-13T17:37:13Z</time>
      </trkpt>
      <trkpt lat="19.0891" lon="-98.59959">
        <ele>3457.676</ele>
        <time>2020-12-13T17:37:16Z</time>
      </trkpt>
      <trkpt lat="19.089125" lon="-98.599641">
        <ele>3456.516</ele>
        <time>2020-12-13T17:37:20Z</time>
      </trkpt>
      <trkpt lat="19.089159" lon="-98.599674">
        <ele>3457.587</ele>
        <time>2020-12-13T17:37:23Z</time>
      </trkpt>
      <trkpt lat="19.089179" lon="-98.599722">
        <ele>3457.328</ele>
        <time>2020-12-13T17:37:26Z</time>
      </trkpt>
      <trkpt lat="19.089199" lon="-98.599785">
        <ele>3456.887</ele>
        <time>2020-12-13T17:37:29Z</time>
      </trkpt>
      <trkpt lat="19.089198" lon="-98.599843">
        <ele>3457.763</ele>
        <time>2020-12-13T17:37:32Z</time>
      </trkpt>
      <trkpt lat="19.089177" lon="-98.599899">
        <ele>3459.069</ele>
        <time>2020-12-13T17:37:35Z</time>
      </trkpt>
      <trkpt lat="19.089155" lon="-98.599952">
        <ele>3459.018</ele>
        <time>2020-12-13T17:37:40Z</time>
      </trkpt>
      <trkpt lat="19.089147" lon="-98.600001">
        <ele>3457.098</ele>
        <time>2020-12-13T17:37:43Z</time>
      </trkpt>
      <trkpt lat="19.089127" lon="-98.600051">
        <ele>3454.217</ele>
        <time>2020-12-13T17:37:48Z</time>
      </trkpt>
      <trkpt lat="19.089122" lon="-98.6001">
        <ele>3451.708</ele>
        <time>2020-12-13T17:37:52Z</time>
      </trkpt>
      <trkpt lat="19.089111" lon="-98.600156">
        <ele>3452.287</ele>
        <time>2020-12-13T17:37:55Z</time>
      </trkpt>
      <trkpt lat="19.089104" lon="-98.600216">
        <ele>3454.163</ele>
        <time>2020-12-13T17:37:58Z</time>
      </trkpt>
      <trkpt lat="19.089106" lon="-98.600272">
        <ele>3455.663</ele>
        <time>2020-12-13T17:38:01Z</time>
      </trkpt>
      <trkpt lat="19.089107" lon="-98.600325">
        <ele>3456.554</ele>
        <time>2020-12-13T17:38:04Z</time>
      </trkpt>
      <trkpt lat="19.089108" lon="-98.600385">
        <ele>3456.315</ele>
        <time>2020-12-13T17:38:07Z</time>
      </trkpt>
      <trkpt lat="19.089109" lon="-98.600447">
        <ele>3457.484</ele>
        <time>2020-12-13T17:38:10Z</time>
      </trkpt>
      <trkpt lat="19.089109" lon="-98.600502">
        <ele>3458.010</ele>
        <time>2020-12-13T17:38:13Z</time>
      </trkpt>
      <trkpt lat="19.089122" lon="-98.600558">
        <ele>3458.876</ele>
        <time>2020-12-13T17:38:17Z</time>
      </trkpt>
      <trkpt lat="19.089125" lon="-98.60062">
        <ele>3458.586</ele>
        <time>2020-12-13T17:38:21Z</time>
      </trkpt>
      <trkpt lat="19.089056" lon="-98.602778">
        <ele>3479.360</ele>
        <time>2020-12-13T17:39:48Z</time>
      </trkpt>
      <trkpt lat="19.089105" lon="-98.60276">
        <ele>3460.326</ele>
        <time>2020-12-13T17:39:50Z</time>
      </trkpt>
      <trkpt lat="19.089119" lon="-98.602816">
        <ele>3462.308</ele>
        <time>2020-12-13T17:39:53Z</time>
      </trkpt>
      <trkpt lat="19.089091" lon="-98.602872">
        <ele>3466.354</ele>
        <time>2020-12-13T17:39:55Z</time>
      </trkpt>
      <trkpt lat="19.089065" lon="-98.602931">
        <ele>3465.130</ele>
        <time>2020-12-13T17:39:57Z</time>
      </trkpt>
      <trkpt lat="19.089048" lon="-98.602978">
        <ele>3464.030</ele>
        <time>2020-12-13T17:39:59Z</time>
      </trkpt>
      <trkpt lat="19.089013" lon="-98.603034">
        <ele>3463.381</ele>
        <time>2020-12-13T17:40:02Z</time>
      </trkpt>
      <trkpt lat="19.088977" lon="-98.603066">
        <ele>3461.362</ele>
        <time>2020-12-13T17:40:05Z</time>
      </trkpt>
      <trkpt lat="19.088956" lon="-98.603116">
        <ele>3458.521</ele>
        <time>2020-12-13T17:40:08Z</time>
      </trkpt>
      <trkpt lat="19.088953" lon="-98.603167">
        <ele>3456.877</ele>
        <time>2020-12-13T17:40:11Z</time>
      </trkpt>
      <trkpt lat="19.088952" lon="-98.603223">
        <ele>3455.863</ele>
        <time>2020-12-13T17:40:14Z</time>
      </trkpt>
      <trkpt lat="19.088948" lon="-98.603285">
        <ele>3454.891</ele>
        <time>2020-12-13T17:40:17Z</time>
      </trkpt>
      <trkpt lat="19.088954" lon="-98.603346">
        <ele>3454.281</ele>
        <time>2020-12-13T17:40:21Z</time>
      </trkpt>
      <trkpt lat="19.088965" lon="-98.603395">
        <ele>3453.819</ele>
        <time>2020-12-13T17:40:25Z</time>
      </trkpt>
      <trkpt lat="19.088986" lon="-98.603445">
        <ele>3452.808</ele>
        <time>2020-12-13T17:40:30Z</time>
      </trkpt>
      <trkpt lat="19.089001" lon="-98.603496">
        <ele>3453.015</ele>
        <time>2020-12-13T17:40:33Z</time>
      </trkpt>
      <trkpt lat="19.089039" lon="-98.60355">
        <ele>3454.361</ele>
        <time>2020-12-13T17:40:36Z</time>
      </trkpt>
      <trkpt lat="19.089082" lon="-98.60359">
        <ele>3455.581</ele>
        <time>2020-12-13T17:40:39Z</time>
      </trkpt>
      <trkpt lat="19.08911" lon="-98.603628">
        <ele>3457.032</ele>
        <time>2020-12-13T17:40:42Z</time>
      </trkpt>
      <trkpt lat="19.08913" lon="-98.603676">
        <ele>3459.563</ele>
        <time>2020-12-13T17:40:45Z</time>
      </trkpt>
      <trkpt lat="19.089141" lon="-98.603722">
        <ele>3460.622</ele>
        <time>2020-12-13T17:40:48Z</time>
      </trkpt>
      <trkpt lat="19.089149" lon="-98.603779">
        <ele>3461.368</ele>
        <time>2020-12-13T17:40:52Z</time>
      </trkpt>
      <trkpt lat="19.089148" lon="-98.603837">
        <ele>3460.134</ele>
        <time>2020-12-13T17:40:57Z</time>
      </trkpt>
      <trkpt lat="19.089136" lon="-98.603885">
        <ele>3459.891</ele>
        <time>2020-12-13T17:41:01Z</time>
      </trkpt>
      <trkpt lat="19.08912" lon="-98.603933">
        <ele>3460.481</ele>
        <time>2020-12-13T17:41:04Z</time>
      </trkpt>
      <trkpt lat="19.089108" lon="-98.603991">
        <ele>3460.019</ele>
        <time>2020-12-13T17:41:08Z</time>
      </trkpt>
      <trkpt lat="19.089098" lon="-98.604051">
        <ele>3458.908</ele>
        <time>2020-12-13T17:41:12Z</time>
      </trkpt>
      <trkpt lat="19.089078" lon="-98.604107">
        <ele>3457.585</ele>
        <time>2020-12-13T17:41:16Z</time>
      </trkpt>
      <trkpt lat="19.089062" lon="-98.604156">
        <ele>3456.641</ele>
        <time>2020-12-13T17:41:19Z</time>
      </trkpt>
      <trkpt lat="19.089043" lon="-98.604213">
        <ele>3455.781</ele>
        <time>2020-12-13T17:41:23Z</time>
      </trkpt>
      <trkpt lat="19.089056" lon="-98.604265">
        <ele>3455.962</ele>
        <time>2020-12-13T17:41:26Z</time>
      </trkpt>
      <trkpt lat="19.089051" lon="-98.604318">
        <ele>3457.223</ele>
        <time>2020-12-13T17:41:29Z</time>
      </trkpt>
      <trkpt lat="19.089033" lon="-98.604382">
        <ele>3458.072</ele>
        <time>2020-12-13T17:41:32Z</time>
      </trkpt>
      <trkpt lat="19.089023" lon="-98.604442">
        <ele>3458.128</ele>
        <time>2020-12-13T17:41:35Z</time>
      </trkpt>
      <trkpt lat="19.089" lon="-98.604494">
        <ele>3458.674</ele>
        <time>2020-12-13T17:41:38Z</time>
      </trkpt>
      <trkpt lat="19.088986" lon="-98.604542">
        <ele>3460.178</ele>
        <time>2020-12-13T17:41:41Z</time>
      </trkpt>
      <trkpt lat="19.088983" lon="-98.604592">
        <ele>3461.433</ele>
        <time>2020-12-13T17:41:44Z</time>
      </trkpt>
      <trkpt lat="19.088986" lon="-98.60465">
        <ele>3461.826</ele>
        <time>2020-12-13T17:41:49Z</time>
      </trkpt>
      <trkpt lat="19.089003" lon="-98.604708">
        <ele>3462.808</ele>
        <time>2020-12-13T17:41:53Z</time>
      </trkpt>
      <trkpt lat="19.089053" lon="-98.604753">
        <ele>3463.033</ele>
        <time>2020-12-13T17:41:56Z</time>
      </trkpt>
      <trkpt lat="19.089102" lon="-98.604795">
        <ele>3463.949</ele>
        <time>2020-12-13T17:41:59Z</time>
      </trkpt>
      <trkpt lat="19.089149" lon="-98.604836">
        <ele>3464.949</ele>
        <time>2020-12-13T17:42:02Z</time>
      </trkpt>
      <trkpt lat="19.089182" lon="-98.604871">
        <ele>3464.780</ele>
        <time>2020-12-13T17:42:05Z</time>
      </trkpt>
      <trkpt lat="19.089226" lon="-98.604903">
        <ele>3464.291</ele>
        <time>2020-12-13T17:42:10Z</time>
      </trkpt>
      <trkpt lat="19.089264" lon="-98.604932">
        <ele>3463.930</ele>
        <time>2020-12-13T17:42:16Z</time>
      </trkpt>
      <trkpt lat="19.089314" lon="-98.60494">
        <ele>3463.746</ele>
        <time>2020-12-13T17:42:21Z</time>
      </trkpt>
      <trkpt lat="19.089331" lon="-98.604887">
        <ele>3462.092</ele>
        <time>2020-12-13T17:42:33Z</time>
      </trkpt>
      <trkpt lat="19.089333" lon="-98.604833">
        <ele>3462.293</ele>
        <time>2020-12-13T17:42:52Z</time>
      </trkpt>
      <trkpt lat="19.089388" lon="-98.604834">
        <ele>3461.165</ele>
        <time>2020-12-13T17:43:54Z</time>
      </trkpt>
      <trkpt lat="19.08944" lon="-98.604841">
        <ele>3460.821</ele>
        <time>2020-12-13T17:43:57Z</time>
      </trkpt>
      <trkpt lat="19.089488" lon="-98.604835">
        <ele>3460.208</ele>
        <time>2020-12-13T17:44:00Z</time>
      </trkpt>
      <trkpt lat="19.089546" lon="-98.604847">
        <ele>3460.315</ele>
        <time>2020-12-13T17:44:03Z</time>
      </trkpt>
      <trkpt lat="19.089595" lon="-98.604869">
        <ele>3460.791</ele>
        <time>2020-12-13T17:44:05Z</time>
      </trkpt>
      <trkpt lat="19.089656" lon="-98.604876">
        <ele>3461.451</ele>
        <time>2020-12-13T17:44:08Z</time>
      </trkpt>
      <trkpt lat="19.089712" lon="-98.604876">
        <ele>3461.022</ele>
        <time>2020-12-13T17:44:12Z</time>
      </trkpt>
      <trkpt lat="19.089761" lon="-98.604865">
        <ele>3460.833</ele>
        <time>2020-12-13T17:44:16Z</time>
      </trkpt>
      <trkpt lat="19.089812" lon="-98.604855">
        <ele>3460.352</ele>
        <time>2020-12-13T17:44:20Z</time>
      </trkpt>
      <trkpt lat="19.089858" lon="-98.604859">
        <ele>3460.098</ele>
        <time>2020-12-13T17:44:24Z</time>
      </trkpt>
      <trkpt lat="19.0899" lon="-98.604881">
        <ele>3460.694</ele>
        <time>2020-12-13T17:44:28Z</time>
      </trkpt>
      <trkpt lat="19.089949" lon="-98.604912">
        <ele>3461.484</ele>
        <time>2020-12-13T17:44:32Z</time>
      </trkpt>
      <trkpt lat="19.089982" lon="-98.604951">
        <ele>3461.907</ele>
        <time>2020-12-13T17:44:35Z</time>
      </trkpt>
      <trkpt lat="19.089988" lon="-98.605006">
        <ele>3462.217</ele>
        <time>2020-12-13T17:44:38Z</time>
      </trkpt>
      <trkpt lat="19.089994" lon="-98.605056">
        <ele>3462.008</ele>
        <time>2020-12-13T17:44:40Z</time>
      </trkpt>
      <trkpt lat="19.090003" lon="-98.605112">
        <ele>3461.564</ele>
        <time>2020-12-13T17:44:42Z</time>
      </trkpt>
      <trkpt lat="19.090002" lon="-98.605167">
        <ele>3461.270</ele>
        <time>2020-12-13T17:44:44Z</time>
      </trkpt>
      <trkpt lat="19.089986" lon="-98.605227">
        <ele>3461.470</ele>
        <time>2020-12-13T17:44:47Z</time>
      </trkpt>
      <trkpt lat="19.08996" lon="-98.605267">
        <ele>3463.161</ele>
        <time>2020-12-13T17:44:54Z</time>
      </trkpt>
      <trkpt lat="19.08996" lon="-98.605321">
        <ele>3463.712</ele>
        <time>2020-12-13T17:45:00Z</time>
      </trkpt>
      <trkpt lat="19.08995" lon="-98.605372">
        <ele>3464.571</ele>
        <time>2020-12-13T17:45:05Z</time>
      </trkpt>
      <trkpt lat="19.089946" lon="-98.605421">
        <ele>3465.857</ele>
        <time>2020-12-13T17:45:11Z</time>
      </trkpt>
    </trkseg>
  </trk>
</gpx>
